# Wetter Temperatur Luftdruck Luftfeuchtigkeit Sichtweite Windgeschwindigkeit Windrichtung Zeit
1 Clear -3 1026 57 10000 3.6 310 15:55 01.02.2023
2 Clear -2 1025 49 10000 3.09 320 13:42 01.02.2023
3 Clear 1 1024 41 10000 4.3 311 13:19 01.02.2023
4 Clear -1 1024 51 10000 5.14 300 12:26 01.02.2023
5 Clear 2 1021 38 10000 6.69 310 09:42 01.02.2023
6 Haze 4 1019 52 9000 6.17 320 03:45 01.02.2023
7 Fog -1 1016 97 300 2.57 310 22:19 31.01.2023
8 Clear 2 1015 93 10000 1.3 256 20:22 31.01.2023
9 Fog 3 1015 91 400 2.06 300 18:59 31.01.2023
10 Clouds 6 1015 82 7000 4.12 270 16:34 31.01.2023
11 Clouds 6 1015 82 10000 5.14 250 15:36 31.01.2023
12 Clouds 6 1015 87 10000 5.14 250 15:18 31.01.2023
13 Clouds 6 1015 70 10000 4.12 240 12:33 31.01.2023
14 Clouds 5 1015 75 10000 3.6 190 11:21 31.01.2023
15 Clouds 7 1015 59 10000 5.66 210 09:54 31.01.2023
16 Clouds 8 1015 54 10000 6.69 210 08:59 31.01.2023
17 Clouds 8 1015 54 10000 6.69 210 08:35 31.01.2023
18 Clouds 5 1017 42 10000 4.12 130 05:46 31.01.2023
19 Clear -7 1020 79 10000 2.57 220 23:58 30.01.2023
20 Clouds -6 1020 80 10000 2.06 170 22:54 30.01.2023
21 Clouds -6 1020 80 10000 2.06 170 22:31 30.01.2023
22 Clouds -6 1021 76 10000 2.57 150 21:23 30.01.2023
23 Clear -6 1021 76 10000 2.57 140 20:34 30.01.2023
24 Clear -5 1022 77 10000 3.6 120 17:54 30.01.2023
25 Clear -5 1022 71 10000 4.12 130 16:34 30.01.2023
26 Clear -5 1023 68 10000 2.06 140 14:27 30.01.2023
27 Clear -3 1023 57 10000 1.03 160 12:44 30.01.2023
28 Clear -1 1023 46 10000 2.06 260 11:27 30.01.2023
29 Clear 3 1023 30 10000 4.12 260 09:54 30.01.2023
30 Clear 3 1023 28 10000 4.63 270 08:56 30.01.2023
31 Clear 3 1023 25 10000 5.66 270 06:55 30.01.2023
32 Clear -3 1025 64 10000 1.03 270 01:42 30.01.2023
33 Clear -8 1024 77 10000 1.54 320 23:35 29.01.2023
34 Clear -7 1023 80 10000 0.51 300 22:37 29.01.2023
35 Clear -6 1022 75 10000 1.54 360 21:41 29.01.2023
36 Clear -6 1022 70 10000 2.06 280 20:41 29.01.2023
37 Clear -4 1022 64 10000 1.03 30 19:48 29.01.2023
38 Clear -4 1022 64 10000 1.03 30 19:27 29.01.2023
39 Clear -3 1021 61 10000 2.06 280 17:35 29.01.2023
40 Clear -3 1021 63 10000 3.6 320 16:21 29.01.2023
41 Clear 0 1019 44 10000 6.17 310 14:48 29.01.2023
42 Clear 1 1018 55 10000 4.12 290 13:30 29.01.2023
43 Clouds 1 1017 65 10000 3.09 270 12:42 29.01.2023
44 Clouds 0 1017 69 10000 3.09 270 12:22 29.01.2023
45 Clouds 2 1016 63 10000 5.14 260 11:48 29.01.2023
46 Clouds 2 1016 63 10000 5.14 260 11:26 29.01.2023
47 Snow 4 1015 52 10000 6.69 270 09:37 29.01.2023
48 Clouds 4 1015 52 10000 5.66 190 07:19 29.01.2023
49 Clouds -9 1021 67 10000 3.09 180 00:59 29.01.2023
50 Clouds -10 1021 73 10000 2.57 130 21:57 28.01.2023
51 Clear -10 1021 70 10000 1.03 110 20:34 28.01.2023
52 Clear -10 1022 68 10000 1.54 190 19:47 28.01.2023
53 Clear -10 1022 79 10000 1.03 150 18:23 28.01.2023
54 Clear -8 1022 59 10000 2.06 350 16:59 28.01.2023
55 Clear -8 1022 73 10000 1.03 330 16:20 28.01.2023
56 Clear -6 1022 53 10000 3.09 330 15:38 28.01.2023
57 Clear -6 1022 53 10000 3.09 330 15:38 28.01.2023
58 Clear -6 1022 68 10000 1.54 300 14:21 28.01.2023
59 Clear -4 1022 64 10000 1.54 300 12:49 28.01.2023
60 Clouds -3 1021 57 10000 3.09 310 11:27 28.01.2023
61 Clear -3 1021 53 10000 3.6 270 10:33 28.01.2023
62 Clear -1 1020 36 10000 4.12 250 06:35 28.01.2023
63 Clear -9 1024 55 10000 1.54 180 01:35 28.01.2023
64 Clear -12 1023 61 10000 2.06 80 00:23 28.01.2023
65 Clear -10 1024 47 10000 2.06 270 20:57 27.01.2023
66 Clear -9 1024 51 10000 2.57 290 17:59 27.01.2023
67 Clear -9 1024 51 10000 2.57 290 17:39 27.01.2023
68 Clear -9 1024 50 10000 3.8 310 17:18 27.01.2023
69 Clear -9 1024 52 10000 3.6 330 16:34 27.01.2023
70 Clear -9 1025 47 10000 3.6 330 14:53 27.01.2023
71 Clear -9 1025 53 10000 2.06 300 14:24 27.01.2023
72 Clear -8 1025 43 10000 7.2 310 12:48 27.01.2023
73 Clear -4 1022 32 10000 8.75 300 08:39 27.01.2023
74 Clear -7 1025 44 10000 7.72 310 03:56 27.01.2023
75 Clear -11 1022 82 9000 2.06 310 22:52 26.01.2023
76 Clouds -11 1022 92 9000 2.06 310 21:22 26.01.2023
77 Clouds -11 1022 92 9000 2.06 310 21:22 26.01.2023
78 Clear -10 1022 79 9000 1.03 350 20:35 26.01.2023
79 Clear -9 1023 79 10000 0.51 190 18:23 26.01.2023
80 Clear -8 1023 71 10000 0.51 350 17:42 26.01.2023
81 Clear -7 1024 71 10000 2.06 300 16:27 26.01.2023
82 Clear -6 1023 77 10000 1.54 330 15:50 26.01.2023
83 Clear -6 1023 79 10000 1.03 290 15:30 26.01.2023
84 Clouds -5 1024 86 9000 2.57 290 13:58 26.01.2023
85 Clouds -5 1024 83 8000 2.57 290 12:44 26.01.2023
86 Clouds -4 1023 80 8000 1.54 310 11:26 26.01.2023
87 Mist -4 1023 77 8000 1.54 290 10:28 26.01.2023
88 Mist -4 1023 77 8000 1.54 340 09:44 26.01.2023
89 Clouds -3 1023 74 8000 2.06 10 08:25 26.01.2023
90 Snow -9 1025 78 3000 3.09 130 23:58 25.01.2023
91 Snow -9 1025 78 3000 3.09 130 23:37 25.01.2023
92 Mist -9 1024 80 2000 3.09 110 21:56 25.01.2023
93 Mist -9 1024 80 2000 3.09 110 21:20 25.01.2023
94 Snow -9 1026 55 10000 2.57 90 18:41 25.01.2023
95 Snow -9 1026 55 10000 2.57 90 18:21 25.01.2023
96 Clear -9 1026 51 10000 2.06 190 15:44 25.01.2023
97 Clear -10 1027 45 10000 1.54 150 12:58 25.01.2023
98 Clear -8 1028 38 10000 1.03 230 11:20 25.01.2023
99 Clear -7 1028 27 10000 1.54 330 09:45 25.01.2023
100 Clear -7 1030 19 10000 1.54 90 07:43 25.01.2023
101 Clear -15 1033 47 10000 2.57 20 01:32 25.01.2023
102 Clear -17 1033 51 10000 2.06 10 00:23 25.01.2023
103 Clear -17 1034 54 10000 3.09 340 21:33 24.01.2023
104 Clear -16 1034 51 10000 2.57 280 20:19 24.01.2023
105 Clear -16 1034 49 10000 5.14 310 18:43 24.01.2023
106 Clear -16 1034 49 10000 5.14 320 17:30 24.01.2023
107 Clear -16 1034 51 10000 4.12 320 16:53 24.01.2023
108 Clouds -16 1034 53 10000 6.17 330 15:50 24.01.2023
109 Clouds -16 1033 55 10000 7.72 330 13:22 24.01.2023
110 Clouds -15 1032 51 10000 6.17 300 11:21 24.01.2023
111 Clear -12 1029 36 10000 9.26 310 08:23 24.01.2023
112 Clear -12 1028 37 10000 7.72 320 07:54 24.01.2023
113 Clear -12 1028 37 10000 7.72 320 07:25 24.01.2023
114 Clear -15 1030 36 10000 8.75 330 02:23 24.01.2023
115 Clear -14 1029 34 10000 7.47 311 00:25 24.01.2023
116 Clouds -15 1028 54 10000 6.69 290 22:27 23.01.2023
117 Clouds -11 1028 57 10000 6.17 310 19:55 23.01.2023
118 Clouds -10 1027 60 10000 7.72 310 18:37 23.01.2023
119 Clear -7 1027 53 10000 6.17 300 16:21 23.01.2023
120 Clear -5 1025 58 10000 6.17 310 14:50 23.01.2023
121 Clouds -4 1025 64 6000 7.2 320 13:44 23.01.2023
122 Clear -2 1024 56 10000 7.72 320 12:55 23.01.2023
123 Clear -1 1024 59 10000 5.66 310 11:45 23.01.2023
124 Clouds 2 1022 51 10000 7.2 330 08:59 23.01.2023
125 Clouds 2 1022 51 10000 7.2 330 08:22 23.01.2023
126 Clouds -4 1024 84 8000 1.03 330 23:37 22.01.2023
127 Mist -3 1023 90 5000 1.54 320 21:49 22.01.2023
128 Clouds -4 1024 87 6000 1.03 170 20:58 22.01.2023
129 Clouds -3 1025 84 9000 1.03 180 19:53 22.01.2023
130 Clouds -4 1025 93 9000 0.51 220 19:20 22.01.2023
131 Clouds -2 1025 93 9000 0.51 200 18:22 22.01.2023
132 Snow -3 1025 87 10000 1.03 300 17:44 22.01.2023
133 Clouds -2 1025 93 10000 1.03 300 17:21 22.01.2023
134 Clear -1 1024 69 10000 1.54 350 14:56 22.01.2023
135 Clouds 0 1024 62 10000 1.54 110 13:50 22.01.2023
136 Clouds 1 1025 53 10000 0.51 300 12:54 22.01.2023
137 Clouds 1 1024 53 10000 3.09 110 11:56 22.01.2023
138 Clouds 2 1024 49 10000 3.09 110 09:55 22.01.2023
139 Clouds 3 1024 47 10000 2.57 80 08:44 22.01.2023
140 Snow -1 1028 45 10000 3.09 70 02:54 22.01.2023
141 Snow -2 1027 48 10000 3.09 100 23:42 21.01.2023
142 Clear -3 1028 54 10000 3.6 120 22:47 21.01.2023
143 Clear -3 1029 56 10000 3.09 120 20:48 21.01.2023
144 Clear -3 1028 52 10000 2.06 80 18:49 21.01.2023
145 Clear -4 1029 68 10000 1.03 100 15:19 21.01.2023
146 Clear -4 1029 66 10000 2.06 30 13:30 21.01.2023
147 Clear -4 1030 66 10000 1.54 190 12:42 21.01.2023
148 Clear -3 1029 57 10000 1.54 140 11:28 21.01.2023
149 Clear -2 1030 49 10000 1.03 30 10:46 21.01.2023
150 Clouds -1 1031 28 10000 1.03 70 05:40 21.01.2023
151 Clear -11 1031 70 10000 1.54 360 22:50 20.01.2023
152 Clear -11 1031 70 10000 1.54 360 22:26 20.01.2023
153 Clear -10 1031 64 10000 0.51 30 21:35 20.01.2023
154 Clear -10 1032 58 10000 2.57 340 20:39 20.01.2023
155 Clear -9 1032 59 10000 1.54 270 17:59 20.01.2023
156 Clear -8 1032 55 10000 2.57 310 15:27 20.01.2023
157 Clear -8 1031 58 10000 3.09 320 14:33 20.01.2023
158 Clear -5 1030 34 10000 2.06 310 11:59 20.01.2023
159 Clear -2 1029 28 10000 4.63 290 08:59 20.01.2023
160 Clear -2 1029 32 10000 6.17 320 07:41 20.01.2023
161 Clouds -3 1029 38 10000 8.23 310 02:33 20.01.2023
162 Clouds 0 1023 65 8000 7.2 290 22:37 19.01.2023
163 Mist 1 1022 62 8000 6.17 270 21:47 19.01.2023
164 Mist 2 1021 73 7000 4.63 270 19:38 19.01.2023
165 Mist 3 1020 73 7000 5.14 270 18:57 19.01.2023
166 Clouds 2 1020 70 10000 6.17 210 14:55 19.01.2023
167 Clouds 3 1021 54 10000 4.12 160 10:44 19.01.2023
168 Clouds 4 1021 45 10000 3.6 200 08:58 19.01.2023
169 Clear -7 1025 83 10000 2.06 200 22:41 18.01.2023
170 Clear -7 1026 81 10000 0.51 330 20:36 18.01.2023
171 Clear -7 1026 32 10000 0.2 241 20:18 18.01.2023
172 Clear -7 1027 80 10000 1.03 360 19:35 18.01.2023
173 Clear -6 1026 75 10000 1.03 340 16:47 18.01.2023
174 Clear -5 1026 80 10000 1.54 360 14:21 18.01.2023
175 Clear -3 1026 44 10000 2.57 280 12:43 18.01.2023
176 Clear -1 1026 36 10000 2.57 280 10:28 18.01.2023
177 Clear 1 1026 37 10000 4.12 300 06:47 18.01.2023
178 Clouds -4 1028 86 7000 2.06 330 01:25 18.01.2023
179 Clouds -4 1028 86 7000 2.06 330 01:25 18.01.2023
180 Clouds -5 1027 86 7000 2.06 320 22:21 17.01.2023
181 Clouds -4 1027 87 9000 0.51 80 19:44 17.01.2023
182 Clouds -4 1027 87 8000 3.09 330 18:59 17.01.2023
183 Clouds -4 1027 90 9000 2.57 340 17:41 17.01.2023
184 Clouds -3 1026 80 10000 1.54 340 15:28 17.01.2023
185 Clouds -3 1026 75 10000 1.54 230 14:49 17.01.2023
186 Clouds -1 1026 87 10000 0.35 127 13:33 17.01.2023
187 Snow -1 1026 60 10000 1.54 30 11:47 17.01.2023
188 Snow -1 1026 55 10000 1.03 340 10:33 17.01.2023
189 Clouds -1 1025 51 10000 1.54 20 08:55 17.01.2023
190 Clouds -1 1026 49 10000 1.54 320 07:33 17.01.2023
191 Clear -4 1028 50 10000 1.03 240 03:47 17.01.2023
192 Clear -7 1028 68 10000 1.03 330 00:48 17.01.2023
193 Clear -6 1028 66 10000 1.54 40 22:38 16.01.2023
194 Clear -7 1028 71 10000 1.03 10 21:39 16.01.2023
195 Clear -7 1028 79 10000 1.54 300 19:50 16.01.2023
196 Clear -7 1028 76 10000 2.06 320 18:57 16.01.2023
197 Clear -7 1028 76 10000 2.06 320 18:29 16.01.2023
198 Clear -7 1028 73 10000 2.57 290 17:59 16.01.2023
199 Clear -7 1028 73 10000 2.57 290 17:20 16.01.2023
200 Clear -5 1027 57 10000 1.54 280 13:47 16.01.2023
201 Clear -5 1027 57 10000 1.54 280 13:29 16.01.2023
202 Clear -4 1026 50 10000 2.57 350 10:22 16.01.2023
203 Clear -2 1026 36 10000 4.63 340 07:36 16.01.2023
204 Clouds -5 1024 73 10000 5.66 300 22:43 15.01.2023
205 Clouds -4 1023 77 10000 5.66 310 20:50 15.01.2023
206 Clouds -4 1023 77 10000 5.66 310 20:25 15.01.2023
207 Clouds -4 1022 80 10000 5.66 300 18:56 15.01.2023
208 Clouds -3 1022 83 10000 4.63 300 16:48 15.01.2023
209 Clouds -2 1021 83 10000 4.12 320 13:30 15.01.2023
210 Mist -2 1020 86 10000 2.57 260 11:56 15.01.2023
211 Mist -2 1020 86 10000 2.57 260 11:28 15.01.2023
212 Clouds -2 1019 86 10000 4.63 310 10:21 15.01.2023
213 Clouds 0 1017 90 7000 3.09 330 06:59 15.01.2023
214 Rain 2 1017 93 3000 3.6 300 23:28 14.01.2023
215 Rain 2 1017 97 3000 3.6 310 22:42 14.01.2023
216 Mist 2 1017 97 4000 4.12 310 21:36 14.01.2023
217 Rain 1 1017 100 4000 4.12 310 21:18 14.01.2023
218 Mist 2 1017 97 3000 4.12 310 20:40 14.01.2023
219 Rain 2 1017 96 3000 3.09 330 19:53 14.01.2023
220 Rain 3 1016 90 10000 2.57 120 17:42 14.01.2023
221 Clouds 4 1016 87 10000 3.09 70 15:30 14.01.2023
222 Rain 4 1017 87 10000 4.12 80 14:26 14.01.2023
223 Rain 4 1017 87 10000 4.12 90 13:43 14.01.2023
224 Clouds 5 1016 87 6000 3.09 60 11:58 14.01.2023
225 Mist 6 1015 87 4000 5.14 90 10:47 14.01.2023
226 Mist 7 1013 90 10000 4.63 80 08:19 14.01.2023
227 Fog 6 1012 100 250 1.54 340 23:39 13.01.2023
228 Drizzle 6 1012 97 250 1.03 330 22:50 13.01.2023
229 Fog 6 1012 97 250 1.03 330 22:31 13.01.2023
230 Drizzle 6 1012 100 150 1.54 40 21:45 13.01.2023
231 Drizzle 6 1012 100 300 1.54 40 19:43 13.01.2023
232 Drizzle 6 1012 100 200 0.51 320 18:21 13.01.2023
233 Drizzle 6 1012 100 200 2.57 310 16:45 13.01.2023
234 Drizzle 6 1011 100 400 0.51 330 13:37 13.01.2023
235 Fog 6 1011 93 400 0.51 320 12:20 13.01.2023
236 Drizzle 7 1010 100 600 1.03 280 10:27 13.01.2023
237 Drizzle 7 1009 100 800 1.03 40 09:46 13.01.2023
238 Drizzle 7 1009 97 600 2.06 310 08:56 13.01.2023
239 Drizzle 7 1009 97 600 2.06 310 08:25 13.01.2023
240 Drizzle 8 1008 93 400 2.06 200 06:53 13.01.2023
241 Fog 8 1008 100 800 2.57 140 05:23 13.01.2023
242 Rain 5 1012 100 1000 0.51 20 00:21 13.01.2023
243 Rain 4 1012 100 1000 2.06 50 22:43 12.01.2023
244 Rain 5 1015 93 3500 3.6 90 20:55 12.01.2023
245 Rain 4 1016 93 3000 2.06 100 19:44 12.01.2023
246 Rain 4 1017 81 7000 1.03 130 17:48 12.01.2023
247 Rain 4 1018 73 8000 1.54 340 16:25 12.01.2023
248 Clouds 3 1019 65 8000 1.03 330 14:45 12.01.2023
249 Clouds 3 1019 65 8000 1.03 330 14:22 12.01.2023
250 Clear 3 1019 56 9000 2.06 10 12:50 12.01.2023
251 Clear 6 1020 45 7000 1.54 320 10:38 12.01.2023
252 Clear 12 1021 29 10000 1.54 210 08:37 12.01.2023
253 Clear 10 1022 28 8000 2.06 100 05:26 12.01.2023
254 Mist -5 1025 90 4500 0.51 330 23:59 11.01.2023
255 Mist -5 1025 90 4500 0.51 330 23:41 11.01.2023
256 Mist -5 1025 100 4500 0.51 330 23:21 11.01.2023
257 Mist -5 1024 93 4500 1.54 330 21:46 11.01.2023
258 Mist -4 1024 87 4500 1.03 290 20:26 11.01.2023
259 Mist -3 1025 87 6000 1.54 360 18:39 11.01.2023
260 Mist -4 1025 87 7000 1.54 200 16:49 11.01.2023
261 Haze -1 1025 78 8000 2.06 320 14:57 11.01.2023
262 Haze 1 1024 68 10000 1.03 20 12:50 11.01.2023
263 Haze 1 1025 65 10000 1.03 190 11:54 11.01.2023
264 Clear 2 1025 64 10000 1.54 270 10:20 11.01.2023
265 Haze 8 1026 37 7000 3.6 290 07:59 11.01.2023
266 Clear 8 1026 42 7000 3.6 290 07:22 11.01.2023
267 Clear 8 1026 42 7000 3.6 290 07:22 11.01.2023
268 Mist -4 1027 90 8000 1.03 280 00:34 11.01.2023
269 Mist -6 1027 97 5000 1.03 190 22:45 10.01.2023
270 Mist -5 1027 90 5000 1.03 300 21:32 10.01.2023
271 Mist -5 1027 90 6000 0.51 350 20:37 10.01.2023
272 Mist -5 1027 90 6000 1.03 200 19:37 10.01.2023
273 Mist -4 1027 86 7000 0.51 300 18:47 10.01.2023
274 Clouds -2 1027 87 8000 1.03 350 17:58 10.01.2023
275 Clouds -2 1027 80 8000 2.06 310 16:39 10.01.2023
276 Clouds -2 1027 86 9000 2.06 300 15:24 10.01.2023
277 Clear -1 1027 77 10000 1.54 70 14:30 10.01.2023
278 Clear 1 1028 69 10000 2.57 280 12:21 10.01.2023
279 Clear 8 1027 37 10000 2.06 320 08:58 10.01.2023
280 Clear 8 1027 37 10000 2.06 320 08:28 10.01.2023
281 Clear 8 1028 36 10000 1.03 310 07:26 10.01.2023
282 Clear 4 1030 48 10000 1.54 360 04:52 10.01.2023
283 Clear -6 1029 84 10000 1.03 330 22:55 09.01.2023
284 Clear -6 1030 79 10000 1.03 10 21:47 09.01.2023
285 Clear -5 1030 80 10000 1.54 10 20:41 09.01.2023
286 Clear -5 1029 74 10000 2.06 330 18:42 09.01.2023
287 Clear -3 1029 66 10000 2.06 290 17:53 09.01.2023
288 Clear -4 1029 68 10000 2.57 320 16:58 09.01.2023
289 Clear -4 1029 68 10000 2.57 320 16:30 09.01.2023
290 Clear -3 1028 63 10000 2.57 310 15:22 09.01.2023
291 Clear -3 1028 63 10000 2.57 310 15:22 09.01.2023
292 Clear -2 1028 57 10000 4.12 310 14:43 09.01.2023
293 Clear 0 1027 53 10000 4.63 320 12:54 09.01.2023
294 Clear 1 1026 48 10000 2.33 327 12:18 09.01.2023
295 Clear 1 1027 55 10000 5.14 310 11:19 09.01.2023
296 Clear 6 1023 39 10000 5.66 310 07:23 09.01.2023
297 Clear 6 1023 45 10000 5.66 320 06:21 09.01.2023
298 Mist 4 1024 65 5000 3.6 310 02:53 09.01.2023
299 Mist 2 1023 73 4500 2.06 310 22:29 08.01.2023
300 Haze 2 1023 75 5000 3.09 310 21:22 08.01.2023
301 Mist 2 1022 72 6000 1.03 180 20:54 08.01.2023
302 Haze 3 1023 68 6000 1.54 210 18:52 08.01.2023
303 Mist 2 1023 68 6000 2.57 180 17:37 08.01.2023
304 Mist 2 1023 68 6000 2.57 180 17:18 08.01.2023
305 Mist 2 1024 70 6000 1.54 170 15:36 08.01.2023
306 Haze 3 1024 62 7000 1.54 10 13:59 08.01.2023
307 Haze 3 1024 62 7000 1.54 10 13:31 08.01.2023
308 Haze 3 1024 60 7000 2.57 80 12:54 08.01.2023
309 Haze 3 1024 56 10000 2.57 120 10:52 08.01.2023
310 Haze 4 1024 50 10000 1.54 160 09:36 08.01.2023
311 Haze 5 1024 48 10000 1.54 180 07:50 08.01.2023
312 Dust -6 1026 89 4000 1.54 170 00:30 08.01.2023
313 Dust -6 1025 90 3500 1.54 310 22:48 07.01.2023
314 Dust -6 1025 90 3500 1.54 310 22:24 07.01.2023
315 Dust -6 1024 89 4000 0.51 160 21:49 07.01.2023
316 Dust -6 1025 89 4500 0.51 70 20:47 07.01.2023
317 Dust -6 1025 89 4500 0.51 70 20:24 07.01.2023
318 Dust -5 1025 93 4000 1.03 340 18:52 07.01.2023
319 Mist -5 1024 89 3500 1.54 270 17:53 07.01.2023
320 Mist -5 1024 86 3500 1.54 270 17:33 07.01.2023
321 Mist -4 1024 83 4000 1.03 320 16:37 07.01.2023
322 Mist -4 1024 86 3500 1.54 190 15:50 07.01.2023
323 Mist -4 1024 86 3500 0.51 360 15:27 07.01.2023
324 Mist -3 1024 80 3000 1.03 300 14:30 07.01.2023
325 Mist -1 1023 83 3000 2.06 300 13:54 07.01.2023
326 Mist -1 1023 83 3000 2.06 300 13:26 07.01.2023
327 Mist -1 1023 86 4000 1.03 290 12:23 07.01.2023
328 Mist 0 1022 77 4000 1.54 240 11:50 07.01.2023
329 Haze 1 1022 68 4000 2.57 260 10:25 07.01.2023
330 Haze 4 1020 56 5000 5.14 270 08:27 07.01.2023
331 Haze 4 1020 58 3500 4.63 270 07:44 07.01.2023
332 Haze 4 1020 56 3500 4.12 270 06:56 07.01.2023
333 Mist 2 1018 87 2000 4.63 300 00:43 07.01.2023
334 Mist 2 1016 93 1300 4.12 300 22:23 06.01.2023
335 Fog 2 1015 93 1100 4.12 270 21:58 06.01.2023
336 Fog 1 1015 96 1100 4.12 270 21:18 06.01.2023
337 Mist 1 1014 93 1000 2.57 310 19:57 06.01.2023
338 Mist 1 1014 93 1000 2.57 310 19:39 06.01.2023
339 Mist 2 1014 93 1000 2.57 310 19:21 06.01.2023
340 Mist 1 1014 96 1200 2.06 220 18:28 06.01.2023
341 Mist 1 1014 100 1600 4.63 140 16:55 06.01.2023
342 Mist 2 1014 100 1600 4.63 140 16:24 06.01.2023
343 Rain 1 1014 93 1300 4.12 130 15:53 06.01.2023
344 Rain 1 1014 93 1300 4.12 130 15:34 06.01.2023
345 Rain 2 1016 87 2000 4.63 110 13:56 06.01.2023
346 Mist 3 1017 65 2600 2.57 160 12:22 06.01.2023
347 Haze 3 1018 61 3000 3.6 140 10:57 06.01.2023
348 Haze 5 1019 56 4000 4.63 140 08:55 06.01.2023
349 Haze 4 1023 47 6000 3.09 160 05:31 06.01.2023
350 Mist -9 1027 89 5000 1.54 190 23:48 05.01.2023
351 Mist -8 1027 86 5000 1.03 300 22:54 05.01.2023
352 Mist -7 1028 86 5000 1.54 330 21:22 05.01.2023
353 Mist -7 1029 83 8000 1.03 330 17:57 05.01.2023
354 Mist -7 1029 83 8000 1.03 330 17:26 05.01.2023
355 Mist -7 1029 83 8000 1.03 330 17:26 05.01.2023
356 Mist -6 1030 80 10000 1.03 340 15:59 05.01.2023
357 Mist -6 1030 80 10000 1.03 340 15:37 05.01.2023
358 Mist -6 1030 77 10000 1.03 10 14:34 05.01.2023
359 Clear -3 1030 65 10000 0.51 170 12:42 05.01.2023
360 Clear -3 1030 61 10000 1.54 320 11:42 05.01.2023
361 Haze 2 1030 38 10000 1.54 280 09:48 05.01.2023
362 Clear 3 1030 32 10000 1.54 310 08:23 05.01.2023
363 Clouds 2 1030 46 10000 1.54 300 06:50 05.01.2023
364 Clouds -2 1032 67 8000 1.03 350 03:34 05.01.2023
365 Clear -9 1032 92 8000 1.03 350 22:27 04.01.2023
366 Clear -9 1032 83 10000 0.51 340 21:32 04.01.2023
367 Clear -8 1032 93 10000 2.06 310 20:23 04.01.2023
368 Clear -8 1032 83 10000 1.54 340 19:47 04.01.2023
369 Clear -8 1032 83 10000 1.54 340 19:29 04.01.2023
370 Clear -8 1032 86 10000 1.54 330 18:18 04.01.2023
371 Clear -7 1031 83 10000 1.54 200 16:31 04.01.2023
372 Clear -5 1031 71 10000 0.51 270 14:50 04.01.2023
373 Clear -3 1031 64 10000 1.03 290 12:36 04.01.2023
374 Clear -4 1031 68 10000 2.06 280 11:23 04.01.2023
375 Clear -1 1030 51 10000 2.06 270 10:44 04.01.2023
376 Clear -1 1030 51 10000 2.06 270 10:25 04.01.2023
377 Clear 1 1030 41 10000 3.09 270 09:40 04.01.2023
378 Clear 3 1031 33 10000 3.6 310 05:39 04.01.2023
379 Clear -5 1031 61 10000 1.54 350 01:40 04.01.2023
380 Clouds -6 1031 69 10000 1.54 190 23:42 03.01.2023
381 Clouds -6 1030 72 10000 1.54 200 22:56 03.01.2023
382 Clouds -6 1030 69 10000 1.54 350 21:37 03.01.2023
383 Clouds -7 1030 73 10000 1.54 330 20:50 03.01.2023
384 Clear -10 1030 74 10000 1.54 200 18:24 03.01.2023
385 Clear -9 1031 71 10000 1.54 200 16:39 03.01.2023
386 Clear -8 1030 62 10000 0.51 40 14:23 03.01.2023
387 Clear -7 1030 57 10000 1.54 280 13:32 03.01.2023
388 Clear -7 1030 57 10000 1.54 280 13:32 03.01.2023
389 Clear -5 1030 48 10000 2.06 280 12:59 03.01.2023
390 Clear -5 1030 48 10000 2.06 280 12:31 03.01.2023
391 Clear -4 1030 40 10000 2.06 270 11:53 03.01.2023
392 Clear 0 1029 25 10000 5.66 310 08:23 03.01.2023
393 Clear -1 1031 29 10000 3.6 340 04:26 03.01.2023
394 Clear -3 1032 40 10000 2.06 330 03:46 03.01.2023
395 Clear -3 1032 40 10000 2.06 330 03:27 03.01.2023
396 Clear -13 1032 72 10000 0.6 258 23:19 02.01.2023
397 Clear -12 1031 76 10000 1.03 300 22:26 02.01.2023
398 Clear -11 1032 73 10000 0.51 310 20:51 02.01.2023
399 Clear -11 1032 73 10000 0.51 310 20:26 02.01.2023
400 Clear -10 1032 62 10000 1.54 330 18:40 02.01.2023
401 Clear -8 1032 63 10000 2.57 350 15:43 02.01.2023
402 Clear -6 1032 53 10000 2.06 310 13:39 02.01.2023
403 Clear -6 1032 53 10000 2.06 280 12:18 02.01.2023
404 Clear -3 1031 36 10000 2.06 250 10:53 02.01.2023
405 Clear -1 1031 28 10000 4.12 320 07:39 02.01.2023
406 Clear -4 1034 39 10000 3.6 340 02:48 02.01.2023
407 Clear -8 1033 53 10000 1.03 340 22:43 01.01.2023
408 Clear -8 1033 51 10000 1.03 320 21:43 01.01.2023
409 Clear -8 1033 49 10000 2.57 290 20:48 01.01.2023
410 Clear -8 1033 53 10000 2.57 290 20:18 01.01.2023
411 Clear -6 1033 46 10000 2.06 300 18:39 01.01.2023
412 Clear -6 1033 49 10000 2.06 300 17:23 01.01.2023
413 Clear -5 1033 45 10000 4.12 310 16:34 01.01.2023
414 Clear -4 1033 45 10000 4.12 310 15:27 01.01.2023
415 Clear -3 1033 36 10000 2.57 320 13:41 01.01.2023
416 Clear -2 1032 35 10000 3.6 290 12:41 01.01.2023
417 Clear -1 1031 32 10000 2.57 280 11:39 01.01.2023
418 Clear -1 1030 30 10000 3.09 310 10:44 01.01.2023
419 Clear 3 1030 27 10000 5.66 310 08:56 01.01.2023
420 Clear 3 1030 28 10000 5.66 310 08:22 01.01.2023
421 Clear 3 1030 30 10000 5.66 330 07:23 01.01.2023
422 Clear 2 1032 48 9000 2.57 310 03:21 01.01.2023
423 Haze -4 1030 75 7000 1.54 330 23:43 31.12.2022
424 Haze -1 1030 62 6000 2.06 10 22:33 31.12.2022
425 Mist 0 1029 75 4500 2.06 330 21:37 31.12.2022
426 Mist -1 1029 80 4500 2.06 330 21:18 31.12.2022
427 Mist 0 1029 75 4000 2.57 340 19:41 31.12.2022
428 Mist 1 1029 70 5000 3.09 240 18:44 31.12.2022
429 Clouds -3 1030 93 10000 0.22 249 18:19 31.12.2022
430 Clouds -1 1029 75 8000 1.54 210 17:47 31.12.2022
431 Clouds -1 1029 77 9000 2.57 220 16:50 31.12.2022
432 Clouds 0 1029 75 9000 1.54 200 16:22 31.12.2022
433 Clouds -4 1029 86 9000 1.54 180 14:40 31.12.2022
434 Clouds -4 1029 80 10000 1.54 180 13:38 31.12.2022
435 Clear -4 1029 80 10000 1.03 160 12:40 31.12.2022
436 Clear -4 1029 74 10000 1.03 160 12:19 31.12.2022
437 Clouds -2 1029 74 10000 1.03 220 11:50 31.12.2022
438 Clear 0 1029 62 10000 2.57 250 10:35 31.12.2022
439 Clear 2 1030 56 10000 2.06 250 09:53 31.12.2022
440 Clear 2 1030 56 10000 2.06 250 09:35 31.12.2022
441 Clouds 3 1030 61 10000 2.06 210 07:48 31.12.2022
442 Clouds -5 1032 77 10000 1.03 290 00:35 31.12.2022
443 Clouds -5 1032 77 10000 1.03 290 00:35 31.12.2022
444 Clouds -5 1032 77 10000 1.03 290 00:35 31.12.2022
445 Clouds -6 1032 80 10000 0.51 320 23:45 30.12.2022
446 Clouds -6 1031 77 10000 0.51 220 22:49 30.12.2022
447 Snow -6 1031 77 8000 1.03 170 21:43 30.12.2022
448 Snow -6 1031 80 8000 0.51 320 21:23 30.12.2022
449 Clouds -7 1032 83 8000 1.03 360 18:58 30.12.2022
450 Clear -8 1032 83 10000 1.03 180 17:42 30.12.2022
451 Clear -8 1032 86 10000 0.51 110 17:23 30.12.2022
452 Clear -8 1032 83 10000 1.54 270 15:50 30.12.2022
453 Clear -5 1033 64 10000 1.54 280 13:56 30.12.2022
454 Clear -1 1031 42 10000 3.09 320 09:51 30.12.2022
455 Clear 2 1031 32 10000 5.66 290 06:56 30.12.2022
456 Mist -2 1033 80 10000 2.06 330 02:41 30.12.2022
457 Mist -6 1033 89 10000 2.06 310 00:53 30.12.2022
458 Mist -5 1032 86 10000 1.54 310 22:46 29.12.2022
459 Mist -5 1032 89 8000 2.06 310 21:29 29.12.2022
460 Mist -5 1032 97 5000 1.54 350 20:53 29.12.2022
461 Mist -5 1032 97 4500 1.54 210 19:55 29.12.2022
462 Clouds -2 1032 83 8000 2.57 130 17:57 29.12.2022
463 Snow -2 1032 83 8000 2.57 130 17:28 29.12.2022
464 Snow -2 1032 78 6000 1.54 130 16:55 29.12.2022
465 Snow -2 1033 66 10000 2.57 120 15:58 29.12.2022
466 Snow -3 1033 63 10000 2.57 140 14:37 29.12.2022
467 Snow -2 1032 54 10000 1.03 120 12:41 29.12.2022
468 Clear -3 1032 52 10000 2.57 290 10:31 29.12.2022
469 Clear 1 1031 29 10000 2.06 290 06:57 29.12.2022
470 Clear -11 1033 86 10000 1.03 220 23:30 28.12.2022
471 Clear -10 1033 79 10000 1.03 360 22:25 28.12.2022
472 Clear -11 1033 85 10000 0.51 180 21:20 28.12.2022
473 Clear -10 1034 85 10000 1.03 290 20:22 28.12.2022
474 Clear -10 1034 79 10000 1.03 320 18:57 28.12.2022
475 Clear -8 1034 73 10000 1.03 280 16:41 28.12.2022
476 Clear -8 1033 74 10000 1.03 310 14:28 28.12.2022
477 Clear -5 1032 52 10000 1.54 310 12:49 28.12.2022
478 Clear -4 1031 48 10000 1.54 290 11:35 28.12.2022
479 Clear -4 1031 49 10000 3.09 330 10:31 28.12.2022
480 Clouds -1 1030 38 10000 5.14 310 07:48 28.12.2022
481 Clouds 0 1030 35 10000 4.63 320 06:47 28.12.2022
482 Clouds -4 1031 54 10000 2.57 320 01:25 28.12.2022
483 Mist -3 1029 80 8000 4.63 330 22:33 27.12.2022
484 Snow -4 1028 86 7000 1.54 280 19:51 27.12.2022
485 Snow -7 1027 86 10000 2.57 200 18:55 27.12.2022
486 Clear -7 1029 90 10000 1.54 190 16:59 27.12.2022
487 Clear -8 1029 93 10000 0.51 240 16:19 27.12.2022
488 Clear -5 1029 83 10000 1.54 200 14:44 27.12.2022
489 Clear -3 1029 77 10000 1.03 330 12:27 27.12.2022
490 Clear -2 1029 69 10000 1.54 270 10:30 27.12.2022
491 Clear 1 1028 51 10000 2.06 300 09:41 27.12.2022
492 Clouds 2 1028 46 10000 2.06 350 08:47 27.12.2022
493 Clouds 2 1028 46 10000 2.06 350 08:47 27.12.2022
494 Clear 1 1030 45 7000 1.03 270 04:55 27.12.2022
495 Mist -11 1030 89 4000 0.51 280 23:39 26.12.2022
496 Mist -11 1030 89 4000 0.51 280 23:39 26.12.2022
497 Mist -10 1029 89 4500 1.54 340 21:50 26.12.2022
498 Clear -10 1029 89 6000 1.54 310 20:44 26.12.2022
499 Clear -9 1029 86 7000 1.54 320 19:51 26.12.2022
500 Clear -9 1029 86 8000 1.54 320 18:42 26.12.2022
501 Clear -9 1028 83 10000 1.03 330 16:53 26.12.2022
502 Clear -7 1028 79 10000 1.03 310 15:37 26.12.2022
503 Clear -6 1027 71 10000 0.51 280 12:58 26.12.2022
504 Clear -2 1026 54 10000 2.06 350 09:44 26.12.2022
505 Clear -1 1026 53 10000 2.06 320 05:41 26.12.2022
506 Mist -11 1026 89 9000 1.03 290 23:39 25.12.2022
507 Mist -11 1026 93 8000 1.03 320 22:50 25.12.2022
508 Clouds -11 1026 100 8000 1.03 320 22:19 25.12.2022
509 Clear -9 1025 86 10000 1.54 340 19:56 25.12.2022
510 Clear -9 1026 83 10000 1.03 270 17:52 25.12.2022
511 Clear -9 1026 83 10000 1.03 270 17:34 25.12.2022
512 Clear -8 1025 79 10000 2.06 310 16:38 25.12.2022
513 Clear -8 1025 79 10000 1.54 310 13:28 25.12.2022
514 Clear -5 1025 68 10000 0.51 180 11:21 25.12.2022
515 Clear -7 1024 74 10000 1.03 260 02:57 25.12.2022
516 Clear -13 1023 89 8000 0.51 290 22:38 24.12.2022
517 Clear -12 1023 82 10000 0.51 10 19:52 24.12.2022
518 Clear -11 1023 79 10000 1.03 290 16:51 24.12.2022
519 Clear -10 1023 73 10000 1.03 350 14:55 24.12.2022
520 Clear -9 1022 73 10000 1.03 310 13:35 24.12.2022
521 Clear -7 1022 58 10000 1.03 300 11:29 24.12.2022
522 Clear -7 1022 53 10000 2.06 340 10:22 24.12.2022
523 Clear -5 1021 43 10000 2.57 320 09:37 24.12.2022
524 Clear -4 1021 36 10000 1.03 340 07:24 24.12.2022
525 Clear -10 1022 52 10000 2.57 30 02:51 24.12.2022
526 Clear -14 1021 64 10000 2.06 40 23:57 23.12.2022
527 Clear -13 1020 61 10000 2.57 50 22:29 23.12.2022
528 Clear -13 1019 63 10000 1.54 360 20:42 23.12.2022
529 Clear -14 1019 66 10000 2.06 310 19:39 23.12.2022
530 Clear -14 1019 66 10000 2.06 310 19:21 23.12.2022
531 Clear -13 1018 57 10000 2.06 300 18:46 23.12.2022
532 Clear -13 1018 61 10000 2.06 300 18:20 23.12.2022
533 Clear -13 1018 59 10000 3.09 320 16:35 23.12.2022
534 Clear -12 1018 59 10000 2.57 300 15:42 23.12.2022
535 Clouds -11 1016 55 10000 5.66 330 11:58 23.12.2022
536 Clouds -11 1014 57 10000 7.72 310 09:37 23.12.2022
537 Clouds -10 1013 50 10000 6.69 320 08:45 23.12.2022
538 Clouds -9 1013 53 10000 6.17 310 07:18 23.12.2022
539 Clouds -9 1013 49 10000 6.69 290 06:39 23.12.2022
540 Clouds -13 1012 75 10000 6.95 304 23:23 22.12.2022
541 Clouds -13 1013 61 10000 4.63 300 22:57 22.12.2022
542 Clouds -13 1013 61 10000 3.6 310 21:24 22.12.2022
543 Clouds -13 1012 59 10000 5.66 300 19:26 22.12.2022
544 Clouds -12 1012 59 10000 6.69 300 18:41 22.12.2022
545 Clouds -12 1012 59 10000 7.72 310 17:29 22.12.2022
546 Clouds -11 1012 57 10000 6.17 290 16:39 22.12.2022
547 Clouds -11 1011 57 10000 7.2 290 15:35 22.12.2022
548 Clouds -10 1011 55 10000 8.23 300 14:51 22.12.2022
549 Clouds -10 1011 53 10000 7.2 300 13:33 22.12.2022
550 Clear -9 1011 51 10000 7.72 300 12:59 22.12.2022
551 Clouds -8 1010 49 10000 5.66 290 10:44 22.12.2022
552 Clouds -8 1010 53 10000 5.66 290 10:22 22.12.2022
553 Clouds -7 1010 49 10000 5.66 290 09:20 22.12.2022
554 Clouds -7 1010 44 10000 7.72 310 08:26 22.12.2022
555 Clouds -6 1010 53 10000 6.17 300 05:27 22.12.2022
556 Clouds -6 1010 58 10000 5.14 310 04:18 22.12.2022
557 Clear -7 1011 68 10000 5.66 310 23:50 21.12.2022
558 Clouds -7 1011 74 10000 3.09 320 21:58 21.12.2022
559 Clouds -7 1011 79 10000 2.57 330 21:23 21.12.2022
560 Clouds -6 1011 68 10000 4.12 340 20:50 21.12.2022
561 Clouds -6 1011 73 10000 4.12 340 20:18 21.12.2022
562 Clear -5 1012 66 10000 3.09 320 19:42 21.12.2022
563 Clear -6 1012 73 10000 1.54 320 19:22 21.12.2022
564 Clear -5 1011 68 10000 3.09 320 18:45 21.12.2022
565 Clear -4 1011 68 10000 4.12 300 17:35 21.12.2022
566 Mist -1 1011 69 10000 5.66 320 14:33 21.12.2022
567 Mist 1 1010 83 5000 7.2 300 12:58 21.12.2022
568 Mist 0 1010 93 3500 3.6 270 11:42 21.12.2022
569 Mist 1 1010 87 3500 3.6 270 11:19 21.12.2022
570 Mist 1 1009 93 2800 1.03 260 09:25 21.12.2022
571 Mist 3 1009 84 3500 1.03 350 07:30 21.12.2022
572 Snow -1 1012 93 1600 3.6 110 01:28 21.12.2022
573 Snow -2 1014 97 1200 3.09 180 22:42 20.12.2022
574 Snow -1 1015 83 6000 3.6 90 21:19 20.12.2022
575 Snow 1 1016 51 10000 5.14 120 20:19 20.12.2022
576 Snow -1 1018 55 10000 5.66 120 18:49 20.12.2022
577 Snow -1 1018 55 10000 5.66 120 18:28 20.12.2022
578 Clouds -1 1020 57 10000 6.17 120 17:51 20.12.2022
579 Clouds -1 1020 57 10000 6.17 120 17:28 20.12.2022
580 Clouds -1 1020 57 10000 6.17 120 17:28 20.12.2022
581 Snow -1 1021 60 10000 3.09 130 16:32 20.12.2022
582 Clouds -1 1021 62 10000 3.09 210 15:27 20.12.2022
583 Snow -1 1022 55 10000 3.6 120 14:36 20.12.2022
584 Clear -1 1022 53 10000 4.63 110 13:56 20.12.2022
585 Clear 0 1022 51 10000 4.63 120 12:40 20.12.2022
586 Clear 0 1024 53 10000 4.63 110 11:56 20.12.2022
587 Clear -1 1024 51 10000 3.09 110 10:47 20.12.2022
588 Clouds 1 1026 46 10000 1.03 90 07:41 20.12.2022
589 Clear -12 1030 75 10000 0.57 79 00:23 20.12.2022
590 Clear -12 1029 86 10000 1.03 340 22:36 19.12.2022
591 Clear -12 1029 86 10000 1.03 340 22:36 19.12.2022
592 Clear -12 1029 79 10000 0.51 30 21:33 19.12.2022
593 Clear -11 1029 76 10000 0.51 220 19:50 19.12.2022
594 Clear -11 1029 76 10000 0.51 220 19:31 19.12.2022
595 Clear -10 1029 85 10000 1.03 350 18:23 19.12.2022
596 Clear -10 1029 73 10000 0.51 330 16:29 19.12.2022
597 Clear -8 1028 73 10000 1.03 280 13:22 19.12.2022
598 Clear -5 1028 52 10000 0.51 20 11:46 19.12.2022
599 Clouds -4 1027 43 10000 2.06 320 08:27 19.12.2022
600 Clouds -3 1027 43 10000 3.09 340 07:22 19.12.2022
601 Clear -13 1027 75 10000 0.51 30 00:54 19.12.2022
602 Clear -13 1025 70 10000 0.51 230 21:50 18.12.2022
603 Clear -13 1025 70 10000 0.51 230 21:31 18.12.2022
604 Clear -13 1025 70 10000 1.03 340 20:56 18.12.2022
605 Clear -13 1025 70 10000 1.54 320 19:44 18.12.2022
606 Clear -13 1025 72 10000 1.54 320 19:23 18.12.2022
607 Clear -12 1025 68 10000 1.54 320 17:52 18.12.2022
608 Clear -11 1025 62 10000 2.06 300 15:43 18.12.2022
609 Clear -11 1025 62 10000 2.06 300 15:25 18.12.2022
610 Clear -10 1025 55 10000 1.54 340 14:59 18.12.2022
611 Clear -11 1024 62 10000 3.09 320 13:29 18.12.2022
612 Clear -10 1024 53 10000 2.06 350 12:50 18.12.2022
613 Clear -9 1024 51 10000 3.6 340 11:51 18.12.2022
614 Clear -8 1022 46 10000 3.6 320 09:47 18.12.2022
615 Clear -6 1022 40 10000 4.12 310 08:46 18.12.2022
616 Clear -7 1022 40 10000 5.14 310 06:52 18.12.2022
617 Clear -6 1022 42 10000 5.14 310 06:18 18.12.2022
618 Clear -11 1024 40 10000 0.51 240 01:53 18.12.2022
619 Clear -13 1023 50 10000 3.09 20 22:58 17.12.2022
620 Clear -12 1024 57 10000 2.57 330 20:57 17.12.2022
621 Clear -11 1024 55 10000 2.57 320 17:52 17.12.2022
622 Clear -10 1025 58 10000 3.09 320 15:32 17.12.2022
623 Clouds -7 1025 60 10000 4.85 323 13:20 17.12.2022
624 Clear -9 1025 62 10000 4.12 330 11:23 17.12.2022
625 Clear -7 1024 42 10000 5.14 330 10:41 17.12.2022
626 Clear -6 1024 44 10000 5.14 320 09:40 17.12.2022
627 Snow -4 1024 39 10000 7.2 330 07:22 17.12.2022
628 Snow -4 1024 36 10000 6.17 330 06:44 17.12.2022
629 Clouds -9 1026 62 10000 3.09 360 22:55 16.12.2022
630 Clear -9 1028 70 10000 1.03 310 20:29 16.12.2022
631 Clear -8 1029 54 10000 1.03 280 18:33 16.12.2022
632 Clear -6 1031 49 10000 3.09 320 15:36 16.12.2022
633 Clear -7 1032 56 10000 4.12 320 14:46 16.12.2022
634 Clear -7 1032 63 10000 2.57 330 13:21 16.12.2022
635 Clear -6 1031 50 10000 2.57 320 11:56 16.12.2022
636 Clear -5 1031 39 10000 2.57 320 09:40 16.12.2022
637 Clear -3 1030 40 10000 2.57 310 08:49 16.12.2022
638 Clear -3 1030 40 10000 3.09 320 07:55 16.12.2022
639 Clear -3 1031 41 10000 3.6 320 06:46 16.12.2022
640 Clear -11 1030 67 10000 2.06 310 22:46 15.12.2022
641 Clear -10 1029 73 10000 3.6 330 21:36 15.12.2022
642 Clear -9 1030 76 10000 2.57 320 19:49 15.12.2022
643 Clear -8 1030 71 10000 3.09 300 18:54 15.12.2022
644 Clear -8 1029 73 10000 3.09 300 17:28 15.12.2022
645 Clear -5 1027 64 10000 4.12 320 15:47 15.12.2022
646 Clear -5 1027 74 10000 5.66 330 14:57 15.12.2022
647 Mist -4 1025 86 10000 3.6 310 12:54 15.12.2022
648 Mist -4 1025 86 10000 3.6 310 12:24 15.12.2022
649 Mist -1 1021 90 6000 4.12 140 08:59 15.12.2022
650 Snow -1 1021 93 6000 4.12 140 08:21 15.12.2022
651 Mist -3 1022 93 600 4.12 140 05:43 15.12.2022
652 Clouds -7 1026 71 10000 3.6 180 22:59 14.12.2022
653 Clouds -8 1026 67 10000 3.09 220 21:24 14.12.2022
654 Clouds -8 1026 67 10000 3.09 200 20:44 14.12.2022
655 Clouds -7 1027 61 10000 1.54 30 19:51 14.12.2022
656 Snow -7 1027 63 10000 2.57 30 17:19 14.12.2022
657 Snow -8 1027 65 10000 1.54 40 16:53 14.12.2022
658 Clouds -9 1027 70 10000 1.54 190 14:55 14.12.2022
659 Clouds -8 1028 67 10000 0.51 50 13:19 14.12.2022
660 Clear -8 1027 51 10000 2.57 330 10:46 14.12.2022
661 Clear -8 1027 53 10000 2.57 330 10:22 14.12.2022
662 Clear -5 1029 44 10000 5.14 340 06:37 14.12.2022
663 Clear -10 1028 47 10000 5.66 330 21:57 13.12.2022
664 Clear -10 1028 47 10000 5.66 330 21:37 13.12.2022
665 Clear -10 1028 47 10000 5.66 330 20:47 13.12.2022
666 Clear -8 1026 45 10000 8.23 330 18:55 13.12.2022
667 Clouds -7 1025 56 10000 8.75 320 16:36 13.12.2022
668 Clouds -5 1022 61 10000 9.26 320 14:57 13.12.2022
669 Clouds -2 1021 64 10000 9.77 320 13:31 13.12.2022
670 Snow 0 1018 86 6000 7.72 290 10:42 13.12.2022
671 Snow 0 1016 87 10000 4.63 270 09:48 13.12.2022
672 Dust 0 1017 86 1800 4.12 290 07:53 13.12.2022
673 Haze 2 1017 68 7000 5.14 340 22:36 12.12.2022
674 Haze 2 1016 70 7000 3.6 270 21:57 12.12.2022
675 Mist 2 1017 84 6000 3.6 280 19:33 12.12.2022
676 Mist 2 1017 86 8000 0.51 230 17:52 12.12.2022
677 Mist 0 1017 100 5000 0.51 200 15:29 12.12.2022
678 Clouds 1 1017 100 6000 1.03 40 13:20 12.12.2022
679 Rain 3 1017 93 5000 4.12 300 09:20 12.12.2022
680 Clouds 5 1017 74 5000 2.57 190 08:54 12.12.2022
681 Clouds 4 1021 45 10000 1.03 360 04:34 12.12.2022
682 Clear -1 1022 69 10000 2.57 220 01:50 12.12.2022
683 Clear -4 1023 93 10000 1.54 270 22:18 11.12.2022
684 Clear -5 1025 87 10000 1.03 20 20:34 11.12.2022
685 Clear -5 1025 84 10000 1.54 290 19:38 11.12.2022
686 Clear -5 1025 84 10000 1.03 190 18:30 11.12.2022
687 Clear -5 1025 84 10000 1.03 330 17:33 11.12.2022
688 Clear -4 1025 77 10000 1.03 30 16:52 11.12.2022
689 Clear -3 1025 74 10000 2.57 310 15:56 11.12.2022
690 Clear -3 1025 74 10000 2.57 310 15:35 11.12.2022
691 Clear -3 1024 72 10000 1.54 200 13:33 11.12.2022
692 Clear -1 1024 62 10000 1.03 60 12:40 11.12.2022
693 Clear 2 1024 48 10000 1.54 260 10:19 11.12.2022
694 Clear -4 1024 80 10000 1.03 320 00:49 11.12.2022
695 Clear -4 1024 80 10000 1.03 320 00:21 11.12.2022
696 Clear -4 1023 80 10000 2.57 320 22:33 10.12.2022
697 Clear -4 1022 80 10000 1.03 350 21:29 10.12.2022
698 Clear -3 1022 80 10000 0.51 60 20:41 10.12.2022
699 Clear -3 1022 74 10000 1.03 320 19:55 10.12.2022
700 Clear -3 1022 74 10000 1.03 320 19:55 10.12.2022
701 Clear -2 1022 66 10000 2.57 340 17:33 10.12.2022
702 Clear -1 1022 62 10000 3.09 350 16:37 10.12.2022
703 Clear 0 1021 64 10000 1.03 310 15:40 10.12.2022
704 Clear 0 1021 64 10000 1.03 310 15:40 10.12.2022
705 Clear 0 1020 62 10000 1.54 320 14:59 10.12.2022
706 Clear 0 1020 58 10000 0.51 360 12:55 10.12.2022
707 Clear 1 1020 48 10000 0.51 40 11:55 10.12.2022
708 Clear 2 1020 40 10000 1.03 30 10:46 10.12.2022
709 Clear 4 1019 34 10000 2.06 320 09:38 10.12.2022
710 Clouds 7 1019 18 10000 2.46 324 07:21 10.12.2022
711 Clear 3 1022 52 10000 3.6 350 03:18 10.12.2022
712 Clouds -4 1023 100 9000 0.51 310 23:20 09.12.2022
713 Clouds -3 1022 87 9000 1.54 360 22:41 09.12.2022
714 Clouds -4 1022 87 9000 1.03 300 21:26 09.12.2022
715 Clouds -4 1022 90 9000 1.54 350 20:44 09.12.2022
716 Clear -3 1023 86 9000 1.54 10 19:41 09.12.2022
717 Clear -3 1023 83 9000 1.03 330 17:55 09.12.2022
718 Clear -1 1023 90 9000 1.54 290 16:36 09.12.2022
719 Clear -1 1023 66 10000 1.31 356 16:18 09.12.2022
720 Clear -1 1023 66 10000 1.31 356 16:18 09.12.2022
721 Clear -1 1022 80 10000 0 0 15:19 09.12.2022
722 Clear 3 1022 68 10000 2.06 290 11:36 09.12.2022
723 Clear 5 1022 61 10000 1.54 290 10:37 09.12.2022
724 Clouds 9 1021 52 10000 4.12 330 08:55 09.12.2022
725 Clouds 6 1023 57 10000 1.54 160 03:19 09.12.2022
726 Clouds 1 1023 72 10000 1.54 140 00:32 09.12.2022
727 Rain 1 1023 80 10000 2.06 350 22:20 08.12.2022
728 Clouds -1 1023 83 10000 2.06 210 20:30 08.12.2022
729 Clear -3 1025 87 10000 1.54 220 17:38 08.12.2022
730 Clear -1 1025 79 10000 0.51 320 15:36 08.12.2022
731 Clear -1 1025 86 10000 1.03 320 14:25 08.12.2022
732 Clear 3 1025 49 10000 1.03 290 11:32 08.12.2022
733 Clear 6 1025 36 10000 2.57 280 09:51 08.12.2022
734 Clear 7 1026 29 10000 0.92 286 09:23 08.12.2022
735 Clear 3 1028 70 10000 1.03 30 02:26 08.12.2022
736 Clear -3 1026 93 10000 0.51 360 22:19 07.12.2022
737 Clear -3 1026 90 10000 1.03 330 21:49 07.12.2022
738 Clear -3 1026 90 10000 1.03 330 21:29 07.12.2022
739 Clear -3 1026 90 10000 1.03 170 19:35 07.12.2022
740 Clear -2 1026 83 10000 1.03 110 17:22 07.12.2022
741 Clear 0 1025 78 10000 1.03 260 14:41 07.12.2022
742 Clear 5 1024 56 10000 3.09 280 11:41 07.12.2022
743 Clear 6 1023 52 10000 3.6 260 10:39 07.12.2022
744 Clear 7 1023 49 10000 5.66 270 09:41 07.12.2022
745 Clear 8 1023 46 10000 7.2 270 08:46 07.12.2022
746 Clear 8 1022 42 10000 7.72 270 06:46 07.12.2022
747 Clear 8 1023 40 10000 4.63 260 04:35 07.12.2022
748 Clouds 0 1022 93 10000 2.06 340 22:37 06.12.2022
749 Snow 2 1022 60 10000 1.06 274 20:20 06.12.2022
750 Snow 1 1022 75 10000 2.06 220 17:39 06.12.2022
751 Clouds 0 1022 77 10000 2.06 150 16:40 06.12.2022
752 Clear -1 1022 83 10000 1.54 180 15:40 06.12.2022
753 Clear -1 1022 74 10000 2.06 130 14:55 06.12.2022
754 Clear -1 1022 69 10000 2.06 130 14:24 06.12.2022
755 Clear 2 1022 64 10000 0.51 90 12:42 06.12.2022
756 Clear 2 1022 64 10000 0.51 90 12:20 06.12.2022
757 Clouds 5 1022 43 10000 6.69 280 07:51 06.12.2022
758 Clouds 5 1022 43 10000 6.69 280 07:51 06.12.2022
759 Mist 0 1024 74 10000 2.06 140 03:26 06.12.2022
760 Snow -2 1024 77 5000 0.51 220 00:50 06.12.2022
761 Snow -4 1025 65 10000 1.56 175 22:22 05.12.2022
762 Snow -3 1025 64 10000 2.06 150 20:55 05.12.2022
763 Clouds -3 1025 64 10000 2.06 150 20:23 05.12.2022
764 Clear -4 1026 63 10000 2.57 140 19:42 05.12.2022
765 Clear -5 1027 66 10000 2.57 150 16:56 05.12.2022
766 Clear -5 1027 66 10000 1.03 60 15:39 05.12.2022
767 Clouds -5 1027 61 10000 2.06 140 14:56 05.12.2022
768 Clear -3 1028 50 10000 1.54 240 12:58 05.12.2022
769 Clear -3 1028 50 10000 1.54 240 12:38 05.12.2022
770 Clear -3 1028 41 10000 2.57 280 11:45 05.12.2022
771 Clear 0 1028 29 10000 2.57 300 09:32 05.12.2022
772 Clear -7 1032 49 10000 2.06 20 00:19 05.12.2022
773 Clear -6 1032 41 10000 3.09 30 22:44 04.12.2022
774 Clear -6 1032 45 10000 2.57 40 22:20 04.12.2022
775 Clear -6 1033 43 10000 4.63 30 21:39 04.12.2022
776 Clear -5 1033 46 10000 3.6 350 20:26 04.12.2022
777 Clear -5 1033 43 10000 4.63 340 19:25 04.12.2022
778 Clear -5 1033 43 10000 4.12 340 18:37 04.12.2022
779 Clear -5 1033 54 10000 3.6 340 17:23 04.12.2022
780 Clear -5 1033 43 10000 3.6 330 16:37 04.12.2022
781 Clear -5 1033 50 10000 3.6 330 16:19 04.12.2022
782 Clear -5 1033 43 10000 3.09 330 15:44 04.12.2022
783 Clear -5 1033 38 10000 4.12 320 14:43 04.12.2022
784 Clear -4 1032 38 10000 4.12 320 12:59 04.12.2022
785 Clear -4 1032 38 10000 4.12 320 12:40 04.12.2022
786 Clear -3 1032 36 10000 2.57 320 11:35 04.12.2022
787 Clear -3 1032 33 10000 3.09 330 09:19 04.12.2022
788 Clear -3 1033 28 10000 5.14 320 02:52 04.12.2022
789 Clear -5 1032 36 10000 4.63 330 23:44 03.12.2022
790 Clear -4 1032 42 10000 5.14 330 22:47 03.12.2022
791 Clear -4 1032 41 10000 5.66 330 21:53 03.12.2022
792 Clear -4 1032 39 10000 5.66 330 21:19 03.12.2022
793 Clear -2 1031 55 10000 6.17 320 18:57 03.12.2022
794 Clear -2 1031 55 10000 6.17 320 18:38 03.12.2022
795 Clouds 1 1028 65 8000 4.63 320 15:53 03.12.2022
796 Clouds 2 1027 73 7000 2.57 320 13:50 03.12.2022
797 Clouds 3 1026 75 7000 3.09 320 12:53 03.12.2022
798 Snow 2 1026 80 7000 3.09 320 12:21 03.12.2022
799 Clear 4 1025 66 10000 3.09 340 09:46 03.12.2022
800 Clouds 2 1026 92 10000 0.7 163 04:18 03.12.2022
801 Snow -1 1024 100 5000 3.09 130 00:23 03.12.2022
802 Snow 0 1024 86 5000 2.57 140 22:19 02.12.2022
803 Snow 1 1026 58 10000 2.57 210 20:21 02.12.2022
804 Clear 0 1026 47 10000 3.6 180 17:39 02.12.2022
805 Clear -1 1027 45 10000 3.6 210 15:57 02.12.2022
806 Clear -1 1027 46 10000 2.57 160 14:37 02.12.2022
807 Clouds -4 1028 23 10000 1.64 100 14:18 02.12.2022
808 Clear -1 1028 41 10000 2.06 60 11:59 02.12.2022
809 Clear -1 1028 34 10000 1.03 160 10:43 02.12.2022
810 Clear 1 1029 22 10000 1.54 90 07:52 02.12.2022
811 Clear 1 1029 21 10000 1.54 90 07:22 02.12.2022
812 Clear -8 1032 73 10000 1.03 280 22:53 01.12.2022
813 Clear -8 1032 67 10000 0.51 180 21:43 01.12.2022
814 Clear -8 1032 70 10000 1.03 330 20:50 01.12.2022
815 Clear -7 1032 53 10000 1.54 20 18:59 01.12.2022
816 Clear -6 1032 58 10000 2.57 30 17:23 01.12.2022
817 Clear -5 1032 50 10000 3.6 330 14:39 01.12.2022
818 Clear -4 1031 54 10000 1.54 290 11:20 01.12.2022
819 Clear -3 1030 43 10000 3.09 350 09:55 01.12.2022
820 Clear -3 1030 43 10000 3.09 350 09:36 01.12.2022
821 Clouds -2 1031 40 10000 4.12 350 06:38 01.12.2022
822 Clear -9 1033 52 10000 2.06 30 22:44 30.11.2022
823 Clear -9 1034 58 10000 1.03 10 21:46 30.11.2022
824 Clouds -8 1033 18 10000 4.45 344 21:19 30.11.2022
825 Clear -8 1034 57 10000 0.51 30 20:23 30.11.2022
826 Clear -7 1034 45 10000 4.63 350 18:50 30.11.2022
827 Clear -7 1034 45 10000 4.63 350 18:31 30.11.2022
828 Clear -7 1034 52 10000 5.14 350 16:38 30.11.2022
829 Clear -7 1035 56 10000 7.2 320 14:46 30.11.2022
830 Clear -7 1035 56 10000 7.2 320 14:26 30.11.2022
831 Clear -6 1033 45 10000 4.12 310 11:59 30.11.2022
832 Clear -4 1033 39 10000 4.63 290 09:22 30.11.2022
833 Clear -3 1032 34 10000 5.14 300 08:26 30.11.2022
834 Clouds -2 1033 24 10000 6.18 314 05:22 30.11.2022
835 Clear -6 1033 44 10000 6.17 340 23:26 29.11.2022
836 Clear -5 1031 46 10000 6.69 330 21:50 29.11.2022
837 Clear -5 1030 50 10000 8.23 300 20:52 29.11.2022
838 Clear -4 1030 52 10000 7.72 320 19:48 29.11.2022
839 Clear -3 1028 45 10000 7.2 310 17:53 29.11.2022
840 Clear -1 1027 39 10000 7.2 320 16:31 29.11.2022
841 Snow -1 1027 43 10000 6.69 320 15:22 29.11.2022
842 Snow 1 1025 38 10000 7.72 310 13:50 29.11.2022
843 Clear 2 1023 43 10000 6.69 300 12:36 29.11.2022
844 Clear 4 1022 40 10000 6.69 290 11:31 29.11.2022
845 Clear 4 1021 45 10000 6.69 290 10:23 29.11.2022
846 Clear 6 1019 42 10000 6.17 310 08:44 29.11.2022
847 Clear 8 1018 51 10000 7.2 320 06:34 29.11.2022
848 Mist 11 1013 90 10000 5.66 310 23:46 28.11.2022
849 Clouds 10 1013 93 10000 5.66 310 23:21 28.11.2022
850 Rain 12 1011 91 7000 5.14 330 21:55 28.11.2022
851 Rain 12 1011 91 7000 5.14 330 21:36 28.11.2022
852 Rain 12 1012 94 6000 5.66 330 20:20 28.11.2022
853 Rain 13 1009 97 3500 4.63 330 18:40 28.11.2022
854 Rain 13 1009 100 3000 2.57 290 17:51 28.11.2022
855 Mist 13 1009 100 1500 0.51 170 16:59 28.11.2022
856 Rain 14 1010 97 2200 1.54 180 14:30 28.11.2022
857 Rain 14 1010 97 2500 4.12 170 13:52 28.11.2022
858 Rain 13 1011 97 2500 3.6 210 12:44 28.11.2022
859 Clouds 13 1012 94 7000 4.12 190 10:55 28.11.2022
860 Rain 14 1012 79 10000 4.63 180 07:53 28.11.2022
861 Clouds 15 1015 43 10000 4.63 180 04:45 28.11.2022
862 Clouds 13 1016 41 10000 4.12 120 03:59 28.11.2022
863 Clouds 13 1015 44 10000 4.12 120 03:20 28.11.2022
864 Rain 8 1018 45 10000 2.06 100 23:43 27.11.2022
865 Clear 9 1018 33 10000 5.14 130 21:49 27.11.2022
866 Clear 6 1019 51 10000 4.12 110 20:36 27.11.2022
867 Clear 4 1019 63 10000 2.06 170 17:59 27.11.2022
868 Clear 3 1020 73 10000 1.03 280 15:35 27.11.2022
869 Clear 5 1020 54 10000 1.54 190 13:33 27.11.2022
870 Clear 7 1020 35 10000 1.54 230 10:57 27.11.2022
871 Clear 12 1019 25 10000 3.09 100 08:35 27.11.2022
872 Clear 9 1021 31 10000 3.09 130 04:22 27.11.2022
873 Clear -2 1022 74 10000 1.54 40 22:31 26.11.2022
874 Clear -2 1022 69 10000 1.54 360 20:51 26.11.2022
875 Clear -1 1022 67 10000 2.06 320 19:27 26.11.2022
876 Clear 0 1022 60 10000 2.06 330 17:54 26.11.2022
877 Clear 0 1021 55 10000 2.57 330 15:52 26.11.2022
878 Clear 2 1021 50 10000 3.6 340 13:34 26.11.2022
879 Clear 4 1021 43 10000 3.6 330 11:37 26.11.2022
880 Clear 6 1020 33 10000 3.09 310 09:45 26.11.2022
881 Clear 6 1020 39 10000 3.09 310 09:21 26.11.2022
882 Clear 10 1020 30 10000 5.14 290 05:37 26.11.2022
883 Mist 6 1015 93 4500 1.54 300 21:43 25.11.2022
884 Mist 6 1015 93 4500 1.54 300 21:21 25.11.2022
885 Mist 8 1015 93 3500 1.03 270 19:56 25.11.2022
886 Mist 13 1015 85 4000 4.12 280 16:46 25.11.2022
887 Clouds 13 1014 67 10000 4.63 190 13:51 25.11.2022
888 Clear 15 1015 44 10000 5.66 230 09:21 25.11.2022
889 Clear 17 1014 32 10000 5.66 220 08:40 25.11.2022
890 Clear 17 1015 35 10000 6.17 210 06:53 25.11.2022
891 Haze 13 1019 52 8000 3.6 180 03:35 25.11.2022
892 Mist 7 1020 81 4000 4.12 160 23:49 24.11.2022
893 Mist 7 1020 84 4000 3.09 170 22:43 24.11.2022
894 Mist 6 1020 87 4200 3.09 170 21:55 24.11.2022
895 Mist 6 1021 87 4500 2.06 180 19:50 24.11.2022
896 Mist 4 1022 100 4500 1.54 150 17:48 24.11.2022
897 Mist 4 1022 100 4500 1.54 150 17:24 24.11.2022
898 Mist 5 1022 91 5000 0.51 90 16:50 24.11.2022
899 Mist 7 1022 84 6000 1.03 170 14:27 24.11.2022
900 Mist 7 1022 84 6000 1.03 60 13:29 24.11.2022
901 Clear 10 1021 71 8000 1.03 270 11:46 24.11.2022
902 Clear 10 1021 71 8000 1.03 270 11:45 24.11.2022
903 Clear 10 1021 71 8000 1.03 270 11:45 24.11.2022
904 Clear 12 1020 62 9000 2.06 340 09:23 24.11.2022
905 Clouds 15 1020 51 8000 1.03 190 06:23 24.11.2022
906 Clouds 5 1021 79 7000 1.03 310 00:41 24.11.2022
907 Clouds 5 1021 81 7000 0.51 300 23:32 23.11.2022
908 Mist 4 1021 81 5000 1.03 140 21:48 23.11.2022
909 Clouds 4 1021 81 6000 0.51 150 20:52 23.11.2022
910 Clouds 4 1021 79 7000 0.51 280 19:40 23.11.2022
911 Clouds 4 1021 79 8000 1.03 340 18:56 23.11.2022
912 Clouds 4 1020 76 9000 1.03 290 17:35 23.11.2022
913 Clear 7 1019 65 10000 2.57 280 14:19 23.11.2022
914 Clear 8 1018 54 10000 3.09 320 13:24 23.11.2022
915 Clear 9 1018 57 10000 4.12 340 12:23 23.11.2022
916 Clear 10 1019 43 10000 3.09 320 11:46 23.11.2022
917 Clear 11 1018 41 10000 4.12 330 10:48 23.11.2022
918 Clear 12 1018 40 10000 3.09 330 09:57 23.11.2022
919 Clear 13 1018 40 10000 3.09 330 09:27 23.11.2022
920 Clear 14 1018 25 10000 5.14 340 08:58 23.11.2022
921 Clear 14 1018 25 10000 5.14 340 08:35 23.11.2022
922 Clear 15 1017 51 10000 3.6 330 05:19 23.11.2022
923 Clouds 9 1018 87 9000 2.57 320 01:22 23.11.2022
924 Clouds 9 1018 81 7000 1.54 350 22:37 22.11.2022
925 Clouds 9 1018 81 6000 3.6 330 21:34 22.11.2022
926 Mist 9 1018 82 5000 2.57 330 20:52 22.11.2022
927 Mist 9 1018 87 5000 2.57 330 20:30 22.11.2022
928 Mist 9 1018 82 5000 1.54 350 19:44 22.11.2022
929 Mist 9 1018 84 4000 2.06 320 17:49 22.11.2022
930 Mist 9 1018 85 4000 1.54 330 16:38 22.11.2022
931 Rain 10 1019 74 5000 1.54 310 14:31 22.11.2022
932 Mist 10 1020 69 5000 2.06 350 12:30 22.11.2022
933 Mist 12 1020 62 5000 2.06 320 09:28 22.11.2022
934 Mist 12 1020 62 5000 2.06 320 09:28 22.11.2022
935 Mist 13 1020 59 5000 3.09 310 07:59 22.11.2022
936 Mist 13 1020 61 5000 3.09 330 06:38 22.11.2022
937 Fog 6 1023 97 300 2.06 320 00:23 22.11.2022
938 Fog 5 1023 100 100 0.51 340 22:52 21.11.2022
939 Fog 5 1023 100 100 0.51 340 22:22 21.11.2022
940 Fog 5 1023 97 800 2.06 360 21:31 21.11.2022
941 Fog 6 1023 97 1600 1.54 20 19:51 21.11.2022
942 Fog 6 1023 97 1600 1.54 20 19:31 21.11.2022
943 Fog 6 1023 97 1600 1.54 20 19:31 21.11.2022
944 Fog 6 1024 97 1600 1.03 340 18:50 21.11.2022
945 Mist 6 1024 97 2200 1.54 350 17:26 21.11.2022
946 Mist 7 1023 97 3300 2.06 310 16:41 21.11.2022
947 Mist 7 1023 94 4000 1.03 330 15:58 21.11.2022
948 Mist 7 1023 94 4000 1.03 330 15:23 21.11.2022
949 Clouds 9 1022 87 6000 1.03 330 13:53 21.11.2022
950 Clouds 11 1022 77 7000 1.54 340 12:47 21.11.2022
951 Clouds 14 1021 63 10000 2.57 320 09:31 21.11.2022
952 Clouds 15 1020 55 10000 3.09 310 07:43 21.11.2022
953 Mist 7 1021 94 4500 0.51 300 22:51 20.11.2022
954 Mist 7 1020 94 3500 0.51 30 21:36 20.11.2022
955 Mist 6 1020 94 3500 1.54 350 20:47 20.11.2022
956 Mist 6 1021 91 4000 1.54 170 18:58 20.11.2022
957 Clear 8 1021 84 6000 1.54 320 16:50 20.11.2022
958 Clear 8 1021 87 8000 2.57 310 15:35 20.11.2022
959 Clear 8 1020 85 7000 1.03 30 14:55 20.11.2022
960 Clear 9 1020 85 7000 0.51 290 13:51 20.11.2022
961 Clear 11 1020 69 10000 1.03 10 12:51 20.11.2022
962 Clear 11 1019 67 10000 1.54 330 11:38 20.11.2022
963 Clear 13 1019 61 10000 2.57 310 10:56 20.11.2022
964 Clear 16 1019 49 10000 3.09 290 09:42 20.11.2022
965 Clear 18 1019 39 10000 3.09 340 08:47 20.11.2022
966 Clear 19 1019 35 10000 2.57 320 07:30 20.11.2022
967 Clear 19 1019 42 10000 2.06 360 05:23 20.11.2022
968 Clear 11 1021 71 10000 1.03 30 01:23 20.11.2022
969 Clouds 7 1020 90 9000 1.03 320 00:42 20.11.2022
970 Clouds 7 1020 90 9000 1.03 320 00:24 20.11.2022
971 Clouds 7 1020 87 7000 1.03 330 23:53 19.11.2022
972 Clouds 7 1020 93 7000 1.03 330 23:25 19.11.2022
973 Clouds 8 1020 87 7000 1.03 350 22:41 19.11.2022
974 Clouds 8 1020 87 7000 1.03 350 22:41 19.11.2022
975 Rain 9 1020 84 8000 1.03 180 21:33 19.11.2022
976 Clouds 8 1020 84 8000 1.03 350 20:57 19.11.2022
977 Clouds 8 1020 84 8000 1.03 350 20:37 19.11.2022
978 Rain 9 1021 84 8000 1.03 340 19:25 19.11.2022
979 Clear 8 1021 84 10000 0.51 20 17:41 19.11.2022
980 Clear 9 1021 87 10000 0.51 20 17:21 19.11.2022
981 Clear 8 1021 82 10000 1.54 320 16:28 19.11.2022
982 Clear 9 1021 74 10000 1.54 340 14:39 19.11.2022
983 Clear 11 1021 66 10000 2.06 310 12:31 19.11.2022
984 Clear 13 1020 50 10000 1.54 110 10:57 19.11.2022
985 Clear 16 1020 40 10000 2.57 100 09:25 19.11.2022
986 Clear 17 1023 42 10000 3.6 110 04:59 19.11.2022
987 Clear 12 1025 59 10000 1.03 320 02:56 19.11.2022
988 Clouds 4 1024 97 8000 2.06 310 23:46 18.11.2022
989 Clouds 5 1024 100 8000 2.06 310 23:19 18.11.2022
990 Fog 3 1024 97 3000 1.54 310 21:50 18.11.2022
991 Fog 3 1024 97 3000 1.54 310 21:30 18.11.2022
992 Fog 3 1025 97 3000 0.51 20 20:34 18.11.2022
993 Fog 4 1025 94 2500 0.51 10 19:46 18.11.2022
994 Fog 5 1025 97 4000 1.03 250 18:38 18.11.2022
995 Clear 6 1025 90 6000 1.54 30 17:42 18.11.2022
996 Clouds 7 1026 87 9000 1.03 340 14:32 18.11.2022
997 Clear 10 1025 69 10000 2.06 320 11:31 18.11.2022
998 Clear 17 1025 44 10000 3.09 310 08:46 18.11.2022
999 Clear 17 1025 38 10000 1.54 80 07:51 18.11.2022
1000 Clear 16 1026 42 10000 3.09 360 05:19 18.11.2022
1001 Fog 2 1028 100 3500 1.03 330 00:50 18.11.2022
1002 Fog 3 1027 97 2100 1.54 340 21:52 17.11.2022
1003 Fog 3 1027 97 2500 1.03 340 20:46 17.11.2022
1004 Fog 3 1026 97 4000 1.03 310 19:51 17.11.2022
1005 Mist 4 1026 97 5000 1.03 350 18:35 17.11.2022
1006 Mist 5 1026 97 6000 1.03 310 17:32 17.11.2022
1007 Mist 5 1026 97 7000 1.54 300 16:48 17.11.2022
1008 Clear 8 1025 79 10000 1.54 360 13:33 17.11.2022
1009 Clear 9 1025 48 10000 1.23 288 11:21 17.11.2022
1010 Clear 15 1023 44 10000 1.54 300 08:23 17.11.2022
1011 Clear 13 1024 50 10000 3.09 160 03:51 17.11.2022
1012 Clouds 5 1023 87 10000 1.54 200 00:21 17.11.2022
1013 Clear 4 1023 90 10000 1.54 160 22:29 16.11.2022
1014 Clear 5 1023 84 10000 1.03 170 20:36 16.11.2022
1015 Clear 5 1023 84 10000 2.06 160 19:33 16.11.2022
1016 Clear 5 1022 81 10000 2.57 150 18:35 16.11.2022
1017 Clear 5 1022 75 10000 1.03 130 17:19 16.11.2022
1018 Clear 6 1022 73 10000 0.51 160 13:39 16.11.2022
1019 Clear 11 1020 40 10000 2.57 270 09:34 16.11.2022
1020 Fog 5 1021 100 200 1.54 330 01:57 16.11.2022
1021 Fog 5 1021 100 200 1.54 330 01:25 16.11.2022
1022 Fog 3 1018 100 300 1.54 320 21:55 15.11.2022
1023 Fog 4 1018 100 800 1.54 290 20:32 15.11.2022
1024 Fog 6 1018 94 2000 1.03 30 19:18 15.11.2022
1025 Mist 5 1017 100 4000 2.57 190 17:39 15.11.2022
1026 Mist 6 1017 93 4000 1.03 180 16:53 15.11.2022
1027 Mist 7 1017 93 4000 1.03 180 16:18 15.11.2022
1028 Clouds 6 1017 93 9000 2.06 30 14:42 15.11.2022
1029 Rain 8 1017 84 10000 5.66 10 12:59 15.11.2022
1030 Clouds 8 1017 82 10000 0.51 20 11:29 15.11.2022
1031 Clouds 10 1016 68 10000 2.06 350 10:35 15.11.2022
1032 Clouds 12 1016 66 10000 5.14 260 05:19 15.11.2022
1033 Clouds 4 1017 84 10000 3.6 150 00:32 15.11.2022
1034 Clear 3 1017 81 10000 2.06 150 22:52 14.11.2022
1035 Clear 2 1017 93 10000 1.03 190 21:18 14.11.2022
1036 Clouds 3 1018 87 10000 0.51 70 20:30 14.11.2022
1037 Clouds 3 1018 84 10000 0.51 170 18:28 14.11.2022
1038 Clear 5 1018 75 10000 2.06 320 14:59 14.11.2022
1039 Clear 9 1017 57 10000 1.54 240 11:49 14.11.2022
1040 Clear 9 1017 57 10000 1.54 240 11:28 14.11.2022
1041 Clear 12 1017 45 10000 4.63 270 08:48 14.11.2022
1042 Clear 12 1017 49 10000 5.66 270 07:52 14.11.2022
1043 Clouds 13 1018 62 10000 3.09 190 04:31 14.11.2022
1044 Clouds 9 1019 93 8000 2.06 320 23:23 13.11.2022
1045 Clouds 9 1020 93 8000 0.51 200 21:42 13.11.2022
1046 Clouds 9 1020 93 8000 1.03 320 20:50 13.11.2022
1047 Clouds 7 1020 97 7000 1.03 280 18:55 13.11.2022
1048 Mist 7 1020 97 7000 1.03 350 17:50 13.11.2022
1049 Clouds 8 1020 94 10000 0.51 250 15:55 13.11.2022
1050 Clouds 9 1020 87 10000 2.06 30 14:39 13.11.2022
1051 Clear 10 1019 85 10000 2.57 360 12:56 13.11.2022
1052 Clouds 10 1019 81 10000 2.57 330 11:55 13.11.2022
1053 Clouds 11 1018 76 10000 2.57 340 10:42 13.11.2022
1054 Clouds 10 1016 68 10000 4.12 350 05:53 13.11.2022
1055 Clouds 9 1013 84 10000 2.06 280 23:55 12.11.2022
1056 Clouds 10 1011 85 10000 5.14 280 21:41 12.11.2022
1057 Clouds 11 1011 88 10000 4.63 260 20:57 12.11.2022
1058 Clouds 13 1010 91 10000 4.63 260 19:46 12.11.2022
1059 Mist 17 1008 88 10000 4.12 230 16:58 12.11.2022
1060 Mist 18 1009 91 7000 6.17 250 15:59 12.11.2022
1061 Rain 18 1009 94 4000 5.14 220 14:45 12.11.2022
1062 Mist 17 1012 91 4000 3.09 160 09:43 12.11.2022
1063 Mist 18 1013 78 5000 3.6 150 07:48 12.11.2022
1064 Mist 11 1021 85 7000 1.54 190 00:40 12.11.2022
1065 Mist 8 1021 93 3500 0.51 350 21:21 11.11.2022
1066 Mist 8 1022 87 3500 1.03 270 20:44 11.11.2022
1067 Mist 8 1022 90 3500 1.54 210 19:27 11.11.2022
1068 Mist 8 1023 87 3500 1.03 190 18:33 11.11.2022
1069 Mist 9 1023 84 4000 1.03 290 17:40 11.11.2022
1070 Mist 9 1023 84 4000 1.03 290 17:40 11.11.2022
1071 Mist 9 1023 84 4000 1.03 290 17:40 11.11.2022
1072 Mist 10 1024 85 4500 1.03 210 14:51 11.11.2022
1073 Mist 11 1024 82 4500 1.03 240 13:56 11.11.2022
1074 Clear 13 1024 67 6000 0.51 350 12:45 11.11.2022
1075 Clear 19 1024 48 7000 3.09 310 09:32 11.11.2022
1076 Clouds 19 1024 48 7000 3.09 310 09:32 11.11.2022
1077 Clear 21 1024 39 10000 2.06 190 08:26 11.11.2022
1078 Mist 7 1026 100 1700 1.54 330 00:40 11.11.2022
1079 Fog 6 1026 97 600 0.51 320 22:53 10.11.2022
1080 Fog 6 1026 97 500 1.03 200 21:50 10.11.2022
1081 Fog 7 1026 97 500 1.03 200 21:27 10.11.2022
1082 Fog 6 1026 97 600 1.54 310 20:43 10.11.2022
1083 Fog 6 1026 100 800 1.54 320 20:19 10.11.2022
1084 Fog 7 1026 97 1400 2.06 310 18:50 10.11.2022
1085 Mist 8 1026 94 1800 0.51 280 17:44 10.11.2022
1086 Mist 9 1026 93 2300 1.03 350 16:25 10.11.2022
1087 Mist 11 1025 88 3500 1.03 340 13:37 10.11.2022
1088 Haze 16 1024 59 7000 2.57 330 09:53 10.11.2022
1089 Clouds 18 1024 50 10000 1.47 350 08:20 10.11.2022
1090 Mist 9 1026 100 1500 1.03 320 01:21 10.11.2022
1091 Fog 6 1025 100 500 0.51 330 23:20 09.11.2022
1092 Fog 6 1024 97 1500 1.03 10 21:57 09.11.2022
1093 Mist 7 1024 97 1500 2.06 210 20:46 09.11.2022
1094 Mist 7 1024 97 1500 1.54 200 20:28 09.11.2022
1095 Mist 8 1025 94 1500 1.54 180 19:26 09.11.2022
1096 Mist 8 1025 94 1500 1.54 180 19:26 09.11.2022
1097 Mist 8 1025 90 2000 1.54 290 17:49 09.11.2022
1098 Mist 10 1025 84 2600 1.03 340 14:58 09.11.2022
1099 Mist 10 1025 84 2600 1.03 340 14:40 09.11.2022
1100 Rain 10 1025 87 2600 1.03 340 14:21 09.11.2022
1101 Mist 11 1025 76 3500 1.54 290 12:55 09.11.2022
1102 Haze 14 1024 63 4500 3.09 290 09:40 09.11.2022
1103 Haze 15 1024 56 5000 2.57 310 07:47 09.11.2022
1104 Haze 16 1025 54 5000 2.57 350 06:55 09.11.2022
1105 Fog 5 1026 97 150 1.03 20 22:44 08.11.2022
1106 Fog 5 1026 97 200 1.54 310 21:43 08.11.2022
1107 Fog 5 1026 97 200 1.54 310 21:43 08.11.2022
1108 Clouds 8 1026 75 10000 0.29 41 21:21 08.11.2022
1109 Fog 5 1026 100 600 1.54 350 20:30 08.11.2022
1110 Fog 5 1026 97 1100 1.03 360 19:28 08.11.2022
1111 Fog 6 1026 94 1400 1.03 330 17:37 08.11.2022
1112 Mist 7 1026 94 3000 1.03 310 15:38 08.11.2022
1113 Mist 8 1025 88 4000 1.03 350 14:51 08.11.2022
1114 Mist 9 1025 88 5000 0.51 340 13:33 08.11.2022
1115 Clear 10 1025 74 9000 1.54 290 11:30 08.11.2022
1116 Clear 17 1024 45 10000 1.54 330 07:45 08.11.2022
1117 Clouds 17 1024 42 7000 3.09 320 06:28 08.11.2022
1118 Mist 8 1025 94 4000 1.03 280 23:50 07.11.2022
1119 Mist 9 1024 84 6000 2.06 350 21:56 07.11.2022
1120 Mist 9 1024 84 7000 2.57 330 20:58 07.11.2022
1121 Clouds 9 1024 84 9000 1.54 300 19:52 07.11.2022
1122 Clouds 11 1023 82 10000 0.51 310 17:43 07.11.2022
1123 Clouds 12 1023 72 10000 1.03 320 15:40 07.11.2022
1124 Clouds 12 1023 65 10000 1.03 280 14:57 07.11.2022
1125 Clouds 12 1023 65 10000 1.03 280 14:57 07.11.2022
1126 Clouds 12 1023 62 10000 1.03 10 13:45 07.11.2022
1127 Clouds 12 1023 56 10000 1.03 210 12:30 07.11.2022
1128 Clouds 13 1022 53 10000 2.06 280 10:45 07.11.2022
1129 Clouds 15 1022 47 10000 3.6 270 08:31 07.11.2022
1130 Clouds 17 1021 37 10000 2.57 220 06:33 07.11.2022
1131 Clear 9 1024 71 10000 2.57 160 01:48 07.11.2022
1132 Clear 3 1023 97 10000 1.03 230 23:46 06.11.2022
1133 Clear 3 1024 100 10000 0.51 10 21:22 06.11.2022
1134 Clear 3 1024 94 10000 0.51 350 20:49 06.11.2022
1135 Clear 4 1024 94 10000 1.54 170 19:57 06.11.2022
1136 Clear 4 1024 94 10000 1.54 170 19:27 06.11.2022
1137 Clear 4 1024 93 10000 1.03 80 18:20 06.11.2022
1138 Clear 5 1024 87 10000 0.51 360 17:39 06.11.2022
1139 Clear 4 1024 93 10000 0.51 360 17:18 06.11.2022
1140 Clouds 5 1024 45 10000 0.48 53 16:18 06.11.2022
1141 Clear 6 1024 81 10000 1.03 200 14:45 06.11.2022
1142 Clear 7 1024 69 10000 0.51 350 12:45 06.11.2022
1143 Clear 7 1024 69 10000 0.51 350 12:45 06.11.2022
1144 Clear 10 1023 56 10000 2.57 290 10:55 06.11.2022
1145 Clear 13 1023 43 10000 3.6 300 09:52 06.11.2022
1146 Clear 15 1023 36 10000 3.09 290 07:39 06.11.2022
1147 Clear 1 1025 87 10000 1.03 170 23:23 05.11.2022
1148 Clouds 2 1024 84 10000 3.6 150 20:40 05.11.2022
1149 Clouds 1 1025 50 10000 1.52 135 18:22 05.11.2022
1150 Clouds 1 1025 50 10000 1.52 135 18:22 05.11.2022
1151 Clear 3 1025 78 10000 1.54 160 16:27 05.11.2022
1152 Clear 4 1025 67 10000 3.09 150 14:42 05.11.2022
1153 -273 0 0 0 0 0 13:32 05.11.2022
1154 Clear 9 1025 45 10000 3.09 260 10:54 05.11.2022
1155 Clear 12 1024 27 10000 3.6 280 08:54 05.11.2022
1156 Clear 13 1024 28 10000 3.6 270 07:23 05.11.2022
1157 Clear 13 1025 23 10000 2.06 300 06:54 05.11.2022
1158 Clear -2 1026 80 10000 1.54 200 23:45 04.11.2022
1159 Clear -2 1026 86 10000 0.51 330 23:18 04.11.2022
1160 Clear -2 1025 75 10000 1.03 40 20:33 04.11.2022
1161 -273 0 0 0 0 0 20:31 04.11.2022
1162 Clear -2 1025 75 10000 1.03 40 20:31 04.11.2022
1163 Clear -2 1025 75 10000 1.03 40 20:30 04.11.2022
1164 Clear 0 1025 56 10000 1.03 310 17:56 04.11.2022
1165 Clear 0 1025 64 10000 0 0 17:21 04.11.2022
1166 Clear 4 1025 38 10000 5.14 330 13:52 04.11.2022
1167 Clear 4 1025 36 10000 4.63 320 12:27 04.11.2022
1168 Clear 6 1024 30 10000 4.12 320 10:40 04.11.2022
1169 Clear 9 1023 22 10000 5.66 330 08:45 04.11.2022
1170 Clear 9 1023 20 10000 6.17 320 07:43 04.11.2022
1171 Clear 6 1025 28 10000 5.14 330 03:51 04.11.2022
1172 Clear 1 1023 58 10000 3.09 320 22:50 03.11.2022
1173 Clear 2 1022 54 10000 3.09 320 20:50 03.11.2022
1174 Clear 2 1022 54 10000 2.57 300 19:53 03.11.2022
1175 Clear 3 1022 54 10000 2.57 300 19:27 03.11.2022
1176 Clear 5 1022 46 10000 4.63 330 17:43 03.11.2022
1177 Clear 5 1022 49 10000 4.63 330 16:51 03.11.2022
1178 Clear 7 1021 53 10000 5.14 310 14:19 03.11.2022
1179 Clear 9 1020 60 10000 3.09 320 12:38 03.11.2022
1180 Clear 10 1020 58 10000 3.09 310 11:44 03.11.2022
1181 Clouds 11 1019 54 10000 2.57 300 09:19 03.11.2022
1182 Clouds 12 1019 54 10000 3.6 310 07:34 03.11.2022
1183 Clear 5 1019 93 10000 1.54 330 21:29 02.11.2022
1184 Clear 5 1019 87 10000 1.03 250 20:37 02.11.2022
1185 Clear 5 1020 87 10000 0.51 330 19:47 02.11.2022
1186 Clear 6 1020 82 10000 2.06 310 16:36 02.11.2022
1187 Clear 6 1020 82 10000 1.54 330 15:35 02.11.2022
1188 Clear 7 1020 77 10000 1.54 320 14:25 02.11.2022
1189 Clear 9 1021 60 10000 0.51 60 12:38 02.11.2022
1190 Clear 12 1020 46 10000 3.6 270 10:45 02.11.2022
1191 Clear 16 1020 28 10000 5.14 290 08:48 02.11.2022
1192 Clear 14 1023 41 10000 1.54 360 03:39 02.11.2022
1193 Clear 3 1022 90 10000 0.51 330 23:27 01.11.2022
1194 Clear 4 1022 87 10000 1.54 310 22:18 01.11.2022
1195 Clear 5 1022 75 10000 1.03 340 21:24 01.11.2022
1196 Clear 5 1022 75 10000 2.06 300 20:23 01.11.2022
1197 Clear 5 1022 81 10000 1.54 330 19:42 01.11.2022
1198 Clear 5 1022 84 10000 1.54 320 18:32 01.11.2022
1199 Clear 8 1022 71 10000 2.06 340 16:56 01.11.2022
1200 Clear 8 1022 66 10000 2.57 320 15:19 01.11.2022
1201 Clear 10 1022 69 10000 2.57 320 13:24 01.11.2022
1202 Mist 11 1022 80 4000 2.57 310 12:26 01.11.2022
1203 Mist 13 1022 82 5000 3.09 290 11:21 01.11.2022
1204 Clear 16 1021 52 10000 3.6 280 09:25 01.11.2022
1205 Haze 18 1021 50 7000 3.09 340 07:54 01.11.2022
1206 Haze 18 1021 50 7000 3.09 340 07:28 01.11.2022
1207 Haze 18 1021 52 6000 4.12 340 06:46 01.11.2022
1208 Mist 17 1022 67 4500 4.63 360 05:23 01.11.2022
1209 Mist 9 1022 100 2000 1.03 340 22:51 31.10.2022
1210 Fog 8 1022 97 1100 0.51 330 21:34 31.10.2022
1211 Fog 9 1023 97 700 0.51 70 19:57 31.10.2022
1212 Fog 9 1023 93 500 1.03 300 18:42 31.10.2022
1213 Fog 10 1023 94 2000 1.54 310 16:44 31.10.2022
1214 Mist 10 1023 88 2600 0.51 350 15:35 31.10.2022
1215 Mist 13 1023 85 4000 3.09 310 12:39 31.10.2022
1216 Clouds 17 1023 59 10000 2.06 280 09:44 31.10.2022
1217 Clouds 19 1023 49 10000 3.6 270 07:41 31.10.2022
1218 Clear 16 1025 59 10000 4.63 150 02:47 31.10.2022
1219 Clear 14 1026 69 10000 2.57 140 01:48 31.10.2022
1220 Clear 9 1025 93 10000 1.03 160 22:20 30.10.2022
1221 Clouds 10 1025 88 9000 1.54 130 20:39 30.10.2022
1222 Mist 10 1025 91 5000 1.03 280 19:52 30.10.2022
1223 Mist 10 1025 87 5000 1.03 310 16:42 30.10.2022
1224 Clouds 11 1025 85 6000 1.03 290 14:43 30.10.2022
1225 Clouds 11 1025 85 8000 1.54 330 13:50 30.10.2022
1226 Clear 12 1025 87 10000 1.54 320 12:24 30.10.2022
1227 Clear 15 1024 65 10000 3.09 280 10:25 30.10.2022
1228 Clear 18 1024 45 10000 1.54 200 09:35 30.10.2022
1229 Clear 20 1024 40 10000 1.54 100 07:57 30.10.2022
1230 Clouds 7 1026 97 6000 1.03 340 00:29 30.10.2022
1231 Mist 7 1026 97 5000 1.54 320 23:47 29.10.2022
1232 Fog 7 1026 97 4000 1.03 320 22:31 29.10.2022
1233 Clouds 8 1025 97 6000 1.54 340 19:38 29.10.2022
1234 Clouds 9 1025 93 8000 0.51 340 17:23 29.10.2022
1235 Clouds 11 1025 85 9000 1.54 310 15:39 29.10.2022
1236 Clear 11 1025 85 10000 1.54 10 14:54 29.10.2022
1237 Clear 12 1025 82 10000 0.51 320 13:45 29.10.2022
1238 Clear 13 1025 72 10000 1.03 320 12:32 29.10.2022
1239 Clear 20 1025 37 10000 1.54 10 09:32 29.10.2022
1240 Clear 19 1026 45 10000 1.54 50 06:50 29.10.2022
1241 Clear 18 1027 52 10000 2.57 170 05:53 29.10.2022
1242 Mist 7 1027 97 4000 1.03 360 23:44 28.10.2022
1243 Fog 8 1027 97 3000 1.54 340 21:33 28.10.2022
1244 Mist 8 1027 97 3500 1.54 330 19:57 28.10.2022
1245 Mist 8 1027 97 6000 1.03 360 18:33 28.10.2022
1246 Mist 9 1027 94 6000 1.54 320 17:39 28.10.2022
1247 Mist 10 1026 88 9000 1.54 360 14:51 28.10.2022
1248 Mist 12 1026 82 9000 2.06 20 13:43 28.10.2022
1249 Clear 14 1025 68 8000 3.6 290 11:55 28.10.2022
1250 Clear 14 1025 68 8000 3.6 290 11:32 28.10.2022
1251 Clouds 17 1025 58 9000 4.12 290 10:45 28.10.2022
1252 Clear 19 1025 42 10000 2.06 260 09:36 28.10.2022
1253 Clouds 19 1026 47 10000 2.06 100 06:57 28.10.2022
1254 Mist 7 1027 100 5000 1.03 310 01:44 28.10.2022
1255 Fog 6 1026 97 3500 1.03 360 23:46 27.10.2022
1256 Fog 5 1026 97 4000 0.51 320 22:32 27.10.2022
1257 Mist 7 1026 97 9000 1.03 320 20:57 27.10.2022
1258 Mist 8 1026 93 9000 1.54 310 18:30 27.10.2022
1259 Mist 9 1026 97 8000 1.03 160 16:38 27.10.2022
1260 Clear 14 1025 83 10000 2.57 280 12:33 27.10.2022
1261 Clear 19 1025 47 10000 4.12 330 07:41 27.10.2022
1262 Clear 11 1027 79 10000 1.03 340 02:50 27.10.2022
1263 Fog 6 1026 97 4000 0.51 330 23:53 26.10.2022
1264 Clouds 7 1026 94 7000 1.54 350 22:41 26.10.2022
1265 Clouds 7 1026 94 8000 1.54 340 21:31 26.10.2022
1266 Clear 8 1027 100 10000 1.03 340 18:21 26.10.2022
1267 Clear 11 1026 69 10000 1.03 310 14:54 26.10.2022
1268 Clear 12 1027 60 10000 1.54 360 13:33 26.10.2022
1269 Clear 12 1026 67 10000 3.09 300 12:26 26.10.2022
1270 Clear 17 1026 42 10000 2.57 300 09:19 26.10.2022
1271 Clear 17 1026 37 10000 1.03 70 08:53 26.10.2022
1272 Clear 5 1029 93 10000 0.51 270 00:57 26.10.2022
1273 Clear 5 1029 93 10000 0.51 270 00:36 26.10.2022
1274 Clear 5 1029 90 10000 0.51 170 22:30 25.10.2022
1275 Clear 5 1029 90 10000 1.03 310 21:45 25.10.2022
1276 Clear 5 1029 94 10000 1.54 170 20:33 25.10.2022
1277 Clear 6 1029 91 10000 1.03 190 18:56 25.10.2022
1278 Clear 7 1029 82 10000 2.57 220 16:56 25.10.2022
1279 Clear 11 1028 60 10000 1.03 360 12:55 25.10.2022
1280 Clear 13 1027 47 10000 1.54 50 11:38 25.10.2022
1281 Clear 16 1027 37 10000 1.54 90 10:36 25.10.2022
1282 Clouds 17 1027 36 10000 2.57 90 08:38 25.10.2022
1283 Clouds 17 1027 36 10000 2.57 90 08:18 25.10.2022
1284 Clouds 17 1028 34 10000 3.09 90 07:53 25.10.2022
1285 Clear 16 1028 38 10000 4.63 90 06:48 25.10.2022
1286 Clear 12 1030 50 10000 3.09 30 03:32 25.10.2022
1287 Clear 3 1029 90 10000 1.54 310 00:32 25.10.2022
1288 Clear 3 1027 90 10000 1.54 300 22:28 24.10.2022
1289 Clear 4 1027 84 10000 1.54 330 21:49 24.10.2022
1290 Clear 4 1027 81 10000 1.03 360 20:55 24.10.2022
1291 Clear 4 1027 81 10000 1.03 360 20:23 24.10.2022
1292 Clear 6 1026 68 10000 2.06 360 18:41 24.10.2022
1293 Clear 6 1025 66 10000 1.54 310 16:55 24.10.2022
1294 Clear 8 1025 52 10000 2.06 320 15:28 24.10.2022
1295 Clear 8 1024 53 10000 2.06 340 14:19 24.10.2022
1296 Clear 10 1023 41 10000 4.12 320 12:27 24.10.2022
1297 Clear 14 1021 30 10000 5.66 320 09:22 24.10.2022
1298 Clear 13 1022 41 10000 3.24 337 03:21 24.10.2022
1299 Clear 6 1020 84 10000 3.09 320 22:29 23.10.2022
1300 Clear 8 1020 74 10000 1.03 250 20:38 23.10.2022
1301 Clear 8 1020 64 10000 1.03 320 18:41 23.10.2022
1302 Clear 8 1020 62 10000 1.54 330 17:28 23.10.2022
1303 Clear 10 1020 50 10000 3.6 310 15:39 23.10.2022
1304 Clear 11 1020 43 10000 3.09 310 14:52 23.10.2022
1305 Clear 15 1019 29 10000 7.2 330 11:27 23.10.2022
1306 Clear 18 1018 32 10000 8.23 330 09:55 23.10.2022
1307 Mist 15 1020 67 10000 3.6 340 04:29 23.10.2022
1308 Mist 11 1019 90 5000 2.57 330 22:48 22.10.2022
1309 Mist 12 1018 91 4500 2.57 330 21:43 22.10.2022
1310 Mist 12 1019 91 3000 1.54 310 20:56 22.10.2022
1311 Mist 13 1019 97 3200 2.57 300 19:52 22.10.2022
1312 Mist 13 1019 97 3200 2.57 300 19:29 22.10.2022
1313 Mist 14 1019 94 6000 1.54 270 17:39 22.10.2022
1314 Clouds 14 1020 88 9000 1.03 220 15:58 22.10.2022
1315 Clouds 14 1020 88 9000 1.03 220 15:58 22.10.2022
1316 Clouds 13 1020 91 9000 0.51 320 14:46 22.10.2022
1317 Clouds 14 1020 86 10000 1.54 180 13:53 22.10.2022
1318 Clear 18 1019 64 10000 4.63 280 10:30 22.10.2022
1319 Clear 19 1019 52 10000 5.14 290 09:39 22.10.2022
1320 Clear 20 1019 51 10000 4.63 280 08:30 22.10.2022
1321 Haze 16 1023 72 3500 0.51 320 03:42 22.10.2022
1322 Mist 9 1023 97 2000 1.03 330 23:53 21.10.2022
1323 Mist 9 1023 97 1500 1.03 350 21:35 21.10.2022
1324 Mist 9 1023 97 1500 0.51 260 20:59 21.10.2022
1325 Mist 8 1023 97 1200 1.54 330 19:36 21.10.2022
1326 Mist 9 1024 90 2500 0.51 290 16:51 21.10.2022
1327 Mist 11 1023 79 5000 1.54 340 13:59 21.10.2022
1328 Mist 13 1023 72 5000 2.57 230 12:58 21.10.2022
1329 Mist 13 1023 72 5000 2.57 230 12:58 21.10.2022
1330 Clear 16 1023 54 10000 3.09 290 10:59 21.10.2022
1331 Clear 16 1023 63 10000 3.09 290 10:20 21.10.2022
1332 Clear 20 1023 30 10000 3.6 230 08:39 21.10.2022
1333 Clouds 20 1023 30 9000 3.09 270 07:28 21.10.2022
1334 Clouds 8 1027 57 10000 0.45 126 01:00 21.10.2022
1335 Fog 7 1026 97 3000 1.54 180 22:26 20.10.2022
1336 Mist 9 1026 94 3500 1.03 320 20:38 20.10.2022
1337 Mist 9 1026 97 4000 1.03 320 19:38 20.10.2022
1338 Clouds 10 1026 94 6000 1.03 320 17:53 20.10.2022
1339 Clouds 10 1026 94 6000 1.03 320 17:33 20.10.2022
1340 Clear 12 1027 67 10000 3.09 280 12:37 20.10.2022
1341 Clear 13 1027 76 10000 3.09 280 12:18 20.10.2022
1342 Clear 17 1026 44 10000 3.09 270 10:59 20.10.2022
1343 Clear 17 1026 44 10000 3.09 270 10:29 20.10.2022
1344 Clear 19 1027 29 10000 2.57 300 07:46 20.10.2022
1345 Clear 17 1029 39 10000 1.54 330 05:38 20.10.2022
1346 Clear 7 1030 97 10000 0.51 180 01:49 20.10.2022
1347 Clear 4 1029 94 7000 1.54 320 22:45 19.10.2022
1348 Clear 4 1028 94 7000 1.03 340 21:56 19.10.2022
1349 Clear 5 1028 97 10000 0.51 300 20:52 19.10.2022
1350 Clear 5 1028 94 10000 1.03 320 18:49 19.10.2022
1351 Clear 6 1028 90 10000 1.03 360 17:38 19.10.2022
1352 Clear 7 1027 76 10000 2.06 180 15:41 19.10.2022
1353 Clear 10 1026 62 10000 2.06 280 12:58 19.10.2022
1354 Clear 16 1025 29 10000 3.09 330 09:34 19.10.2022
1355 Clear 16 1026 29 10000 3.6 360 08:29 19.10.2022
1356 Clear 15 1027 36 10000 4.63 340 05:19 19.10.2022
1357 Clear 6 1026 78 10000 1.03 330 01:25 19.10.2022
1358 Clear 2 1025 90 10000 0.51 160 22:57 18.10.2022
1359 Clear 2 1025 90 10000 0.51 90 21:38 18.10.2022
1360 Clear 3 1025 87 10000 1.03 50 20:44 18.10.2022
1361 Clear 3 1025 81 10000 1.03 170 19:51 18.10.2022
1362 Clear 5 1024 70 10000 1.03 20 17:34 18.10.2022
1363 Clear 6 1024 61 10000 1.54 300 16:20 18.10.2022
1364 Clear 7 1023 57 10000 2.06 320 14:19 18.10.2022
1365 Clear 9 1023 51 10000 2.06 270 12:30 18.10.2022
1366 Clear 11 1022 43 10000 2.06 280 11:20 18.10.2022
1367 Clear 14 1022 31 10000 3.6 320 09:28 18.10.2022
1368 Clear 13 1023 32 10000 3.6 320 07:54 18.10.2022
1369 Clear 7 1024 61 10000 0.51 70 01:57 18.10.2022
1370 Clear 4 1023 81 10000 1.03 330 22:19 17.10.2022
1371 Clear 6 1022 66 10000 0.51 340 20:51 17.10.2022
1372 Clear 6 1022 66 10000 0.51 340 20:30 17.10.2022
1373 Clear 6 1022 66 10000 0.51 340 20:30 17.10.2022
1374 Clear 5 1022 69 10000 2.57 330 19:51 17.10.2022
1375 Clear 6 1022 69 10000 1.03 330 18:42 17.10.2022
1376 Clear 6 1022 69 10000 1.54 270 16:39 17.10.2022
1377 Clear 7 1022 62 10000 2.06 340 15:29 17.10.2022
1378 Clear 8 1022 55 10000 2.06 310 14:34 17.10.2022
1379 Clear 13 1019 34 10000 6.17 310 10:29 17.10.2022
1380 Clear 13 1020 27 10000 5.14 300 05:26 17.10.2022
1381 Clear 10 1020 52 10000 5.14 320 23:30 16.10.2022
1382 Clear 12 1019 64 10000 4.63 300 21:47 16.10.2022
1383 Mist 13 1019 71 10000 5.66 310 20:41 16.10.2022
1384 Mist 13 1019 76 10000 5.14 310 19:46 16.10.2022
1385 Clouds 14 1018 88 7000 1.03 310 17:51 16.10.2022
1386 Clouds 14 1018 88 9000 1.03 340 16:33 16.10.2022
1387 Clear 15 1018 83 10000 1.03 40 15:56 16.10.2022
1388 Mist 15 1018 85 10000 0.51 20 14:23 16.10.2022
1389 Clear 16 1018 77 10000 2.06 280 12:21 16.10.2022
1390 Clear 19 1018 68 10000 3.6 310 10:27 16.10.2022
1391 Clear 19 1018 68 10000 3.6 310 10:27 16.10.2022
1392 Haze 18 1017 70 10000 1.03 350 08:35 16.10.2022
1393 Clouds 14 1019 91 9000 2.06 340 00:48 16.10.2022
1394 Clouds 14 1018 94 8000 1.54 340 22:38 15.10.2022
1395 Clouds 14 1018 94 8000 1.54 350 21:23 15.10.2022
1396 Clouds 14 1018 91 8000 1.03 350 20:25 15.10.2022
1397 Clouds 15 1019 83 9000 1.03 290 18:26 15.10.2022
1398 Clear 16 1019 75 10000 1.54 330 15:46 15.10.2022
1399 Clouds 19 1019 38 10000 0.99 349 14:21 15.10.2022
1400 Clear 18 1018 57 10000 2.06 340 11:52 15.10.2022
1401 Clear 21 1018 45 10000 3.09 320 10:26 15.10.2022
1402 Clear 24 1018 31 10000 2.57 360 08:20 15.10.2022
1403 Clouds 13 1020 97 6000 1.54 20 01:55 15.10.2022
1404 Fog 11 1020 97 4000 0.51 310 23:25 14.10.2022
1405 Fog 12 1019 100 6000 1.03 350 22:22 14.10.2022
1406 Fog 12 1019 100 6000 1.03 350 22:22 14.10.2022
1407 Clouds 12 1019 97 6000 1.54 330 21:27 14.10.2022
1408 Clouds 12 1019 97 6000 1.54 330 21:27 14.10.2022
1409 Clouds 13 1019 94 8000 1.03 340 19:25 14.10.2022
1410 Clear 15 1019 85 10000 1.03 330 16:23 14.10.2022
1411 Clear 16 1019 88 10000 2.57 320 13:21 14.10.2022
1412 Clear 18 1018 63 10000 1.54 340 11:39 14.10.2022
1413 Clear 22 1019 46 10000 3.09 320 08:59 14.10.2022
1414 Clear 21 1019 53 10000 1.54 10 06:53 14.10.2022
1415 Clear 21 1019 56 10000 0.51 30 06:18 14.10.2022
1416 Clear 20 1021 58 10000 1.03 60 05:42 14.10.2022
1417 Clear 16 1022 77 10000 2.06 20 03:24 14.10.2022
1418 Clear 11 1022 97 10000 1.03 40 23:43 13.10.2022
1419 Clouds 11 1021 97 7000 1.03 10 21:57 13.10.2022
1420 Clouds 11 1021 100 7000 1.03 10 21:20 13.10.2022
1421 Clouds 11 1022 93 7000 0.51 330 19:43 13.10.2022
1422 Clouds 11 1022 93 9000 0.51 40 18:52 13.10.2022
1423 Clouds 11 1022 93 9000 0.51 40 18:21 13.10.2022
1424 Clear 13 1023 88 10000 1.03 320 15:58 13.10.2022
1425 Clear 13 1023 88 10000 1.03 320 15:40 13.10.2022
1426 Clear 15 1023 82 10000 2.06 320 14:18 13.10.2022
1427 Clear 15 1023 80 10000 3.09 310 12:43 13.10.2022
1428 Clear 21 1023 44 10000 2.06 300 10:59 13.10.2022
1429 Clear 22 1024 39 10000 2.06 330 08:50 13.10.2022
1430 Clear 22 1024 43 10000 1.54 90 07:38 13.10.2022
1431 Clear 21 1026 44 10000 2.06 140 05:28 13.10.2022
1432 Clear 11 1027 94 10000 1.03 290 01:41 13.10.2022
1433 Clear 9 1027 97 10000 0.51 330 00:41 13.10.2022
1434 Clouds 8 1027 97 8000 1.54 320 22:45 12.10.2022
1435 Clear 9 1026 97 8000 1.03 340 21:48 12.10.2022
1436 Clouds 9 1026 100 8000 1.03 340 21:19 12.10.2022
1437 Clear 9 1027 97 8000 0.51 270 20:35 12.10.2022
1438 Clear 9 1027 97 9000 0.51 190 19:23 12.10.2022
1439 Clear 9 1027 100 9000 1.03 310 18:18 12.10.2022
1440 Clear 11 1027 93 10000 1.54 310 17:42 12.10.2022
1441 Clear 12 1027 87 10000 2.06 310 14:45 12.10.2022
1442 Clear 12 1027 85 10000 1.54 300 13:53 12.10.2022
1443 Clear 16 1026 51 10000 2.57 110 11:54 12.10.2022
1444 Clear 20 1026 42 10000 2.06 140 09:36 12.10.2022
1445 Clear 19 1026 42 10000 2.06 100 07:42 12.10.2022
1446 Clear 19 1027 44 10000 3.6 180 06:44 12.10.2022
1447 Clear 17 1027 48 10000 3.09 80 05:27 12.10.2022
1448 Clear 6 1026 97 10000 1.54 350 23:56 11.10.2022
1449 Clear 5 1026 97 10000 1.54 360 21:25 11.10.2022
1450 Clear 6 1026 94 10000 0.51 260 20:26 11.10.2022
1451 Clear 6 1026 94 10000 0.51 260 20:26 11.10.2022
1452 Clear 7 1025 84 10000 1.03 330 18:25 11.10.2022
1453 Clear 8 1025 81 10000 1.03 350 15:55 11.10.2022
1454 Clear 10 1023 73 10000 2.06 300 13:37 11.10.2022
1455 Clear 15 1021 48 10000 3.6 320 10:47 11.10.2022
1456 Clear 16 1021 48 10000 3.6 320 10:26 11.10.2022
1457 Clear 16 1021 50 10000 3.09 330 08:32 11.10.2022
1458 Clouds 10 1022 69 10000 4.63 340 02:59 11.10.2022
1459 Clouds 7 1021 76 10000 2.06 290 00:39 11.10.2022
1460 Clouds 7 1020 76 10000 3.6 310 22:54 10.10.2022
1461 Clouds 8 1019 74 10000 2.57 350 20:48 10.10.2022
1462 Clouds 7 1018 76 10000 3.6 340 19:40 10.10.2022
1463 Clouds 9 1017 69 10000 6.17 310 17:34 10.10.2022
1464 Clouds 9 1016 69 10000 5.14 300 16:36 10.10.2022
1465 Clouds 8 1014 69 10000 4.63 300 13:59 10.10.2022
1466 Clouds 8 1014 71 10000 5.14 310 12:23 10.10.2022
1467 Clouds 11 1012 66 10000 7.2 280 10:20 10.10.2022
1468 Clouds 12 1012 62 10000 6.17 270 07:21 10.10.2022
1469 Clouds 11 1014 58 10000 6.17 290 05:35 10.10.2022
1470 Clouds 9 1015 71 10000 7.2 300 01:58 10.10.2022
1471 Clouds 9 1014 74 10000 5.14 310 00:23 10.10.2022
1472 Clouds 10 1013 76 10000 3.6 280 22:26 09.10.2022
1473 Clouds 10 1013 76 10000 3.09 280 21:40 09.10.2022
1474 Clouds 11 1014 79 10000 3.09 280 20:45 09.10.2022
1475 Clouds 11 1014 82 10000 3.09 280 19:51 09.10.2022
1476 Clouds 10 1014 93 10000 1.54 270 18:51 09.10.2022
1477 Clouds 10 1014 97 10000 1.54 280 17:55 09.10.2022
1478 Clouds 11 1014 93 10000 1.03 180 16:55 09.10.2022
1479 Clouds 11 1014 93 10000 1.03 180 16:20 09.10.2022
1480 Rain 11 1015 93 10000 1.03 190 14:56 09.10.2022
1481 Rain 11 1015 93 10000 1.03 190 14:26 09.10.2022
1482 Rain 12 1014 93 7000 8.75 280 12:50 09.10.2022
1483 Rain 13 1013 91 6000 4.63 150 11:27 09.10.2022
1484 Rain 13 1016 91 7000 3.6 160 08:33 09.10.2022
1485 Rain 14 1019 85 10000 4.12 150 05:59 09.10.2022
1486 Clouds 14 1020 75 10000 2.57 170 03:29 09.10.2022
1487 Rain 14 1021 70 8000 3.09 200 01:54 09.10.2022
1488 Clear 14 1021 65 10000 4.12 120 23:33 08.10.2022
1489 Rain 14 1021 65 10000 5.14 130 22:51 08.10.2022
1490 Rain 14 1022 67 10000 3.6 120 20:45 08.10.2022
1491 Rain 14 1023 67 10000 3.6 120 19:48 08.10.2022
1492 Clear 15 1023 65 10000 5.14 110 17:45 08.10.2022
1493 Clear 15 1023 70 10000 4.12 120 15:36 08.10.2022
1494 Clear 15 1023 67 10000 1.54 40 13:53 08.10.2022
1495 Clear 15 1023 65 10000 1.54 20 12:30 08.10.2022
1496 Clear 19 1022 42 10000 4.12 110 10:35 08.10.2022
1497 Clouds 19 1022 44 10000 3.09 60 09:42 08.10.2022
1498 Clouds 20 1023 43 10000 3.6 90 07:29 08.10.2022
1499 Clouds 14 1026 72 10000 2.57 70 02:41 08.10.2022
1500 Clear 9 1025 90 10000 1.54 350 23:52 07.10.2022
1501 Clear 8 1025 93 10000 1.54 350 23:20 07.10.2022
1502 Clear 8 1024 93 10000 2.06 330 22:19 07.10.2022
1503 Clear 9 1024 87 10000 2.06 310 20:35 07.10.2022
1504 Clear 10 1024 84 10000 1.03 350 18:29 07.10.2022
1505 Clear 11 1024 71 10000 2.06 320 16:58 07.10.2022
1506 Clear 12 1023 64 10000 2.06 330 15:48 07.10.2022
1507 Clouds 13 1023 56 10000 2.57 330 14:35 07.10.2022
1508 Clouds 15 1020 53 10000 3.6 320 11:48 07.10.2022
1509 Clouds 18 1019 48 10000 5.66 320 09:26 07.10.2022
1510 Clouds 18 1019 52 10000 5.14 330 08:47 07.10.2022
1511 Clouds 17 1020 59 10000 4.63 340 05:51 07.10.2022
1512 Clear 11 1020 88 10000 2.06 320 00:28 07.10.2022
1513 Clear 12 1019 82 10000 3.6 340 22:50 06.10.2022
1514 Clear 12 1019 85 10000 3.09 320 21:42 06.10.2022
1515 Clear 13 1018 80 10000 4.12 330 20:54 06.10.2022
1516 Clear 14 1018 77 10000 4.12 330 19:46 06.10.2022
1517 Rain 14 1019 80 10000 3.6 330 18:37 06.10.2022
1518 Clouds 14 1019 80 10000 3.09 320 16:58 06.10.2022
1519 Rain 16 1018 75 10000 3.6 320 13:51 06.10.2022
1520 Rain 18 1017 66 10000 3.6 330 10:45 06.10.2022
1521 Clouds 18 1020 63 10000 1.54 30 05:43 06.10.2022
1522 Clear 15 1021 75 10000 2.57 360 02:38 06.10.2022
1523 Clouds 13 1021 85 10000 2.57 320 22:29 05.10.2022
1524 Clouds 14 1021 83 10000 2.57 330 19:54 05.10.2022
1525 Clouds 14 1021 80 10000 2.06 320 17:50 05.10.2022
1526 Clouds 14 1021 80 10000 2.06 320 17:29 05.10.2022
1527 Clouds 15 1020 77 10000 3.09 350 15:46 05.10.2022
1528 Clouds 15 1021 75 10000 2.06 10 14:38 05.10.2022
1529 Clouds 16 1021 70 10000 4.63 350 13:39 05.10.2022
1530 Clouds 17 1021 61 10000 3.48 332 12:19 05.10.2022
1531 Clouds 20 1018 53 10000 4.12 280 08:31 05.10.2022
1532 Clouds 22 1019 43 10000 2.57 220 07:22 05.10.2022
1533 Clouds 19 1020 55 10000 3.09 200 05:34 05.10.2022
1534 Clouds 16 1021 68 10000 2.06 180 02:40 05.10.2022
1535 Clouds 14 1020 88 10000 1.03 320 00:41 05.10.2022
1536 Clouds 14 1020 88 10000 1.03 320 00:23 05.10.2022
1537 Clouds 13 1018 88 10000 2.57 320 21:38 04.10.2022
1538 Rain 13 1018 82 10000 2.57 310 20:20 04.10.2022
1539 Clouds 14 1018 71 10000 3.09 320 18:56 04.10.2022
1540 Clouds 14 1018 71 10000 3.09 320 18:34 04.10.2022
1541 Clouds 14 1018 67 10000 4.12 330 16:58 04.10.2022
1542 Clouds 14 1017 62 10000 4.63 330 15:21 04.10.2022
1543 Clouds 18 1014 68 10000 5.66 320 10:54 04.10.2022
1544 Rain 20 1013 64 10000 5.14 330 08:28 04.10.2022
1545 Clouds 19 1013 75 10000 3.6 300 05:56 04.10.2022
1546 Drizzle 18 1011 94 10000 4.63 320 00:25 04.10.2022
1547 Drizzle 20 1008 91 10000 3.09 310 22:57 03.10.2022
1548 Rain 20 1008 94 10000 3.6 310 21:41 03.10.2022
1549 Mist 21 1008 97 10000 4.63 310 20:40 03.10.2022
1550 Rain 23 1008 91 5000 4.12 290 18:52 03.10.2022
1551 Rain 23 1008 97 2500 4.63 260 17:35 03.10.2022
1552 Rain 23 1009 100 3500 5.14 260 16:22 03.10.2022
1553 Rain 23 1008 94 5000 6.17 200 14:30 03.10.2022
1554 Rain 23 1010 94 5000 5.14 240 12:46 03.10.2022
1555 Rain 23 1010 100 4500 3.09 200 11:21 03.10.2022
1556 Rain 24 1010 91 8000 6.17 200 09:59 03.10.2022
1557 Rain 23 1011 94 5000 4.12 200 08:47 03.10.2022
1558 Rain 22 1013 97 2000 3.6 220 04:45 03.10.2022
1559 Rain 19 1013 100 2000 2.57 130 23:51 02.10.2022
1560 Rain 19 1013 94 2000 3.6 150 22:19 02.10.2022
1561 Rain 18 1013 100 3000 3.6 190 19:52 02.10.2022
1562 Rain 18 1013 97 6000 3.6 200 17:56 02.10.2022
1563 Rain 18 1013 94 8000 3.6 220 16:57 02.10.2022
1564 Rain 18 1013 94 8000 3.6 220 16:32 02.10.2022
1565 Rain 18 1014 91 8000 3.09 150 15:34 02.10.2022
1566 Rain 18 1014 83 7000 5.66 130 13:46 02.10.2022
1567 Rain 18 1014 85 8000 5.14 100 12:42 02.10.2022
1568 Rain 18 1015 88 5000 5.14 130 11:53 02.10.2022
1569 Rain 18 1015 88 5000 5.14 130 11:33 02.10.2022
1570 Rain 21 1014 62 10000 2.57 140 10:19 02.10.2022
1571 Rain 22 1014 58 10000 8.23 120 08:30 02.10.2022
1572 Rain 22 1014 58 10000 8.23 120 08:30 02.10.2022
1573 Clear 22 1017 60 10000 4.12 110 05:21 02.10.2022
1574 Rain 17 1017 48 10000 2.71 87 01:20 02.10.2022
1575 Rain 18 1018 88 6000 1.54 70 00:38 02.10.2022
1576 Rain 18 1019 88 5000 2.06 360 23:28 01.10.2022
1577 Mist 17 1017 91 4500 1.54 330 21:48 01.10.2022
1578 Mist 17 1017 88 4500 0.51 360 18:54 01.10.2022
1579 Mist 17 1018 88 4500 1.54 320 17:46 01.10.2022
1580 Mist 19 1018 81 3500 1.03 350 15:29 01.10.2022
1581 Mist 20 1018 78 3200 2.06 310 13:52 01.10.2022
1582 Haze 21 1017 73 4500 2.06 310 12:34 01.10.2022
1583 Haze 23 1017 60 4500 2.57 290 11:22 01.10.2022
1584 Haze 24 1017 57 4000 2.06 280 10:51 01.10.2022
1585 Haze 24 1017 57 4000 2.06 280 10:29 01.10.2022
1586 Haze 25 1017 61 3500 3.09 270 09:21 01.10.2022
1587 Haze 27 1017 46 4000 3.09 280 08:26 01.10.2022
1588 Mist 21 1020 73 4500 0.51 270 03:47 01.10.2022
1589 Mist 20 1020 77 4500 0.51 270 03:18 01.10.2022
1590 Mist 14 1018 100 2400 0.51 190 23:21 30.09.2022
1591 Fog 14 1018 97 200 2.06 10 22:18 30.09.2022
1592 Fog 14 1017 97 600 1.03 270 20:53 30.09.2022
1593 Fog 13 1017 100 1500 1.54 320 20:20 30.09.2022
1594 Fog 15 1017 97 900 1.54 310 18:32 30.09.2022
1595 Mist 16 1017 91 1400 1.03 270 16:54 30.09.2022
1596 Mist 18 1017 89 2500 2.06 340 14:24 30.09.2022
1597 Mist 20 1016 74 4000 1.54 280 12:50 30.09.2022
1598 Haze 22 1015 67 5000 3.6 280 11:56 30.09.2022
1599 Clouds 27 1015 43 7000 1.54 320 09:24 30.09.2022
1600 Clouds 26 1015 41 8000 2.57 350 07:50 30.09.2022
1601 Mist 20 1017 78 3500 1.03 340 03:19 30.09.2022
1602 Fog 16 1017 100 900 1.03 320 01:23 30.09.2022
1603 Fog 14 1017 97 1500 2.06 320 21:40 29.09.2022
1604 Fog 14 1017 97 1500 2.06 320 21:19 29.09.2022
1605 Mist 15 1016 94 2300 1.03 10 18:56 29.09.2022
1606 Mist 15 1016 97 3000 0.51 320 17:49 29.09.2022
1607 Mist 16 1016 94 3000 1.54 310 16:29 29.09.2022
1608 Mist 16 1016 91 3500 0.51 250 15:37 29.09.2022
1609 Mist 17 1016 88 4500 0.51 320 14:59 29.09.2022
1610 Clear 20 1015 77 9000 2.06 250 12:22 29.09.2022
1611 Haze 26 1014 49 5000 2.57 320 08:44 29.09.2022
1612 Haze 22 1016 60 4000 1.03 340 04:22 29.09.2022
1613 Mist 17 1016 88 2200 1.54 340 01:47 29.09.2022
1614 Mist 16 1015 97 1300 1.03 210 23:20 28.09.2022
1615 Fog 16 1014 97 100 1.54 320 21:31 28.09.2022
1616 Fog 16 1014 97 100 1.54 310 20:49 28.09.2022
1617 Fog 14 1014 97 200 1.54 320 19:48 28.09.2022
1618 Fog 17 1014 94 1300 1.54 320 16:27 28.09.2022
1619 Mist 19 1013 89 2800 3.09 280 13:28 28.09.2022
1620 Clear 22 1013 64 10000 2.57 270 11:43 28.09.2022
1621 Clear 26 1012 52 10000 2.06 280 09:34 28.09.2022
1622 Clear 25 1013 53 10000 2.06 130 07:41 28.09.2022
1623 Clear 22 1014 60 10000 2.06 180 05:31 28.09.2022
1624 Clear 16 1014 85 10000 1.03 300 01:40 28.09.2022
1625 Clear 14 1014 97 10000 1.54 320 23:31 27.09.2022
1626 Clouds 15 1014 94 7000 1.03 340 22:32 27.09.2022
1627 Clouds 15 1014 94 7000 0.51 360 20:56 27.09.2022
1628 Clouds 15 1014 100 7000 0.51 360 20:19 27.09.2022
1629 Clear 15 1014 94 7000 1.54 340 19:36 27.09.2022
1630 Clear 16 1015 88 9000 1.03 270 17:46 27.09.2022
1631 Clear 16 1015 100 10000 1.03 20 16:20 27.09.2022
1632 Clear 18 1015 78 10000 1.54 310 14:59 27.09.2022
1633 Clear 19 1014 78 10000 1.54 180 13:32 27.09.2022
1634 Clear 20 1014 83 10000 1.54 270 12:23 27.09.2022
1635 Clear 27 1014 36 10000 2.06 320 09:49 27.09.2022
1636 Clear 27 1015 38 10000 1.54 300 07:38 27.09.2022
1637 Clear 18 1017 74 10000 1.54 20 02:59 27.09.2022
1638 Clear 15 1017 88 10000 2.06 340 01:35 27.09.2022
1639 Clear 12 1017 97 10000 1.54 330 23:38 26.09.2022
1640 Clouds 14 1017 56 10000 1.18 55 23:18 26.09.2022
1641 Clear 13 1017 97 10000 1.54 330 20:48 26.09.2022
1642 Clear 13 1017 94 10000 1.54 320 19:34 26.09.2022
1643 Clear 14 1017 88 10000 1.54 310 18:35 26.09.2022
1644 Clear 15 1017 80 10000 1.03 50 16:58 26.09.2022
1645 Clear 17 1017 70 10000 1.54 320 14:46 26.09.2022
1646 Clear 22 1016 46 10000 3.6 290 11:36 26.09.2022
1647 Clear 24 1016 43 10000 2.06 280 10:41 26.09.2022
1648 Clear 24 1016 43 10000 2.06 280 10:21 26.09.2022
1649 Clear 25 1016 29 10000 3.09 330 09:56 26.09.2022
1650 Clear 25 1016 33 10000 3.09 330 09:24 26.09.2022
1651 Clear 26 1016 28 10000 2.06 340 08:57 26.09.2022
1652 Clear 17 1018 77 10000 1.54 360 02:57 26.09.2022
1653 Clear 14 1018 91 10000 2.06 330 00:35 26.09.2022
1654 Clear 14 1017 94 10000 1.54 340 22:59 25.09.2022
1655 Clear 13 1017 94 10000 0.51 340 21:41 25.09.2022
1656 Clear 14 1017 91 10000 0.51 270 20:49 25.09.2022
1657 Clear 14 1017 91 10000 1.03 320 19:43 25.09.2022
1658 Clear 15 1017 85 10000 1.03 310 18:43 25.09.2022
1659 Clear 15 1017 88 10000 1.03 310 18:20 25.09.2022
1660 Clear 17 1017 77 10000 1.54 340 16:45 25.09.2022
1661 Clear 17 1017 75 10000 2.06 330 15:45 25.09.2022
1662 Clear 18 1017 68 10000 1.03 360 14:29 25.09.2022
1663 Clear 19 1016 60 10000 1.54 280 12:57 25.09.2022
1664 Clear 24 1015 41 10000 4.12 330 10:36 25.09.2022
1665 Clear 25 1015 44 10000 3.09 340 08:25 25.09.2022
1666 Clear 25 1016 36 10000 1.03 110 06:23 25.09.2022
1667 Clear 17 1017 80 10000 1.54 340 02:57 25.09.2022
1668 Clear 14 1016 94 10000 1.03 320 22:35 24.09.2022
1669 Clear 15 1016 94 10000 1.54 330 20:55 24.09.2022
1670 Clear 15 1016 100 10000 1.54 290 19:23 24.09.2022
1671 Clear 16 1017 85 10000 1.03 360 17:49 24.09.2022
1672 Clear 17 1017 82 10000 0.51 310 16:25 24.09.2022
1673 Clouds 15 1017 61 10000 0.93 249 15:21 24.09.2022
1674 Clear 18 1016 73 10000 2.06 290 13:27 24.09.2022
1675 Clear 18 1016 66 10000 2.57 270 12:50 24.09.2022
1676 Clouds 23 1016 44 10000 4.12 270 10:54 24.09.2022
1677 Clouds 23 1016 44 10000 2.57 330 09:40 24.09.2022
1678 Clouds 24 1016 38 10000 5.14 350 08:43 24.09.2022
1679 Clouds 24 1017 35 10000 5.66 360 07:24 24.09.2022
1680 Clear 21 1018 51 10000 1.54 230 04:40 24.09.2022
1681 Clear 17 1018 63 10000 1.03 360 02:19 24.09.2022
1682 Clear 11 1017 88 10000 1.54 50 22:28 23.09.2022
1683 Clear 11 1017 94 10000 0.51 160 21:28 23.09.2022
1684 Clear 11 1017 90 10000 0.51 60 20:55 23.09.2022
1685 Mist 15 1015 81 10000 5.66 230 20:19 23.09.2022
1686 Clear 12 1017 79 10000 0.51 180 18:26 23.09.2022
1687 Clouds 16 1015 59 10000 2.57 290 13:44 23.09.2022
1688 Clouds 19 1013 50 10000 5.66 270 10:26 23.09.2022
1689 Clouds 20 1012 41 10000 6.69 280 08:57 23.09.2022
1690 Clouds 20 1011 77 5000 7.2 280 04:56 23.09.2022
1691 Clear 15 1012 91 10000 3.09 160 23:31 22.09.2022
1692 Clear 14 1012 88 10000 3.6 140 22:29 22.09.2022
1693 Clear 14 1012 91 10000 2.57 150 21:47 22.09.2022
1694 Clear 14 1012 91 10000 2.06 180 20:44 22.09.2022
1695 Clear 15 1013 88 10000 0.51 360 19:20 22.09.2022
1696 Clear 18 1014 77 10000 0.51 20 16:23 22.09.2022
1697 Clear 23 1013 44 10000 2.57 200 10:56 22.09.2022
1698 Clouds 23 1013 36 10000 3.53 244 10:20 22.09.2022
1699 Clear 25 1014 41 10000 2.57 240 08:22 22.09.2022
1700 Clear 23 1015 49 10000 2.06 230 06:21 22.09.2022
1701 Clear 18 1017 57 10000 4.63 150 02:28 22.09.2022
1702 Clear 14 1017 69 10000 2.57 210 22:29 21.09.2022
1703 Clear 14 1017 77 10000 2.06 160 21:26 21.09.2022
1704 Clear 14 1017 94 10000 0.51 160 19:22 21.09.2022
1705 Clear 15 1017 83 10000 1.54 180 17:45 21.09.2022
1706 Clear 15 1017 94 10000 0.51 310 16:20 21.09.2022
1707 Clear 18 1017 66 10000 1.54 300 13:56 21.09.2022
1708 Clear 22 1016 44 10000 3.09 290 11:44 21.09.2022
1709 Clear 22 1016 53 10000 3.09 290 11:21 21.09.2022
1710 Clear 24 1016 40 10000 2.06 230 09:44 21.09.2022
1711 Clear 24 1016 35 10000 3.09 210 08:50 21.09.2022
1712 Clear 23 1018 46 10000 1.03 180 04:57 21.09.2022
1713 Clear 17 1018 65 10000 1.54 350 02:40 21.09.2022
1714 Clear 15 1018 77 10000 1.54 310 01:58 21.09.2022
1715 Clear 12 1018 82 10000 1.54 320 00:20 21.09.2022
1716 Clear 12 1017 82 10000 0.51 120 21:53 20.09.2022
1717 Clear 13 1016 80 10000 2.06 320 20:33 20.09.2022
1718 Clear 14 1016 72 10000 1.54 340 18:51 20.09.2022
1719 Clear 16 1016 63 10000 3.6 330 15:51 20.09.2022
1720 Clear 17 1015 64 10000 2.57 320 14:29 20.09.2022
1721 Clear 19 1014 61 10000 3.09 310 12:32 20.09.2022
1722 Clear 23 1013 39 10000 1.54 310 08:50 20.09.2022
1723 Clear 24 1013 38 10000 1.54 310 08:24 20.09.2022
1724 Clear 23 1015 40 10000 2.57 90 04:40 20.09.2022
1725 Clear 19 1014 56 10000 3.6 70 02:24 20.09.2022
1726 Clear 15 1012 75 10000 3.6 360 22:44 19.09.2022
1727 Clear 16 1011 79 10000 2.57 360 21:28 19.09.2022
1728 Clear 17 1011 77 10000 4.12 360 20:40 19.09.2022
1729 Clear 16 1009 80 10000 3.09 330 18:49 19.09.2022
1730 Clear 18 1009 73 10000 3.6 320 17:37 19.09.2022
1731 Clouds 21 1005 64 10000 5.14 330 13:49 19.09.2022
1732 Clouds 23 1004 56 10000 4.63 20 12:26 19.09.2022
1733 Clouds 26 1001 53 10000 5.66 50 10:19 19.09.2022
1734 Clear 28 1001 51 10000 7.72 350 08:37 19.09.2022
1735 Clear 26 1001 65 10000 7.72 360 03:39 19.09.2022
1736 Clear 24 1000 73 10000 7.72 360 00:52 19.09.2022
1737 Clear 24 999 76 10000 5.14 360 22:42 18.09.2022
1738 Clear 24 999 75 10000 7.2 350 21:26 18.09.2022
1739 Clear 24 1000 76 10000 5.66 350 19:40 18.09.2022
1740 Clear 25 1001 74 10000 5.66 360 17:52 18.09.2022
1741 Rain 25 1001 74 10000 5.14 30 16:49 18.09.2022
1742 Rain 27 1002 69 10000 4.63 20 14:51 18.09.2022
1743 Rain 27 1002 65 10000 3.6 10 13:35 18.09.2022
1744 Clear 28 1002 65 10000 3.09 10 12:20 18.09.2022
1745 Clear 31 1002 58 10000 4.63 350 09:25 18.09.2022
1746 Clear 23 1007 91 10000 1.54 330 01:43 18.09.2022
1747 Clear 23 1007 94 10000 1.54 330 01:20 18.09.2022
1748 Clouds 22 1006 94 7000 1.54 20 22:57 17.09.2022
1749 Clear 22 1007 97 10000 3.09 340 20:55 17.09.2022
1750 Clear 22 1007 94 10000 2.06 330 19:37 17.09.2022
1751 Clear 22 1007 94 10000 2.06 330 18:21 17.09.2022
1752 Clear 25 1008 83 10000 1.54 310 14:24 17.09.2022
1753 Clear 25 1008 83 10000 2.06 320 13:26 17.09.2022
1754 Clouds 29 1007 64 10000 3.6 290 10:49 17.09.2022
1755 Clouds 28 1009 76 10000 1.54 260 06:53 17.09.2022
1756 Clouds 27 1009 80 10000 1.54 310 05:49 17.09.2022
1757 Mist 23 1009 94 6000 0.51 230 23:39 16.09.2022
1758 Clouds 23 1008 94 7000 1.54 160 21:57 16.09.2022
1759 Mist 23 1008 97 7000 1.54 90 20:44 16.09.2022
1760 Rain 23 1008 97 8000 1.54 190 18:43 16.09.2022
1761 Clouds 24 1008 88 10000 2.57 200 16:22 16.09.2022
1762 Mist 24 1008 94 10000 3.6 150 14:51 16.09.2022
1763 Rain 25 1007 91 10000 2.06 250 12:52 16.09.2022
1764 Rain 28 1006 76 5000 5.14 190 09:55 16.09.2022
1765 Clouds 29 1006 65 10000 4.63 170 07:23 16.09.2022
1766 Clouds 30 1006 62 10000 7.2 160 06:48 16.09.2022
1767 Clouds 30 1007 59 10000 6.69 160 05:55 16.09.2022
1768 Clouds 24 1008 69 10000 4.63 120 01:31 16.09.2022
1769 Clear 24 1007 65 10000 5.14 130 21:33 15.09.2022
1770 Clear 24 1007 65 10000 5.66 110 20:33 15.09.2022
1771 Clear 25 1008 67 10000 4.63 120 18:57 15.09.2022
1772 Rain 25 1008 67 10000 4.12 110 17:38 15.09.2022
1773 Clear 25 1008 69 10000 4.12 110 17:20 15.09.2022
1774 Clear 26 1008 63 10000 5.66 120 15:37 15.09.2022
1775 Rain 26 1009 67 10000 2.57 80 12:49 15.09.2022
1776 Rain 27 1009 65 10000 1.03 50 11:47 15.09.2022
1777 Rain 28 1009 58 10000 4.12 100 09:43 15.09.2022
1778 Rain 27 1012 54 10000 5.14 120 05:37 15.09.2022
1779 Clear 25 1013 61 10000 4.63 100 02:58 15.09.2022
1780 Clear 22 1013 70 10000 5.14 100 22:51 14.09.2022
1781 Clear 23 1014 64 10000 4.63 100 20:24 14.09.2022
1782 Clear 23 1014 62 10000 4.63 100 19:32 14.09.2022
1783 Clear 24 1015 55 10000 5.14 110 17:28 14.09.2022
1784 Clear 23 1015 57 10000 5.66 100 16:36 14.09.2022
1785 Clear 23 1016 55 10000 4.12 80 14:46 14.09.2022
1786 Rain 24 1015 50 10000 4.63 80 12:24 14.09.2022
1787 Clear 27 1014 47 10000 7.2 80 09:49 14.09.2022
1788 Rain 28 1015 52 10000 6.17 80 07:47 14.09.2022
1789 Clear 28 1016 54 10000 5.66 70 06:48 14.09.2022
1790 Clear 26 1017 61 10000 4.63 70 05:22 14.09.2022
1791 Clear 23 1017 61 10000 2.06 340 01:53 14.09.2022
1792 Clear 23 1017 61 10000 2.06 340 01:29 14.09.2022
1793 Clear 22 1017 68 10000 2.06 20 00:52 14.09.2022
1794 Clear 22 1017 76 10000 1.54 30 23:54 13.09.2022
1795 Clear 21 1017 76 10000 1.54 30 23:36 13.09.2022
1796 Clear 21 1017 88 10000 1.54 30 23:18 13.09.2022
1797 Clear 21 1017 88 10000 2.06 330 22:21 13.09.2022
1798 Rain 22 1017 88 10000 1.03 330 20:21 13.09.2022
1799 Clear 23 1016 78 10000 0.51 10 18:20 13.09.2022
1800 Rain 24 1017 76 10000 2.57 30 15:55 13.09.2022
1801 Clear 24 1017 78 10000 2.06 360 14:36 13.09.2022
1802 Rain 25 1017 73 10000 2.06 40 13:20 13.09.2022
1803 Rain 27 1016 61 10000 2.57 80 09:23 13.09.2022
1804 Rain 26 1016 65 10000 2.06 60 06:59 13.09.2022
1805 Clear 20 1015 100 10000 2.57 330 00:23 13.09.2022
1806 Rain 20 1015 97 8000 1.03 330 22:51 12.09.2022
1807 Rain 20 1015 100 8000 0.51 330 22:18 12.09.2022
1808 Clouds 20 1014 97 8000 1.54 320 20:39 12.09.2022
1809 Clear 21 1015 91 10000 1.54 350 18:51 12.09.2022
1810 Clear 21 1015 91 10000 2.57 340 17:25 12.09.2022
1811 Clear 22 1015 86 10000 2.06 330 14:39 12.09.2022
1812 Clear 26 1014 67 10000 2.57 330 11:31 12.09.2022
1813 Clear 27 1013 63 10000 3.09 340 09:56 12.09.2022
1814 Clouds 26 1015 69 10000 1.54 140 04:54 12.09.2022
1815 Clouds 26 1015 69 10000 1.54 140 04:25 12.09.2022
1816 Clouds 19 1014 97 7000 1.03 340 23:39 11.09.2022
1817 Clouds 19 1014 97 7000 1.03 320 22:28 11.09.2022
1818 Clouds 19 1014 100 8000 0.51 290 20:50 11.09.2022
1819 Clear 19 1014 97 10000 1.03 320 19:57 11.09.2022
1820 Clear 19 1014 97 10000 1.03 320 19:25 11.09.2022
1821 Clouds 20 1014 94 10000 1.54 320 18:36 11.09.2022
1822 Clouds 20 1015 94 10000 1.54 320 16:47 11.09.2022
1823 Clouds 21 1014 94 10000 0.51 310 14:53 11.09.2022
1824 Clouds 21 1014 94 10000 2.06 330 12:50 11.09.2022
1825 Clear 24 1014 67 10000 2.06 40 09:25 11.09.2022
1826 Clear 24 1014 67 10000 2.06 40 09:25 11.09.2022
1827 Rain 26 1014 53 10000 2.57 90 07:19 11.09.2022
1828 Clear 22 1016 73 10000 1.54 60 01:18 11.09.2022
1829 Clear 20 1016 83 10000 1.03 340 23:20 10.09.2022
1830 Clear 20 1016 78 10000 2.06 90 21:33 10.09.2022
1831 Clear 21 1016 73 10000 2.57 70 19:48 10.09.2022
1832 Clear 21 1016 73 10000 2.57 70 19:29 10.09.2022
1833 Clear 22 1017 68 10000 3.09 90 18:55 10.09.2022
1834 Clear 24 1017 57 10000 4.12 90 16:51 10.09.2022
1835 Clear 23 1017 62 10000 3.09 70 14:43 10.09.2022
1836 Clear 24 1016 56 10000 1.54 80 12:53 10.09.2022
1837 Clear 26 1016 47 10000 2.06 90 11:19 10.09.2022
1838 Clear 28 1016 37 10000 4.63 100 09:50 10.09.2022
1839 Clear 27 1016 38 10000 4.63 80 08:37 10.09.2022
1840 Clear 28 1017 36 10000 3.6 110 07:22 10.09.2022
1841 Clear 18 1019 67 10000 1.54 50 00:41 10.09.2022
1842 Clear 18 1018 64 10000 2.06 90 23:33 09.09.2022
1843 Clear 19 1018 56 10000 1.54 80 22:19 09.09.2022
1844 Clear 19 1018 60 10000 2.06 90 20:47 09.09.2022
1845 Clear 19 1018 63 10000 1.54 200 19:25 09.09.2022
1846 Clear 20 1018 57 10000 3.6 90 18:47 09.09.2022
1847 Clear 21 1018 68 10000 2.06 60 16:28 09.09.2022
1848 Clear 22 1016 73 10000 1.54 360 13:49 09.09.2022
1849 Clear 25 1016 47 10000 1.54 70 12:32 09.09.2022
1850 Clear 30 1016 37 10000 3.6 330 09:55 09.09.2022
1851 Clear 28 1018 51 10000 1.54 60 05:19 09.09.2022
1852 Clear 24 1018 69 10000 1.54 360 03:20 09.09.2022
1853 Clouds 18 1017 97 7000 1.54 330 21:53 08.09.2022
1854 Clear 19 1017 91 10000 1.03 350 20:51 08.09.2022
1855 Clear 19 1017 91 10000 1.03 350 20:31 08.09.2022
1856 Clear 19 1017 94 10000 1.54 340 19:56 08.09.2022
1857 Clear 19 1017 94 10000 1.03 320 18:22 08.09.2022
1858 Clear 20 1018 94 10000 1.54 310 16:19 08.09.2022
1859 Clear 21 1018 78 10000 2.06 320 14:40 08.09.2022
1860 Clear 22 1017 83 10000 1.03 340 13:26 08.09.2022
1861 Clear 26 1017 58 10000 3.6 290 11:57 08.09.2022
1862 Clear 28 1016 50 10000 4.63 280 10:52 08.09.2022
1863 Clear 29 1017 42 10000 1.54 350 08:21 08.09.2022
1864 Clouds 27 1018 44 10000 2.06 150 06:41 08.09.2022
1865 Clear 21 1020 71 10000 1.54 350 02:36 08.09.2022
1866 Clear 21 1020 73 10000 1.54 350 02:18 08.09.2022
1867 Clear 16 1019 91 10000 1.54 350 00:27 08.09.2022
1868 Clear 15 1019 97 10000 1.54 10 22:42 07.09.2022
1869 Clear 15 1019 94 10000 1.54 340 21:42 07.09.2022
1870 Clear 15 1019 94 10000 1.54 340 21:42 07.09.2022
1871 Clear 16 1019 94 10000 1.03 10 20:42 07.09.2022
1872 Clear 16 1019 94 10000 0.51 290 19:36 07.09.2022
1873 Clear 17 1018 88 10000 1.54 360 17:27 07.09.2022
1874 Clouds 22 1018 50 10000 3.6 290 12:49 07.09.2022
1875 Clear 27 1017 37 10000 4.12 290 10:46 07.09.2022
1876 Clear 28 1017 31 10000 4.63 290 08:36 07.09.2022
1877 Clouds 28 1017 33 10000 3.09 300 06:51 07.09.2022
1878 Mist 19 1017 97 8000 2.06 220 01:50 07.09.2022
1879 Fog 16 1015 97 1400 1.54 200 22:35 06.09.2022
1880 Mist 17 1014 94 2800 1.54 10 21:38 06.09.2022
1881 Clouds 19 1013 94 10000 2.06 270 19:57 06.09.2022
1882 Clouds 19 1013 88 10000 3.09 280 18:42 06.09.2022
1883 Clear 19 1013 88 10000 2.57 260 17:56 06.09.2022
1884 Clear 19 1013 83 10000 3.6 250 16:53 06.09.2022
1885 Clear 21 1013 78 10000 3.6 250 16:26 06.09.2022
1886 Clear 19 1012 77 10000 1.54 280 14:54 06.09.2022
1887 Clear 20 1011 75 10000 2.57 250 13:44 06.09.2022
1888 Clear 20 1011 75 10000 2.57 250 13:44 06.09.2022
1889 Clear 20 1011 75 10000 2.57 250 13:44 06.09.2022
1890 Clear 20 1011 73 10000 2.57 250 13:20 06.09.2022
1891 Clear 24 1009 69 10000 5.14 270 11:29 06.09.2022
1892 Clear 26 1008 52 10000 5.66 270 10:33 06.09.2022
1893 Clear 27 1006 48 10000 6.17 270 08:29 06.09.2022
1894 Clouds 25 1004 59 10000 6.17 310 06:58 06.09.2022
1895 Rain 18 1000 94 10000 5.66 330 01:23 06.09.2022
1896 Rain 17 999 100 10000 5.66 310 23:19 05.09.2022
1897 Rain 17 1000 100 6000 4.12 360 21:39 05.09.2022
1898 Rain 17 1000 97 7000 4.12 10 20:32 05.09.2022
1899 Rain 18 1002 94 7000 8.23 50 18:53 05.09.2022
1900 Rain 18 1002 94 7000 8.23 50 18:26 05.09.2022
1901 Rain 18 1004 94 7000 8.23 50 17:57 05.09.2022
1902 Rain 18 1006 94 8000 6.17 40 15:54 05.09.2022
1903 Rain 18 1007 94 9000 7.72 40 14:48 05.09.2022
1904 Rain 18 1007 94 5000 4.63 30 12:56 05.09.2022
1905 Rain 18 1007 94 5000 4.12 350 11:37 05.09.2022
1906 Rain 19 1007 94 4000 5.14 10 08:58 05.09.2022
1907 Rain 20 1007 96 2746 3.51 5 05:20 05.09.2022
1908 Rain 20 1008 94 10000 3.6 350 01:19 05.09.2022
1909 Rain 21 1008 97 10000 3.09 10 22:29 04.09.2022
1910 Rain 21 1008 94 10000 2.57 20 21:57 04.09.2022
1911 Rain 21 1009 97 10000 1.54 10 20:26 04.09.2022
1912 Clouds 22 1009 94 6000 2.06 290 18:35 04.09.2022
1913 Clouds 22 1009 100 7000 4.12 300 17:31 04.09.2022
1914 Rain 23 1008 94 3500 2.06 180 15:43 04.09.2022
1915 Rain 23 1008 94 5000 3.6 240 14:25 04.09.2022
1916 Rain 24 1007 94 5000 4.12 210 12:34 04.09.2022
1917 Rain 24 1006 88 10000 4.63 140 10:59 04.09.2022
1918 Rain 24 1006 83 10000 4.12 140 09:25 04.09.2022
1919 Rain 22 1008 91 10000 5.66 140 06:31 04.09.2022
1920 Rain 22 1010 78 10000 6.17 120 02:41 04.09.2022
1921 Rain 22 1012 66 10000 3.09 90 22:34 03.09.2022
1922 Rain 22 1012 66 10000 3.6 90 21:26 03.09.2022
1923 Clouds 22 1012 66 10000 4.12 100 20:55 03.09.2022
1924 Clouds 23 1014 64 10000 2.06 90 17:37 03.09.2022
1925 Clouds 23 1014 64 10000 3.6 90 16:52 03.09.2022
1926 Clouds 24 1014 61 10000 6.17 120 14:52 03.09.2022
1927 Clouds 24 1014 61 10000 6.17 120 14:30 03.09.2022
1928 Clouds 25 1013 61 10000 6.69 110 13:44 03.09.2022
1929 Clouds 27 1013 58 10000 4.12 100 11:31 03.09.2022
1930 Clouds 28 1013 54 10000 5.14 110 09:22 03.09.2022
1931 Clouds 28 1013 51 10000 5.66 90 07:45 03.09.2022
1932 Clouds 25 1015 57 10000 4.63 80 04:48 03.09.2022
1933 Clouds 23 1015 60 10000 2.57 30 02:35 03.09.2022
1934 Clear 18 1015 85 10000 1.54 340 23:35 02.09.2022
1935 Clear 19 1015 75 10000 2.06 10 21:46 02.09.2022
1936 Clear 20 1015 69 10000 2.06 30 20:40 02.09.2022
1937 Clear 21 1015 68 10000 2.06 70 19:47 02.09.2022
1938 Clear 21 1016 68 10000 1.54 100 18:50 02.09.2022
1939 Clear 21 1016 68 10000 1.54 100 18:24 02.09.2022
1940 Clear 23 1017 60 10000 5.14 90 16:56 02.09.2022
1941 Clear 23 1017 57 10000 5.14 90 16:22 02.09.2022
1942 Clouds 27 1015 52 10000 3.6 80 12:58 02.09.2022
1943 Clouds 29 1014 47 10000 4.12 70 10:37 02.09.2022
1944 Clouds 30 1014 44 10000 4.12 80 09:41 02.09.2022
1945 Clouds 29 1015 43 10000 4.63 80 08:42 02.09.2022
1946 Clear 28 1015 46 10000 5.14 100 06:43 02.09.2022
1947 Clear 27 1017 47 10000 5.66 110 04:58 02.09.2022
1948 Clear 18 1016 94 10000 1.54 340 22:54 01.09.2022
1949 Clear 19 1015 94 10000 1.03 320 21:45 01.09.2022
1950 Clear 19 1015 94 10000 1.03 320 21:26 01.09.2022
1951 Clear 19 1015 91 10000 1.03 360 20:48 01.09.2022
1952 Clear 19 1015 91 10000 1.03 320 19:23 01.09.2022
1953 Clear 20 1015 86 10000 1.54 330 17:48 01.09.2022
1954 Clear 20 1015 86 10000 1.54 190 16:29 01.09.2022
1955 Clear 22 1014 73 10000 2.57 300 14:33 01.09.2022
1956 Clear 25 1013 63 10000 3.6 330 12:59 01.09.2022
1957 Clear 28 1013 53 10000 3.6 320 11:54 01.09.2022
1958 Clear 28 1013 53 10000 3.6 320 11:33 01.09.2022
1959 Clear 29 1013 50 10000 4.63 330 10:40 01.09.2022
1960 Clear 29 1013 50 10000 3.6 320 08:31 01.09.2022
1961 Clear 28 1014 57 10000 3.09 340 06:23 01.09.2022
1962 Clear 20 1014 88 10000 1.03 40 01:34 01.09.2022
1963 Clear 19 1013 100 10000 1.03 320 00:18 01.09.2022
1964 Clear 18 1012 97 10000 1.54 340 21:44 31.08.2022
1965 Clear 18 1011 100 10000 0.51 360 19:50 31.08.2022
1966 Clear 19 1011 94 10000 1.54 60 18:18 31.08.2022
1967 Clear 19 1011 97 10000 1.54 330 16:23 31.08.2022
1968 Clear 20 1010 91 10000 1.03 50 14:32 31.08.2022
1969 Clouds 22 1009 80 10000 2.06 70 12:23 31.08.2022
1970 Clouds 24 1008 71 10000 1.54 80 11:26 31.08.2022
1971 Clouds 23 1008 78 10000 2.06 330 08:54 31.08.2022
1972 Clouds 23 1009 75 10000 1.54 30 05:26 31.08.2022
1973 Rain 19 1008 94 10000 2.06 340 23:20 30.08.2022
1974 Clouds 19 1008 97 10000 3.6 330 21:41 30.08.2022
1975 Clouds 19 1008 97 10000 2.06 300 20:57 30.08.2022
1976 Clouds 19 1008 100 10000 2.06 10 18:32 30.08.2022
1977 Clouds 20 1009 94 10000 2.06 360 15:23 30.08.2022
1978 Rain 20 1009 94 8000 1.03 50 13:24 30.08.2022
1979 Rain 20 1010 97 10000 1.67 37 11:21 30.08.2022
1980 Rain 20 1009 94 10000 1.54 50 10:40 30.08.2022
1981 Rain 19 1012 100 6000 3.09 30 06:51 30.08.2022
1982 Rain 18 1013 97 8000 3.6 100 02:32 30.08.2022
1983 Rain 18 1013 97 8000 3.09 120 22:58 29.08.2022
1984 Rain 18 1013 97 8000 3.09 90 22:24 29.08.2022
1985 Rain 18 1014 94 6000 3.09 110 21:25 29.08.2022
1986 Rain 18 1014 91 10000 3.6 210 19:51 29.08.2022
1987 Clear 20 1015 72 10000 4.63 120 17:50 29.08.2022
1988 Clear 21 1015 68 10000 4.63 120 17:24 29.08.2022
1989 Rain 21 1015 68 10000 4.63 110 16:22 29.08.2022
1990 Clear 20 1016 70 10000 4.63 110 14:44 29.08.2022
1991 Clear 21 1015 64 10000 4.12 140 12:52 29.08.2022
1992 Clouds 21 1015 64 10000 5.14 140 10:56 29.08.2022
1993 Clouds 21 1015 70 10000 4.12 150 09:45 29.08.2022
1994 Clouds 22 1015 73 10000 5.14 120 08:28 29.08.2022
1995 Rain 19 1016 88 10000 2.57 70 02:49 29.08.2022
1996 Rain 20 1015 80 10000 1.54 160 23:55 28.08.2022
1997 Rain 20 1015 78 10000 2.06 160 22:36 28.08.2022
1998 Rain 21 1015 72 10000 2.57 140 21:40 28.08.2022
1999 Rain 21 1015 71 10000 2.57 160 20:43 28.08.2022
2000 Rain 21 1014 71 10000 2.06 210 18:51 28.08.2022
2001 Clear 21 1014 78 10000 0.51 60 18:20 28.08.2022
2002 Rain 21 1015 73 10000 1.54 200 16:57 28.08.2022
2003 Clear 21 1015 70 10000 1.54 300 15:50 28.08.2022
2004 Clear 22 1014 68 10000 2.57 320 13:47 28.08.2022
2005 Clear 23 1014 62 10000 3.09 310 12:31 28.08.2022
2006 Clear 28 1013 38 10000 2.06 110 10:27 28.08.2022
2007 Clear 27 1014 36 10000 2.57 60 09:40 28.08.2022
2008 Clear 27 1014 36 10000 3.09 100 08:32 28.08.2022
2009 Clear 27 1014 40 10000 3.09 80 07:34 28.08.2022
2010 Clear 19 1016 74 10000 1.54 360 01:28 28.08.2022
2011 Clear 17 1016 88 10000 1.03 330 00:20 28.08.2022
2012 Clear 15 1015 88 10000 1.54 320 22:27 27.08.2022
2013 Clear 16 1014 88 10000 2.06 330 20:53 27.08.2022
2014 Clear 16 1014 83 10000 1.54 330 19:38 27.08.2022
2015 Clear 19 1013 69 10000 1.03 340 16:37 27.08.2022
2016 Clear 19 1013 68 10000 2.57 360 15:31 27.08.2022
2017 Clear 20 1012 64 10000 3.09 330 14:18 27.08.2022
2018 Clear 22 1011 56 10000 4.12 330 12:22 27.08.2022
2019 Clear 25 1010 44 10000 4.63 320 10:30 27.08.2022
2020 Clear 25 1010 39 10000 4.12 320 09:39 27.08.2022
2021 Clear 24 1010 41 10000 5.66 310 06:54 27.08.2022
2022 Clear 21 1011 56 10000 4.63 320 02:24 27.08.2022
2023 Clear 18 1010 80 10000 3.09 320 23:49 26.08.2022
2024 Clear 20 1009 82 10000 3.09 330 21:53 26.08.2022
2025 Mist 21 1008 86 10000 5.66 320 20:22 26.08.2022
2026 Rain 22 1007 83 10000 1.54 280 18:19 26.08.2022
2027 Clear 23 1008 81 10000 3.09 270 16:36 26.08.2022
2028 Clear 23 1008 81 10000 2.57 280 15:24 26.08.2022
2029 Clouds 24 1007 78 10000 4.12 280 13:18 26.08.2022
2030 Clouds 26 1006 63 10000 4.63 270 11:48 26.08.2022
2031 Rain 26 1006 65 10000 4.63 270 11:22 26.08.2022
2032 Clouds 28 1005 60 10000 5.14 260 09:45 26.08.2022
2033 Clouds 25 1008 69 10000 1.54 310 03:59 26.08.2022
2034 Clouds 19 1008 94 10000 1.03 240 00:39 26.08.2022
2035 Clouds 19 1008 94 10000 1.54 70 22:39 25.08.2022
2036 Clouds 19 1007 94 10000 1.54 40 20:54 25.08.2022
2037 Clouds 20 1008 88 10000 1.03 210 19:35 25.08.2022
2038 Clouds 20 1008 88 10000 0.51 190 18:29 25.08.2022
2039 Rain 20 1009 88 10000 1.54 230 17:31 25.08.2022
2040 Clear 20 1009 88 10000 1.03 270 16:40 25.08.2022
2041 Rain 20 1009 88 10000 0.51 210 15:29 25.08.2022
2042 Clouds 21 1008 83 10000 2.06 290 13:51 25.08.2022
2043 Rain 22 1007 78 10000 2.06 280 10:49 25.08.2022
2044 Rain 22 1007 76 10000 4.12 290 09:52 25.08.2022
2045 Rain 23 1008 69 10000 0.51 250 07:35 25.08.2022
2046 Rain 23 1008 78 10000 2.06 180 02:41 25.08.2022
2047 Rain 20 1007 88 10000 0.51 220 23:30 24.08.2022
2048 Clear 20 1007 85 10000 1.03 220 22:55 24.08.2022
2049 Clear 21 1007 83 10000 2.06 190 21:53 24.08.2022
2050 Clear 21 1007 83 10000 2.06 190 21:28 24.08.2022
2051 Clear 21 1007 83 10000 2.06 160 19:52 24.08.2022
2052 Clouds 22 1008 80 10000 2.06 180 16:51 24.08.2022
2053 Clouds 23 1008 78 10000 2.06 200 15:53 24.08.2022
2054 Clear 24 1008 71 10000 2.06 200 14:58 24.08.2022
2055 Clouds 25 1007 67 10000 2.57 170 12:48 24.08.2022
2056 Clouds 27 1007 61 10000 2.57 190 11:18 24.08.2022
2057 Clouds 26 1008 61 10000 3.09 160 08:38 24.08.2022
2058 Clouds 26 1009 59 10000 5.66 120 03:54 24.08.2022
2059 Clouds 22 1008 83 10000 1.03 360 23:53 23.08.2022
2060 Clouds 21 1007 85 10000 1.03 40 22:35 23.08.2022
2061 Clear 21 1008 91 10000 1.54 350 21:46 23.08.2022
2062 Clear 20 1007 88 10000 1.54 200 20:40 23.08.2022
2063 Clear 21 1007 83 10000 1.03 310 18:55 23.08.2022
2064 Clear 21 1008 88 10000 2.57 330 17:53 23.08.2022
2065 Clear 20 1008 88 10000 2.57 330 17:18 23.08.2022
2066 Clear 20 1008 88 10000 2.57 330 17:18 23.08.2022
2067 Clear 22 1008 76 10000 3.09 330 15:52 23.08.2022
2068 Clear 25 1007 63 10000 4.12 330 13:50 23.08.2022
2069 Clear 26 1006 61 10000 4.12 320 12:45 23.08.2022
2070 Clear 29 1005 56 10000 5.14 340 10:53 23.08.2022
2071 Clear 29 1005 56 10000 5.14 340 10:32 23.08.2022
2072 Clear 29 1005 56 10000 5.14 340 10:32 23.08.2022
2073 Clouds 30 1005 54 10000 3.09 300 08:55 23.08.2022
2074 Clouds 30 1005 54 10000 3.09 300 08:22 23.08.2022
2075 Clouds 29 1005 58 10000 4.12 330 07:48 23.08.2022
2076 Clouds 28 1005 65 10000 3.6 340 06:58 23.08.2022
2077 Clouds 28 1006 69 10000 3.09 300 05:52 23.08.2022
2078 Mist 23 1006 94 7000 3.09 210 01:42 23.08.2022
2079 Clouds 22 1005 100 7000 1.54 150 00:26 23.08.2022
2080 Clouds 22 1006 97 2500 1.54 360 23:29 22.08.2022
2081 Rain 22 1005 94 10000 4.12 340 21:51 22.08.2022
2082 Clouds 22 1005 94 10000 1.54 360 19:51 22.08.2022
2083 Rain 22 1005 94 10000 1.54 360 19:30 22.08.2022
2084 Clouds 25 1005 90 10000 1.58 248 17:59 22.08.2022
2085 Rain 24 1006 86 7000 3.09 350 15:40 22.08.2022
2086 Clouds 25 1005 71 5000 3.6 220 14:46 22.08.2022
2087 Clouds 27 1003 74 10000 4.12 230 11:20 22.08.2022
2088 Rain 29 1003 60 10000 4.63 240 08:54 22.08.2022
2089 Clouds 29 1004 68 10000 3.6 190 04:42 22.08.2022
2090 Mist 25 1004 91 6000 2.06 190 00:53 22.08.2022
2091 Mist 25 1004 91 6000 2.06 190 00:34 22.08.2022
2092 Clouds 24 1004 88 8000 2.06 170 22:54 21.08.2022
2093 Clouds 24 1004 94 8000 1.54 200 21:36 21.08.2022
2094 Clouds 24 1004 91 8000 1.54 220 20:57 21.08.2022
2095 Clouds 24 1004 91 8000 2.06 180 19:28 21.08.2022
2096 Clear 24 1005 94 10000 0.51 360 18:21 21.08.2022
2097 Clear 25 1005 94 10000 0.51 80 16:21 21.08.2022
2098 Clear 26 1005 82 10000 0.51 200 15:43 21.08.2022
2099 Clear 28 1005 72 10000 2.57 300 13:58 21.08.2022
2100 Clear 28 1005 72 10000 2.57 300 13:40 21.08.2022
2101 Clear 30 1004 62 10000 3.09 290 11:56 21.08.2022
2102 Clouds 32 1004 57 10000 4.63 290 09:32 21.08.2022
2103 Clouds 32 1004 58 10000 3.6 290 08:56 21.08.2022
2104 Clouds 32 1004 58 10000 3.6 290 08:38 21.08.2022
2105 Clouds 32 1005 59 10000 3.09 310 07:28 21.08.2022
2106 Clouds 30 1006 66 10000 2.06 160 04:18 21.08.2022
2107 Clouds 25 1005 91 10000 2.06 230 00:31 21.08.2022
2108 Clouds 24 1004 94 8000 1.54 210 22:59 20.08.2022
2109 Clouds 24 1003 94 10000 1.54 210 21:39 20.08.2022
2110 Clouds 24 1003 97 10000 0.51 210 20:43 20.08.2022
2111 Clouds 25 1003 94 10000 1.03 330 19:41 20.08.2022
2112 Clouds 25 1003 94 10000 1.54 310 18:31 20.08.2022
2113 Clear 25 1003 92 10000 1.03 330 17:51 20.08.2022
2114 Clear 25 1003 92 10000 1.03 220 16:52 20.08.2022
2115 Clear 26 1003 89 10000 1.03 190 15:37 20.08.2022
2116 Clouds 27 1003 79 10000 2.06 270 13:27 20.08.2022
2117 Clouds 30 1001 68 10000 4.12 290 11:52 20.08.2022
2118 Clouds 32 1001 66 10000 4.63 300 09:43 20.08.2022
2119 Clouds 31 1001 64 10000 3.09 290 08:34 20.08.2022
2120 Clouds 31 1002 66 10000 2.06 300 05:55 20.08.2022
2121 Mist 26 1001 91 7000 3.09 310 00:59 20.08.2022
2122 Mist 26 1001 91 7000 3.09 310 00:35 20.08.2022
2123 Mist 25 1001 100 4500 3.09 300 23:18 19.08.2022
2124 Mist 26 1000 94 4000 2.57 270 21:41 19.08.2022
2125 Mist 26 1000 94 4000 2.06 270 20:20 19.08.2022
2126 Clouds 27 1000 94 7000 3.6 280 17:19 19.08.2022
2127 Clouds 28 1001 89 7000 4.12 250 15:18 19.08.2022
2128 Mist 27 1001 94 8000 3.09 220 13:18 19.08.2022
2129 Rain 26 1000 94 7000 3.6 260 10:52 19.08.2022
2130 Rain 26 1000 94 7000 3.6 260 10:19 19.08.2022
2131 Rain 27 1003 74 10000 3.6 180 05:58 19.08.2022
2132 Clouds 24 1005 83 10000 1.54 190 00:48 19.08.2022
2133 Clouds 23 1005 87 10000 1.58 152 00:23 19.08.2022
2134 Clouds 23 1005 88 10000 3.09 150 23:28 18.08.2022
2135 Clouds 23 1005 85 10000 3.09 160 22:37 18.08.2022
2136 Clouds 23 1005 88 10000 2.57 160 21:53 18.08.2022
2137 Clouds 23 1005 88 10000 2.57 160 21:23 18.08.2022
2138 Clear 22 1006 88 10000 1.54 180 19:54 18.08.2022
2139 Clear 22 1006 88 10000 1.54 180 19:24 18.08.2022
2140 Clear 23 1007 86 10000 1.54 290 17:46 18.08.2022
2141 Clear 24 1007 83 10000 1.54 300 16:55 18.08.2022
2142 Clear 25 1007 78 10000 2.57 300 14:22 18.08.2022
2143 Clear 25 1007 76 10000 2.06 280 13:58 18.08.2022
2144 Clear 26 1007 71 10000 2.57 300 12:31 18.08.2022
2145 Clouds 27 1007 74 10000 3.6 290 11:21 18.08.2022
2146 Clouds 29 1007 58 10000 3.09 250 09:43 18.08.2022
2147 Clouds 30 1007 58 10000 3.09 230 07:57 18.08.2022
2148 Clouds 30 1007 56 10000 2.57 240 06:43 18.08.2022
2149 Clouds 25 1008 75 10000 2.57 140 02:32 18.08.2022
2150 Clouds 22 1007 97 10000 1.03 360 22:50 17.08.2022
2151 Clouds 22 1007 94 10000 1.54 340 20:37 17.08.2022
2152 Clouds 23 1007 91 10000 1.54 230 19:59 17.08.2022
2153 Clouds 23 1007 91 10000 0.51 320 18:39 17.08.2022
2154 Clouds 23 1007 94 10000 1.54 340 17:21 17.08.2022
2155 Clouds 23 1007 88 10000 0.51 360 16:20 17.08.2022
2156 Clouds 24 1006 83 10000 1.54 280 14:46 17.08.2022
2157 Clouds 27 1006 70 10000 3.09 260 12:36 17.08.2022
2158 Clouds 28 1005 62 10000 5.14 270 11:25 17.08.2022
2159 Rain 30 1004 62 10000 5.14 290 09:22 17.08.2022
2160 Clouds 28 1006 72 10000 2.57 170 06:50 17.08.2022
2161 Clouds 25 1007 83 8000 1.03 360 01:23 17.08.2022
2162 Clouds 21 1006 97 6000 1.03 340 23:32 16.08.2022
2163 Clouds 21 1006 94 6000 1.03 340 21:33 16.08.2022
2164 Clouds 22 1006 94 7000 1.03 310 20:22 16.08.2022
2165 Clear 22 1006 94 10000 1.03 200 19:27 16.08.2022
2166 Clear 23 1006 89 10000 1.54 190 17:56 16.08.2022
2167 Clear 23 1006 91 10000 1.54 310 16:55 16.08.2022
2168 Clear 23 1005 89 10000 1.54 310 15:45 16.08.2022
2169 Clear 24 1005 83 10000 2.06 290 14:54 16.08.2022
2170 Clear 24 1005 83 10000 2.06 290 14:36 16.08.2022
2171 Clear 26 1004 74 10000 3.09 280 12:33 16.08.2022
2172 Clear 29 1004 62 10000 3.09 280 10:23 16.08.2022
2173 Clouds 30 1003 62 10000 4.12 280 08:54 16.08.2022
2174 Clouds 30 1003 66 10000 4.12 280 08:21 16.08.2022
2175 Clouds 29 1003 62 10000 3.6 280 06:31 16.08.2022
2176 Clouds 24 1001 86 10000 4.12 280 23:56 15.08.2022
2177 Clouds 25 1001 83 10000 4.63 260 22:23 15.08.2022
2178 Clouds 25 1001 88 10000 2.06 240 21:50 15.08.2022
2179 Clouds 25 1000 86 10000 3.6 270 20:32 15.08.2022
2180 Clouds 26 1000 89 8000 3.09 270 19:22 15.08.2022
2181 Mist 26 1000 89 10000 3.09 270 17:59 15.08.2022
2182 Mist 27 999 89 8000 4.12 270 16:25 15.08.2022
2183 Clouds 27 999 94 8000 4.12 250 15:27 15.08.2022
2184 Mist 28 998 89 10000 6.69 230 13:45 15.08.2022
2185 Clouds 29 998 82 10000 7.2 210 10:38 15.08.2022
2186 Rain 29 998 79 10000 8.75 200 09:40 15.08.2022
2187 Rain 30 1000 72 10000 8.23 200 06:51 15.08.2022
2188 Clouds 30 1001 74 10000 8.75 200 04:32 15.08.2022
2189 Clouds 27 1002 83 10000 7.72 210 23:49 14.08.2022
2190 Clouds 27 1002 86 10000 7.72 210 22:28 14.08.2022
2191 Clouds 27 1003 86 10000 7.2 200 21:25 14.08.2022
2192 Clouds 27 1004 89 10000 3.6 190 19:46 14.08.2022
2193 Clouds 27 1004 89 10000 3.6 180 18:42 14.08.2022
2194 Clouds 27 1004 89 10000 3.6 190 17:44 14.08.2022
2195 Clouds 27 1004 89 10000 4.63 190 16:32 14.08.2022
2196 Clouds 27 1005 92 10000 3.6 180 15:48 14.08.2022
2197 Clouds 27 1005 91 10000 5.14 190 14:19 14.08.2022
2198 Clouds 27 1005 91 10000 3.6 190 13:49 14.08.2022
2199 Rain 27 1005 89 10000 4.12 200 12:55 14.08.2022
2200 Rain 28 1004 86 10000 4.63 200 11:31 14.08.2022
2201 Clouds 30 1005 75 3000 3.09 280 10:26 14.08.2022
2202 Rain 31 1005 66 10000 2.57 270 08:20 14.08.2022
2203 Clouds 31 1005 70 10000 1.54 260 06:20 14.08.2022
2204 Mist 26 1006 91 7000 2.06 10 02:35 14.08.2022
2205 Mist 23 1005 100 4200 1.03 290 23:23 13.08.2022
2206 Mist 24 1005 97 5000 1.54 30 22:28 13.08.2022
2207 Mist 25 1006 94 6000 0.51 240 20:57 13.08.2022
2208 Clouds 24 1005 97 10000 1.03 340 19:50 13.08.2022
2209 Clouds 24 1005 97 10000 1.03 340 19:19 13.08.2022
2210 Clouds 25 1006 94 10000 2.06 20 17:22 13.08.2022
2211 Clouds 25 1006 94 10000 0.51 140 15:18 13.08.2022
2212 Clouds 26 1006 89 10000 1.54 220 14:24 13.08.2022
2213 Clouds 26 1005 89 10000 1.54 180 13:36 13.08.2022
2214 Clouds 27 1004 83 10000 3.6 190 11:49 13.08.2022
2215 Rain 26 1004 86 10000 4.63 140 09:27 13.08.2022
2216 Rain 24 1005 91 8000 4.63 140 07:48 13.08.2022
2217 Rain 26 1006 75 10000 2.57 200 01:56 13.08.2022
2218 Clouds 24 1006 85 10000 2.06 170 23:36 12.08.2022
2219 Clouds 24 1006 89 10000 2.06 240 21:40 12.08.2022
2220 Clear 24 1006 88 10000 2.06 210 19:50 12.08.2022
2221 Clear 24 1006 88 10000 0.51 160 19:24 12.08.2022
2222 Clear 24 1006 86 10000 1.54 210 18:29 12.08.2022
2223 Clear 24 1006 86 10000 1.54 190 16:27 12.08.2022
2224 Clear 25 1007 83 10000 1.03 350 15:21 12.08.2022
2225 Clear 27 1006 76 10000 3.09 270 13:47 12.08.2022
2226 Clear 29 1005 66 10000 3.09 280 12:38 12.08.2022
2227 Clear 32 1005 52 10000 2.06 330 08:57 12.08.2022
2228 Clouds 32 1006 53 10000 1.03 280 07:46 12.08.2022
2229 Clouds 31 1007 62 10000 1.54 10 06:23 12.08.2022
2230 Clouds 23 1006 94 8000 0.51 20 00:32 12.08.2022
2231 Fog 21 1006 100 6000 1.03 340 23:58 11.08.2022
2232 Fog 21 1006 100 6000 1.03 340 23:22 11.08.2022
2233 Mist 22 1006 97 4000 0.51 20 21:53 11.08.2022
2234 Mist 22 1006 97 4000 1.54 40 21:28 11.08.2022
2235 Mist 22 1006 97 4000 1.54 40 21:28 11.08.2022
2236 Clouds 23 1006 94 9000 0.51 290 20:30 11.08.2022
2237 Clouds 22 1006 94 8000 0.51 250 19:33 11.08.2022
2238 Clouds 23 1005 97 10000 1.54 340 18:53 11.08.2022
2239 Clouds 23 1005 94 10000 2.06 300 16:46 11.08.2022
2240 Clear 25 1005 93 10000 0.74 282 15:43 11.08.2022
2241 Clouds 24 1005 88 10000 2.06 280 14:36 11.08.2022
2242 Clouds 25 1003 85 10000 2.06 230 11:56 11.08.2022
2243 Clouds 28 1003 74 10000 3.09 210 08:57 11.08.2022
2244 Rain 25 1004 85 10000 1.03 220 05:58 11.08.2022
2245 Mist 24 1004 94 10000 0.51 320 02:33 11.08.2022
2246 Rain 22 1004 100 2500 2.57 310 22:59 10.08.2022
2247 Rain 22 1003 100 3000 2.06 340 21:46 10.08.2022
2248 Rain 23 1004 100 2500 2.06 30 20:56 10.08.2022
2249 Rain 23 1004 100 2500 2.06 30 20:27 10.08.2022
2250 Rain 23 1005 97 5000 0.51 120 18:46 10.08.2022
2251 Rain 23 1006 97 10000 1.03 150 17:26 10.08.2022
2252 Mist 24 1006 91 10000 1.54 210 14:25 10.08.2022
2253 Mist 24 1006 88 10000 3.09 210 12:54 10.08.2022
2254 Clouds 25 1006 83 10000 3.6 190 10:31 10.08.2022
2255 Clouds 27 1005 71 10000 3.6 210 08:37 10.08.2022
2256 Clouds 29 1006 65 10000 2.06 180 07:22 10.08.2022
2257 Clouds 27 1007 71 10000 1.54 110 04:50 10.08.2022
2258 Mist 21 1006 97 10000 1.03 340 00:50 10.08.2022
2259 Rain 21 1006 97 10000 1.03 320 23:27 09.08.2022
2260 Mist 21 1006 100 10000 2.06 330 21:38 09.08.2022
2261 Mist 22 1005 94 10000 2.06 340 20:56 09.08.2022
2262 Rain 21 1005 97 5000 3.6 350 18:56 09.08.2022
2263 Rain 22 1006 97 4000 4.12 310 17:31 09.08.2022
2264 Rain 22 1006 97 4000 4.12 310 17:31 09.08.2022
2265 Rain 23 1006 97 2500 5.14 320 16:43 09.08.2022
2266 Rain 23 1005 97 3000 6.17 330 15:59 09.08.2022
2267 Rain 23 1005 100 6000 3.09 310 14:43 09.08.2022
2268 Rain 25 1004 97 2000 3.6 320 10:53 09.08.2022
2269 Rain 26 1004 92 10000 3.6 210 08:52 09.08.2022
2270 Rain 26 1005 89 10000 3.09 230 07:54 09.08.2022
2271 Rain 26 1007 94 3000 3.09 180 04:43 09.08.2022
2272 Rain 26 1006 94 7000 2.57 210 23:58 08.08.2022
2273 Rain 26 1006 97 4000 1.54 40 22:58 08.08.2022
2274 Rain 26 1006 97 4000 1.54 40 22:35 08.08.2022
2275 Rain 26 1006 100 7000 1.54 280 21:30 08.08.2022
2276 Rain 26 1006 97 10000 2.06 220 19:58 08.08.2022
2277 Clouds 26 1006 97 10000 2.06 220 19:31 08.08.2022
2278 Rain 26 1006 100 6000 3.09 210 17:47 08.08.2022
2279 Rain 26 1006 97 4000 1.54 40 15:46 08.08.2022
2280 Clouds 26 1006 100 5000 1.54 210 14:45 08.08.2022
2281 Rain 27 1006 92 10000 5.66 220 12:29 08.08.2022
2282 Rain 26 1005 97 4000 4.63 190 10:23 08.08.2022
2283 Rain 26 1006 95 10000 5.14 210 06:56 08.08.2022
2284 Rain 28 1005 89 10000 5.14 210 03:34 08.08.2022
2285 Rain 28 1005 86 10000 5.66 210 22:44 07.08.2022
2286 Clouds 28 1005 86 10000 6.17 200 21:40 07.08.2022
2287 Rain 28 1005 86 10000 5.14 200 20:42 07.08.2022
2288 Rain 28 1005 89 10000 4.63 210 20:18 07.08.2022
2289 Rain 28 1005 86 10000 5.14 210 19:41 07.08.2022
2290 Rain 28 1005 86 10000 4.63 200 18:36 07.08.2022
2291 Rain 28 1006 89 10000 5.14 210 17:18 07.08.2022
2292 Rain 28 1006 87 10000 5.66 200 16:38 07.08.2022
2293 Rain 28 1006 89 10000 5.14 200 15:24 07.08.2022
2294 Clouds 29 1005 82 10000 5.14 190 13:37 07.08.2022
2295 Clouds 29 1005 84 10000 5.66 210 12:18 07.08.2022
2296 Clouds 30 1005 72 10000 6.69 210 10:35 07.08.2022
2297 Clouds 32 1005 72 10000 5.14 200 07:59 07.08.2022
2298 Clouds 29 1007 79 10000 4.12 210 03:32 07.08.2022
2299 Rain 29 1006 84 10000 4.12 170 01:45 07.08.2022
2300 Mist 27 1007 94 6000 2.06 160 22:25 06.08.2022
2301 Clouds 27 1007 94 6000 1.54 140 21:18 06.08.2022
2302 Mist 26 1006 97 6000 2.06 140 19:41 06.08.2022
2303 Mist 26 1007 97 5000 1.54 140 18:30 06.08.2022
2304 Mist 26 1007 97 6000 0.51 10 17:33 06.08.2022
2305 Clouds 28 1007 89 10000 2.57 320 14:48 06.08.2022
2306 Rain 28 1005 92 10000 2.06 330 13:49 06.08.2022
2307 Clouds 30 1004 79 10000 3.6 300 11:59 06.08.2022
2308 Rain 31 1005 72 10000 1.54 290 10:33 06.08.2022
2309 Rain 31 1005 77 10000 3.09 290 08:40 06.08.2022
2310 Clouds 29 1006 79 8000 4.12 210 03:53 06.08.2022
2311 Clouds 26 1006 94 10000 0.51 360 23:50 05.08.2022
2312 Clouds 26 1006 97 10000 1.03 280 22:32 05.08.2022
2313 Clouds 27 1006 89 10000 1.54 320 19:46 05.08.2022
2314 Clouds 27 1006 89 10000 2.06 290 18:46 05.08.2022
2315 Clouds 27 1006 94 10000 2.06 290 18:22 05.08.2022
2316 Clouds 27 1006 89 10000 1.54 310 16:49 05.08.2022
2317 Clouds 28 1006 89 10000 1.54 260 15:22 05.08.2022
2318 Clouds 28 1005 81 10000 2.06 270 14:31 05.08.2022
2319 Clouds 28 1005 81 10000 2.06 260 13:24 05.08.2022
2320 Clouds 29 1004 75 10000 3.09 270 12:29 05.08.2022
2321 Clouds 31 1004 72 10000 3.09 270 10:51 05.08.2022
2322 Clouds 32 1004 64 10000 4.63 230 08:27 05.08.2022
2323 Clouds 32 1006 68 10000 4.12 260 06:56 05.08.2022
2324 Clouds 32 1006 68 10000 4.12 260 06:56 05.08.2022
2325 Clouds 28 1007 86 10000 2.06 170 00:46 05.08.2022
2326 Clouds 26 1007 91 10000 0.51 170 22:32 04.08.2022
2327 Clouds 26 1007 97 10000 1.03 50 21:27 04.08.2022
2328 Clouds 26 1008 95 10000 1.54 40 20:44 04.08.2022
2329 Clouds 26 1008 92 10000 1.03 330 19:48 04.08.2022
2330 Clouds 26 1008 92 10000 1.54 250 18:42 04.08.2022
2331 Clouds 26 1008 92 10000 1.54 250 18:23 04.08.2022
2332 Clouds 28 1008 82 10000 2.57 280 14:38 04.08.2022
2333 Clouds 28 1008 83 10000 3.09 290 13:18 04.08.2022
2334 Clouds 30 1008 74 10000 4.12 270 11:20 04.08.2022
2335 Clouds 33 1009 64 10000 4.12 280 07:54 04.08.2022
2336 Clouds 32 1009 62 10000 3.09 270 06:40 04.08.2022
2337 Clouds 29 1011 79 10000 2.06 300 02:33 04.08.2022
2338 Clouds 25 1011 94 10000 1.03 150 23:45 03.08.2022
2339 Clouds 25 1010 95 9000 1.03 310 22:55 03.08.2022
2340 Clouds 26 1010 89 10000 2.57 250 20:50 03.08.2022
2341 Clouds 27 1010 89 9000 3.09 250 19:46 03.08.2022
2342 Clouds 26 1010 92 8000 1.54 270 18:37 03.08.2022
2343 Clouds 27 1010 94 8000 1.54 260 16:25 03.08.2022
2344 Clouds 27 1010 89 8000 2.57 280 15:32 03.08.2022
2345 Clouds 28 1009 84 10000 3.09 270 12:41 03.08.2022
2346 Clouds 31 1009 68 10000 5.14 250 08:54 03.08.2022
2347 Mist 27 1011 89 5000 2.57 220 04:47 03.08.2022
2348 Mist 27 1011 94 4000 2.57 250 03:37 03.08.2022
2349 Mist 25 1011 97 4000 3.6 260 01:36 03.08.2022
2350 Rain 25 1010 94 8000 3.09 260 23:27 02.08.2022
2351 Rain 25 1010 97 3000 4.63 220 21:55 02.08.2022
2352 Rain 25 1010 97 3000 3.09 260 21:33 02.08.2022
2353 Rain 26 1010 94 6000 3.6 230 19:19 02.08.2022
2354 Rain 26 1010 95 8000 5.14 220 16:38 02.08.2022
2355 Rain 27 1008 91 10000 3.09 200 12:55 02.08.2022
2356 Mist 27 1008 92 5000 4.12 210 09:42 02.08.2022
2357 Rain 28 1007 89 4000 5.14 200 08:26 02.08.2022
2358 Clouds 28 1007 89 7000 5.14 200 07:50 02.08.2022
2359 Clouds 28 1008 83 8000 4.63 180 04:55 02.08.2022
2360 Clouds 26 1008 94 6000 4.12 160 01:25 02.08.2022
2361 Rain 26 1007 92 10000 2.57 150 22:57 01.08.2022
2362 Rain 26 1007 94 6000 3.6 160 20:57 01.08.2022
2363 Thunderstorm 26 1006 97 2500 4.12 200 19:41 01.08.2022
2364 Thunderstorm 26 1006 95 4000 4.12 160 18:43 01.08.2022
2365 Thunderstorm 27 1005 86 6000 3.09 180 16:54 01.08.2022
2366 Clouds 27 1005 86 6000 5.14 150 16:29 01.08.2022
2367 Clouds 30 1004 68 10000 5.66 120 15:31 01.08.2022
2368 Clouds 29 1005 68 10000 6.17 120 14:43 01.08.2022
2369 Clouds 30 1004 66 10000 7.72 120 12:52 01.08.2022
2370 Clouds 32 1004 68 10000 5.14 100 10:30 01.08.2022
2371 Clouds 32 1005 70 10000 4.63 100 08:41 01.08.2022
2372 Clouds 31 1005 68 10000 5.14 160 06:50 01.08.2022
2373 Clouds 29 1007 81 10000 3.09 170 04:24 01.08.2022
2374 Rain 25 1006 97 6000 2.57 140 00:55 01.08.2022
2375 Rain 25 1005 100 10000 2.57 200 22:42 31.07.2022
2376 Rain 25 1005 100 3000 3.6 160 21:35 31.07.2022
2377 Thunderstorm 25 1005 97 4000 2.06 240 19:58 31.07.2022
2378 Clouds 26 1005 94 10000 3.6 120 18:38 31.07.2022
2379 Rain 26 1005 94 10000 4.12 110 16:18 31.07.2022
2380 Rain 26 1005 94 4000 4.63 110 13:53 31.07.2022
2381 Rain 27 1005 94 10000 3.6 110 12:29 31.07.2022
2382 Rain 27 1005 89 10000 3.09 90 10:22 31.07.2022
2383 Rain 27 1005 94 7000 2.06 40 08:18 31.07.2022
2384 Rain 28 1007 78 10000 5.14 110 03:49 31.07.2022
2385 Rain 27 1007 76 10000 2.57 60 23:53 30.07.2022
2386 Rain 27 1007 78 10000 2.57 90 22:19 30.07.2022
2387 Rain 27 1007 78 10000 2.57 90 22:19 30.07.2022
2388 Clear 28 1007 76 10000 2.06 70 21:49 30.07.2022
2389 Clear 27 1007 80 10000 2.06 50 20:58 30.07.2022
2390 Clear 28 1008 76 10000 3.09 110 19:59 30.07.2022
2391 Clear 28 1008 76 10000 2.06 70 18:57 30.07.2022
2392 Clear 28 1008 75 10000 2.57 360 17:45 30.07.2022
2393 Clear 28 1009 80 10000 2.06 310 15:54 30.07.2022
2394 Rain 28 1009 80 10000 2.06 310 15:24 30.07.2022
2395 Clouds 28 1008 76 10000 3.09 320 13:19 30.07.2022
2396 Clouds 28 1008 79 10000 3.09 320 12:19 30.07.2022
2397 Clouds 32 1007 55 10000 5.14 180 10:31 30.07.2022
2398 Clouds 34 1007 50 10000 5.66 150 09:56 30.07.2022
2399 Clouds 35 1008 47 10000 6.69 140 07:55 30.07.2022
2400 Clear 32 1011 57 10000 4.63 130 03:55 30.07.2022
2401 Clear 31 1011 60 10000 4.12 100 02:25 30.07.2022
2402 Clear 27 1010 78 10000 2.06 70 22:44 29.07.2022
2403 Clear 27 1011 79 10000 1.54 330 21:24 29.07.2022
2404 Clear 27 1011 79 10000 2.06 210 20:39 29.07.2022
2405 Clear 27 1011 89 10000 2.06 350 18:18 29.07.2022
2406 Clear 29 1012 76 10000 2.06 340 15:38 29.07.2022
2407 Clear 29 1011 75 10000 3.09 320 13:37 29.07.2022
2408 Clouds 32 1010 61 10000 2.57 30 11:28 29.07.2022
2409 Clouds 34 1011 57 10000 6.17 290 08:50 29.07.2022
2410 Clouds 33 1011 62 10000 6.17 290 08:18 29.07.2022
2411 Clear 29 1013 72 10000 4.12 110 01:58 29.07.2022
2412 Clouds 26 1012 84 10000 1.54 180 22:53 28.07.2022
2413 Clouds 26 1012 81 10000 2.57 200 21:28 28.07.2022
2414 Clouds 26 1012 81 10000 3.09 210 20:32 28.07.2022
2415 Clear 27 1012 84 10000 0.97 115 19:43 28.07.2022
2416 Clear 27 1012 82 10000 0.91 140 19:23 28.07.2022
2417 Clouds 28 1012 77 10000 2.06 310 17:44 28.07.2022
2418 Clear 28 1012 74 10000 1.03 220 16:55 28.07.2022
2419 Clouds 28 1011 72 10000 2.06 190 15:32 28.07.2022
2420 Clouds 29 1010 65 10000 2.06 270 13:30 28.07.2022
2421 Clouds 32 1009 55 10000 4.63 290 11:27 28.07.2022
2422 Clouds 32 1010 53 10000 3.09 170 06:45 28.07.2022
2423 Clouds 31 1011 54 10000 2.57 180 05:31 28.07.2022
2424 Clouds 28 1011 65 10000 4.63 110 01:23 28.07.2022
2425 Clear 25 1011 75 10000 4.63 110 22:41 27.07.2022
2426 Clear 25 1011 73 10000 5.66 120 21:28 27.07.2022
2427 Clouds 26 1010 71 10000 5.14 110 19:42 27.07.2022
2428 Clear 25 1010 71 10000 1.54 140 17:49 27.07.2022
2429 Clear 27 1010 65 10000 2.57 140 15:52 27.07.2022
2430 Clear 27 1010 61 10000 4.63 140 14:58 27.07.2022
2431 Clear 28 1010 61 10000 4.63 140 14:35 27.07.2022
2432 Clear 30 1008 57 10000 4.63 160 12:50 27.07.2022
2433 Clouds 32 1009 57 10000 3.6 50 07:54 27.07.2022
2434 Clouds 31 1009 56 10000 2.06 220 06:56 27.07.2022
2435 Mist 27 1010 81 6000 2.06 210 01:59 27.07.2022
2436 Mist 25 1009 89 3000 2.06 300 22:29 26.07.2022
2437 Mist 25 1009 94 4000 1.54 290 21:20 26.07.2022
2438 Mist 26 1009 89 5000 2.57 220 20:28 26.07.2022
2439 Clouds 26 1009 86 9000 1.54 340 18:43 26.07.2022
2440 Clear 27 1009 83 10000 1.03 310 17:58 26.07.2022
2441 Clear 27 1009 81 10000 1.03 330 15:59 26.07.2022
2442 Clear 27 1009 83 10000 1.03 330 15:18 26.07.2022
2443 Clear 28 1008 78 10000 2.06 290 13:20 26.07.2022
2444 Clear 31 1008 66 10000 3.6 330 11:20 26.07.2022
2445 Clouds 33 1008 52 10000 4.12 270 08:55 26.07.2022
2446 Clouds 32 1010 62 10000 1.54 280 05:49 26.07.2022
2447 Clear 25 1010 88 10000 1.03 20 00:37 26.07.2022
2448 Clear 23 1010 97 10000 0.51 70 22:53 25.07.2022
2449 Clear 22 1010 100 10000 0.51 70 22:22 25.07.2022
2450 Clear 23 1010 94 10000 1.54 310 21:38 25.07.2022
2451 Clear 23 1010 97 10000 0.51 330 20:40 25.07.2022
2452 Clear 24 1010 91 10000 1.03 350 19:27 25.07.2022
2453 Clear 24 1010 94 10000 1.54 310 18:18 25.07.2022
2454 Clear 25 1010 89 10000 1.54 320 17:27 25.07.2022
2455 Clear 26 1009 81 10000 1.54 280 14:44 25.07.2022
2456 Clear 30 1009 65 10000 2.75 278 12:21 25.07.2022
2457 Clear 34 1008 48 10000 3.67 287 09:18 25.07.2022
2458 Clouds 29 1009 65 10000 1.54 300 03:23 25.07.2022
2459 Clouds 23 1008 97 10000 0.51 210 23:53 24.07.2022
2460 Clouds 23 1007 91 10000 1.54 310 22:56 24.07.2022
2461 Clouds 23 1007 91 10000 1.54 310 22:26 24.07.2022
2462 Clouds 23 1007 94 10000 2.06 310 21:19 24.07.2022
2463 Clouds 23 1007 94 10000 3.09 320 20:47 24.07.2022
2464 Clouds 24 1006 94 10000 1.03 320 19:54 24.07.2022
2465 Clouds 24 1006 94 10000 2.06 310 18:38 24.07.2022
2466 Clouds 24 1005 97 10000 2.57 310 16:28 24.07.2022
2467 Clouds 25 1005 89 10000 1.54 320 15:45 24.07.2022
2468 Clouds 25 1004 88 10000 2.57 310 14:19 24.07.2022
2469 Clouds 26 1003 84 10000 2.57 330 12:52 24.07.2022
2470 Clouds 27 1002 82 10000 3.6 330 11:38 24.07.2022
2471 Clouds 27 1002 79 6000 4.12 340 10:59 24.07.2022
2472 Clouds 27 1002 74 10000 1.54 200 08:31 24.07.2022
2473 Clouds 27 1002 76 10000 2.57 200 07:47 24.07.2022
2474 Clouds 26 1002 79 10000 2.06 80 04:45 24.07.2022
2475 Clouds 24 1000 88 10000 3.6 120 23:51 23.07.2022
2476 Clouds 23 1000 94 10000 2.57 130 20:59 23.07.2022
2477 Clouds 23 1001 94 10000 3.6 110 19:44 23.07.2022
2478 Rain 23 1001 94 10000 4.12 120 18:50 23.07.2022
2479 Rain 22 1002 97 4500 5.14 110 17:28 23.07.2022
2480 Rain 22 1002 94 5000 3.6 110 16:31 23.07.2022
2481 Rain 22 1003 100 3500 4.63 60 15:22 23.07.2022
2482 Rain 23 1003 94 2000 2.57 340 14:56 23.07.2022
2483 Rain 23 1003 94 3500 3.09 360 14:24 23.07.2022
2484 Rain 24 1003 91 7000 2.57 20 12:44 23.07.2022
2485 Rain 25 1003 81 10000 3.09 170 10:45 23.07.2022
2486 Rain 27 1003 67 10000 3.6 160 09:54 23.07.2022
2487 Rain 28 1004 65 10000 4.12 160 08:30 23.07.2022
2488 Mist 26 1006 73 6000 2.57 160 03:38 23.07.2022
2489 Mist 23 1006 91 2500 2.06 190 00:39 23.07.2022
2490 Mist 22 1006 97 2500 1.54 150 21:41 22.07.2022
2491 Mist 22 1006 97 2500 1.03 110 20:33 22.07.2022
2492 Mist 23 1006 94 3000 1.03 210 18:57 22.07.2022
2493 Mist 23 1006 94 3500 1.03 40 17:52 22.07.2022
2494 Mist 23 1007 94 4000 1.54 360 16:46 22.07.2022
2495 Mist 24 1006 88 5000 1.03 300 14:20 22.07.2022
2496 Mist 26 1005 83 8000 4.63 270 10:41 22.07.2022
2497 Clouds 26 1005 78 10000 3.6 290 09:25 22.07.2022
2498 Mist 26 1005 83 9000 4.63 290 08:26 22.07.2022
2499 Clouds 27 1006 69 10000 2.06 10 04:26 22.07.2022
2500 Clouds 23 1006 88 10000 2.06 290 23:45 21.07.2022
2501 Mist 23 1003 88 10000 2.57 360 22:20 21.07.2022
2502 Rain 23 1005 88 10000 3.09 280 20:36 21.07.2022
2503 Clouds 23 1005 88 10000 1.03 300 18:52 21.07.2022
2504 Clouds 23 1005 85 10000 2.57 310 17:29 21.07.2022
2505 Clouds 23 1005 86 10000 2.06 330 16:43 21.07.2022
2506 Clouds 24 1004 81 10000 2.06 320 14:49 21.07.2022
2507 Clouds 24 1003 81 10000 2.57 310 13:58 21.07.2022
2508 Clouds 25 1003 78 10000 2.06 320 12:27 21.07.2022
2509 Clouds 25 1002 73 10000 3.6 330 10:37 21.07.2022
2510 Clouds 25 1002 78 10000 4.12 350 08:53 21.07.2022
2511 Clouds 25 1002 78 10000 4.12 350 08:35 21.07.2022
2512 Clouds 25 1001 78 10000 5.14 340 07:22 21.07.2022
2513 Rain 22 1000 91 10000 5.14 350 03:25 21.07.2022
2514 Rain 21 1002 97 3500 5.66 360 22:51 20.07.2022
2515 Rain 21 1001 94 6000 5.14 10 22:20 20.07.2022
2516 Rain 22 1003 91 5000 7.2 20 20:46 20.07.2022
2517 Rain 22 1003 94 8000 7.2 360 19:47 20.07.2022
2518 Rain 22 1003 94 8000 7.2 360 19:47 20.07.2022
2519 Rain 23 1004 91 8000 4.63 360 18:56 20.07.2022
2520 Rain 23 1004 91 8000 4.63 360 18:33 20.07.2022
2521 Rain 24 1005 85 10000 2.06 360 17:33 20.07.2022
2522 Rain 25 1006 83 10000 2.57 20 15:43 20.07.2022
2523 Rain 26 1006 79 10000 2.06 340 14:54 20.07.2022
2524 Rain 27 1005 72 10000 1.54 310 13:44 20.07.2022
2525 Clear 28 1006 66 10000 2.06 260 11:29 20.07.2022
2526 Clouds 30 1006 58 10000 4.12 240 07:36 20.07.2022
2527 Mist 26 1007 83 8000 0.51 190 01:58 20.07.2022
2528 Mist 25 1007 88 7000 1.03 240 00:43 20.07.2022
2529 Mist 24 1006 88 6000 1.54 210 22:38 19.07.2022
2530 Mist 24 1006 88 6000 1.54 210 22:20 19.07.2022
2531 Mist 25 1006 86 6000 2.06 210 20:50 19.07.2022
2532 Mist 25 1006 86 6000 2.06 230 19:38 19.07.2022
2533 Mist 25 1006 86 10000 2.06 240 18:43 19.07.2022
2534 Mist 25 1005 83 10000 2.06 210 17:56 19.07.2022
2535 Mist 25 1005 78 10000 1.54 240 15:50 19.07.2022
2536 Clouds 26 1004 74 8000 3.09 260 13:51 19.07.2022
2537 Clear 28 1003 62 10000 5.66 280 11:34 19.07.2022
2538 Clear 30 1002 56 10000 4.63 280 09:54 19.07.2022
2539 Clear 31 1002 59 10000 4.63 280 08:48 19.07.2022
2540 Clear 30 1002 62 10000 4.63 280 08:21 19.07.2022
2541 Clear 32 1001 47 10000 4.66 254 07:18 19.07.2022
2542 Clouds 31 1001 58 10000 5.66 300 05:20 19.07.2022
2543 Haze 30 1001 66 10000 2.57 200 04:40 19.07.2022
2544 Clouds 24 1001 80 10000 0.52 247 00:18 19.07.2022
2545 Clouds 24 1000 88 6000 1.54 300 23:20 18.07.2022
2546 Clouds 23 1000 94 8000 1.54 290 22:42 18.07.2022
2547 Rain 23 999 91 8000 1.54 290 21:26 18.07.2022
2548 Rain 24 999 88 8000 1.54 330 20:49 18.07.2022
2549 Clouds 24 999 88 8000 1.03 360 19:21 18.07.2022
2550 Clouds 25 999 83 10000 1.54 270 16:45 18.07.2022
2551 Clouds 25 999 83 10000 2.57 290 15:40 18.07.2022
2552 Clouds 27 998 76 10000 3.09 280 13:40 18.07.2022
2553 Clouds 27 998 72 10000 3.09 290 12:21 18.07.2022
2554 Clouds 28 997 70 10000 3.6 190 09:56 18.07.2022
2555 Clouds 30 997 58 10000 1.54 220 08:20 18.07.2022
2556 Clouds 30 998 59 10000 4.63 130 06:39 18.07.2022
2557 Clear 23 1001 94 6000 1.54 70 23:19 17.07.2022
2558 Mist 23 1001 91 4500 1.54 190 22:32 17.07.2022
2559 Mist 23 1001 88 5000 1.03 160 21:40 17.07.2022
2560 Clouds 23 1001 91 6000 1.03 190 20:46 17.07.2022
2561 Clouds 23 1002 78 10000 0.83 144 20:18 17.07.2022
2562 Clouds 23 1001 88 7000 2.06 110 19:25 17.07.2022
2563 Clouds 24 1001 81 10000 1.03 210 17:55 17.07.2022
2564 Clouds 24 1001 81 10000 1.03 210 17:36 17.07.2022
2565 Clear 24 1002 81 10000 2.57 230 16:45 17.07.2022
2566 Clear 25 1002 83 10000 2.57 230 16:22 17.07.2022
2567 Clear 26 1000 71 10000 2.57 260 13:58 17.07.2022
2568 Clear 27 1000 65 10000 4.12 260 12:56 17.07.2022
2569 Clear 29 999 61 10000 3.09 260 10:21 17.07.2022
2570 Clouds 28 1000 74 10000 3.09 290 07:31 17.07.2022
2571 Mist 25 1000 80 9000 2.57 190 02:35 17.07.2022
2572 Clouds 23 1000 88 6000 3.6 140 23:28 16.07.2022
2573 Clouds 22 1000 91 6000 2.57 130 22:33 16.07.2022
2574 Clouds 22 1000 91 8000 2.57 170 20:40 16.07.2022
2575 Clouds 23 1000 88 10000 1.54 170 18:58 16.07.2022
2576 Clouds 23 1000 88 10000 2.57 160 17:47 16.07.2022
2577 Clouds 24 1000 85 10000 1.54 310 15:54 16.07.2022
2578 Clouds 25 999 80 10000 3.6 280 12:37 16.07.2022
2579 Clouds 27 998 71 10000 5.14 270 10:28 16.07.2022
2580 Clouds 28 998 65 10000 4.63 260 09:25 16.07.2022
2581 Clouds 29 997 63 10000 4.63 240 08:41 16.07.2022
2582 Clouds 28 997 67 10000 3.6 250 06:59 16.07.2022
2583 Mist 26 998 72 10000 3.09 250 03:33 16.07.2022
2584 Mist 24 998 88 6000 3.09 190 00:23 16.07.2022
2585 Mist 23 997 88 6000 1.54 10 22:54 15.07.2022
2586 Mist 23 997 88 7000 0.51 60 21:55 15.07.2022
2587 Mist 23 998 88 7000 0.51 170 20:40 15.07.2022
2588 Clouds 23 998 89 8000 2.57 210 18:55 15.07.2022
2589 Clouds 23 998 89 8000 2.57 210 18:22 15.07.2022
2590 Clouds 24 999 83 8000 1.54 160 16:46 15.07.2022
2591 Clouds 25 999 75 10000 3.09 260 13:58 15.07.2022
2592 Clouds 27 998 74 10000 3.09 260 12:22 15.07.2022
2593 Clouds 29 998 55 10000 5.14 260 10:52 15.07.2022
2594 Clouds 30 999 60 10000 3.6 260 07:47 15.07.2022
2595 Clouds 26 1001 73 10000 1.03 340 02:51 15.07.2022
2596 Clouds 22 1001 94 8000 1.03 360 00:39 15.07.2022
2597 Clouds 22 1001 94 8000 1.03 360 00:39 15.07.2022
2598 Clouds 22 1001 97 10000 1.54 170 22:56 14.07.2022
2599 Clouds 22 1001 94 10000 1.54 230 21:59 14.07.2022
2600 Clouds 22 1001 94 10000 1.54 230 21:37 14.07.2022
2601 Clouds 22 1001 100 10000 1.03 170 21:18 14.07.2022
2602 Clouds 23 1001 91 10000 2.57 180 20:41 14.07.2022
2603 Clouds 23 1001 94 10000 2.06 210 20:18 14.07.2022
2604 Clouds 23 1001 91 10000 1.54 210 17:25 14.07.2022
2605 Clouds 23 1001 94 10000 1.03 210 16:18 14.07.2022
2606 Clouds 24 1001 86 10000 1.03 200 14:44 14.07.2022
2607 Clouds 25 1000 86 10000 2.57 250 13:39 14.07.2022
2608 Clouds 26 1000 78 10000 4.63 270 12:23 14.07.2022
2609 Clouds 28 1000 74 10000 4.63 270 11:26 14.07.2022
2610 Clouds 28 1000 72 10000 5.66 280 10:49 14.07.2022
2611 Clouds 30 1000 66 10000 4.12 310 08:28 14.07.2022
2612 Mist 25 1000 86 10000 2.57 320 03:42 14.07.2022
2613 Mist 23 999 100 5000 2.57 310 00:55 14.07.2022
2614 Mist 23 999 94 4000 2.06 330 23:41 13.07.2022
2615 Mist 23 999 100 3000 0.51 340 22:27 13.07.2022
2616 Drizzle 23 998 94 3000 2.06 270 21:32 13.07.2022
2617 Drizzle 23 999 91 5000 2.06 280 20:38 13.07.2022
2618 Drizzle 25 999 94 3000 1.54 180 17:59 13.07.2022
2619 Drizzle 25 999 94 3000 1.54 180 17:20 13.07.2022
2620 Mist 24 999 100 4500 1.54 210 15:59 13.07.2022
2621 Mist 24 999 100 6000 2.06 220 13:50 13.07.2022
2622 Rain 24 998 97 3000 2.57 150 11:24 13.07.2022
2623 Rain 24 999 97 1400 6.69 180 10:40 13.07.2022
2624 Mist 24 998 94 3000 7.72 180 09:28 13.07.2022
2625 Rain 24 998 97 1200 8.23 150 08:21 13.07.2022
2626 Mist 24 1004 97 3500 6.69 140 04:36 13.07.2022
2627 Rain 25 1005 91 6000 5.14 140 00:25 13.07.2022
2628 Clouds 25 1005 94 10000 2.06 150 22:28 12.07.2022
2629 Rain 25 1005 91 10000 3.6 150 21:45 12.07.2022
2630 Rain 26 1006 86 10000 2.06 160 20:44 12.07.2022
2631 Rain 27 1006 81 10000 2.57 170 19:45 12.07.2022
2632 Rain 27 1006 81 10000 1.54 210 18:25 12.07.2022
2633 Clouds 27 1006 78 10000 3.09 180 16:20 12.07.2022
2634 Rain 27 1007 79 10000 2.06 310 14:31 12.07.2022
2635 Clouds 27 1007 76 10000 2.06 330 13:34 12.07.2022
2636 Rain 28 1006 72 10000 3.09 330 11:48 12.07.2022
2637 Clouds 29 1007 70 10000 4.12 310 10:25 12.07.2022
2638 Clouds 29 1007 63 10000 3.09 130 08:40 12.07.2022
2639 Clear 30 1007 62 10000 3.6 100 07:47 12.07.2022
2640 Clear 29 1009 63 10000 3.09 50 05:45 12.07.2022
2641 Clear 28 1009 62 10000 3.09 30 04:46 12.07.2022
2642 Clear 25 1008 69 10000 4.63 110 00:20 12.07.2022
2643 Clear 23 1008 80 10000 3.09 90 22:39 11.07.2022
2644 Clear 23 1007 83 10000 2.06 10 20:56 11.07.2022
2645 Clear 23 1007 83 10000 2.06 10 20:32 11.07.2022
2646 Clear 24 1008 83 10000 1.54 30 18:48 11.07.2022
2647 Clear 24 1008 83 10000 1.54 30 18:23 11.07.2022
2648 Clear 24 1008 83 10000 1.54 30 18:23 11.07.2022
2649 Clear 25 1008 80 10000 2.57 10 16:26 11.07.2022
2650 Clear 26 1007 74 10000 3.09 40 14:58 11.07.2022
2651 Clouds 28 1006 76 10000 2.57 70 12:38 11.07.2022
2652 Rain 30 1005 62 10000 3.6 280 10:56 11.07.2022
2653 Clouds 30 1005 64 10000 3.09 260 09:54 11.07.2022
2654 Clouds 31 1005 62 10000 3.09 260 09:21 11.07.2022
2655 Clouds 29 1005 70 10000 4.63 290 07:52 11.07.2022
2656 Clear 24 1005 80 10000 3.09 180 00:54 11.07.2022
2657 Clear 24 1005 83 10000 3.09 190 23:53 10.07.2022
2658 Clear 24 1005 80 10000 2.06 160 22:34 10.07.2022
2659 Rain 24 1005 80 10000 2.57 240 20:55 10.07.2022
2660 Rain 24 1005 80 10000 2.57 240 20:24 10.07.2022
2661 Rain 24 1005 78 10000 1.54 270 19:21 10.07.2022
2662 Rain 27 1005 68 10000 4.12 270 17:51 10.07.2022
2663 Clouds 27 1005 65 10000 2.57 260 16:59 10.07.2022
2664 Clouds 27 1005 61 10000 1.54 260 16:20 10.07.2022
2665 Clouds 28 1004 59 10000 2.57 260 14:44 10.07.2022
2666 Rain 29 1004 65 10000 2.57 270 13:18 10.07.2022
2667 Clear 31 1003 57 10000 4.63 300 11:36 10.07.2022
2668 Clear 34 1004 54 10000 4.63 280 09:44 10.07.2022
2669 Clouds 34 1004 49 10000 2.06 320 08:43 10.07.2022
2670 Clouds 33 1005 54 9000 2.06 200 06:36 10.07.2022
2671 Mist 23 1005 97 3000 1.54 180 23:44 09.07.2022
2672 Mist 23 1004 94 3500 1.03 70 22:26 09.07.2022
2673 Mist 23 1004 94 3500 1.54 270 21:40 09.07.2022
2674 Clouds 24 1004 91 6000 1.03 330 19:44 09.07.2022
2675 Clouds 24 1004 88 10000 1.54 320 18:26 09.07.2022
2676 Clouds 24 1004 88 10000 1.54 320 17:21 09.07.2022
2677 Clouds 26 1004 81 10000 3.09 310 15:58 09.07.2022
2678 Clouds 26 1004 81 10000 3.09 310 15:38 09.07.2022
2679 Clear 25 1004 88 10000 2.57 320 14:21 09.07.2022
2680 Clear 27 1003 79 10000 3.6 290 13:28 09.07.2022
2681 Clear 30 1002 70 10000 2.57 280 11:40 09.07.2022
2682 Clouds 31 1002 68 10000 3.6 270 10:25 09.07.2022
2683 Clouds 30 1002 70 10000 3.09 290 09:23 09.07.2022
2684 Clouds 29 1002 72 10000 3.6 300 07:00 09.07.2022
2685 Clouds 28 1003 74 8000 2.06 290 04:38 09.07.2022
2686 Mist 24 1002 94 4000 2.06 300 23:33 08.07.2022
2687 Clouds 25 1002 85 10000 0.76 196 22:00 08.07.2022
2688 Mist 23 1002 100 3000 2.57 280 21:20 08.07.2022
2689 Mist 23 1002 97 3000 3.09 280 20:33 08.07.2022
2690 Mist 24 1002 89 4000 1.54 270 18:36 08.07.2022
2691 Drizzle 24 1002 89 4000 2.06 270 17:45 08.07.2022
2692 Clouds 25 1003 81 10000 2.57 300 15:53 08.07.2022
2693 Clouds 25 1002 81 10000 2.06 300 14:50 08.07.2022
2694 Clouds 25 1002 88 10000 4.63 290 12:30 08.07.2022
2695 Clouds 29 1001 70 10000 2.57 240 10:46 08.07.2022
2696 Clouds 28 1001 74 10000 3.09 260 09:24 08.07.2022
2697 Clouds 27 1003 76 10000 4.12 230 06:55 08.07.2022
2698 Clouds 26 1003 81 10000 2.57 230 04:31 08.07.2022
2699 Clouds 25 1004 88 8000 3.6 230 00:23 08.07.2022
2700 Mist 25 1003 86 6000 4.63 230 22:47 07.07.2022
2701 Mist 25 1003 86 7000 3.09 230 21:39 07.07.2022
2702 Clouds 26 1004 86 6000 4.12 230 19:28 07.07.2022
2703 Clouds 26 1004 89 6000 3.6 210 17:42 07.07.2022
2704 Mist 27 1004 86 4000 3.6 220 15:57 07.07.2022
2705 Mist 27 1004 92 4000 4.63 210 13:30 07.07.2022
2706 Clouds 28 1003 92 8000 5.14 210 12:40 07.07.2022
2707 Clouds 29 1003 90 8000 5.14 210 12:21 07.07.2022
2708 Rain 29 1003 84 10000 6.69 210 11:31 07.07.2022
2709 Rain 30 1003 80 10000 6.69 200 10:44 07.07.2022
2710 Rain 30 1003 80 10000 6.69 200 10:26 07.07.2022
2711 Clouds 31 1004 71 10000 4.63 200 07:58 07.07.2022
2712 Clouds 31 1005 64 10000 6.69 190 04:44 07.07.2022
2713 Rain 26 1007 86 10000 2.01 111 23:37 06.07.2022
2714 Rain 26 1007 91 10000 2.01 109 23:19 06.07.2022
2715 Rain 26 1007 91 10000 2.01 109 23:19 06.07.2022
2716 Clouds 26 1007 97 10000 3.6 140 22:57 06.07.2022
2717 Rain 26 1007 97 10000 3.6 140 22:39 06.07.2022
2718 Mist 26 1007 97 10000 2.57 150 21:46 06.07.2022
2719 Rain 26 1007 97 10000 1.03 130 19:41 06.07.2022
2720 Clouds 26 1007 100 10000 2.06 110 18:32 06.07.2022
2721 Rain 26 1007 97 10000 2.06 100 16:27 06.07.2022
2722 Mist 28 1007 85 1000 6.69 200 14:58 06.07.2022
2723 Clouds 32 1005 62 10000 3.6 160 12:42 06.07.2022
2724 Clouds 32 1005 60 10000 3.09 160 11:49 06.07.2022
2725 Clouds 34 1005 55 10000 2.57 190 10:18 06.07.2022
2726 Clouds 33 1006 58 10000 3.6 160 07:47 06.07.2022
2727 Clouds 34 1006 55 10000 3.6 160 07:23 06.07.2022
2728 Clouds 30 1007 70 8000 4.12 140 03:24 06.07.2022
2729 Clouds 25 1007 92 6000 1.03 50 22:45 05.07.2022
2730 Clouds 25 1007 92 6000 2.57 160 21:39 05.07.2022
2731 Clouds 25 1006 95 6000 1.03 230 20:38 05.07.2022
2732 Clouds 26 1006 92 7000 1.54 180 19:41 05.07.2022
2733 Clouds 25 1006 100 7000 1.03 350 19:22 05.07.2022
2734 Clouds 26 1007 86 9000 1.03 340 17:47 05.07.2022
2735 Rain 26 1007 89 10000 2.06 310 16:54 05.07.2022
2736 Clear 27 1006 82 10000 1.03 280 15:25 05.07.2022
2737 Mist 28 1005 79 10000 2.57 40 13:59 05.07.2022
2738 Haze 30 1004 75 10000 2.57 310 12:42 05.07.2022
2739 Haze 31 1004 66 10000 5.14 280 11:32 05.07.2022
2740 Mist 31 1004 64 3000 3.6 140 10:34 05.07.2022
2741 Haze 33 1004 58 5000 2.06 210 08:26 05.07.2022
2742 Haze 32 1004 60 5000 2.57 200 07:31 05.07.2022
2743 Haze 31 1005 64 5000 1.03 10 04:47 05.07.2022
2744 Haze 31 1005 62 5000 1.03 10 04:20 05.07.2022
2745 Clouds 25 1004 92 8000 0.51 330 23:42 04.07.2022
2746 Rain 25 1005 92 8000 1.54 310 22:59 04.07.2022
2747 Clouds 25 1005 94 8000 1.54 310 22:20 04.07.2022
2748 Clouds 25 1004 94 8000 1.03 330 21:18 04.07.2022
2749 Clouds 26 1005 86 9000 1.54 230 20:50 04.07.2022
2750 Clouds 26 1005 86 9000 1.54 230 20:50 04.07.2022
2751 Clouds 26 1005 86 9000 1.54 230 20:32 04.07.2022
2752 Clear 25 1005 88 10000 1.54 300 19:44 04.07.2022
2753 Clear 25 1005 88 10000 1.54 300 19:25 04.07.2022
2754 Clear 27 1005 81 10000 2.57 180 17:40 04.07.2022
2755 Clear 27 1004 80 10000 2.06 310 15:42 04.07.2022
2756 Clear 28 1004 81 10000 2.06 290 14:42 04.07.2022
2757 Rain 29 1004 78 10000 2.57 290 13:27 04.07.2022
2758 Rain 30 1004 70 10000 4.12 340 11:43 04.07.2022
2759 Clear 32 1004 58 10000 4.12 290 10:33 04.07.2022
2760 Clouds 32 1004 55 10000 4.63 330 09:36 04.07.2022
2761 Clouds 31 1005 62 10000 4.12 290 06:50 04.07.2022
2762 Clouds 30 1006 56 10000 0.45 254 03:23 04.07.2022
2763 Clear 25 1006 83 10000 1.03 300 23:53 03.07.2022
2764 Clear 24 1006 86 10000 1.54 320 22:55 03.07.2022
2765 Clear 26 1007 83 10000 1.03 210 20:46 03.07.2022
2766 Clear 25 1007 88 10000 0.51 20 20:20 03.07.2022
2767 Clear 26 1007 76 10000 1.03 310 19:25 03.07.2022
2768 Clear 26 1007 83 10000 1.54 320 18:31 03.07.2022
2769 Clear 27 1007 76 10000 1.54 310 17:42 03.07.2022
2770 Clear 27 1007 74 10000 1.54 290 15:28 03.07.2022
2771 Clear 28 1007 67 10000 1.54 300 14:54 03.07.2022
2772 Clear 29 1007 66 10000 2.06 320 13:50 03.07.2022
2773 Clear 30 1007 58 10000 3.09 280 12:49 03.07.2022
2774 Clear 30 1007 58 10000 3.09 280 12:19 03.07.2022
2775 Clear 33 1007 52 10000 4.12 320 10:54 03.07.2022
2776 Clear 33 1007 52 10000 4.12 320 10:35 03.07.2022
2777 Clear 34 1008 46 10000 3.09 320 07:38 03.07.2022
2778 Clear 33 1008 50 10000 1.03 180 06:52 03.07.2022
2779 Mist 25 1010 86 4500 1.03 360 00:39 03.07.2022
2780 Mist 23 1011 94 4500 0.51 20 23:37 02.07.2022
2781 Mist 23 1011 94 4500 1.54 180 22:31 02.07.2022
2782 Mist 24 1011 91 5000 1.03 320 20:28 02.07.2022
2783 Clouds 24 1011 94 6000 1.54 320 19:49 02.07.2022
2784 Clouds 25 1011 89 6000 1.54 330 18:24 02.07.2022
2785 Clouds 25 1011 89 7000 2.06 330 17:38 02.07.2022
2786 Clouds 26 1011 81 9000 2.06 310 15:56 02.07.2022
2787 Clear 28 1011 72 10000 2.57 300 13:35 02.07.2022
2788 Clear 32 1011 59 10000 4.63 290 11:48 02.07.2022
2789 Clouds 33 1011 57 10000 3.6 300 10:50 02.07.2022
2790 Clouds 33 1011 62 10000 3.6 300 10:21 02.07.2022
2791 Clouds 33 1012 52 10000 1.03 320 08:37 02.07.2022
2792 Clouds 33 1012 55 10000 1.03 320 08:19 02.07.2022
2793 Clear 28 1015 74 10000 1.54 350 02:59 02.07.2022
2794 Clear 25 1014 85 10000 1.03 300 00:28 02.07.2022
2795 Clear 23 1014 94 10000 1.54 70 23:21 01.07.2022
2796 Clouds 23 1014 94 10000 1.54 320 22:29 01.07.2022
2797 Clouds 23 1014 97 10000 1.03 330 21:37 01.07.2022
2798 Clouds 23 1014 97 10000 1.03 340 20:58 01.07.2022
2799 Clouds 24 1014 94 10000 1.03 340 20:20 01.07.2022
2800 Clouds 24 1014 94 10000 0.51 90 19:36 01.07.2022
2801 Clear 24 1015 91 10000 1.03 30 16:41 01.07.2022
2802 Clouds 26 1014 81 10000 3.09 260 14:29 01.07.2022
2803 Clouds 27 1014 79 10000 3.09 280 13:39 01.07.2022
2804 Clouds 30 1013 64 10000 4.63 220 10:54 01.07.2022
2805 Clouds 30 1013 66 10000 4.63 220 10:19 01.07.2022
2806 Haze 31 1015 64 10000 4.63 230 06:31 01.07.2022
2807 Clouds 27 1014 78 10000 3.6 160 02:43 01.07.2022
2808 Clouds 23 1014 97 10000 2.06 150 23:44 30.06.2022
2809 Clouds 23 1014 97 10000 2.57 130 22:50 30.06.2022
2810 Clouds 23 1014 97 10000 2.57 130 22:31 30.06.2022
2811 Clouds 23 1014 97 10000 2.06 140 21:53 30.06.2022
2812 Rain 22 1014 94 10000 1.54 170 20:49 30.06.2022
2813 Clouds 22 1014 94 10000 1.54 170 20:20 30.06.2022
2814 Clouds 23 1013 97 10000 1.54 150 19:47 30.06.2022
2815 Clouds 23 1013 97 10000 2.06 170 18:52 30.06.2022
2816 Mist 22 1013 94 5000 1.03 160 17:56 30.06.2022
2817 Clouds 21 1013 95 10000 1.2 142 17:18 30.06.2022
2818 Mist 22 1013 94 4000 1.03 200 16:18 30.06.2022
2819 Mist 21 1011 97 4000 4.63 130 13:59 30.06.2022
2820 Rain 21 1011 94 4000 4.63 130 13:20 30.06.2022
2821 Rain 21 1011 94 4000 4.12 120 12:33 30.06.2022
2822 Rain 21 1010 97 2000 3.6 20 10:49 30.06.2022
2823 Rain 22 1010 94 3500 2.57 70 09:47 30.06.2022
2824 Rain 23 1010 97 10000 7.72 100 08:31 30.06.2022
2825 Rain 23 1010 94 10000 3.09 110 07:41 30.06.2022
2826 Rain 24 1010 88 7000 5.14 150 05:45 30.06.2022
2827 Rain 22 1009 97 3500 3.09 80 23:39 29.06.2022
2828 Rain 22 1008 94 2500 2.06 100 22:42 29.06.2022
2829 Rain 22 1008 94 2500 2.06 100 22:19 29.06.2022
2830 Rain 22 1008 97 2000 4.12 170 20:35 29.06.2022
2831 Rain 23 1008 94 3500 4.12 210 19:57 29.06.2022
2832 Rain 24 1007 97 5000 1.03 250 18:46 29.06.2022
2833 Rain 24 1007 94 4500 2.57 210 17:38 29.06.2022
2834 Rain 24 1007 94 4500 3.6 190 16:24 29.06.2022
2835 Rain 25 1005 91 5000 4.63 200 13:52 29.06.2022
2836 Rain 26 1005 89 10000 5.14 210 12:38 29.06.2022
2837 Clouds 26 1004 89 10000 4.63 190 10:18 29.06.2022
2838 Clouds 26 1005 86 10000 6.69 210 09:27 29.06.2022
2839 Rain 25 1005 88 10000 4.12 200 06:32 29.06.2022
2840 Mist 26 1005 83 10000 6.17 220 04:44 29.06.2022
2841 Mist 25 1002 88 10000 7.2 230 00:53 29.06.2022
2842 Mist 25 1002 88 10000 7.2 230 00:34 29.06.2022
2843 Rain 25 1001 88 10000 7.72 220 22:52 28.06.2022
2844 Rain 25 1000 88 8000 9.26 210 21:59 28.06.2022
2845 Rain 25 1000 88 8000 9.26 210 21:40 28.06.2022
2846 Rain 25 1000 88 8000 9.26 210 21:22 28.06.2022
2847 Rain 24 1001 91 10000 9.26 200 19:56 28.06.2022
2848 Rain 24 1000 91 6000 7.72 200 19:31 28.06.2022
2849 Rain 25 1001 89 1300 7.2 190 18:40 28.06.2022
2850 Rain 27 1002 76 7000 9.77 200 17:25 28.06.2022
2851 Clouds 27 1002 79 10000 7.2 210 15:55 28.06.2022
2852 Clouds 27 1002 76 10000 7.72 200 14:52 28.06.2022
2853 Rain 26 1002 83 10000 7.72 200 14:19 28.06.2022
2854 Rain 27 1002 74 7000 8.75 200 13:45 28.06.2022
2855 Clouds 27 1002 74 10000 7.72 230 12:30 28.06.2022
2856 Clouds 27 1001 79 10000 8.75 220 10:40 28.06.2022
2857 Rain 27 1002 79 10000 9.26 210 08:56 28.06.2022
2858 Clouds 27 1002 79 10000 9.26 210 08:37 28.06.2022
2859 Rain 26 1002 83 10000 8.75 200 07:20 28.06.2022
2860 Clouds 27 1002 72 10000 11.32 200 03:55 28.06.2022
2861 Rain 27 1003 76 10000 8.75 210 23:51 27.06.2022
2862 Rain 26 1003 83 10000 8.23 200 23:26 27.06.2022
2863 Rain 26 1003 79 10000 9.77 200 21:53 27.06.2022
2864 Rain 26 1003 79 10000 9.77 200 21:29 27.06.2022
2865 Clouds 27 1004 74 10000 9.77 210 20:33 27.06.2022
2866 Clouds 28 1004 69 10000 10.8 210 18:51 27.06.2022
2867 Clouds 27 1004 73 10000 8.75 200 17:38 27.06.2022
2868 Clouds 27 1004 78 10000 7.2 200 15:50 27.06.2022
2869 Clouds 27 1004 78 10000 7.72 200 14:18 27.06.2022
2870 Rain 27 1004 76 10000 7.72 210 12:58 27.06.2022
2871 Clouds 27 1003 76 10000 7.72 210 11:40 27.06.2022
2872 Rain 27 1005 81 10000 6.69 210 09:49 27.06.2022
2873 Rain 27 1005 86 10000 4.63 210 08:43 27.06.2022
2874 Rain 26 1006 89 4000 5.14 200 07:49 27.06.2022
2875 Rain 28 1007 78 10000 4.63 170 05:50 27.06.2022
2876 Rain 27 1009 83 10000 3.09 150 01:25 27.06.2022
2877 Rain 25 1009 88 10000 2.06 150 23:22 26.06.2022
2878 Thunderstorm 25 1009 91 10000 1.54 140 21:39 26.06.2022
2879 Rain 25 1009 86 10000 2.06 150 20:33 26.06.2022
2880 Rain 26 1010 79 10000 4.63 200 18:34 26.06.2022
2881 Clouds 26 1010 78 10000 4.12 200 17:47 26.06.2022
2882 Clouds 27 1010 76 10000 5.14 220 15:37 26.06.2022
2883 Clouds 27 1009 74 10000 5.14 210 14:23 26.06.2022
2884 Clouds 27 1008 76 10000 4.63 200 13:24 26.06.2022
2885 Clouds 28 1008 74 10000 4.63 210 11:41 26.06.2022
2886 Clouds 28 1008 74 10000 5.66 210 10:42 26.06.2022
2887 Clouds 27 1008 78 10000 5.66 210 10:19 26.06.2022
2888 Clouds 28 1008 76 10000 5.66 220 08:27 26.06.2022
2889 Clouds 27 1008 74 10000 5.66 190 06:31 26.06.2022
2890 Rain 25 1007 81 10000 5.14 200 00:37 26.06.2022
2891 Rain 25 1007 83 10000 5.14 200 00:19 26.06.2022
2892 Rain 25 1006 81 10000 5.14 190 23:31 25.06.2022
2893 Rain 25 1005 81 10000 5.14 190 22:46 25.06.2022
2894 Rain 25 1005 81 10000 5.14 190 22:24 25.06.2022
2895 Clouds 25 1006 83 10000 6.69 200 21:21 25.06.2022
2896 Clouds 25 1006 78 10000 5.66 210 20:48 25.06.2022
2897 Clouds 25 1006 78 10000 5.66 210 20:25 25.06.2022
2898 Clouds 25 1006 83 10000 5.14 180 18:23 25.06.2022
2899 Clouds 25 1007 83 10000 4.12 210 17:27 25.06.2022
2900 Clouds 25 1007 83 10000 4.12 220 16:27 25.06.2022
2901 Clear 26 1006 76 10000 3.09 230 14:31 25.06.2022
2902 Clouds 28 1005 69 10000 5.14 200 12:46 25.06.2022
2903 Clouds 29 1004 70 10000 4.63 220 11:55 25.06.2022
2904 Clouds 30 1003 66 8000 5.66 250 09:24 25.06.2022
2905 Mist 31 1003 68 5000 5.66 240 08:49 25.06.2022
2906 Mist 30 1003 74 5000 3.6 220 08:20 25.06.2022
2907 Mist 29 1004 72 5000 4.63 210 06:33 25.06.2022
2908 Mist 22 1003 85 3500 1.54 190 00:44 25.06.2022
2909 Mist 22 1003 85 3500 1.54 190 00:44 25.06.2022
2910 Mist 22 1003 83 3500 3.6 200 23:46 24.06.2022
2911 Mist 21 1003 88 3500 2.06 210 22:22 24.06.2022
2912 Mist 22 1002 83 3000 3.09 210 21:22 24.06.2022
2913 Mist 21 1001 86 3000 4.12 210 20:23 24.06.2022
2914 Mist 21 1001 86 3000 4.12 210 19:24 24.06.2022
2915 Mist 21 1001 88 3200 2.06 210 18:50 24.06.2022
2916 Mist 21 1001 88 3200 2.06 210 18:31 24.06.2022
2917 Mist 21 1001 88 3500 3.6 220 17:46 24.06.2022
2918 Mist 22 1001 86 3500 3.09 220 16:32 24.06.2022
2919 Mist 23 1000 83 5000 5.14 230 14:29 24.06.2022
2920 Clouds 24 999 74 10000 6.69 230 13:55 24.06.2022
2921 Clouds 24 999 74 10000 5.14 200 12:26 24.06.2022
2922 Clouds 25 998 71 10000 5.66 200 11:40 24.06.2022
2923 Clouds 25 998 73 10000 5.66 210 10:22 24.06.2022
2924 Mist 24 998 78 10000 5.14 230 09:41 24.06.2022
2925 Mist 24 999 81 8000 3.6 220 08:52 24.06.2022
2926 Drizzle 24 998 81 7000 4.63 220 07:33 24.06.2022
2927 Clouds 24 999 83 7000 4.12 230 06:42 24.06.2022
2928 Clouds 23 999 88 7000 4.12 230 06:18 24.06.2022
2929 Mist 23 997 83 10000 3.6 210 02:44 24.06.2022
2930 Mist 22 995 94 3500 3.09 240 22:57 23.06.2022
2931 Mist 22 994 91 2500 3.09 240 22:38 23.06.2022
2932 Mist 22 993 94 8000 3.6 260 20:57 23.06.2022
2933 Mist 22 993 94 8000 3.6 260 20:32 23.06.2022
2934 Rain 23 993 94 8000 3.09 240 19:24 23.06.2022
2935 Rain 23 994 94 3500 6.17 230 17:51 23.06.2022
2936 Mist 24 995 88 2000 5.66 230 16:58 23.06.2022
2937 Rain 23 995 94 6000 7.2 210 15:49 23.06.2022
2938 Mist 23 995 94 3000 6.69 220 15:24 23.06.2022
2939 Rain 24 995 91 8000 7.2 230 13:32 23.06.2022
2940 Rain 24 995 97 2000 6.17 180 11:23 23.06.2022
2941 Rain 24 996 91 3500 7.2 210 10:31 23.06.2022
2942 Mist 24 998 94 2500 5.14 240 08:35 23.06.2022
2943 Mist 24 1003 83 3000 2.06 190 02:38 23.06.2022
2944 Mist 22 1004 88 2500 1.03 10 00:26 23.06.2022
2945 Mist 22 1004 88 2500 1.03 280 23:27 22.06.2022
2946 Mist 21 1004 91 3500 2.57 310 22:31 22.06.2022
2947 Rain 22 1005 88 5000 1.54 230 21:21 22.06.2022
2948 Clouds 21 1005 88 8000 1.03 170 20:25 22.06.2022
2949 Clouds 22 1005 89 9000 2.06 190 19:50 22.06.2022
2950 Clouds 22 1006 88 9000 1.54 230 18:21 22.06.2022
2951 Clouds 22 1006 86 9000 0.51 110 17:26 22.06.2022
2952 Clear 22 1007 88 10000 1.54 350 16:18 22.06.2022
2953 Clear 23 1007 79 10000 2.06 320 15:25 22.06.2022
2954 Clear 26 1007 70 10000 3.09 280 13:52 22.06.2022
2955 Clear 26 1007 70 10000 3.09 280 13:26 22.06.2022
2956 Clear 27 1007 64 10000 3.09 280 12:56 22.06.2022
2957 Clear 28 1007 56 10000 3.09 290 11:48 22.06.2022
2958 Clear 29 1007 53 10000 4.63 290 10:54 22.06.2022
2959 Clear 30 1007 50 10000 4.63 300 09:54 22.06.2022
2960 Clear 30 1007 53 10000 2.57 250 07:56 22.06.2022
2961 Haze 25 1008 71 9000 1.54 230 03:30 22.06.2022
2962 Mist 23 1009 83 7000 1.54 310 01:22 22.06.2022
2963 Mist 22 1008 83 8000 1.54 320 23:41 21.06.2022
2964 Clouds 21 1006 88 7000 2.06 240 21:32 21.06.2022
2965 Clear 22 1006 83 10000 2.06 220 19:47 21.06.2022
2966 Clear 22 1006 86 10000 2.57 200 18:32 21.06.2022
2967 Clear 22 1006 86 10000 2.06 210 17:25 21.06.2022
2968 Clear 26 1004 67 10000 3.09 290 13:33 21.06.2022
2969 Clear 30 1003 56 10000 3.6 290 11:30 21.06.2022
2970 Clear 32 1003 50 10000 5.66 300 09:48 21.06.2022
2971 Clouds 35 1002 40 10000 3.56 267 08:22 21.06.2022
2972 Clear 31 1003 54 10000 5.14 300 08:22 21.06.2022
2973 Clear 31 1003 53 10000 2.06 350 05:41 21.06.2022
2974 Fog 22 1004 91 300 1.03 50 00:43 21.06.2022
2975 Mist 20 1004 94 3000 2.06 340 22:25 20.06.2022
2976 Mist 20 1004 94 5000 1.54 320 21:50 20.06.2022
2977 Clear 20 1004 91 8000 2.06 310 20:32 20.06.2022
2978 Clear 20 1004 91 8000 2.06 310 20:32 20.06.2022
2979 Clear 20 1003 94 8000 1.54 330 19:38 20.06.2022
2980 Clear 20 1004 94 10000 1.03 320 18:44 20.06.2022
2981 Clear 22 1004 89 10000 2.06 290 17:52 20.06.2022
2982 Clear 22 1004 89 10000 2.06 290 17:29 20.06.2022
2983 Clear 23 1004 83 10000 2.57 300 15:53 20.06.2022
2984 Clear 27 1003 65 10000 4.12 290 12:41 20.06.2022
2985 Clouds 29 1003 56 10000 3.09 300 10:32 20.06.2022
2986 Clouds 29 1004 57 10000 2.06 290 08:57 20.06.2022
2987 Clouds 29 1004 57 10000 2.06 290 08:57 20.06.2022
2988 Clouds 28 1004 57 10000 2.06 290 08:21 20.06.2022
2989 Clouds 27 1005 63 10000 1.54 270 05:35 20.06.2022
2990 Mist 23 1006 83 9000 1.03 30 01:33 20.06.2022
2991 Mist 22 1006 86 6000 1.03 60 00:26 20.06.2022
2992 Mist 21 1006 91 4000 1.03 320 22:50 19.06.2022
2993 Clouds 21 1006 91 7000 1.03 10 21:51 19.06.2022
2994 Clouds 21 1006 91 7000 1.03 10 21:31 19.06.2022
2995 Clouds 21 1006 91 7000 2.06 300 20:38 19.06.2022
2996 Clouds 22 1007 89 7000 1.54 320 19:47 19.06.2022
2997 Clouds 22 1007 89 8000 2.06 310 18:45 19.06.2022
2998 Clouds 22 1007 86 10000 2.06 300 17:54 19.06.2022
2999 Clouds 21 1007 88 10000 2.06 300 17:22 19.06.2022
3000 Clouds 22 1007 86 10000 1.54 300 16:35 19.06.2022
3001 Mist 23 1007 81 10000 1.54 290 15:41 19.06.2022
3002 Clouds 23 1007 83 10000 2.06 290 14:57 19.06.2022
3003 Clouds 23 1007 83 10000 2.06 290 14:19 19.06.2022
3004 Clouds 23 1007 83 10000 2.06 270 13:21 19.06.2022
3005 Clouds 25 1006 71 10000 1.03 310 10:55 19.06.2022
3006 Clouds 25 1007 71 10000 1.54 200 09:46 19.06.2022
3007 Clouds 24 1007 73 10000 3.6 230 08:47 19.06.2022
3008 Clouds 25 1007 71 10000 2.06 230 07:59 19.06.2022
3009 Clouds 24 1008 71 10000 1.03 220 05:36 19.06.2022
3010 Clouds 23 1009 80 10000 2.06 190 01:29 19.06.2022
3011 Clouds 22 1009 86 10000 2.06 190 00:24 19.06.2022
3012 Clouds 22 1008 85 10000 2.06 170 23:36 18.06.2022
3013 Clouds 22 1008 85 10000 2.06 160 22:36 18.06.2022
3014 Clouds 22 1008 83 10000 1.54 170 20:56 18.06.2022
3015 Clouds 22 1008 83 10000 1.54 170 20:28 18.06.2022
3016 Clouds 22 1008 83 10000 2.06 180 19:37 18.06.2022
3017 Clouds 22 1009 83 10000 1.03 130 18:45 18.06.2022
3018 Clouds 22 1009 83 10000 1.54 160 17:34 18.06.2022
3019 Clouds 22 1009 83 10000 1.54 30 16:47 18.06.2022
3020 Clouds 22 1009 83 10000 2.06 240 15:31 18.06.2022
3021 Clouds 22 1008 83 10000 1.54 210 14:42 18.06.2022
3022 Clouds 22 1008 83 10000 2.57 220 13:22 18.06.2022
3023 Clouds 25 1007 71 10000 2.06 280 11:38 18.06.2022
3024 Clouds 25 1006 71 10000 1.03 340 10:46 18.06.2022
3025 Clouds 25 1007 71 10000 2.06 280 09:22 18.06.2022
3026 Clouds 25 1007 69 10000 2.57 240 08:19 18.06.2022
3027 Clouds 25 1007 69 10000 3.09 270 06:44 18.06.2022
3028 Clouds 24 1007 69 10000 3.09 200 03:24 18.06.2022
3029 Clouds 23 1008 76 10000 2.06 160 01:24 18.06.2022
3030 Clouds 23 1007 78 10000 2.57 150 00:45 18.06.2022
3031 Clouds 21 1007 88 10000 2.06 160 23:52 17.06.2022
3032 Clear 21 1008 92 10000 0.61 146 23:19 17.06.2022
3033 Clouds 22 1008 83 10000 0.51 260 20:42 17.06.2022
3034 Clouds 22 1008 83 10000 2.06 160 19:30 17.06.2022
3035 Clouds 21 1008 86 10000 0.51 220 18:37 17.06.2022
3036 Clouds 22 1008 83 10000 1.03 210 17:43 17.06.2022
3037 Clouds 22 1008 81 10000 1.54 230 16:43 17.06.2022
3038 Clouds 23 1009 76 10000 3.6 310 15:43 17.06.2022
3039 Clouds 24 1008 74 10000 2.57 250 14:58 17.06.2022
3040 Clouds 24 1008 78 10000 2.18 232 14:20 17.06.2022
3041 Clouds 24 1008 74 8000 3.6 290 13:44 17.06.2022
3042 Clouds 25 1007 67 8000 3.09 230 12:45 17.06.2022
3043 Clouds 25 1006 67 9000 3.09 210 11:56 17.06.2022
3044 Clouds 25 1006 67 9000 3.09 210 11:35 17.06.2022
3045 Clouds 26 1006 61 7000 4.12 240 10:48 17.06.2022
3046 Clouds 26 1006 61 7000 4.12 240 10:48 17.06.2022
3047 Clouds 27 1006 57 8000 4.12 210 08:29 17.06.2022
3048 Haze 26 1008 61 9000 2.06 210 06:58 17.06.2022
3049 Haze 25 1008 60 9000 2.06 190 05:35 17.06.2022
3050 Mist 21 1010 76 6000 1.54 180 02:42 17.06.2022
3051 Mist 18 1009 82 10000 1.03 190 00:36 17.06.2022
3052 Mist 15 1008 91 9000 1.03 130 22:44 16.06.2022
3053 Clear 16 1008 94 10000 1.54 300 21:36 16.06.2022
3054 Clear 16 1008 94 10000 1.54 300 21:18 16.06.2022
3055 Clear 16 1008 94 10000 1.54 20 20:36 16.06.2022
3056 Clear 16 1008 91 10000 1.03 180 19:55 16.06.2022
3057 Clear 16 1008 91 10000 1.03 280 18:28 16.06.2022
3058 Clear 17 1008 91 10000 1.54 200 17:43 16.06.2022
3059 Clear 17 1009 88 10000 1.54 170 16:40 16.06.2022
3060 Clear 18 1009 82 10000 1.54 310 15:24 16.06.2022
3061 Clear 19 1008 80 10000 2.57 300 14:46 16.06.2022
3062 Clear 21 1007 69 10000 4.63 300 13:34 16.06.2022
3063 Clear 23 1007 61 10000 3.6 280 12:37 16.06.2022
3064 Clear 23 1007 57 10000 3.6 300 11:52 16.06.2022
3065 Clear 24 1007 50 10000 3.6 270 10:56 16.06.2022
3066 Clear 24 1007 50 10000 3.6 270 10:32 16.06.2022
3067 Clear 24 1008 53 10000 4.12 240 09:22 16.06.2022
3068 Clear 23 1008 56 10000 4.63 250 08:36 16.06.2022
3069 Clouds 23 1008 60 10000 5.14 240 07:28 16.06.2022
3070 Clouds 22 1009 64 10000 4.63 300 05:29 16.06.2022
3071 Mist 19 1008 80 10000 1.54 270 02:50 16.06.2022
3072 Drizzle 18 1008 85 10000 2.06 270 01:42 16.06.2022
3073 Clouds 19 1008 82 10000 2.06 270 01:21 16.06.2022
3074 Clouds 19 1008 82 10000 2.06 270 01:21 16.06.2022
3075 Clouds 17 1008 91 10000 3.09 290 23:47 15.06.2022
3076 Clouds 18 1007 88 10000 2.06 280 22:42 15.06.2022
3077 Mist 18 1007 91 10000 2.06 230 21:23 15.06.2022
3078 Mist 18 1006 91 8000 3.09 290 20:45 15.06.2022
3079 Mist 18 1006 91 8000 3.09 290 20:27 15.06.2022
3080 Mist 18 1006 91 4000 3.09 200 19:30 15.06.2022
3081 Rain 18 1006 94 6000 2.57 330 17:56 15.06.2022
3082 Rain 18 1006 94 6000 2.57 330 17:33 15.06.2022
3083 Rain 19 1006 91 7000 0.51 330 15:46 15.06.2022
3084 Clouds 19 1005 88 7000 2.06 250 14:26 15.06.2022
3085 Mist 20 1005 85 10000 3.6 240 12:54 15.06.2022
3086 Mist 20 1005 85 10000 3.6 240 12:28 15.06.2022
3087 Mist 20 1005 83 10000 2.57 160 10:27 15.06.2022
3088 Mist 19 1005 85 8000 3.09 130 09:45 15.06.2022
3089 Clouds 19 1005 83 6000 3.6 120 08:50 15.06.2022
3090 Clouds 18 1006 88 10000 4.12 100 06:42 15.06.2022
3091 Rain 16 1007 88 10000 3.09 80 04:47 15.06.2022
3092 Rain 15 1006 94 4500 4.12 100 01:55 15.06.2022
3093 Clouds 15 1006 91 10000 4.63 100 00:51 15.06.2022
3094 Rain 15 1007 91 10000 5.66 100 23:40 14.06.2022
3095 Rain 15 1007 88 10000 5.66 100 23:21 14.06.2022
3096 Rain 15 1007 88 10000 3 80 22:23 14.06.2022
3097 Rain 15 1007 88 10000 2.57 50 21:40 14.06.2022
3098 Rain 15 1007 91 10000 2.57 60 20:56 14.06.2022
3099 Rain 15 1007 91 10000 2.57 60 20:31 14.06.2022
3100 Rain 16 1007 88 6000 3.6 90 19:20 14.06.2022
3101 Clouds 18 1008 63 10000 4.12 80 18:20 14.06.2022
3102 Clouds 18 1008 59 10000 6.17 100 16:47 14.06.2022
3103 Clouds 19 1008 57 10000 5.66 90 15:50 14.06.2022
3104 Clouds 20 1008 52 10000 5.66 90 15:28 14.06.2022
3105 Clouds 20 1008 50 10000 6.69 90 14:37 14.06.2022
3106 Clear 20 1008 49 10000 7.2 90 13:46 14.06.2022
3107 Clear 21 1008 47 10000 6.69 70 12:45 14.06.2022
3108 Rain 23 1007 43 10000 6.69 90 11:38 14.06.2022
3109 Clear 23 1007 43 10000 5.66 80 10:48 14.06.2022
3110 Clear 24 1007 43 10000 5.66 80 10:22 14.06.2022
3111 Clear 25 1007 41 10000 6.69 80 08:48 14.06.2022
3112 Clear 26 1008 40 10000 6.17 70 07:34 14.06.2022
3113 Clear 26 1009 36 10000 5.66 90 05:28 14.06.2022
3114 Clear 22 1009 44 10000 8.75 90 02:58 14.06.2022
3115 Clear 20 1009 52 10000 5.66 90 00:53 14.06.2022
3116 Clear 19 1010 55 10000 5.66 100 23:39 13.06.2022
3117 Clear 19 1009 59 10000 4.63 90 22:26 13.06.2022
3118 Clear 19 1009 59 10000 6.17 100 21:50 13.06.2022
3119 Clear 20 1009 52 10000 5.66 100 20:42 13.06.2022
3120 Clear 20 1009 52 10000 6.17 90 19:34 13.06.2022
3121 Clear 21 1010 49 10000 5.14 90 18:25 13.06.2022
3122 Clear 21 1010 49 10000 6.17 90 17:46 13.06.2022
3123 Clear 22 1010 48 10000 6.17 100 16:52 13.06.2022
3124 Clear 22 1009 54 10000 6.17 90 15:38 13.06.2022
3125 Clear 22 1009 65 10000 3.6 350 14:43 13.06.2022
3126 Clear 23 1008 65 10000 3.6 10 13:54 13.06.2022
3127 Clear 24 1007 61 10000 4.63 10 12:48 13.06.2022
3128 Clear 24 1007 61 10000 4.63 10 12:48 13.06.2022
3129 Clear 25 1007 57 10000 4.12 20 11:26 13.06.2022
3130 Clear 25 1007 54 10000 4.12 20 10:27 13.06.2022
3131 Clouds 25 1007 53 10000 5.66 20 09:38 13.06.2022
3132 Rain 26 1007 56 10000 6.69 310 07:53 13.06.2022
3133 Clouds 27 1007 47 10000 4.12 110 06:28 13.06.2022
3134 Clear 26 1010 50 10000 4.63 120 03:18 13.06.2022
3135 Mist 22 1010 75 10000 4.63 110 01:38 13.06.2022
3136 Clear 21 1010 83 10000 4.63 120 00:22 13.06.2022
3137 Mist 19 1011 88 7000 2.57 70 23:25 12.06.2022
3138 Mist 20 1010 88 4000 1.54 30 22:22 12.06.2022
3139 Mist 20 1011 91 4000 0.51 190 21:27 12.06.2022
3140 Mist 20 1011 88 4000 2.06 240 20:33 12.06.2022
3141 Mist 20 1011 88 5000 3.09 210 19:30 12.06.2022
3142 Rain 21 1011 81 6000 4.12 190 17:54 12.06.2022
3143 Rain 22 1012 73 9000 2.57 210 16:34 12.06.2022
3144 Rain 22 1012 73 10000 2.57 250 15:18 12.06.2022
3145 Clear 23 1011 69 10000 1.54 290 14:29 12.06.2022
3146 Clear 24 1011 65 10000 2.06 300 13:55 12.06.2022
3147 Rain 25 1011 61 10000 3.09 290 12:43 12.06.2022
3148 Clear 26 1011 50 10000 5.66 290 11:40 12.06.2022
3149 Clear 28 1010 45 10000 4.12 280 10:38 12.06.2022
3150 Clouds 29 1010 45 10000 4.63 270 09:19 12.06.2022
3151 Clear 29 1011 39 10000 5.14 280 08:45 12.06.2022
3152 Clouds 29 1011 39 10000 2.57 250 07:33 12.06.2022
3153 Clear 26 1013 44 10000 2.57 110 04:52 12.06.2022
3154 Clear 25 1013 47 10000 3.09 100 03:24 12.06.2022
3155 Clear 22 1014 54 10000 4.63 90 01:42 12.06.2022
3156 Clear 21 1014 60 10000 4.63 90 00:58 12.06.2022
3157 Clear 21 1014 56 10000 4.63 90 00:20 12.06.2022
3158 Clear 18 1014 77 10000 1.54 30 23:44 11.06.2022
3159 Clear 18 1013 74 10000 2.06 50 22:38 11.06.2022
3160 Clear 18 1013 70 10000 2.06 110 21:52 11.06.2022
3161 Clear 19 1013 72 10000 2.06 40 20:36 11.06.2022
3162 Clear 20 1013 71 10000 1.54 20 19:46 11.06.2022
3163 Clear 20 1013 71 10000 1.54 20 19:46 11.06.2022
3164 Clear 20 1013 71 10000 1.54 20 19:25 11.06.2022
3165 Clear 20 1013 69 10000 2.06 40 18:33 11.06.2022
3166 Clear 22 1013 60 10000 3.09 100 17:51 11.06.2022
3167 Clear 22 1013 60 10000 3.09 100 17:27 11.06.2022
3168 Clear 22 1012 58 10000 3.09 60 16:55 11.06.2022
3169 Clear 23 1012 58 10000 3.09 60 16:27 11.06.2022
3170 Clear 24 1012 55 10000 4.12 90 15:31 11.06.2022
3171 Clouds 25 1011 51 10000 4.12 20 13:53 11.06.2022
3172 Clouds 28 1010 42 10000 5.66 10 12:51 11.06.2022
3173 Rain 30 1009 37 10000 5.66 340 10:48 11.06.2022
3174 Rain 30 1010 31 10000 5.14 350 09:51 11.06.2022
3175 Clouds 29 1010 35 10000 5.14 350 09:18 11.06.2022
3176 Clouds 30 1011 34 10000 6.69 340 07:40 11.06.2022
3177 Clouds 29 1012 39 10000 4.63 350 06:25 11.06.2022
3178 Clear 27 1013 44 10000 3.6 10 04:23 11.06.2022
3179 Clear 20 1014 73 10000 2.57 350 01:52 11.06.2022
3180 Clear 20 1014 73 10000 2.57 350 01:27 11.06.2022
3181 Clouds 17 1014 91 6000 1.54 360 23:34 10.06.2022
3182 Clouds 16 1014 94 6000 1.03 300 22:31 10.06.2022
3183 Clouds 17 1013 91 6000 1.54 200 21:50 10.06.2022
3184 Rain 17 1013 94 7000 1.54 330 20:40 10.06.2022
3185 Clouds 17 1013 94 7000 1.54 330 20:21 10.06.2022
3186 Clouds 17 1013 94 7000 1.54 330 20:21 10.06.2022
3187 Clouds 17 1014 91 7000 1.03 310 19:19 10.06.2022
3188 Clouds 17 1014 88 9000 1.54 10 18:55 10.06.2022
3189 Clear 18 1014 88 10000 1.54 310 17:55 10.06.2022
3190 Clear 18 1014 88 10000 1.54 310 17:55 10.06.2022
3191 Rain 18 1014 88 10000 1.54 310 17:33 10.06.2022
3192 Clear 18 1014 88 10000 1.03 50 16:47 10.06.2022
3193 Clear 19 1015 81 10000 1.03 220 15:40 10.06.2022
3194 Clear 19 1014 83 10000 2.06 310 14:34 10.06.2022
3195 Clouds 20 1014 75 10000 3.09 340 13:23 10.06.2022
3196 Clear 22 1014 73 10000 3.09 350 11:59 10.06.2022
3197 Clear 22 1014 75 10000 3.6 340 10:59 10.06.2022
3198 Clear 22 1014 75 10000 3.6 340 10:24 10.06.2022
3199 Clear 22 1014 68 10000 2.06 330 08:58 10.06.2022
3200 Thunderstorm 22 1014 69 4000 3.09 350 07:50 10.06.2022
3201 Rain 25 1014 55 10000 8.23 340 06:47 10.06.2022
3202 Clouds 25 1014 55 10000 8.23 340 06:28 10.06.2022
3203 Clouds 26 1014 50 10000 3.09 320 04:53 10.06.2022
3204 Mist 21 1014 72 10000 3.6 140 01:59 10.06.2022
3205 Mist 21 1014 72 10000 3.6 140 01:36 10.06.2022
3206 Mist 21 1014 72 10000 3.6 140 01:36 10.06.2022
3207 Mist 17 1014 94 7000 1.54 20 23:57 09.06.2022
3208 Mist 16 1014 94 6000 1.54 360 22:30 09.06.2022
3209 Mist 17 1014 91 6000 0.51 290 21:43 09.06.2022
3210 Mist 17 1014 91 6000 0.51 290 21:24 09.06.2022
3211 Mist 17 1014 91 6000 1.54 340 20:36 09.06.2022
3212 Clouds 17 1013 91 6000 1.03 250 19:41 09.06.2022
3213 Clouds 17 1013 91 8000 1.03 320 18:35 09.06.2022
3214 Clouds 17 1014 91 9000 1.54 310 17:25 09.06.2022
3215 Clear 17 1014 91 10000 1.54 300 16:28 09.06.2022
3216 Clear 20 1013 75 10000 2.06 270 14:42 09.06.2022
3217 Clear 20 1013 75 10000 2.06 270 14:23 09.06.2022
3218 Clear 20 1013 75 10000 3.6 30 13:29 09.06.2022
3219 Clear 22 1013 66 10000 4.12 270 12:46 09.06.2022
3220 Clear 23 1012 53 10000 3.6 290 11:19 09.06.2022
3221 Haze 24 1012 55 10000 5.14 290 09:50 09.06.2022
3222 Haze 24 1012 55 10000 5.14 290 09:31 09.06.2022
3223 Rain 24 1012 53 10000 4.12 280 08:21 09.06.2022
3224 Clouds 24 1013 53 10000 3.09 250 07:23 09.06.2022
3225 Haze 21 1014 74 8000 1.54 220 03:28 09.06.2022
3226 Rain 18 1013 85 10000 1.03 10 23:55 08.06.2022
3227 Rain 18 1013 85 10000 1.03 250 22:59 08.06.2022
3228 Rain 18 1013 85 10000 1.03 250 22:27 08.06.2022
3229 Rain 18 1013 83 10000 1.54 300 21:57 08.06.2022
3230 Rain 18 1013 83 10000 1.54 300 21:23 08.06.2022
3231 Clouds 18 1012 88 10000 2.06 280 20:22 08.06.2022
3232 Clouds 18 1013 83 10000 2.06 290 19:39 08.06.2022
3233 Clear 18 1012 83 10000 1.54 170 18:48 08.06.2022
3234 Clear 18 1013 83 10000 1.03 320 17:30 08.06.2022
3235 Clouds 20 1013 71 10000 2.06 280 15:52 08.06.2022
3236 Clear 21 1011 64 10000 3.6 290 13:58 08.06.2022
3237 Clear 21 1011 64 10000 3.09 270 12:22 08.06.2022
3238 Clear 23 1010 53 10000 5.66 290 11:34 08.06.2022
3239 Clear 24 1010 49 10000 5.14 280 10:30 08.06.2022
3240 Clear 24 1010 53 10000 4.12 300 09:22 08.06.2022
3241 Clear 24 1010 53 10000 2.06 230 08:43 08.06.2022
3242 Clouds 23 1011 53 10000 3.09 280 06:35 08.06.2022
3243 Clouds 22 1012 52 10000 2.57 120 03:58 08.06.2022
3244 Clouds 18 1012 61 10000 3.6 100 00:45 08.06.2022
3245 Clouds 17 1012 67 10000 2.57 190 23:29 07.06.2022
3246 Clear 17 1011 65 10000 2.57 110 22:48 07.06.2022
3247 Clear 17 1011 65 10000 2.57 110 22:30 07.06.2022
3248 Clear 17 1010 65 10000 3.09 110 21:35 07.06.2022
3249 Clouds 17 1010 68 10000 3.6 130 20:59 07.06.2022
3250 Clouds 17 1010 68 10000 3.6 130 20:33 07.06.2022
3251 Clouds 19 1010 64 10000 3.6 140 19:45 07.06.2022
3252 Clouds 19 1010 59 10000 2.57 140 18:24 07.06.2022
3253 Clear 19 1010 63 10000 1.54 50 17:27 07.06.2022
3254 Clear 19 1010 62 10000 2.57 20 16:43 07.06.2022
3255 Clear 20 1009 58 10000 4.12 360 15:54 07.06.2022
3256 Clear 20 1009 58 10000 4.12 360 15:26 07.06.2022
3257 Clear 20 1008 58 10000 5.14 10 14:51 07.06.2022
3258 Clear 20 1008 58 10000 5.14 10 14:32 07.06.2022
3259 Clear 21 1007 55 10000 3.09 300 13:31 07.06.2022
3260 Clear 22 1007 51 10000 3.6 270 12:49 07.06.2022
3261 Clear 23 1007 46 10000 3.6 290 11:47 07.06.2022
3262 Clear 23 1007 46 10000 4.12 300 10:26 07.06.2022
3263 Clear 23 1007 41 10000 2.06 320 08:49 07.06.2022
3264 Clear 24 1007 38 10000 1.54 190 07:34 07.06.2022
3265 Clear 24 1007 36 10000 1.03 160 06:18 07.06.2022
3266 Clear 21 1008 43 10000 4.12 110 03:31 07.06.2022
3267 Clear 21 1008 43 10000 4.12 110 03:31 07.06.2022
3268 Clear 17 1007 59 10000 3.09 20 00:45 07.06.2022
3269 Clear 15 1007 72 10000 2.57 20 23:41 06.06.2022
3270 Clear 14 1007 70 10000 2.57 30 22:53 06.06.2022
3271 Clear 15 1006 67 10000 2.57 30 21:57 06.06.2022
3272 Clouds 16 1006 61 10000 3.6 50 20:42 06.06.2022
3273 Clouds 16 1006 67 10000 2.57 360 19:24 06.06.2022
3274 Clear 16 1006 57 10000 4.63 60 18:47 06.06.2022
3275 Clear 17 1006 55 10000 6.17 80 17:55 06.06.2022
3276 Clear 17 1006 57 10000 4.63 100 16:55 06.06.2022
3277 Clear 17 1005 55 10000 5.14 80 15:45 06.06.2022
3278 Clear 18 1004 55 10000 4.63 80 14:57 06.06.2022
3279 Clear 19 1003 54 10000 4.63 50 13:40 06.06.2022
3280 Clear 21 1002 49 10000 6.17 60 12:59 06.06.2022
3281 Clear 21 1002 49 10000 6.17 60 12:27 06.06.2022
3282 Clear 22 1002 46 10000 5.66 30 11:45 06.06.2022
3283 Clear 23 1001 46 10000 5.14 20 09:46 06.06.2022
3284 Clouds 23 1001 44 10000 4.63 100 08:36 06.06.2022
3285 Clear 23 1001 49 10000 5.14 80 07:44 06.06.2022
3286 Clouds 22 1001 54 10000 6.69 30 06:49 06.06.2022
3287 Rain 18 1002 77 10000 4.63 10 04:36 06.06.2022
3288 Rain 17 1001 91 10000 3.6 340 01:30 06.06.2022
3289 Rain 17 1000 88 7000 3.6 10 00:55 06.06.2022
3290 Rain 17 1000 88 7000 3.6 10 00:33 06.06.2022
3291 Rain 18 999 85 10000 4.63 20 22:58 05.06.2022
3292 Clouds 18 999 88 10000 3.6 10 21:59 05.06.2022
3293 Clouds 19 999 82 10000 3.6 350 20:23 05.06.2022
3294 Clouds 19 1000 78 10000 2.06 20 18:57 05.06.2022
3295 Rain 19 1000 70 10000 1.54 30 17:59 05.06.2022
3296 Rain 19 1000 70 10000 1.54 30 17:38 05.06.2022
3297 Clouds 20 1000 68 10000 1.54 30 17:20 05.06.2022
3298 Clouds 19 1001 68 10000 2.57 50 16:47 05.06.2022
3299 Clouds 21 1001 60 10000 3.6 90 15:22 05.06.2022
3300 Clouds 21 1001 60 10000 3.6 110 14:18 05.06.2022
3301 Rain 21 1001 54 10000 4.63 130 11:58 05.06.2022
3302 Rain 22 1001 52 10000 4.12 120 10:45 05.06.2022
3303 Clear 22 1001 52 10000 4.12 120 10:24 05.06.2022
3304 Clear 22 1002 52 10000 6.69 110 09:29 05.06.2022
3305 Rain 23 1002 49 10000 7.2 110 08:23 05.06.2022
3306 Clear 25 1003 40 10000 4.63 130 05:58 05.06.2022
3307 Clear 26 1003 38 10000 4.63 130 05:19 05.06.2022
3308 Clouds 23 1004 51 10000 2.06 200 02:23 05.06.2022
3309 Rain 23 1005 53 10000 3.09 180 01:23 05.06.2022
3310 Rain 22 1005 56 10000 3.09 160 22:49 04.06.2022
3311 Clear 22 1005 58 10000 2.57 210 21:25 04.06.2022
3312 Clear 22 1006 60 10000 2.06 160 19:26 04.06.2022
3313 Clear 22 1006 69 10000 1.54 310 16:48 04.06.2022
3314 Clear 22 1006 73 10000 1.54 310 16:20 04.06.2022
3315 Clear 23 1007 64 10000 1.54 340 15:35 04.06.2022
3316 Clear 26 1007 54 10000 2.06 330 13:59 04.06.2022
3317 Clear 29 1007 44 10000 1.54 200 11:38 04.06.2022
3318 Clear 28 1007 43 10000 3.6 90 10:52 04.06.2022
3319 Clear 28 1008 45 10000 2.57 30 09:47 04.06.2022
3320 Clouds 28 1009 45 8000 1.54 320 08:59 04.06.2022
3321 Clouds 28 1009 45 8000 1.54 320 08:37 04.06.2022
3322 Clouds 27 1010 51 6000 4.12 290 06:32 04.06.2022
3323 Clear 25 1011 49 10000 2.06 200 03:52 04.06.2022
3324 Mist 20 1012 88 4000 0.51 240 00:22 04.06.2022
3325 Mist 19 1012 84 4000 1.03 90 22:57 03.06.2022
3326 Mist 19 1012 79 4500 2.57 180 21:53 03.06.2022
3327 Clear 19 1012 86 10000 2.06 320 20:40 03.06.2022
3328 Clear 20 1012 86 10000 2.57 320 19:37 03.06.2022
3329 Clear 21 1011 81 10000 3.09 300 16:58 03.06.2022
3330 Clear 21 1010 78 10000 2.57 300 15:55 03.06.2022
3331 Clear 22 1010 74 10000 3.09 280 14:25 03.06.2022
3332 Clear 23 1009 68 10000 5.66 290 12:21 03.06.2022
3333 Clouds 31 1008 40 7000 4.12 260 09:57 03.06.2022
3334 Clouds 31 1008 40 7000 4.12 260 09:29 03.06.2022
3335 Clear 30 1008 33 10000 2.06 220 07:45 03.06.2022
3336 Clear 29 1009 36 10000 2.06 240 06:59 03.06.2022
3337 Clear 29 1009 36 10000 2.06 240 06:28 03.06.2022
3338 Haze 24 1010 53 10000 2.06 30 03:39 03.06.2022
3339 Mist 19 1010 77 10000 2.57 40 23:52 02.06.2022
3340 Clouds 18 1010 82 10000 1.03 30 22:23 02.06.2022
3341 Clouds 18 1009 79 10000 2.06 200 20:56 02.06.2022
3342 Clouds 18 1009 82 10000 1.54 310 19:56 02.06.2022
3343 Clouds 18 1009 82 10000 1.54 310 19:38 02.06.2022
3344 Clouds 18 1009 82 10000 2.06 330 18:41 02.06.2022
3345 Clouds 18 1009 86 10000 1.54 290 16:28 02.06.2022
3346 Clear 18 1009 81 10000 1.54 300 15:47 02.06.2022
3347 Clear 20 1008 73 10000 3.6 300 13:31 02.06.2022
3348 Clear 22 1007 65 10000 4.63 290 12:49 02.06.2022
3349 Clear 25 1007 52 10000 5.66 300 10:45 02.06.2022
3350 Clear 25 1007 49 10000 5.14 300 09:30 02.06.2022
3351 Clear 26 1007 47 10000 5.66 300 08:44 02.06.2022
3352 Clear 25 1007 53 10000 5.66 300 08:23 02.06.2022
3353 Clear 24 1008 50 10000 4.12 220 06:21 02.06.2022
3354 Clouds 22 1008 53 10000 2.06 270 03:50 02.06.2022
3355 Clouds 17 1008 72 10000 3.09 220 00:55 02.06.2022
3356 Clouds 15 1007 74 6000 1.03 180 22:58 01.06.2022
3357 Clouds 15 1007 78 7000 1.03 160 21:59 01.06.2022
3358 Clouds 15 1007 78 7000 1.03 160 21:24 01.06.2022
3359 Clear 14 1006 81 7000 1.03 170 20:38 01.06.2022
3360 Clear 15 1006 79 7000 0.51 220 19:51 01.06.2022
3361 Clear 14 1006 76 9000 2.06 180 18:37 01.06.2022
3362 Clear 17 1006 63 10000 2.06 310 16:58 01.06.2022
3363 Clear 17 1006 62 10000 3.09 310 15:43 01.06.2022
3364 Clear 19 1005 50 10000 3.09 290 14:49 01.06.2022
3365 Clear 20 1004 43 10000 2.57 290 13:23 01.06.2022
3366 Clear 26 1004 22 10000 5.14 290 10:44 01.06.2022
3367 Clear 27 1004 20 10000 5.14 290 09:28 01.06.2022
3368 Clear 28 1005 19 10000 6.17 290 08:18 01.06.2022
3369 Clear 28 1005 20 10000 4.63 270 07:20 01.06.2022
3370 Clear 25 1006 27 10000 4.12 180 03:55 01.06.2022
3371 Clear 15 1008 58 10000 2.57 170 23:47 31.05.2022
3372 Clear 14 1009 61 10000 1.54 180 22:38 31.05.2022
3373 Clear 14 1009 61 10000 1.54 180 22:19 31.05.2022
3374 Clear 16 1009 52 10000 2.06 300 21:23 31.05.2022
3375 Clear 14 1008 52 10000 1.54 120 20:42 31.05.2022
3376 Clear 16 1008 48 10000 2.57 170 19:22 31.05.2022
3377 Clear 15 1007 55 10000 3.6 150 18:19 31.05.2022
3378 Clear 15 1008 51 10000 4.63 140 17:37 31.05.2022
3379 Clear 17 1009 44 10000 1.54 160 15:45 31.05.2022
3380 Clear 18 1009 45 10000 1.54 160 15:22 31.05.2022
3381 Clear 22 1008 25 10000 4.63 250 12:39 31.05.2022
3382 Clear 24 1007 28 10000 5.17 232 12:18 31.05.2022
3383 Clear 24 1008 20 10000 7.2 250 10:22 31.05.2022
3384 Clear 26 1008 23 10000 6.17 250 07:43 31.05.2022
3385 Clear 26 1008 30 10000 3.09 190 05:38 31.05.2022
3386 Clear 22 1009 44 10000 3.09 230 03:41 31.05.2022
3387 Clear 12 1007 82 10000 1.54 190 23:39 30.05.2022
3388 Clear 12 1007 87 10000 0.51 100 23:18 30.05.2022
3389 Clear 11 1006 85 10000 1.54 180 22:32 30.05.2022
3390 Clear 11 1006 85 10000 1.54 180 21:37 30.05.2022
3391 Clear 12 1006 72 10000 1.03 170 20:43 30.05.2022
3392 Clear 13 1006 70 10000 1.03 300 19:40 30.05.2022
3393 Clear 16 1006 65 10000 1.54 290 17:48 30.05.2022
3394 Clear 16 1006 65 10000 1.54 290 17:20 30.05.2022
3395 Clear 18 1005 77 10000 2.57 280 15:51 30.05.2022
3396 Clouds 21 1003 71 10000 4.37 316 13:21 30.05.2022
3397 Clouds 20 1002 78 10000 4.63 270 11:30 30.05.2022
3398 Clouds 21 1002 73 10000 5.14 270 09:41 30.05.2022
3399 Clouds 23 1001 64 10000 6.17 280 07:29 30.05.2022
3400 Clear 24 1002 60 10000 4.12 340 05:52 30.05.2022
3401 Clouds 22 1002 64 9000 3.09 320 03:18 30.05.2022
3402 Mist 19 1002 85 7000 0.51 280 23:57 29.05.2022
3403 Rain 19 1003 81 7000 2.06 320 22:40 29.05.2022
3404 Clouds 19 1003 78 8000 2.06 360 21:44 29.05.2022
3405 Clouds 19 1003 82 6000 2.57 340 20:18 29.05.2022
3406 Clouds 19 1004 81 6000 2.06 330 19:28 29.05.2022
3407 Clouds 19 1004 81 7000 2.57 330 17:56 29.05.2022
3408 Clouds 20 1004 75 8000 2.57 310 15:59 29.05.2022
3409 Clouds 20 1004 75 8000 2.57 310 15:40 29.05.2022
3410 Clear 21 1004 73 10000 3.09 300 14:44 29.05.2022
3411 Clear 23 1004 68 10000 4.63 300 12:21 29.05.2022
3412 Clear 27 1003 43 10000 5.14 280 10:45 29.05.2022
3413 Clear 28 1003 41 10000 3.6 270 09:52 29.05.2022
3414 Rain 27 1004 42 10000 2.57 250 07:28 29.05.2022
3415 Clouds 23 1006 58 8000 2.57 200 04:50 29.05.2022
3416 Clouds 23 1006 58 8000 2.57 200 04:31 29.05.2022
3417 Clouds 18 1007 77 10000 1.03 130 00:48 29.05.2022
3418 Clouds 18 1007 75 10000 1.03 190 23:42 28.05.2022
3419 Clouds 18 1007 70 7000 3.09 190 22:56 28.05.2022
3420 Mist 18 1007 75 5000 2.06 160 21:45 28.05.2022
3421 Clouds 16 1007 75 6000 0.51 270 20:30 28.05.2022
3422 Clouds 18 1007 77 8000 3.09 200 19:18 28.05.2022
3423 Clear 18 1007 72 10000 3.09 190 18:19 28.05.2022
3424 Clear 19 1007 51 10000 2.06 190 16:57 28.05.2022
3425 Clear 20 1007 50 10000 1.54 210 15:45 28.05.2022
3426 Clear 19 1007 59 10000 0.51 190 15:19 28.05.2022
3427 Clear 22 1006 41 10000 3.09 280 13:26 28.05.2022
3428 Clear 25 1005 31 10000 3.09 240 12:41 28.05.2022
3429 Clear 26 1005 30 10000 5.66 230 11:27 28.05.2022
3430 Clear 27 1005 35 10000 7.2 240 10:25 28.05.2022
3431 Clear 28 1005 38 10000 8.23 240 09:30 28.05.2022
3432 Clear 29 1004 34 10000 7.72 230 07:47 28.05.2022
3433 Clear 28 1005 41 10000 4.63 200 06:32 28.05.2022
3434 Clear 24 1005 53 10000 4.63 200 03:53 28.05.2022
3435 Clouds 17 1005 75 6000 3.6 160 00:33 28.05.2022
3436 Clouds 14 1005 85 6000 3.09 130 23:34 27.05.2022
3437 Clouds 13 1004 85 8000 3.09 150 22:24 27.05.2022
3438 Clear 13 1003 88 10000 2.06 210 20:57 27.05.2022
3439 Clear 13 1003 88 10000 2.06 210 20:26 27.05.2022
3440 Clear 15 1003 80 10000 1.54 170 19:51 27.05.2022
3441 Clear 15 1003 80 10000 1.54 170 19:32 27.05.2022
3442 Clear 14 1003 82 10000 3.09 130 18:29 27.05.2022
3443 Clear 17 1004 65 10000 2.57 220 16:42 27.05.2022
3444 Clear 17 1004 61 10000 2.57 230 15:34 27.05.2022
3445 Clear 18 1003 55 10000 1.03 240 14:44 27.05.2022
3446 Clear 19 1002 54 10000 3.09 250 13:23 27.05.2022
3447 Clear 22 1001 49 10000 4.12 240 11:34 27.05.2022
3448 Clear 23 1001 48 10000 5.66 240 10:57 27.05.2022
3449 Clear 23 1001 48 10000 5.66 240 10:31 27.05.2022
3450 Clear 25 1001 42 10000 5.14 250 09:37 27.05.2022
3451 Clouds 24 1001 42 10000 5.14 270 07:55 27.05.2022
3452 Clouds 23 1001 45 10000 4.12 290 05:47 27.05.2022
3453 Clouds 20 1001 54 10000 3.6 320 02:47 27.05.2022
3454 Clear 17 1001 73 10000 3.09 280 00:29 27.05.2022
3455 Clear 16 1000 80 10000 2.57 230 22:43 26.05.2022
3456 Clear 16 1000 77 10000 3.09 280 21:40 26.05.2022
3457 Clouds 16 1000 75 10000 3.09 250 20:53 26.05.2022
3458 Clouds 16 1000 72 10000 5.14 230 19:24 26.05.2022
3459 Clouds 17 1000 72 10000 3.6 230 18:18 26.05.2022
3460 Rain 17 1002 61 10000 5.14 220 16:42 26.05.2022
3461 Clear 17 1002 54 10000 6.69 230 15:46 26.05.2022
3462 Clear 18 1002 49 10000 6.17 220 14:43 26.05.2022
3463 Clear 20 1002 33 10000 8.23 230 12:37 26.05.2022
3464 Clear 21 1002 29 10000 8.23 230 11:23 26.05.2022
3465 Clear 22 1003 26 10000 7.72 240 09:44 26.05.2022
3466 Clear 22 1003 26 10000 7.72 240 09:26 26.05.2022
3467 Clear 23 1004 28 10000 8.23 240 08:30 26.05.2022
3468 Clouds 21 1006 40 10000 4.63 250 04:41 26.05.2022
3469 Clouds 15 1006 82 10000 2.06 190 00:38 26.05.2022
3470 Clouds 12 1006 94 10000 1.03 230 23:40 25.05.2022
3471 Clear 13 1005 91 10000 1.54 210 21:56 25.05.2022
3472 Clear 13 1005 91 10000 1.54 210 21:31 25.05.2022
3473 Clear 14 1006 85 10000 2.06 240 20:35 25.05.2022
3474 Clouds 14 1006 88 10000 3.09 270 19:21 25.05.2022
3475 Mist 16 1006 85 10000 4.12 280 17:40 25.05.2022
3476 Clouds 16 1006 94 10000 3.09 270 16:37 25.05.2022
3477 Rain 17 1006 88 5000 7.2 270 15:54 25.05.2022
3478 Mist 19 1006 83 4500 5.14 220 14:51 25.05.2022
3479 Mist 18 1006 83 4500 5.14 220 14:32 25.05.2022
3480 Rain 19 1006 78 10000 5.66 210 13:42 25.05.2022
3481 Rain 20 1006 62 10000 4.76 251 12:37 25.05.2022
3482 Rain 23 1007 51 10000 3.6 270 10:43 25.05.2022
3483 Clear 24 1007 49 10000 4.12 250 09:54 25.05.2022
3484 Clouds 25 1007 30 10000 5.18 258 08:23 25.05.2022
3485 Rain 26 1008 30 10000 5.4 259 07:22 25.05.2022
3486 Clear 24 1011 53 10000 2.57 310 03:22 25.05.2022
3487 Clouds 15 1012 83 6000 0.51 260 23:56 24.05.2022
3488 Clouds 14 1012 94 6000 0.51 260 23:25 24.05.2022
3489 Mist 15 1011 94 3500 1.03 350 22:19 24.05.2022
3490 Mist 15 1011 83 3500 1.54 210 21:39 24.05.2022
3491 Mist 16 1011 94 3500 1.03 70 21:20 24.05.2022
3492 Mist 16 1012 78 5000 2.06 300 19:45 24.05.2022
3493 Clouds 16 1012 81 6000 1.03 300 18:53 24.05.2022
3494 Clear 18 1013 69 10000 1.54 320 16:42 24.05.2022
3495 Clear 17 1013 88 10000 1.54 320 16:22 24.05.2022
3496 Clear 20 1013 59 10000 2.57 290 14:56 24.05.2022
3497 Clear 19 1013 72 10000 2.57 290 14:20 24.05.2022
3498 Clear 24 1012 42 10000 4.63 280 12:49 24.05.2022
3499 Clear 28 1012 33 10000 6.17 270 10:46 24.05.2022
3500 Clear 29 1012 28 10000 4.63 280 09:43 24.05.2022
3501 Clear 29 1013 28 10000 4.63 260 08:49 24.05.2022
3502 Clear 29 1014 32 10000 3.09 300 06:56 24.05.2022
3503 Clear 25 1016 44 10000 2.06 350 03:48 24.05.2022
3504 Haze 20 1016 68 6000 2.57 190 01:51 24.05.2022
3505 Clear 20 1016 68 6000 2.57 190 01:19 24.05.2022
3506 Mist 14 1015 88 3000 2.57 140 22:51 23.05.2022
3507 Mist 14 1015 88 3000 2.57 140 21:55 23.05.2022
3508 Mist 14 1015 88 3000 2.57 140 21:29 23.05.2022
3509 Mist 15 1015 88 4000 2.57 150 20:29 23.05.2022
3510 Mist 16 1015 86 4500 1.54 160 19:31 23.05.2022
3511 Mist 16 1015 83 5000 1.03 170 18:57 23.05.2022
3512 Mist 16 1015 83 5000 1.03 170 18:29 23.05.2022
3513 Clouds 16 1015 88 6000 1.03 320 17:20 23.05.2022
3514 Clouds 20 1014 62 9000 3.09 290 14:52 23.05.2022
3515 Clear 24 1012 52 10000 3.09 230 12:56 23.05.2022
3516 Clouds 26 1012 52 8000 3.6 290 11:31 23.05.2022
3517 Haze 29 1011 39 8000 4.63 240 09:50 23.05.2022
3518 Haze 29 1011 39 8000 4.63 240 09:28 23.05.2022
3519 Clouds 31 1011 36 10000 4.98 254 08:20 23.05.2022
3520 Haze 28 1011 44 5000 4.12 310 06:45 23.05.2022
3521 Mist 27 1012 48 5000 2.06 180 05:25 23.05.2022
3522 Mist 21 1012 66 3000 1.54 150 02:23 23.05.2022
3523 Mist 19 1012 75 3000 2.57 140 01:37 23.05.2022
3524 Mist 18 1011 82 3000 2.57 170 00:20 23.05.2022
3525 Mist 17 1010 88 2500 2.06 200 22:36 22.05.2022
3526 Mist 17 1010 82 3000 1.54 180 21:55 22.05.2022
3527 Mist 16 1010 85 3000 2.57 150 20:54 22.05.2022
3528 Mist 16 1010 85 3000 2.57 150 20:31 22.05.2022
3529 Mist 17 1010 85 3500 2.57 160 19:56 22.05.2022
3530 Mist 17 1010 88 4000 1.54 180 18:55 22.05.2022
3531 Mist 17 1010 88 4000 1.54 180 18:25 22.05.2022
3532 Mist 17 1010 85 6000 1.03 230 17:33 22.05.2022
3533 Mist 17 1009 83 7000 1.03 230 16:31 22.05.2022
3534 Clear 18 1008 81 9000 1.03 280 14:48 22.05.2022
3535 Clear 20 1007 70 10000 1.54 260 13:48 22.05.2022
3536 Clear 22 1007 62 10000 3.09 220 12:52 22.05.2022
3537 Clear 23 1006 57 10000 3.09 280 11:44 22.05.2022
3538 Clear 25 1006 50 10000 3.6 210 09:45 22.05.2022
3539 Clear 25 1007 52 10000 3.6 270 08:37 22.05.2022
3540 Clear 23 1007 56 10000 4.63 240 07:22 22.05.2022
3541 Haze 23 1008 55 10000 4.12 240 05:44 22.05.2022
3542 Haze 18 1009 70 8000 2.06 200 02:23 22.05.2022
3543 Mist 16 1009 82 6000 3.6 200 00:43 22.05.2022
3544 Mist 16 1008 85 4500 2.57 200 23:55 21.05.2022
3545 Mist 15 1008 88 4500 2.57 200 23:20 21.05.2022
3546 Mist 15 1008 82 4500 1.54 320 21:43 21.05.2022
3547 Mist 15 1008 82 4500 1.54 320 21:23 21.05.2022
3548 Mist 15 1008 82 4500 1.54 300 20:24 21.05.2022
3549 Mist 15 1008 82 6000 2.57 280 19:30 21.05.2022
3550 Clouds 16 1009 82 7000 3.6 210 17:51 21.05.2022
3551 Clouds 16 1009 82 9000 4.12 200 16:43 21.05.2022
3552 Clouds 17 1008 77 10000 3.09 230 14:37 21.05.2022
3553 Clouds 18 1008 73 10000 3.09 290 13:42 21.05.2022
3554 Clear 20 1008 66 10000 4.63 310 12:50 21.05.2022
3555 Clear 20 1008 66 10000 4.63 310 12:25 21.05.2022
3556 Clear 23 1008 54 10000 5.14 300 10:24 21.05.2022
3557 Clear 24 1008 50 10000 4.12 250 09:43 21.05.2022
3558 Clear 25 1008 46 10000 5.14 240 08:57 21.05.2022
3559 Clear 25 1009 47 10000 4.63 240 07:53 21.05.2022
3560 Clouds 21 1011 58 10000 3.6 230 03:58 21.05.2022
3561 Mist 16 1011 91 4000 1.54 280 23:54 20.05.2022
3562 Mist 15 1011 91 3500 1.03 170 22:57 20.05.2022
3563 Mist 15 1011 91 3500 1.03 170 22:23 20.05.2022
3564 Mist 15 1010 94 4000 1.03 200 21:41 20.05.2022
3565 Mist 16 1011 88 4500 0.51 30 20:54 20.05.2022
3566 Clouds 17 1012 82 6000 1.03 360 19:58 20.05.2022
3567 Clouds 17 1012 82 6000 1.03 360 19:26 20.05.2022
3568 Clouds 17 1012 82 6000 1.54 280 18:44 20.05.2022
3569 Clouds 17 1013 70 9000 3.09 290 16:54 20.05.2022
3570 Clouds 17 1012 61 10000 1.11 259 16:19 20.05.2022
3571 Clear 18 1013 64 10000 2.06 270 15:44 20.05.2022
3572 Clear 18 1012 62 10000 2.57 260 14:30 20.05.2022
3573 Clear 20 1012 56 10000 3.09 260 13:54 20.05.2022
3574 Clear 23 1011 44 10000 3.6 270 11:33 20.05.2022
3575 Clear 24 1012 38 10000 3.6 250 09:51 20.05.2022
3576 Clear 25 1012 32 10000 4.12 310 08:43 20.05.2022
3577 Clear 25 1014 40 10000 5.66 250 06:47 20.05.2022
3578 Clear 24 1014 43 10000 5.66 250 06:24 20.05.2022
3579 Clear 23 1014 42 10000 3.09 220 04:31 20.05.2022
3580 Clear 16 1016 59 10000 3.09 140 00:43 20.05.2022
3581 Clear 13 1015 69 10000 2.57 150 22:46 19.05.2022
3582 Clear 15 1015 65 10000 2.06 90 21:59 19.05.2022
3583 Clear 15 1015 65 10000 2.06 90 21:40 19.05.2022
3584 Clear 15 1015 65 10000 2.06 90 21:22 19.05.2022
3585 Clear 15 1016 65 10000 1.54 170 20:25 19.05.2022
3586 Clear 15 1016 65 10000 1.03 170 19:34 19.05.2022
3587 Clear 17 1016 56 10000 2.06 240 17:59 19.05.2022
3588 Rain 18 1017 50 10000 3.6 200 16:31 19.05.2022
3589 Clear 19 1016 43 10000 2.57 230 14:52 19.05.2022
3590 Clear 18 1016 48 10000 2.06 200 14:23 19.05.2022
3591 Clear 20 1015 40 10000 4.63 220 12:35 19.05.2022
3592 Clear 21 1015 49 10000 5.66 210 11:25 19.05.2022
3593 Clear 23 1016 44 10000 6.17 220 08:59 19.05.2022
3594 Clear 23 1016 41 10000 6.17 230 07:48 19.05.2022
3595 Clear 23 1017 39 10000 4.63 210 04:44 19.05.2022
3596 Clear 20 1016 49 10000 4.63 170 01:58 19.05.2022
3597 Clear 15 1016 70 10000 3.09 130 23:53 18.05.2022
3598 Clear 15 1016 70 10000 1.54 170 22:46 18.05.2022
3599 Clear 15 1016 70 10000 1.54 170 22:46 18.05.2022
3600 Clear 16 1016 68 10000 3.09 200 21:47 18.05.2022
3601 Clear 16 1016 68 10000 3.09 200 21:25 18.05.2022
3602 Clear 15 1016 72 10000 3.09 190 20:24 18.05.2022
3603 Clear 16 1016 68 10000 3.09 190 19:37 18.05.2022
3604 Clear 17 1016 67 10000 2.57 170 18:21 18.05.2022
3605 Clear 18 1017 58 10000 3.09 240 17:41 18.05.2022
3606 Clear 18 1017 63 10000 2.57 200 17:23 18.05.2022
3607 Clear 18 1017 63 10000 3.6 220 16:23 18.05.2022
3608 Clear 20 1016 49 10000 3.6 230 15:39 18.05.2022
3609 Clear 20 1016 46 10000 4.63 230 14:34 18.05.2022
3610 Clear 21 1014 46 10000 5.14 220 13:20 18.05.2022
3611 Clear 22 1014 41 10000 5.66 220 12:39 18.05.2022
3612 Clear 24 1014 38 10000 6.17 220 11:34 18.05.2022
3613 Clear 24 1014 40 10000 7.2 230 10:52 18.05.2022
3614 Clear 24 1014 40 10000 6.69 240 08:29 18.05.2022
3615 Clear 25 1015 41 10000 4.63 200 07:28 18.05.2022
3616 Clear 19 1017 62 10000 4.12 200 04:33 18.05.2022
3617 Mist 18 1016 65 7000 3.6 160 00:52 18.05.2022
3618 Mist 18 1016 65 7000 3.6 160 00:52 18.05.2022
3619 Clouds 18 1016 59 7000 3.6 160 00:18 18.05.2022
3620 Mist 14 1015 82 3500 3.6 150 21:24 17.05.2022
3621 Mist 14 1015 85 4000 3.6 130 20:57 17.05.2022
3622 Mist 15 1015 80 4000 1.54 190 19:49 17.05.2022
3623 Mist 15 1015 80 4000 1.54 190 19:26 17.05.2022
3624 Mist 16 1015 75 4500 2.06 180 17:49 17.05.2022
3625 Mist 16 1015 72 5000 1.54 240 16:58 17.05.2022
3626 Mist 16 1015 72 5000 1.54 240 16:29 17.05.2022
3627 Mist 16 1014 77 5000 2.06 280 15:18 17.05.2022
3628 Clear 18 1014 68 6000 2.06 310 14:29 17.05.2022
3629 Clear 20 1013 57 7000 2.57 280 13:30 17.05.2022
3630 Clear 25 1012 40 10000 6.17 230 10:50 17.05.2022
3631 Clear 26 1012 35 10000 5.14 250 08:55 17.05.2022
3632 Clear 26 1012 36 10000 4.63 210 07:57 17.05.2022
3633 Clear 25 1012 37 10000 4.63 200 06:27 17.05.2022
3634 Clear 17 1013 59 9000 3.6 150 01:59 17.05.2022
3635 Clear 12 1012 85 6000 3.6 170 23:59 16.05.2022
3636 Clouds 11 1012 82 6000 4.63 140 22:40 16.05.2022
3637 Clouds 11 1012 85 8000 3.6 150 21:33 16.05.2022
3638 Clouds 12 1012 82 8000 2.57 170 20:44 16.05.2022
3639 Clear 13 1012 77 9000 2.57 170 19:19 16.05.2022
3640 Clouds 14 1012 75 9000 3.09 210 17:34 16.05.2022
3641 Clear 15 1012 70 10000 3.6 210 15:36 16.05.2022
3642 Clear 18 1011 51 10000 5.14 240 13:48 16.05.2022
3643 Clear 19 1010 47 10000 4.12 220 12:44 16.05.2022
3644 Clear 22 1009 37 10000 6.69 240 10:47 16.05.2022
3645 Clear 22 1010 37 10000 7.2 250 08:37 16.05.2022
3646 Clear 22 1011 33 10000 5.66 240 06:30 16.05.2022
3647 Clear 15 1013 50 10000 3.6 190 01:44 16.05.2022
3648 Clear 7 1012 82 10000 3.6 140 22:52 15.05.2022
3649 Clear 7 1012 87 10000 3.6 140 22:25 15.05.2022
3650 Clear 8 1013 74 10000 2.57 160 21:38 15.05.2022
3651 Clear 9 1013 65 10000 4.63 140 20:53 15.05.2022
3652 Clear 11 1014 58 10000 1.03 350 18:52 15.05.2022
3653 Clear 11 1014 54 10000 1.03 340 17:29 15.05.2022
3654 Clear 15 1013 36 10000 3.6 250 14:58 15.05.2022
3655 Clear 15 1012 35 10000 5.66 270 13:46 15.05.2022
3656 Clear 16 1011 33 10000 7.2 270 12:19 15.05.2022
3657 Clear 19 1012 23 10000 8.75 280 11:27 15.05.2022
3658 Clear 20 1012 23 10000 8.75 270 09:57 15.05.2022
3659 Clear 21 1013 28 10000 6.69 270 07:24 15.05.2022
3660 Clouds 21 1014 20 10000 5.14 310 06:56 15.05.2022
3661 Clear 18 1016 30 10000 3.6 340 03:38 15.05.2022
3662 Clear 11 1016 62 10000 0.51 310 00:26 15.05.2022
3663 Clear 8 1016 76 10000 1.03 290 23:37 14.05.2022
3664 Clear 8 1015 74 10000 1.54 150 21:51 14.05.2022
3665 Clear 8 1015 74 10000 1.54 150 21:26 14.05.2022
3666 Clear 9 1016 67 10000 1.03 300 20:27 14.05.2022
3667 Clear 10 1015 57 10000 0.51 270 19:21 14.05.2022
3668 Clear 11 1016 46 10000 2.06 330 18:58 14.05.2022
3669 Clear 13 1016 43 10000 3.09 340 17:47 14.05.2022
3670 Clear 14 1015 42 10000 2.06 270 15:58 14.05.2022
3671 Clear 14 1015 45 10000 3.09 270 14:39 14.05.2022
3672 Clear 14 1015 51 10000 3.09 270 14:18 14.05.2022
3673 Clear 17 1013 34 10000 7.72 260 11:46 14.05.2022
3674 Clear 17 1012 34 10000 9.26 270 10:44 14.05.2022
3675 Clear 17 1012 34 10000 9.26 270 10:18 14.05.2022
3676 Clear 19 1011 27 10000 7.72 270 09:23 14.05.2022
3677 Clear 19 1012 32 10000 7.72 270 07:32 14.05.2022
3678 Clear 18 1012 33 10000 5.66 260 04:35 14.05.2022
3679 Clear 13 1011 60 10000 1.54 310 00:43 14.05.2022
3680 Clear 10 1010 66 10000 0.51 230 23:25 13.05.2022
3681 Clear 10 1010 71 10000 2.06 300 22:55 13.05.2022
3682 Clear 9 1010 71 10000 2.06 300 22:21 13.05.2022
3683 Clear 12 1010 60 10000 2.06 260 20:59 13.05.2022
3684 Clear 12 1010 60 10000 2.06 260 20:37 13.05.2022
3685 Clear 11 1010 66 10000 2.06 260 20:19 13.05.2022
3686 Clear 12 1010 66 10000 3.09 290 19:18 13.05.2022
3687 Clear 13 1010 66 10000 2.06 290 17:42 13.05.2022
3688 Clear 14 1010 62 10000 2.06 290 17:22 13.05.2022
3689 Clear 15 1009 55 10000 2.57 330 15:46 13.05.2022
3690 Clear 16 1008 48 10000 4.12 10 14:38 13.05.2022
3691 Clear 19 1007 33 10000 6.69 360 12:51 13.05.2022
3692 Clear 21 1006 30 10000 7.72 330 11:54 13.05.2022
3693 Clear 23 1005 34 10000 4.63 270 09:54 13.05.2022
3694 Clear 23 1005 34 10000 4.63 270 09:26 13.05.2022
3695 Clear 24 1006 31 10000 3.09 350 07:50 13.05.2022
3696 Clear 24 1006 32 10000 4.12 330 06:49 13.05.2022
3697 Clear 22 1008 38 10000 2.06 300 04:54 13.05.2022
3698 Clear 16 1009 51 10000 2.57 330 00:42 13.05.2022
3699 Clear 15 1009 53 10000 1.03 360 22:49 12.05.2022
3700 Clear 15 1009 53 10000 1.03 360 22:30 12.05.2022
3701 Clear 16 1009 53 10000 2.57 340 20:49 12.05.2022
3702 Clear 17 1009 51 10000 3.09 330 19:26 12.05.2022
3703 Clear 17 1010 55 10000 5.14 330 18:25 12.05.2022
3704 Clear 18 1009 54 10000 3.6 310 16:39 12.05.2022
3705 Clear 19 1010 49 10000 2.06 290 14:52 12.05.2022
3706 Clear 21 1009 43 10000 3.09 300 13:48 12.05.2022
3707 Clear 24 1009 35 10000 4.12 280 11:31 12.05.2022
3708 Clear 28 1008 27 10000 3.95 270 10:22 12.05.2022
3709 Clear 26 1009 32 10000 3.09 330 08:52 12.05.2022
3710 Clear 27 1010 34 10000 2.57 300 07:57 12.05.2022
3711 Clear 25 1011 34 10000 2.57 10 06:55 12.05.2022
3712 Clear 21 1013 47 10000 2.06 20 03:31 12.05.2022
3713 Clear 15 1014 77 10000 1.03 310 00:50 12.05.2022
3714 Clear 12 1014 82 10000 1.03 320 22:53 11.05.2022
3715 Clear 13 1014 80 10000 2.06 340 21:59 11.05.2022
3716 Clear 13 1014 80 10000 2.06 340 21:24 11.05.2022
3717 Clear 14 1014 78 10000 2.57 310 19:42 11.05.2022
3718 Clear 15 1015 71 10000 1.03 270 17:24 11.05.2022
3719 Clear 16 1016 64 10000 1.54 300 15:59 11.05.2022
3720 Clear 17 1015 57 10000 1.54 20 14:45 11.05.2022
3721 Clear 17 1015 57 10000 1.54 20 14:24 11.05.2022
3722 Clear 19 1014 52 10000 3.09 280 12:23 11.05.2022
3723 Clear 21 1014 46 10000 4.12 290 11:47 11.05.2022
3724 Clear 23 1014 39 10000 5.14 280 09:29 11.05.2022
3725 Clear 23 1015 34 10000 3.6 310 06:24 11.05.2022
3726 Clear 19 1016 48 10000 1.54 220 01:28 11.05.2022
3727 Clear 15 1015 61 10000 2.06 290 22:53 10.05.2022
3728 Clear 15 1015 67 10000 2.06 290 22:19 10.05.2022
3729 Clear 16 1015 61 10000 1.03 60 20:59 10.05.2022
3730 Clear 15 1015 77 10000 1.03 60 20:21 10.05.2022
3731 Clear 17 1015 45 10000 1.54 300 18:35 10.05.2022
3732 Clouds 17 1015 48 10000 1.03 320 17:37 10.05.2022
3733 Rain 17 1015 41 10000 1.54 280 15:43 10.05.2022
3734 Clear 21 1014 23 10000 2.57 280 12:48 10.05.2022
3735 Clear 22 1013 21 10000 6.17 290 11:51 10.05.2022
3736 Clear 21 1013 26 10000 6.17 290 11:21 10.05.2022
3737 Clear 24 1013 19 10000 5.14 280 10:54 10.05.2022
3738 Clear 25 1014 15 10000 2.06 240 09:27 10.05.2022
3739 Clear 24 1015 14 10000 4.12 110 07:32 10.05.2022
3740 Clear 23 1017 23 10000 3.09 90 04:34 10.05.2022
3741 Clear 16 1018 46 10000 2.57 210 01:34 10.05.2022
3742 Clear 11 1018 80 10000 0.51 240 23:26 09.05.2022
3743 Clear 11 1018 79 10000 1.03 50 21:58 09.05.2022
3744 Clear 11 1018 87 10000 1.03 50 21:18 09.05.2022
3745 Clear 11 1017 82 10000 1.54 170 19:37 09.05.2022
3746 Clear 13 1018 72 10000 1.54 350 17:56 09.05.2022
3747 Clear 14 1018 77 10000 1.03 240 16:38 09.05.2022
3748 Clear 15 1018 61 10000 1.03 350 15:52 09.05.2022
3749 Clear 14 1018 67 10000 1.03 350 15:27 09.05.2022
3750 Clear 16 1018 56 10000 2.57 330 14:32 09.05.2022
3751 Clear 18 1017 50 10000 3.09 280 13:50 09.05.2022
3752 Clear 20 1016 45 10000 3.09 290 12:26 09.05.2022
3753 Clear 24 1016 31 10000 3.09 110 11:37 09.05.2022
3754 Clear 24 1016 26 10000 4.12 130 10:43 09.05.2022
3755 Clear 24 1016 28 10000 5.14 120 08:51 09.05.2022
3756 Clear 23 1017 30 10000 5.66 120 07:54 09.05.2022
3757 Clear 17 1020 50 10000 1.54 50 03:36 09.05.2022
3758 Clear 10 1019 93 10000 2.06 340 23:37 08.05.2022
3759 Clear 11 1019 87 10000 1.54 360 22:56 08.05.2022
3760 Clear 11 1019 84 10000 1.54 360 21:55 08.05.2022
3761 Clear 11 1019 82 10000 2.57 360 20:35 08.05.2022
3762 Clear 11 1019 82 10000 4.12 160 19:45 08.05.2022
3763 Clear 11 1018 79 10000 4.12 130 18:54 08.05.2022
3764 Clear 11 1018 81 10000 4.12 120 17:59 08.05.2022
3765 Rain 11 1019 84 10000 5.14 100 16:44 08.05.2022
3766 Rain 11 1019 87 10000 2.06 30 15:39 08.05.2022
3767 Rain 11 1019 84 10000 3.6 40 14:45 08.05.2022
3768 Rain 15 1018 51 10000 5.66 20 12:27 08.05.2022
3769 Rain 17 1018 38 10000 2.57 30 10:32 08.05.2022
3770 Rain 17 1018 36 10000 3.09 70 09:57 08.05.2022
3771 Rain 17 1018 35 10000 2.57 70 08:56 08.05.2022
3772 Clear 17 1020 34 10000 2.06 110 06:58 08.05.2022
3773 Clear 16 1020 34 10000 6.17 120 03:35 08.05.2022
3774 Clear 16 1020 37 10000 7.2 130 02:45 08.05.2022
3775 Rain 15 1020 37 10000 3.6 100 00:24 08.05.2022
3776 Rain 15 1020 41 10000 3.09 110 23:49 07.05.2022
3777 Clear 15 1019 37 10000 3.6 110 22:46 07.05.2022
3778 Clear 15 1019 39 10000 3.6 110 21:58 07.05.2022
3779 Clear 15 1019 39 10000 3.6 110 21:33 07.05.2022
3780 Clear 16 1019 41 10000 5.14 120 20:28 07.05.2022
3781 Clear 16 1019 41 10000 4.63 90 19:22 07.05.2022
3782 Clear 14 1019 48 10000 2.06 320 17:33 07.05.2022
3783 Clear 15 1019 36 10000 1.03 160 15:41 07.05.2022
3784 Clear 19 1017 23 10000 4.12 300 12:50 07.05.2022
3785 Clear 22 1016 17 10000 6.17 290 10:33 07.05.2022
3786 Clear 23 1016 17 10000 7.2 310 08:52 07.05.2022
3787 Clear 23 1016 20 10000 7.72 350 07:43 07.05.2022
3788 Clear 23 1017 21 10000 8.75 340 06:43 07.05.2022
3789 Clear 19 1018 52 10000 5.14 330 04:24 07.05.2022
3790 Rain 15 1017 88 10000 4.63 300 00:50 07.05.2022
3791 Mist 16 1016 85 8000 2.57 240 22:55 06.05.2022
3792 Clouds 16 1016 88 8000 2.57 240 22:21 06.05.2022
3793 Clouds 16 1016 88 6000 3.09 230 21:36 06.05.2022
3794 Mist 15 1016 94 4500 0.51 300 20:18 06.05.2022
3795 Mist 16 1016 88 3000 2.06 280 19:28 06.05.2022
3796 Mist 15 1016 94 2500 3.6 270 18:49 06.05.2022
3797 Clouds 17 1016 85 7000 2.06 270 17:38 06.05.2022
3798 Clouds 17 1016 86 7000 2.06 280 15:55 06.05.2022
3799 Clouds 17 1016 86 7000 2.06 280 15:32 06.05.2022
3800 Clouds 17 1016 88 6000 4.12 290 14:22 06.05.2022
3801 Clear 21 1016 63 10000 5.66 280 12:52 06.05.2022
3802 Clear 22 1015 56 10000 5.66 290 11:58 06.05.2022
3803 Clear 21 1015 68 10000 5.66 290 11:27 06.05.2022
3804 Clouds 25 1015 38 10000 5.14 290 09:48 06.05.2022
3805 Clouds 24 1015 43 10000 5.14 290 09:18 06.05.2022
3806 Clouds 25 1016 39 10000 4.63 290 07:55 06.05.2022
3807 Clouds 24 1016 41 10000 4.63 260 06:27 06.05.2022
3808 Clouds 22 1017 54 10000 2.57 200 03:44 06.05.2022
3809 Clouds 19 1017 57 10000 2.57 160 02:38 06.05.2022
3810 Clear 12 1017 94 8000 1.03 330 23:24 05.05.2022
3811 Clear 11 1017 90 7000 1.54 190 21:50 05.05.2022
3812 Clear 12 1017 88 10000 1.03 330 20:37 05.05.2022
3813 Clear 13 1018 83 10000 1.54 170 18:56 05.05.2022
3814 Clear 14 1018 80 10000 1.03 200 16:42 05.05.2022
3815 Clear 16 1018 68 10000 0.51 10 15:31 05.05.2022
3816 Clear 18 1017 59 10000 2.57 290 13:30 05.05.2022
3817 Clear 20 1017 51 10000 3.09 260 12:56 05.05.2022
3818 Clear 22 1017 45 10000 4.63 270 11:35 05.05.2022
3819 Clear 24 1017 33 10000 4.63 260 09:41 05.05.2022
3820 Clear 24 1017 33 10000 4.63 260 09:41 05.05.2022
3821 Clear 24 1018 31 10000 4.63 250 08:40 05.05.2022
3822 Clear 23 1020 34 10000 4.12 250 06:24 05.05.2022
3823 Clear 18 1020 36 10000 3.09 200 02:25 05.05.2022
3824 Clear 16 1020 40 10000 3.09 160 01:41 05.05.2022
3825 Clear 13 1020 60 10000 1.54 190 00:43 05.05.2022
3826 Clear 9 1019 61 10000 2.57 130 22:57 04.05.2022
3827 Clear 9 1019 66 10000 3.09 130 21:59 04.05.2022
3828 Clear 9 1019 66 10000 3.09 130 21:34 04.05.2022
3829 Clear 11 1019 60 10000 3.09 140 20:42 04.05.2022
3830 Clear 11 1019 60 10000 3.09 140 20:18 04.05.2022
3831 Clear 12 1020 56 10000 2.57 130 19:35 04.05.2022
3832 Clear 13 1019 52 10000 2.06 170 18:23 04.05.2022
3833 Clear 14 1020 53 10000 1.54 190 17:59 04.05.2022
3834 Clear 14 1020 54 10000 1.54 170 16:30 04.05.2022
3835 Clear 15 1019 51 10000 3.09 160 15:32 04.05.2022
3836 Clear 17 1019 48 10000 2.06 200 14:38 04.05.2022
3837 Clear 17 1019 48 10000 2.06 200 14:18 04.05.2022
3838 Clear 20 1017 38 10000 3.6 220 12:34 04.05.2022
3839 Clear 21 1018 35 10000 4.63 240 11:25 04.05.2022
3840 Clear 24 1017 30 10000 6.17 240 09:50 04.05.2022
3841 Clear 24 1018 31 10000 6.69 230 08:56 04.05.2022
3842 Clear 24 1018 30 10000 6.17 240 07:33 04.05.2022
3843 Clear 19 1019 28 10000 4.12 180 03:50 04.05.2022
3844 Clear 17 1020 32 10000 3.09 170 02:33 04.05.2022
3845 Clear 8 1019 64 10000 2.57 160 22:59 03.05.2022
3846 Clear 8 1019 61 10000 2.06 160 21:47 03.05.2022
3847 Clear 8 1019 61 10000 2.06 160 21:21 03.05.2022
3848 Clear 8 1019 61 10000 2.06 160 21:21 03.05.2022
3849 Clear 9 1019 64 10000 1.54 170 20:38 03.05.2022
3850 Clear 9 1019 62 10000 4.12 150 18:55 03.05.2022
3851 Clear 9 1019 62 10000 4.12 150 18:37 03.05.2022
3852 Clear 9 1020 61 10000 3.09 140 17:20 03.05.2022
3853 Clear 11 1020 52 10000 0.51 160 15:48 03.05.2022
3854 Clear 12 1019 47 10000 0.51 260 14:22 03.05.2022
3855 Clear 16 1019 33 10000 4.12 240 12:31 03.05.2022
3856 Clear 18 1019 29 10000 4.63 260 11:23 03.05.2022
3857 Clear 20 1019 25 10000 5.66 240 09:58 03.05.2022
3858 Clear 20 1019 22 10000 4.63 250 07:59 03.05.2022
3859 Clear 19 1019 26 10000 5.14 220 06:45 03.05.2022
3860 Clear 12 1019 67 10000 2.06 180 01:53 03.05.2022
3861 Clear 6 1018 87 10000 2.57 180 22:47 02.05.2022
3862 Clear 6 1018 87 10000 2.57 180 22:25 02.05.2022
3863 Clear 7 1018 79 10000 2.06 180 21:26 02.05.2022
3864 Clear 8 1017 71 10000 1.54 200 18:57 02.05.2022
3865 Clear 8 1017 71 10000 1.54 200 18:25 02.05.2022
3866 Clear 9 1017 67 10000 1.54 230 17:38 02.05.2022
3867 Clear 10 1016 62 10000 1.03 320 16:25 02.05.2022
3868 Clear 12 1016 54 10000 1.03 320 15:40 02.05.2022
3869 Clear 13 1015 62 10000 3.6 290 14:19 02.05.2022
3870 Clear 15 1014 36 10000 4.63 280 12:45 02.05.2022
3871 Clear 17 1013 31 10000 5.66 270 11:20 02.05.2022
3872 Clear 18 1012 28 10000 6.17 270 09:31 02.05.2022
3873 Clear 18 1013 26 10000 3.6 310 07:57 02.05.2022
3874 Clouds 18 1013 29 10000 4.63 330 05:37 02.05.2022
3875 Mist 9 1013 90 2500 0.51 130 00:26 02.05.2022
3876 Mist 7 1013 90 3500 1.54 200 23:52 01.05.2022
3877 Fog 6 1012 93 3500 2.06 180 22:45 01.05.2022
3878 Mist 7 1012 90 5000 1.03 170 21:30 01.05.2022
3879 Mist 7 1012 90 5000 0.51 120 20:19 01.05.2022
3880 Clear 8 1013 90 6000 0.51 240 19:18 01.05.2022
3881 Clear 9 1013 87 9000 1.03 180 18:46 01.05.2022
3882 Clear 10 1012 79 10000 1.03 230 17:46 01.05.2022
3883 Clear 11 1012 71 10000 1.54 280 16:24 01.05.2022
3884 Clear 12 1012 69 10000 2.57 260 15:43 01.05.2022
3885 Clear 12 1012 62 10000 3.09 260 14:22 01.05.2022
3886 Clear 15 1011 35 10000 6.69 240 11:41 01.05.2022
3887 Clear 18 1011 27 10000 7.72 240 09:32 01.05.2022
3888 Clear 18 1012 27 10000 8.23 230 08:47 01.05.2022
3889 Clear 17 1014 29 10000 6.69 240 04:31 01.05.2022
3890 Mist 9 1015 78 10000 1.03 170 00:34 01.05.2022
3891 Mist 5 1015 87 10000 1.54 200 21:51 30.04.2022
3892 Clear 5 1015 87 10000 0.51 60 21:19 30.04.2022
3893 Mist 7 1016 81 10000 1.54 210 19:45 30.04.2022
3894 Mist 8 1016 81 10000 1.54 170 18:28 30.04.2022
3895 Mist 10 1017 78 6000 2.57 280 16:54 30.04.2022
3896 Mist 11 1017 79 3500 3.09 260 15:48 30.04.2022
3897 Mist 11 1016 74 5000 3.09 260 14:53 30.04.2022
3898 Clouds 11 1015 82 6000 4.63 270 13:20 30.04.2022
3899 Clear 14 1015 63 10000 4.12 260 11:34 30.04.2022
3900 Rain 14 1015 59 10000 3.6 260 10:49 30.04.2022
3901 Clear 15 1016 59 10000 5.14 290 09:48 30.04.2022
3902 Clouds 17 1017 50 10000 5.66 240 06:48 30.04.2022
3903 Clear 13 1019 56 10000 2.57 190 02:55 30.04.2022
3904 Clear 11 1020 60 10000 2.57 180 23:37 29.04.2022
3905 Clear 11 1019 64 10000 3.09 140 22:31 29.04.2022
3906 Clear 11 1020 60 10000 2.57 110 21:53 29.04.2022
3907 Clear 11 1020 62 10000 4.63 120 20:49 29.04.2022
3908 Clear 11 1020 62 10000 3.09 110 19:47 29.04.2022
3909 Clear 11 1020 60 10000 2.57 80 17:59 29.04.2022
3910 Clear 11 1020 66 10000 2.57 80 17:23 29.04.2022
3911 Clear 12 1019 60 10000 2.06 350 15:50 29.04.2022
3912 Clear 13 1019 62 10000 4.12 20 14:22 29.04.2022
3913 Clear 14 1018 58 10000 2.57 50 13:21 29.04.2022
3914 Clouds 15 1017 51 10000 3.09 70 11:49 29.04.2022
3915 Clouds 16 1016 53 10000 4.12 60 08:51 29.04.2022
3916 Clouds 15 1016 55 10000 3.09 70 07:28 29.04.2022
3917 Clouds 15 1016 57 10000 4.12 30 06:45 29.04.2022
3918 Clouds 14 1016 58 10000 5.14 80 04:53 29.04.2022
3919 Rain 11 1015 85 10000 2.57 80 00:45 29.04.2022
3920 Rain 10 1015 90 9000 5.14 90 23:28 28.04.2022
3921 Rain 11 1014 90 8000 3.09 110 22:41 28.04.2022
3922 Rain 11 1014 94 7000 2.06 40 21:47 28.04.2022
3923 Rain 11 1014 94 7000 2.06 40 21:19 28.04.2022
3924 Rain 12 1014 91 10000 2.57 20 20:25 28.04.2022
3925 Rain 12 1015 88 7000 3.6 30 19:41 28.04.2022
3926 Rain 13 1015 88 7000 3.6 30 19:22 28.04.2022
3927 Rain 14 1015 75 10000 3.6 20 18:35 28.04.2022
3928 Rain 15 1015 67 10000 5.14 70 17:20 28.04.2022
3929 Clear 17 1014 53 10000 3.09 110 16:40 28.04.2022
3930 Clear 17 1014 51 10000 3.09 110 16:18 28.04.2022
3931 Clear 17 1014 52 10000 4.12 10 15:27 28.04.2022
3932 Clear 17 1014 52 10000 4.12 10 15:27 28.04.2022
3933 Clear 17 1015 42 10000 2.06 320 13:44 28.04.2022
3934 Clear 17 1014 38 10000 3.09 300 12:44 28.04.2022
3935 Clear 18 1015 35 10000 3.09 310 11:56 28.04.2022
3936 Clear 20 1014 33 10000 4.63 270 10:44 28.04.2022
3937 Clear 21 1014 31 10000 5.66 270 09:52 28.04.2022
3938 Clear 23 1014 27 10000 7.2 270 08:30 28.04.2022
3939 Clear 23 1016 21 10000 2.06 360 06:59 28.04.2022
3940 Clear 21 1016 26 10000 2.06 40 05:55 28.04.2022
3941 Clear 21 1016 26 10000 2.06 40 05:37 28.04.2022
3942 Clear 21 1017 32 10000 2.06 200 04:38 28.04.2022
3943 Clear 12 1019 66 10000 1.03 340 00:22 28.04.2022
3944 Clear 10 1018 68 10000 1.54 360 22:38 27.04.2022
3945 Clear 11 1018 62 10000 1.54 340 21:52 27.04.2022
3946 Clear 10 1018 66 10000 2.06 320 20:56 27.04.2022
3947 Clear 10 1018 66 10000 2.06 320 20:35 27.04.2022
3948 Clear 11 1017 66 10000 1.03 330 19:37 27.04.2022
3949 Clear 10 1017 71 10000 0.51 280 18:52 27.04.2022
3950 Clear 10 1017 71 10000 0.51 280 18:22 27.04.2022
3951 Clear 12 1018 57 10000 1.54 200 16:27 27.04.2022
3952 Clear 15 1016 38 10000 2.57 280 14:26 27.04.2022
3953 Clear 21 1014 24 10000 5.14 280 11:45 27.04.2022
3954 Clear 20 1014 30 10000 5.14 280 11:20 27.04.2022
3955 Clear 23 1014 20 10000 4.63 280 08:58 27.04.2022
3956 Clear 22 1015 23 10000 6.17 290 07:18 27.04.2022
3957 Sand 18 1016 23 9000 3.09 10 03:41 27.04.2022
3958 Sand 15 1015 25 10000 3.6 350 01:31 27.04.2022
3959 Sand 13 1014 29 10000 3.09 350 00:36 27.04.2022
3960 Clear 12 1014 31 10000 3.6 360 23:25 26.04.2022
3961 Clear 13 1013 28 10000 4.63 340 22:57 26.04.2022
3962 Clear 13 1013 28 10000 4.63 340 22:38 26.04.2022
3963 Clear 14 1012 28 10000 4.12 320 21:26 26.04.2022
3964 Clear 14 1012 28 10000 4.63 340 20:40 26.04.2022
3965 Clear 15 1011 26 10000 4.63 310 19:48 26.04.2022
3966 Clear 15 1011 26 10000 4.63 310 19:26 26.04.2022
3967 Clear 16 1011 32 10000 5.66 310 18:44 26.04.2022
3968 Clear 17 1010 44 10000 5.14 330 17:50 26.04.2022
3969 Clear 18 1009 51 10000 5.66 340 16:26 26.04.2022
3970 Clear 22 1004 48 10000 3.09 310 13:58 26.04.2022
3971 Clear 22 1004 48 10000 3.09 310 13:29 26.04.2022
3972 Clear 25 1002 41 10000 8.23 310 11:32 26.04.2022
3973 Clear 26 1001 41 10000 6.69 280 10:31 26.04.2022
3974 Clear 28 1000 33 10000 7.72 300 08:47 26.04.2022
3975 Clear 25 1001 45 10000 5.14 320 05:46 26.04.2022
3976 Clear 25 1002 47 10000 3.09 330 04:23 26.04.2022
3977 Clear 17 1002 83 10000 3.6 100 00:53 26.04.2022
3978 Mist 16 1002 88 10000 1.54 100 23:52 25.04.2022
3979 Rain 17 1003 82 10000 3.6 100 22:19 25.04.2022
3980 Rain 16 1004 91 7000 2.57 60 21:33 25.04.2022
3981 Rain 17 1005 85 6000 5.14 120 20:26 25.04.2022
3982 Rain 18 1005 91 3000 1.03 90 18:52 25.04.2022
3983 Rain 19 1006 82 3500 1.54 170 17:41 25.04.2022
3984 Mist 19 1007 85 3000 3.09 190 16:50 25.04.2022
3985 Mist 19 1008 80 3500 1.54 340 15:23 25.04.2022
3986 Mist 19 1009 75 3500 1.03 330 14:34 25.04.2022
3987 Mist 19 1008 82 3500 2.06 320 13:21 25.04.2022
3988 Haze 23 1009 60 8000 1.54 340 10:44 25.04.2022
3989 Haze 23 1009 59 8000 1.54 30 09:42 25.04.2022
3990 Haze 23 1011 60 8000 2.57 50 07:56 25.04.2022
3991 Mist 22 1013 64 5000 2.57 80 05:55 25.04.2022
3992 Mist 17 1014 88 2500 1.03 230 01:30 25.04.2022
3993 Mist 16 1013 94 2000 1.54 20 23:56 24.04.2022
3994 Mist 16 1013 94 2000 1.54 20 23:25 24.04.2022
3995 Drizzle 16 1013 91 1700 0.51 80 22:39 24.04.2022
3996 Mist 16 1013 94 1400 0.51 120 21:56 24.04.2022
3997 Drizzle 15 1013 100 1400 0.51 120 21:22 24.04.2022
3998 Drizzle 16 1013 94 1400 1.54 310 20:46 24.04.2022
3999 Mist 15 1013 100 1400 1.54 310 20:20 24.04.2022
4000 Drizzle 16 1013 88 2800 1.54 160 18:44 24.04.2022
4001 Mist 16 1012 88 3200 2.06 190 17:49 24.04.2022
4002 Mist 16 1012 94 3200 1.54 160 17:21 24.04.2022
4003 Mist 16 1012 88 4000 2.06 170 17:21 24.04.2022
4004 Mist 16 1012 85 4000 2.06 170 16:51 24.04.2022
4005 Mist 16 1012 85 6000 1.54 230 16:25 24.04.2022
4006 Clouds 16 1012 83 9000 2.57 240 15:39 24.04.2022
4007 Clouds 16 1012 85 9000 3.6 220 14:33 24.04.2022
4008 Clouds 16 1012 85 9000 3.6 220 14:33 24.04.2022
4009 Clouds 17 1011 80 8000 4.12 220 13:27 24.04.2022
4010 Clouds 18 1011 76 9000 3.6 290 12:55 24.04.2022
4011 Clear 21 1011 58 10000 4.12 290 11:49 24.04.2022
4012 Clear 22 1010 49 10000 6.17 290 10:47 24.04.2022
4013 Clear 23 1010 47 10000 5.14 310 09:43 24.04.2022
4014 Clouds 24 1010 44 8000 4.12 310 07:42 24.04.2022
4015 Clouds 22 1011 51 8000 2.57 230 05:45 24.04.2022
4016 Mist 15 1012 86 2500 1.54 210 01:58 24.04.2022
4017 Drizzle 14 1012 94 2200 1.54 160 00:45 24.04.2022
4018 Drizzle 14 1012 86 2500 1.54 110 23:46 23.04.2022
4019 Mist 13 1012 94 2500 1.54 110 23:25 23.04.2022
4020 Mist 13 1012 74 5000 1.03 130 21:58 23.04.2022
4021 Mist 13 1012 74 5000 1.03 130 21:36 23.04.2022
4022 Mist 13 1011 71 5000 0.51 140 20:59 23.04.2022
4023 Mist 13 1012 70 5000 1.54 350 19:55 23.04.2022
4024 Mist 13 1012 72 5000 1.54 350 19:20 23.04.2022
4025 Mist 12 1011 67 5000 1.54 180 18:53 23.04.2022
4026 Mist 12 1011 67 5000 1.54 180 18:31 23.04.2022
4027 Mist 12 1011 67 5000 2.06 170 17:44 23.04.2022
4028 Clouds 12 1011 72 6000 1.54 200 16:44 23.04.2022
4029 Clouds 14 1011 66 6000 1.54 190 15:35 23.04.2022
4030 Clear 20 1010 32 10000 2.06 280 12:54 23.04.2022
4031 Clear 23 1009 25 10000 2.57 290 11:24 23.04.2022
4032 Clear 24 1009 17 10000 2.06 90 09:38 23.04.2022
4033 Clear 23 1011 23 10000 3.09 150 07:52 23.04.2022
4034 Mist 16 1015 67 2500 1.54 10 03:56 23.04.2022
4035 Mist 12 1015 88 2000 2.06 340 01:55 23.04.2022
4036 Fog 8 1014 93 1200 1.54 150 23:33 22.04.2022
4037 Fog 8 1013 97 1200 0.51 190 22:28 22.04.2022
4038 Fog 10 1013 88 1500 1.03 280 21:44 22.04.2022
4039 Mist 10 1013 90 2200 0.51 280 20:55 22.04.2022
4040 Mist 10 1013 90 2200 0.51 280 20:28 22.04.2022
4041 Mist 11 1014 93 2500 2.06 340 19:22 22.04.2022
4042 Mist 12 1014 85 3000 2.57 300 18:46 22.04.2022
4043 Mist 12 1013 88 3000 3.09 270 17:50 22.04.2022
4044 Mist 13 1012 85 3000 3.09 250 16:46 22.04.2022
4045 Mist 13 1012 88 3200 4.12 230 15:45 22.04.2022
4046 Clouds 15 1012 81 10000 2.11 217 15:18 22.04.2022
4047 Mist 14 1011 83 3500 3.6 220 13:54 22.04.2022
4048 Mist 14 1010 82 3200 3.6 210 12:59 22.04.2022
4049 Mist 14 1010 82 3200 3.6 210 12:28 22.04.2022
4050 Mist 14 1010 82 4000 4.12 220 11:22 22.04.2022
4051 Mist 15 1010 80 4000 4.12 220 10:51 22.04.2022
4052 Mist 14 1010 82 4000 4.12 220 10:31 22.04.2022
4053 Mist 16 1009 75 5000 6.69 260 09:53 22.04.2022
4054 Mist 16 1009 75 5000 5.66 230 08:51 22.04.2022
4055 Clouds 16 1010 75 7000 5.66 240 07:33 22.04.2022
4056 Clouds 17 1010 61 10000 6.17 220 03:47 22.04.2022
4057 Clear 14 1010 65 10000 5.14 200 00:52 22.04.2022
4058 Clear 14 1010 67 10000 4.63 200 23:25 21.04.2022
4059 Clear 14 1010 65 10000 4.12 190 22:29 21.04.2022
4060 Clear 13 1011 62 10000 3.09 220 20:43 21.04.2022
4061 Clear 13 1011 62 10000 2.57 180 20:24 21.04.2022
4062 Clear 14 1011 58 10000 2.57 190 18:44 21.04.2022
4063 Clear 14 1011 58 10000 2.57 190 18:18 21.04.2022
4064 Clear 15 1011 57 10000 2.57 190 16:44 21.04.2022
4065 Clear 17 1012 64 10000 4.21 208 15:22 21.04.2022
4066 Clouds 15 1011 58 10000 4.12 200 14:49 21.04.2022
4067 Clouds 16 1010 55 10000 4.12 220 13:23 21.04.2022
4068 Clouds 16 1010 59 10000 3.6 190 12:57 21.04.2022
4069 Clear 19 1010 41 10000 8.23 240 10:49 21.04.2022
4070 Clear 22 1010 21 10000 5.14 240 08:56 21.04.2022
4071 Clear 22 1011 22 10000 4.63 200 07:24 21.04.2022
4072 Clear 21 1012 18 10000 4.63 220 05:42 21.04.2022
4073 Clear 18 1013 24 10000 4.12 150 03:30 21.04.2022
4074 Clear 15 1013 41 10000 4.12 160 02:47 21.04.2022
4075 Clouds 9 1013 73 8000 1.03 190 00:45 21.04.2022
4076 Clear 7 1013 70 10000 1.54 160 23:50 20.04.2022
4077 Clear 7 1013 65 10000 0 0 23:22 20.04.2022
4078 Clear 7 1013 66 10000 2.06 160 22:46 20.04.2022
4079 Clear 7 1013 66 10000 2.06 160 22:26 20.04.2022
4080 Clear 8 1013 62 10000 2.06 150 21:27 20.04.2022
4081 Clear 8 1014 61 10000 3.09 140 20:23 20.04.2022
4082 Clouds 8 1015 66 9000 3.09 140 19:51 20.04.2022
4083 Clouds 9 1015 50 10000 1.49 173 19:18 20.04.2022
4084 Clear 9 1015 75 8000 0.51 40 17:55 20.04.2022
4085 Clear 10 1015 63 9000 1.03 180 16:40 20.04.2022
4086 Clouds 9 1015 71 9000 0.51 30 16:18 20.04.2022
4087 Clear 15 1014 46 9000 2.06 300 13:50 20.04.2022
4088 Clear 19 1014 31 10000 4.63 230 11:44 20.04.2022
4089 Clear 20 1014 27 10000 5.66 250 10:56 20.04.2022
4090 Clear 21 1014 27 10000 5.14 270 09:58 20.04.2022
4091 Clear 21 1014 27 10000 5.14 270 09:24 20.04.2022
4092 Clear 21 1015 28 9000 6.17 260 08:20 20.04.2022
4093 Clear 21 1016 24 9000 6.17 240 06:56 20.04.2022
4094 Clear 17 1017 36 9000 2.06 200 03:34 20.04.2022
4095 Mist 10 1018 76 5000 2.57 140 00:22 20.04.2022
4096 Mist 7 1017 81 4000 2.57 140 23:37 19.04.2022
4097 Mist 6 1017 82 3000 2.57 150 22:25 19.04.2022
4098 Mist 8 1017 79 3000 2.06 180 21:55 19.04.2022
4099 Mist 9 1017 81 3000 2.06 180 21:22 19.04.2022
4100 Mist 6 1017 82 3000 1.54 180 20:41 19.04.2022
4101 Mist 7 1018 79 3000 1.54 170 19:52 19.04.2022
4102 Mist 7 1018 74 3500 2.57 130 18:47 19.04.2022
4103 Mist 8 1018 71 4000 1.03 170 17:28 19.04.2022
4104 Mist 10 1018 67 5000 1.54 180 16:43 19.04.2022
4105 Mist 9 1018 71 5000 0.51 120 16:21 19.04.2022
4106 Clear 12 1017 53 6000 0.51 220 14:48 19.04.2022
4107 Clear 13 1017 54 6000 1.03 300 13:35 19.04.2022
4108 Clear 16 1016 38 8000 3.09 290 12:50 19.04.2022
4109 Clear 18 1016 32 8000 5.14 250 11:55 19.04.2022
4110 Clear 19 1016 33 9000 4.63 240 10:23 19.04.2022
4111 Clear 21 1017 28 8000 5.66 230 08:54 19.04.2022
4112 Haze 18 1018 41 6000 2.57 210 04:42 19.04.2022
4113 Haze 16 1018 43 6000 3.09 210 03:25 19.04.2022
4114 Clear 8 1018 82 7000 1.54 140 00:27 19.04.2022
4115 Clear 6 1018 84 6000 2.57 140 23:25 18.04.2022
4116 Clouds 6 1018 82 6000 2.57 140 21:29 18.04.2022
4117 Clouds 7 1018 74 6000 2.57 150 20:53 18.04.2022
4118 Clouds 7 1018 74 6000 2.57 150 20:27 18.04.2022
4119 Clouds 7 1018 74 7000 2.06 160 19:42 18.04.2022
4120 Clouds 8 1018 67 9000 2.57 150 18:54 18.04.2022
4121 Clear 10 1018 61 10000 3.09 170 17:54 18.04.2022
4122 Clear 10 1018 61 10000 3.09 170 17:33 18.04.2022
4123 Clear 10 1018 61 10000 3.09 170 17:33 18.04.2022
4124 Clear 11 1018 58 10000 3.09 180 16:44 18.04.2022
4125 Clear 11 1018 66 10000 3.09 180 16:21 18.04.2022
4126 Clear 13 1018 47 10000 2.06 230 14:43 18.04.2022
4127 Clear 14 1017 40 10000 3.09 200 13:35 18.04.2022
4128 Clear 14 1017 40 10000 3.09 200 13:35 18.04.2022
4129 Clear 15 1016 47 10000 4.63 220 12:29 18.04.2022
4130 Clear 18 1016 27 10000 4.12 230 11:27 18.04.2022
4131 Clear 19 1016 23 10000 4.63 300 10:29 18.04.2022
4132 Clear 19 1017 23 10000 4.63 270 09:30 18.04.2022
4133 Rain 21 1017 21 10000 5.14 230 07:35 18.04.2022
4134 Haze 17 1019 35 9000 3.6 200 04:40 18.04.2022
4135 Clouds 11 1018 62 7000 1.54 180 23:42 17.04.2022
4136 Clouds 10 1018 71 7000 1.54 180 22:40 17.04.2022
4137 Clouds 10 1018 66 6000 2.57 170 21:42 17.04.2022
4138 Clouds 11 1018 66 6000 2.57 170 21:21 17.04.2022
4139 Clouds 9 1018 71 6000 3.6 140 20:32 17.04.2022
4140 Clouds 9 1019 76 6000 3.09 140 19:21 17.04.2022
4141 Clouds 10 1019 60 8000 1.03 180 17:38 17.04.2022
4142 Clouds 12 1019 53 8000 2.57 270 15:38 17.04.2022
4143 Clouds 12 1018 49 9000 2.06 200 14:54 17.04.2022
4144 Clear 14 1018 42 10000 1.54 260 13:45 17.04.2022
4145 Clear 16 1017 34 10000 3.09 230 12:56 17.04.2022
4146 Clear 17 1017 29 10000 4.12 280 11:53 17.04.2022
4147 Clear 19 1017 22 10000 4.63 220 10:40 17.04.2022
4148 Clear 18 1017 25 10000 4.63 220 10:19 17.04.2022
4149 Clear 20 1017 27 10000 5.14 250 09:23 17.04.2022
4150 Clear 20 1018 27 10000 5.66 230 08:41 17.04.2022
4151 Clear 19 1018 32 10000 3.09 230 06:53 17.04.2022
4152 Haze 14 1020 45 10000 2.06 180 03:53 17.04.2022
4153 Mist 6 1018 87 4000 1.54 150 00:55 17.04.2022
4154 Mist 5 1018 87 3000 2.57 160 23:49 16.04.2022
4155 Mist 5 1018 90 3000 3.09 160 22:27 16.04.2022
4156 Mist 4 1018 84 3000 3.6 140 21:29 16.04.2022
4157 Mist 7 1018 81 5000 1.54 190 19:54 16.04.2022
4158 Clear 7 1018 76 6000 1.54 190 18:54 16.04.2022
4159 Clear 8 1018 69 8000 2.57 210 17:38 16.04.2022
4160 Clear 9 1018 63 8000 2.06 190 16:31 16.04.2022
4161 Clear 10 1018 56 9000 2.06 180 15:26 16.04.2022
4162 Clear 11 1017 47 10000 2.57 220 14:47 16.04.2022
4163 Clear 12 1016 34 10000 3.09 200 13:55 16.04.2022
4164 Clear 12 1016 43 10000 3.09 200 13:25 16.04.2022
4165 Clear 16 1016 21 10000 5.66 260 11:58 16.04.2022
4166 Clear 17 1016 17 10000 7.2 260 10:37 16.04.2022
4167 Clear 18 1016 19 10000 7.72 260 09:39 16.04.2022
4168 Clear 19 1016 21 10000 6.17 280 08:54 16.04.2022
4169 Clear 18 1017 22 10000 4.12 270 07:31 16.04.2022
4170 Clear 19 1017 30 10000 4.12 270 06:18 16.04.2022
4171 Clear 10 1019 66 10000 1.54 190 01:53 16.04.2022
4172 Clear 4 1018 87 10000 1.03 340 23:53 15.04.2022
4173 Clear 5 1018 84 10000 0.51 310 22:52 15.04.2022
4174 Clear 5 1018 84 10000 0.51 310 22:31 15.04.2022
4175 Clear 6 1018 81 10000 2.06 350 21:35 15.04.2022
4176 Clear 6 1019 78 10000 1.54 320 20:44 15.04.2022
4177 Clear 7 1018 75 10000 3.09 330 19:49 15.04.2022
4178 Clear 7 1018 75 10000 3.09 330 19:30 15.04.2022
4179 Clear 8 1019 71 10000 2.57 310 18:45 15.04.2022
4180 Clear 8 1019 71 10000 2.57 310 18:23 15.04.2022
4181 Clear 9 1019 66 10000 2.06 320 17:28 15.04.2022
4182 Clear 10 1018 56 10000 2.57 360 16:25 15.04.2022
4183 Clear 10 1018 56 10000 2.57 360 16:25 15.04.2022
4184 Clear 11 1018 52 10000 2.57 10 15:52 15.04.2022
4185 Clear 12 1018 44 10000 6.17 30 14:20 15.04.2022
4186 Clear 14 1015 44 10000 4.12 280 12:53 15.04.2022
4187 Clear 14 1015 44 10000 4.12 280 12:26 15.04.2022
4188 Clear 15 1015 40 10000 5.14 270 11:52 15.04.2022
4189 Clear 17 1015 34 10000 6.69 280 10:48 15.04.2022
4190 Clear 16 1015 41 10000 6.69 280 10:21 15.04.2022
4191 Clear 17 1014 32 10000 6.69 270 09:23 15.04.2022
4192 Clear 18 1015 30 10000 5.66 280 08:49 15.04.2022
4193 Clear 18 1018 34 10000 4.12 300 06:51 15.04.2022
4194 Clear 16 1019 33 10000 2.06 10 04:49 15.04.2022
4195 Clear 6 1020 76 10000 2.06 330 00:51 15.04.2022
4196 Clear 5 1019 75 10000 2.06 320 23:28 14.04.2022
4197 Clear 6 1019 70 10000 2.06 360 22:46 14.04.2022
4198 Clear 6 1019 70 10000 2.06 360 22:27 14.04.2022
4199 Clear 8 1019 61 10000 2.57 90 21:50 14.04.2022
4200 Clear 9 1019 59 10000 3.09 20 19:51 14.04.2022
4201 Clear 9 1019 57 10000 3.09 20 19:22 14.04.2022
4202 Clear 10 1021 53 10000 2.06 70 17:46 14.04.2022
4203 Rain 11 1021 50 10000 2.06 70 17:18 14.04.2022
4204 Clear 12 1020 47 10000 3.6 100 16:21 14.04.2022
4205 Clear 12 1019 50 10000 2.57 110 13:54 14.04.2022
4206 Clear 12 1019 50 10000 2.57 110 13:25 14.04.2022
4207 Clear 14 1018 44 10000 4.12 100 12:33 14.04.2022
4208 Clear 14 1018 47 10000 4.12 120 11:47 14.04.2022
4209 Clouds 15 1019 48 10000 2.33 88 11:18 14.04.2022
4210 Clear 16 1017 41 10000 4.63 110 10:31 14.04.2022
4211 Clear 14 1018 49 10000 4.12 110 09:30 14.04.2022
4212 Clear 15 1017 44 10000 5.66 100 08:24 14.04.2022
4213 Rain 12 1019 56 10000 4.63 70 05:57 14.04.2022
4214 Clouds 11 1018 58 10000 6.17 80 01:23 14.04.2022
4215 Rain 11 1017 51 10000 4.63 90 22:38 13.04.2022
4216 Rain 11 1017 51 10000 4.63 90 22:38 13.04.2022
4217 Rain 11 1017 47 10000 5.66 100 21:43 13.04.2022
4218 Clouds 11 1017 50 10000 4.63 90 20:45 13.04.2022
4219 Rain 12 1017 43 10000 6.17 90 19:54 13.04.2022
4220 Rain 12 1017 43 10000 4.12 90 18:39 13.04.2022
4221 Rain 11 1017 48 10000 7.2 90 17:41 13.04.2022
4222 Rain 11 1017 48 10000 7.2 90 17:23 13.04.2022
4223 Clouds 12 1017 43 10000 6.69 100 16:18 13.04.2022
4224 Clouds 11 1017 54 10000 6.69 100 15:29 13.04.2022
4225 Clouds 11 1017 60 10000 7.72 100 14:40 13.04.2022
4226 Clouds 11 1016 60 10000 5.14 90 13:43 13.04.2022
4227 Clouds 11 1015 60 10000 5.66 100 12:52 13.04.2022
4228 Clouds 11 1015 56 10000 6.69 90 11:47 13.04.2022
4229 Clouds 11 1015 60 10000 7.72 90 10:31 13.04.2022
4230 Mist 11 1015 64 10000 6.69 110 08:45 13.04.2022
4231 Rain 12 1015 62 10000 7.72 80 07:57 13.04.2022
4232 Clouds 12 1015 66 10000 6.17 100 06:48 13.04.2022
4233 Clouds 12 1015 66 10000 6.17 100 06:24 13.04.2022
4234 Rain 12 1013 87 10000 4.12 10 01:51 13.04.2022
4235 Rain 12 1012 94 10000 3.09 360 00:19 13.04.2022
4236 Rain 13 1011 94 6000 3.09 360 22:33 12.04.2022
4237 Clouds 13 1011 94 7000 4.12 360 21:51 12.04.2022
4238 Mist 13 1012 100 2000 1.54 310 20:48 12.04.2022
4239 Rain 14 1011 97 3000 2.06 320 20:19 12.04.2022
4240 Mist 14 1011 91 3500 2.57 200 19:40 12.04.2022
4241 Rain 14 1011 91 3500 2.57 200 19:40 12.04.2022
4242 Rain 15 1011 88 4000 2.06 320 18:56 12.04.2022
4243 Mist 15 1011 88 4000 3.09 300 17:38 12.04.2022
4244 Mist 15 1011 88 4000 3.09 290 16:46 12.04.2022
4245 Clouds 16 1011 88 8000 4.12 200 15:34 12.04.2022
4246 Clouds 16 1010 85 8000 3.09 160 14:48 12.04.2022
4247 Clouds 16 1011 82 10000 2.57 310 13:45 12.04.2022
4248 Clouds 16 1011 82 10000 2.57 310 13:24 12.04.2022
4249 Clouds 17 1010 78 10000 4.12 280 11:57 12.04.2022
4250 Clouds 17 1010 78 10000 4.12 280 11:32 12.04.2022
4251 Clouds 24 1008 52 10000 6.17 190 09:47 12.04.2022
4252 Clouds 24 1009 52 10000 6.69 220 08:38 12.04.2022
4253 Clouds 24 1010 53 10000 7.2 200 06:46 12.04.2022
4254 Clouds 22 1011 57 10000 5.66 210 05:38 12.04.2022
4255 Mist 18 1011 83 7000 1.54 190 01:48 12.04.2022
4256 Mist 16 1012 94 1500 2.06 150 23:20 11.04.2022
4257 Drizzle 17 1012 88 4000 1.54 310 21:59 11.04.2022
4258 Drizzle 16 1012 94 4000 1.03 140 21:18 11.04.2022
4259 Mist 16 1012 88 3500 1.54 340 20:30 11.04.2022
4260 Mist 15 1012 94 3500 1.54 350 19:58 11.04.2022
4261 Mist 15 1012 94 3500 1.54 350 19:26 11.04.2022
4262 Mist 16 1012 94 4000 1.54 280 18:53 11.04.2022
4263 Mist 16 1012 86 5000 3.6 250 17:58 11.04.2022
4264 Mist 16 1012 86 5000 3.6 250 17:30 11.04.2022
4265 Clouds 16 1012 86 10000 1.03 50 16:25 11.04.2022
4266 Clear 18 1011 75 10000 2.57 280 14:40 11.04.2022
4267 Clear 19 1011 72 10000 1.54 300 13:19 11.04.2022
4268 Clear 22 1010 59 10000 4.12 290 12:36 11.04.2022
4269 Clear 23 1010 52 10000 3.09 290 11:54 11.04.2022
4270 Clear 25 1010 43 10000 4.12 240 10:35 11.04.2022
4271 Clear 26 1010 38 10000 4.63 240 09:34 11.04.2022
4272 Clear 25 1011 37 10000 4.63 240 07:24 11.04.2022
4273 Clouds 19 1015 50 10000 3.6 140 02:36 11.04.2022
4274 Clouds 12 1015 82 10000 0.51 250 22:58 10.04.2022
4275 Clouds 12 1015 82 10000 0.51 250 22:26 10.04.2022
4276 Clouds 12 1015 82 10000 0.51 260 21:35 10.04.2022
4277 Clouds 11 1015 82 10000 1.54 170 20:39 10.04.2022
4278 Clouds 12 1016 74 10000 0.51 280 19:46 10.04.2022
4279 Clouds 13 1016 76 10000 0.51 280 19:25 10.04.2022
4280 Clouds 11 1016 87 10000 1.03 320 18:45 10.04.2022
4281 Clear 12 1016 77 10000 1.03 310 17:56 10.04.2022
4282 Clear 12 1016 77 10000 1.03 310 17:56 10.04.2022
4283 Clear 12 1016 77 10000 1.03 310 17:37 10.04.2022
4284 Clear 14 1016 67 10000 1.54 30 16:33 10.04.2022
4285 Clear 14 1017 65 10000 1.03 70 15:30 10.04.2022
4286 Clear 16 1017 58 10000 0.51 250 14:25 10.04.2022
4287 Clear 19 1016 43 10000 5.14 290 12:35 10.04.2022
4288 Clear 20 1015 48 10000 5.66 230 11:49 10.04.2022
4289 Clear 20 1015 48 10000 5.66 230 11:29 10.04.2022
4290 Clear 23 1015 32 10000 4.63 240 10:54 10.04.2022
4291 Clear 23 1015 32 10000 4.63 240 10:54 10.04.2022
4292 Clear 24 1015 26 10000 4.12 240 09:56 10.04.2022
4293 Clear 24 1015 26 10000 4.12 240 09:37 10.04.2022
4294 Clear 24 1015 23 10000 5.66 260 08:22 10.04.2022
4295 Clear 24 1016 23 10000 4.63 260 07:27 10.04.2022
4296 Clear 23 1017 27 10000 3.6 210 05:46 10.04.2022
4297 Clear 18 1018 42 10000 4.12 180 02:21 10.04.2022
4298 Clear 10 1017 71 10000 2.57 150 00:25 10.04.2022
4299 Clear 8 1017 79 10000 1.03 210 23:43 09.04.2022
4300 Clear 9 1016 73 10000 1.03 180 22:45 09.04.2022
4301 Clear 9 1016 74 10000 0.51 30 21:35 09.04.2022
4302 Clear 10 1015 66 10000 1.54 160 20:48 09.04.2022
4303 Clear 10 1015 66 10000 1.54 160 20:25 09.04.2022
4304 Clear 12 1015 60 10000 3.09 140 19:41 09.04.2022
4305 Clear 13 1016 51 10000 3.09 170 18:55 09.04.2022
4306 Clear 14 1016 41 10000 3.09 170 18:19 09.04.2022
4307 Clear 14 1016 49 10000 2.57 180 17:34 09.04.2022
4308 Clear 15 1016 46 10000 3.09 180 16:47 09.04.2022
4309 Clear 16 1016 43 10000 4.12 180 15:55 09.04.2022
4310 Clear 17 1016 43 10000 4.12 180 15:28 09.04.2022
4311 Clear 17 1015 44 10000 3.6 190 14:27 09.04.2022
4312 Clear 17 1015 44 10000 3.6 190 14:27 09.04.2022
4313 Clear 18 1014 42 10000 4.12 180 13:47 09.04.2022
4314 Clear 19 1014 43 10000 3.09 200 12:59 09.04.2022
4315 Clear 21 1014 38 10000 7.72 210 11:56 09.04.2022
4316 Clear 22 1013 35 10000 8.23 200 10:55 09.04.2022
4317 Clear 22 1013 35 10000 8.23 200 10:19 09.04.2022
4318 Clear 23 1013 31 10000 6.69 210 09:36 09.04.2022
4319 Clear 24 1014 31 10000 8.75 210 08:45 09.04.2022
4320 Clear 22 1014 36 10000 8.75 210 05:35 09.04.2022
4321 Clouds 13 1015 38 10000 3.09 140 00:38 09.04.2022
4322 Clear 12 1015 42 10000 3.09 140 23:25 08.04.2022
4323 Clear 11 1015 50 10000 1.54 170 21:57 08.04.2022
4324 Clear 10 1015 54 10000 3.09 150 20:47 08.04.2022
4325 Clear 11 1015 49 10000 2.06 200 19:57 08.04.2022
4326 Clear 10 1015 50 10000 3.09 150 18:59 08.04.2022
4327 Clear 10 1015 50 10000 3.09 150 18:25 08.04.2022
4328 Clear 11 1016 52 10000 3.09 150 17:38 08.04.2022
4329 Clear 11 1016 50 10000 3.09 150 17:19 08.04.2022
4330 Clear 11 1016 52 10000 2.57 160 16:32 08.04.2022
4331 Clear 11 1017 52 10000 1.03 180 15:38 08.04.2022
4332 Clear 13 1017 46 10000 0.51 170 14:52 08.04.2022
4333 Clear 12 1017 47 10000 0.51 170 14:21 08.04.2022
4334 Clear 14 1016 38 10000 1.03 220 13:41 08.04.2022
4335 Clear 14 1016 38 10000 0.51 180 13:22 08.04.2022
4336 Clear 19 1016 27 10000 4.12 220 11:43 08.04.2022
4337 Clear 20 1016 25 10000 4.12 230 10:26 08.04.2022
4338 Clear 19 1017 27 10000 5.14 230 09:20 08.04.2022
4339 Clear 19 1019 24 10000 3.6 220 07:58 08.04.2022
4340 Clear 18 1020 25 10000 3.6 210 06:47 08.04.2022
4341 Clear 13 1022 37 10000 2.06 170 03:48 08.04.2022
4342 Clear 4 1021 84 10000 1.54 190 00:31 08.04.2022
4343 Clear 3 1021 81 10000 4.12 150 23:53 07.04.2022
4344 Clear 3 1021 87 10000 3.6 150 22:57 07.04.2022
4345 Clear 3 1021 87 10000 3.6 150 22:37 07.04.2022
4346 Clear 3 1021 87 10000 3.6 150 22:19 07.04.2022
4347 Clear 4 1021 81 10000 2.06 160 21:33 07.04.2022
4348 Clear 4 1020 81 10000 3.09 150 20:56 07.04.2022
4349 Clear 4 1020 81 10000 3.09 150 20:26 07.04.2022
4350 Clear 6 1020 66 10000 2.57 200 17:45 07.04.2022
4351 Clear 7 1020 76 10000 2.57 200 17:23 07.04.2022
4352 Clear 6 1020 62 10000 1.03 180 16:42 07.04.2022
4353 Clear 7 1020 56 10000 1.03 290 15:56 07.04.2022
4354 Clear 9 1019 44 10000 2.06 240 13:59 07.04.2022
4355 Clear 9 1019 44 10000 2.06 240 13:26 07.04.2022
4356 Clear 10 1018 53 10000 4.12 230 12:28 07.04.2022
4357 Clear 13 1017 20 10000 5.66 270 10:56 07.04.2022
4358 Clear 14 1016 25 10000 7.2 250 09:34 07.04.2022
4359 Clear 15 1016 25 10000 7.72 270 08:27 07.04.2022
4360 Clear 15 1017 33 10000 7.2 290 06:18 07.04.2022
4361 Clear 12 1018 38 10000 1.54 310 02:38 07.04.2022
4362 Clouds 9 1018 52 10000 1.54 320 00:47 07.04.2022
4363 Clouds 9 1018 49 10000 1.54 280 23:39 06.04.2022
4364 Clear 9 1018 49 10000 2.06 310 22:45 06.04.2022
4365 Clear 8 1018 57 10000 2.06 310 22:21 06.04.2022
4366 Rain 10 1019 41 10000 4.63 350 20:54 06.04.2022
4367 Rain 10 1019 41 10000 4.63 350 20:26 06.04.2022
4368 Clear 10 1019 44 10000 3.6 350 19:48 06.04.2022
4369 Clear 9 1019 66 10000 1.54 320 18:48 06.04.2022
4370 Clear 9 1020 51 10000 3.09 330 17:38 06.04.2022
4371 Clear 9 1020 61 10000 3.09 330 17:20 06.04.2022
4372 Clear 9 1019 49 10000 1.03 40 16:34 06.04.2022
4373 Clear 10 1020 47 10000 2.06 330 15:45 06.04.2022
4374 Clear 11 1020 39 10000 2.57 280 13:57 06.04.2022
4375 Clear 13 1020 35 10000 4.12 280 12:37 06.04.2022
4376 Clear 15 1019 30 10000 5.66 280 11:44 06.04.2022
4377 Clear 16 1019 25 10000 5.14 250 10:37 06.04.2022
4378 Clear 15 1019 31 10000 5.14 250 10:18 06.04.2022
4379 Clear 16 1020 23 10000 4.12 280 09:25 06.04.2022
4380 Clear 17 1021 25 10000 3.09 260 08:18 06.04.2022
4381 Clear 17 1022 29 10000 3.09 300 06:45 06.04.2022
4382 Mist 8 1023 76 5000 1.54 310 01:44 06.04.2022
4383 Mist 6 1022 78 4000 2.06 320 23:50 05.04.2022
4384 Clouds 7 1022 66 6000 1.03 170 21:59 05.04.2022
4385 Clouds 7 1022 71 6000 0.51 330 21:18 05.04.2022
4386 Clouds 8 1022 64 7000 1.03 310 20:24 05.04.2022
4387 Clear 9 1022 51 10000 2.06 290 18:45 05.04.2022
4388 Clear 9 1022 57 10000 2.06 260 17:22 05.04.2022
4389 Clear 9 1022 41 10000 1.03 230 16:44 05.04.2022
4390 Clear 10 1022 37 10000 2.06 300 15:52 05.04.2022
4391 Clear 10 1022 37 10000 2.06 300 15:31 05.04.2022
4392 Clear 11 1021 27 10000 2.57 230 13:55 05.04.2022
4393 Clear 11 1020 28 10000 2.57 270 12:41 05.04.2022
4394 Clear 13 1020 25 10000 3.6 250 11:43 05.04.2022
4395 Clear 12 1020 26 10000 3.6 250 11:25 05.04.2022
4396 Clear 15 1020 24 10000 4.63 240 09:41 05.04.2022
4397 Clear 16 1021 23 10000 4.12 270 08:51 05.04.2022
4398 Clear 14 1023 28 10000 3.09 210 04:25 05.04.2022
4399 Clouds 2 1025 72 6000 2.06 160 23:48 04.04.2022
4400 Clear 2 1024 76 7000 1.54 200 22:41 04.04.2022
4401 Clear 2 1024 74 9000 1.03 80 21:51 04.04.2022
4402 Clear 2 1024 87 9000 1.03 80 21:20 04.04.2022
4403 Clear 3 1025 79 7000 1.54 210 20:48 04.04.2022
4404 Clear 3 1025 71 10000 1.54 220 19:38 04.04.2022
4405 Clear 4 1026 65 10000 1.54 210 18:46 04.04.2022
4406 Clear 5 1027 65 10000 1.03 310 17:34 04.04.2022
4407 Clear 7 1026 57 10000 1.54 310 16:36 04.04.2022
4408 Clear 8 1026 49 10000 1.54 340 15:34 04.04.2022
4409 Clear 9 1026 43 10000 2.06 270 14:49 04.04.2022
4410 Clear 9 1026 43 10000 2.06 270 14:31 04.04.2022
4411 Clear 13 1027 37 10000 3.01 258 13:18 04.04.2022
4412 Clear 13 1026 24 10000 5.14 280 11:29 04.04.2022
4413 Clear 14 1027 25 10000 5.14 260 10:49 04.04.2022
4414 Clear 17 1028 24 10000 6.17 290 07:36 04.04.2022
4415 Clear 13 1029 44 6000 1.03 150 03:18 04.04.2022
4416 Mist 2 1029 87 3000 2.06 180 23:48 03.04.2022
4417 Mist 3 1029 84 3500 1.54 140 22:31 03.04.2022
4418 Mist 3 1029 84 3500 1.54 200 21:32 03.04.2022
4419 Mist 4 1028 84 4000 1.54 190 20:40 03.04.2022
4420 Mist 4 1028 82 4000 1.54 180 19:45 03.04.2022
4421 Mist 5 1028 73 5000 1.03 330 18:29 03.04.2022
4422 Clear 6 1029 71 6000 1.03 320 17:44 03.04.2022
4423 Clear 6 1028 69 6000 0.51 350 16:50 03.04.2022
4424 Clear 5 1028 81 6000 0.51 350 16:21 03.04.2022
4425 Clear 9 1028 61 7000 1.54 330 14:28 03.04.2022
4426 Clear 10 1028 51 9000 3.6 300 13:44 03.04.2022
4427 Clear 11 1027 50 10000 2.57 260 12:19 03.04.2022
4428 Clear 16 1026 28 10000 5.14 280 10:32 03.04.2022
4429 Clear 16 1026 31 10000 6.17 290 09:23 03.04.2022
4430 Clear 16 1027 29 10000 3.6 310 07:24 03.04.2022
4431 Clear 10 1029 41 10000 1.03 310 03:46 03.04.2022
4432 Clear 1 1029 83 8000 0.51 360 00:36 03.04.2022
4433 Clear 0 1028 93 6000 0.51 300 22:54 02.04.2022
4434 Mist 1 1028 83 5000 1.54 200 21:57 02.04.2022
4435 Mist 1 1028 83 5000 1.54 200 21:28 02.04.2022
4436 Clear 1 1028 81 6000 1.54 180 20:41 02.04.2022
4437 Clear 3 1028 76 9000 3.09 140 18:57 02.04.2022
4438 Clear 2 1028 87 9000 3.09 140 18:20 02.04.2022
4439 Clear 2 1028 87 9000 3.09 140 18:20 02.04.2022
4440 Clear 3 1028 74 10000 1.03 150 17:46 02.04.2022
4441 Clear 5 1028 75 10000 0.51 130 16:22 02.04.2022
4442 Clear 6 1027 70 10000 1.54 260 15:21 02.04.2022
4443 Clear 6 1027 55 10000 1.54 290 14:43 02.04.2022
4444 Clear 7 1027 50 10000 1.03 290 13:34 02.04.2022
4445 Clear 9 1026 41 10000 3.09 290 12:37 02.04.2022
4446 Clear 11 1026 30 10000 4.12 250 10:56 02.04.2022
4447 Clear 13 1026 35 10000 5.66 280 08:44 02.04.2022
4448 Clear 14 1027 29 10000 4.12 250 06:43 02.04.2022
4449 Clear 10 1029 47 10000 1.03 240 03:31 02.04.2022
4450 Clear 1 1028 81 10000 3.09 140 23:55 01.04.2022
4451 Clear 2 1028 79 10000 2.06 210 22:55 01.04.2022
4452 Clear 1 1028 86 10000 1.03 130 21:31 01.04.2022
4453 Clear 2 1028 93 10000 0 0 20:50 01.04.2022
4454 Clear 2 1029 72 10000 1.54 190 19:51 01.04.2022
4455 Clear 2 1029 72 10000 1.54 190 19:27 01.04.2022
4456 Clear 3 1029 69 10000 1.54 200 18:42 01.04.2022
4457 Clear 3 1028 73 10000 1.03 310 17:46 01.04.2022
4458 Clear 5 1029 59 10000 1.54 290 16:34 01.04.2022
4459 Clear 6 1028 49 10000 0.51 280 15:19 01.04.2022
4460 Clear 6 1028 56 10000 1.03 190 14:18 01.04.2022
4461 Clear 9 1028 42 10000 3.09 290 13:32 01.04.2022
4462 Clear 10 1028 32 10000 3.09 280 12:32 01.04.2022
4463 Clear 11 1027 43 10000 5.66 270 11:18 01.04.2022
4464 Clear 14 1028 31 10000 5.66 270 09:53 01.04.2022
4465 Clouds 14 1028 29 10000 4.12 300 07:50 01.04.2022
4466 Clouds 14 1029 22 10000 3.6 30 06:30 01.04.2022
4467 Clouds 12 1031 36 10000 1.54 70 04:45 01.04.2022
4468 Clear 11 1031 46 10000 2.57 100 03:21 01.04.2022
4469 Clear 7 1030 70 10000 2.06 10 01:53 01.04.2022
4470 Clear 3 1029 84 10000 2.06 340 22:56 31.03.2022
4471 Clear 4 1029 87 10000 1.03 360 21:49 31.03.2022
4472 Clear 3 1029 93 10000 1.03 360 21:21 31.03.2022
4473 Clear 4 1028 81 10000 1.54 330 20:28 31.03.2022
4474 Clear 5 1028 81 10000 1.54 310 19:44 31.03.2022
4475 Clear 6 1028 73 10000 2.57 320 18:38 31.03.2022
4476 Clear 6 1028 70 10000 2.57 20 17:25 31.03.2022
4477 Clear 9 1027 59 10000 4.12 30 15:58 31.03.2022
4478 Clear 9 1027 59 10000 4.12 30 15:29 31.03.2022
4479 Clear 10 1026 53 10000 4.63 360 14:52 31.03.2022
4480 Clear 10 1026 53 10000 4.63 360 14:19 31.03.2022
4481 Clear 14 1023 41 10000 4.12 360 11:31 31.03.2022
4482 Clear 14 1023 41 10000 4.63 340 10:27 31.03.2022
4483 Clouds 15 1023 43 10000 6.17 320 09:43 31.03.2022
4484 Clouds 14 1023 49 10000 5.14 320 07:49 31.03.2022
4485 Clouds 11 1025 64 10000 2.57 30 03:48 31.03.2022
4486 Mist 9 1023 79 10000 3.09 340 23:25 30.03.2022
4487 Clouds 9 1022 87 8000 3.09 330 22:19 30.03.2022
4488 Mist 9 1022 87 5000 3.6 350 21:31 30.03.2022
4489 Mist 10 1021 85 4000 3.09 290 20:44 30.03.2022
4490 Mist 10 1021 85 4500 2.06 310 19:54 30.03.2022
4491 Mist 10 1021 88 4500 2.06 290 18:44 30.03.2022
4492 Mist 10 1021 85 5000 2.57 300 17:52 30.03.2022
4493 Mist 9 1021 87 5000 2.57 300 17:23 30.03.2022
4494 Mist 11 1021 85 5000 3.6 320 16:41 30.03.2022
4495 Mist 11 1020 85 5000 3.09 330 15:59 30.03.2022
4496 Rain 11 1020 85 5000 2.57 300 14:36 30.03.2022
4497 Rain 12 1019 79 9000 2.06 300 13:22 30.03.2022
4498 Clouds 11 1019 87 9000 2.57 290 12:22 30.03.2022
4499 Clouds 13 1018 77 9000 1.54 330 10:48 30.03.2022
4500 Clouds 13 1018 77 8000 1.54 70 09:55 30.03.2022
4501 Mist 13 1019 77 5000 2.57 330 08:21 30.03.2022
4502 Clouds 15 1020 57 10000 4.63 210 06:50 30.03.2022
4503 Clouds 15 1020 51 10000 1.54 120 05:40 30.03.2022
4504 Clouds 8 1022 76 10000 2.06 210 01:48 30.03.2022
4505 Clear 4 1022 87 10000 2.06 210 22:39 29.03.2022
4506 Clear 4 1022 84 10000 2.06 190 21:48 29.03.2022
4507 Clear 3 1022 87 10000 0.51 230 21:20 29.03.2022
4508 Clear 4 1023 87 10000 1.03 330 20:25 29.03.2022
4509 Clear 5 1023 84 10000 2.06 320 19:27 29.03.2022
4510 Clear 6 1022 82 10000 2.06 320 18:53 29.03.2022
4511 Clear 7 1022 79 10000 1.54 310 17:40 29.03.2022
4512 Clear 7 1022 79 10000 0.51 20 16:59 29.03.2022
4513 Clear 7 1022 79 10000 0.51 20 16:25 29.03.2022
4514 Clear 9 1023 63 10000 0.51 270 14:58 29.03.2022
4515 Clear 9 1023 63 10000 0.51 270 14:39 29.03.2022
4516 Clear 10 1022 58 10000 2.06 300 13:30 29.03.2022
4517 Clear 13 1023 47 10000 4.12 300 11:46 29.03.2022
4518 Clear 14 1023 43 10000 4.12 300 10:59 29.03.2022
4519 Clear 15 1024 39 10000 4.12 280 09:50 29.03.2022
4520 Clouds 15 1024 38 10000 3.6 300 08:20 29.03.2022
4521 Clear 14 1026 39 10000 3.09 230 05:38 29.03.2022
4522 Clear 6 1027 53 10000 0.51 160 01:25 29.03.2022
4523 Clear 1 1026 66 10000 1.54 140 23:25 28.03.2022
4524 Clear 1 1025 62 10000 3.09 150 22:54 28.03.2022
4525 Clear 1 1025 62 10000 3.09 150 22:28 28.03.2022
4526 Clear 2 1026 68 10000 3.09 240 20:59 28.03.2022
4527 Clear 2 1026 68 10000 3.09 240 20:31 28.03.2022
4528 Clear 2 1027 68 10000 1.03 70 19:46 28.03.2022
4529 Clear 2 1027 68 10000 1.03 70 19:28 28.03.2022
4530 Clear 3 1027 66 10000 1.03 220 18:40 28.03.2022
4531 Clear 2 1027 75 10000 1.03 260 17:39 28.03.2022
4532 Clear 4 1027 55 10000 1.03 340 16:33 28.03.2022
4533 Clear 7 1027 42 10000 2.06 300 14:48 28.03.2022
4534 Clear 6 1027 45 10000 2.06 300 14:21 28.03.2022
4535 Clear 9 1026 31 10000 2.57 270 12:24 28.03.2022
4536 Clear 11 1025 32 10000 4.63 280 11:31 28.03.2022
4537 Clear 14 1024 20 10000 4.63 290 09:43 28.03.2022
4538 Clear 13 1024 26 10000 4.63 290 09:19 28.03.2022
4539 Clear 16 1025 8 10000 1.14 280 08:22 28.03.2022
4540 Clear 14 1026 16 10000 1.54 220 07:28 28.03.2022
4541 Clear 9 1027 30 10000 1.54 30 03:52 28.03.2022
4542 Clear -1 1025 86 10000 0.51 340 23:30 27.03.2022
4543 Clear -1 1024 75 10000 1.54 310 22:24 27.03.2022
4544 Clear 0 1024 67 10000 1.03 200 21:42 27.03.2022
4545 Clear 0 1024 62 10000 1.03 350 20:57 27.03.2022
4546 Clear 1 1023 64 10000 1.54 70 19:48 27.03.2022
4547 Clear 1 1023 64 10000 1.54 70 19:20 27.03.2022
4548 Clear 2 1023 50 10000 1.03 160 18:27 27.03.2022
4549 Clear 3 1023 48 10000 0.51 280 17:39 27.03.2022
4550 Clear 4 1022 36 10000 2.06 330 16:28 27.03.2022
4551 Clear 4 1022 38 10000 2.06 320 15:21 27.03.2022
4552 Clear 7 1019 31 10000 6.17 310 13:55 27.03.2022
4553 Clear 7 1018 28 10000 6.69 310 12:24 27.03.2022
4554 Clear 10 1015 27 10000 8.23 330 10:53 27.03.2022
4555 Clear 12 1014 33 10000 8.23 290 08:43 27.03.2022
4556 Clear 11 1015 45 10000 7.72 320 05:54 27.03.2022
4557 Clear 6 1014 78 10000 1.54 150 00:47 27.03.2022
4558 Clear 3 1014 87 10000 2.57 150 23:34 26.03.2022
4559 Clear 4 1013 81 10000 2.06 170 22:35 26.03.2022
4560 Clear 3 1013 84 10000 3.09 150 21:33 26.03.2022
4561 Clear 2 1013 87 10000 3.09 150 20:20 26.03.2022
4562 Clear 6 1013 70 10000 2.57 210 19:19 26.03.2022
4563 Clear 7 1012 66 10000 1.54 260 17:47 26.03.2022
4564 Clear 7 1012 66 10000 1.54 260 17:28 26.03.2022
4565 Clear 9 1012 57 10000 1.54 360 16:24 26.03.2022
4566 Clear 10 1010 57 10000 2.57 260 14:51 26.03.2022
4567 Clear 11 1009 56 10000 2.06 250 13:52 26.03.2022
4568 Clear 12 1007 60 10000 3.6 280 12:44 26.03.2022
4569 Clear 12 1006 69 10000 4.63 280 11:28 26.03.2022
4570 Clouds 15 1004 63 10000 4.63 320 09:23 26.03.2022
4571 Clouds 15 1004 65 10000 5.14 310 08:28 26.03.2022
4572 Clouds 12 1002 82 10000 4.63 330 05:54 26.03.2022
4573 Clouds 11 999 84 10000 2.06 290 03:58 26.03.2022
4574 Rain 10 996 100 5000 4.63 250 23:21 25.03.2022
4575 Rain 13 996 94 2500 4.63 160 20:59 25.03.2022
4576 Rain 13 996 94 2500 4.63 160 20:38 25.03.2022
4577 Mist 13 998 94 3000 4.63 170 19:27 25.03.2022
4578 Rain 13 1000 88 4500 5.14 140 18:37 25.03.2022
4579 Rain 13 1001 88 4000 7.2 120 17:35 25.03.2022
4580 Rain 12 1003 91 4000 6.17 120 16:41 25.03.2022
4581 Rain 12 1005 87 4000 7.72 100 15:50 25.03.2022
4582 Mist 12 1010 77 4000 6.69 100 13:40 25.03.2022
4583 Rain 15 1010 58 6000 6.17 110 12:20 25.03.2022
4584 Haze 18 1012 47 10000 4.63 150 09:47 25.03.2022
4585 Clouds 18 1013 36 10000 3.86 144 09:19 25.03.2022
4586 Haze 18 1014 44 9000 5.14 130 07:48 25.03.2022
4587 Rain 18 1014 45 9000 5.14 130 07:21 25.03.2022
4588 Haze 15 1017 46 6000 4.63 220 04:35 25.03.2022
4589 Mist 4 1020 93 3500 1.54 180 23:55 24.03.2022
4590 Mist 4 1020 87 4000 0.51 10 22:24 24.03.2022
4591 Mist 4 1020 87 4500 1.54 230 21:29 24.03.2022
4592 Mist 5 1021 87 5000 1.54 100 19:50 24.03.2022
4593 Mist 5 1021 87 5000 1.03 310 18:46 24.03.2022
4594 Mist 6 1020 78 7000 1.54 150 17:38 24.03.2022
4595 Clear 6 1021 81 8000 1.54 190 16:41 24.03.2022
4596 Clear 7 1021 78 10000 0.51 340 14:58 24.03.2022
4597 Clear 7 1021 78 10000 0.51 340 14:39 24.03.2022
4598 Clouds 8 1020 76 10000 1.03 260 13:36 24.03.2022
4599 Clouds 10 1020 66 10000 1.03 60 12:35 24.03.2022
4600 Clouds 10 1020 62 10000 2.57 250 11:31 24.03.2022
4601 Clouds 13 1018 56 8000 3.09 250 09:34 24.03.2022
4602 Clouds 12 1018 58 8000 4.63 230 08:39 24.03.2022
4603 Clouds 9 1020 64 9000 3.09 190 05:45 24.03.2022
4604 Clouds 5 1019 73 10000 3.6 150 00:47 24.03.2022
4605 Clouds 4 1018 81 10000 3.6 140 22:23 23.03.2022
4606 Clouds 3 1018 78 10000 3.09 130 21:24 23.03.2022
4607 Clear 3 1017 75 10000 4.63 140 20:44 23.03.2022
4608 Clear 3 1018 73 10000 3.6 160 19:33 23.03.2022
4609 Clear 4 1018 70 10000 2.57 170 18:18 23.03.2022
4610 Clear 5 1018 65 10000 2.06 190 17:25 23.03.2022
4611 Clouds 6 1017 51 10000 3.09 220 15:56 23.03.2022
4612 Clouds 6 1017 51 10000 2.06 190 14:48 23.03.2022
4613 Clouds 6 1017 53 10000 1.54 220 13:34 23.03.2022
4614 Clouds 6 1017 53 10000 2.06 250 11:33 23.03.2022
4615 Clear 7 1017 48 10000 4.12 230 08:41 23.03.2022
4616 Clear 7 1018 40 10000 2.57 250 05:50 23.03.2022
4617 Clouds 7 1019 51 10000 3.09 270 02:50 23.03.2022
4618 Clear 5 1019 73 10000 2.57 300 00:26 23.03.2022
4619 Clear 4 1019 73 10000 1.54 180 21:52 22.03.2022
4620 Clear 4 1019 75 10000 0.51 130 21:23 22.03.2022
4621 Clear 4 1019 70 10000 0.51 80 20:23 22.03.2022
4622 Clear 3 1020 74 10000 1.03 310 19:27 22.03.2022
4623 Clear 4 1020 76 10000 2.06 210 18:48 22.03.2022
4624 Clear 3 1020 73 10000 0.51 100 17:44 22.03.2022
4625 Clear 4 1020 75 10000 0.51 340 16:58 22.03.2022
4626 Clear 5 1020 66 10000 1.54 20 15:42 22.03.2022
4627 Clouds 5 1021 38 10000 0.9 310 15:20 22.03.2022
4628 Clear 5 1021 62 10000 1.54 310 14:44 22.03.2022
4629 Clear 6 1021 61 10000 2.06 10 13:42 22.03.2022
4630 Clear 6 1021 61 10000 2.57 290 12:18 22.03.2022
4631 Clear 8 1021 57 10000 3.6 260 11:20 22.03.2022
4632 Clear 12 1020 34 10000 6.17 280 09:28 22.03.2022
4633 Clear 13 1021 27 10000 3.09 330 07:30 22.03.2022
4634 Clear 9 1025 42 10000 2.57 300 03:57 22.03.2022
4635 Clear 2 1024 67 10000 1.54 310 00:50 22.03.2022
4636 Clear 0 1024 74 10000 1.03 330 22:48 21.03.2022
4637 Clear 0 1023 77 10000 2.06 320 21:37 21.03.2022
4638 Clear 1 1023 69 10000 2.06 310 20:44 21.03.2022
4639 Clear 0 1023 74 10000 2.06 310 20:23 21.03.2022
4640 Clear 2 1023 65 10000 2.06 310 19:45 21.03.2022
4641 Clear 2 1023 65 10000 3.09 330 18:48 21.03.2022
4642 Clear 3 1023 61 10000 3.09 330 17:36 21.03.2022
4643 Clear 4 1023 55 10000 2.57 350 16:59 21.03.2022
4644 Clear 3 1023 65 10000 2.57 350 16:27 21.03.2022
4645 Clear 4 1024 48 10000 2.06 320 15:43 21.03.2022
4646 Clear 5 1024 41 10000 2.57 320 14:36 21.03.2022
4647 Clear 5 1024 42 10000 1.54 340 13:20 21.03.2022
4648 Clear 6 1023 36 10000 3.09 310 11:58 21.03.2022
4649 Clear 6 1023 38 10000 3.09 310 11:25 21.03.2022
4650 Clear 8 1023 33 10000 4.12 270 09:49 21.03.2022
4651 Clear 9 1023 32 10000 5.14 290 07:33 21.03.2022
4652 Clear 10 1024 30 10000 1.54 270 05:56 21.03.2022
4653 Clear 3 1025 60 10000 1.03 20 01:39 21.03.2022
4654 Clear -2 1025 80 10000 1.54 290 22:57 20.03.2022
4655 Clear -2 1025 80 10000 1.54 290 22:25 20.03.2022
4656 Clear -1 1024 77 10000 0.51 290 21:37 20.03.2022
4657 Clear -1 1024 80 10000 1.54 20 20:55 20.03.2022
4658 Clear -1 1024 80 10000 1.54 20 20:29 20.03.2022
4659 Clear -1 1025 77 10000 0.51 320 19:49 20.03.2022
4660 Clear -1 1025 74 10000 0.51 320 19:19 20.03.2022
4661 Clear 1 1024 60 10000 1.54 300 17:44 20.03.2022
4662 Clear 1 1024 60 10000 1.54 300 17:24 20.03.2022
4663 Clear 2 1022 62 10000 3.6 300 15:58 20.03.2022
4664 Clear 3 1022 56 10000 3.6 300 14:38 20.03.2022
4665 Clear 4 1021 58 10000 3.09 280 13:38 20.03.2022
4666 Clear 5 1019 51 10000 3.6 260 11:58 20.03.2022
4667 Clear 8 1018 41 10000 5.66 280 09:59 20.03.2022
4668 Clear 9 1018 43 10000 5.66 240 08:20 20.03.2022
4669 Clouds 9 1018 44 10000 4.63 270 05:49 20.03.2022
4670 Clouds 6 1019 61 10000 4.12 270 03:18 20.03.2022
4671 Mist 4 1019 78 10000 1.03 340 00:53 20.03.2022
4672 Mist 3 1018 90 7000 1.03 220 23:37 19.03.2022
4673 Mist 3 1017 90 4500 2.06 150 21:58 19.03.2022
4674 Mist 3 1017 90 4500 2.06 150 21:25 19.03.2022
4675 Clouds 4 1017 87 10000 2.57 210 19:22 19.03.2022
4676 Clouds 3 1017 90 10000 2.06 210 18:30 19.03.2022
4677 Clouds 2 1016 90 10000 1.54 250 17:48 19.03.2022
4678 Clouds 2 1015 87 10000 1.54 180 16:46 19.03.2022
4679 Clouds 3 1015 75 10000 1.54 350 15:22 19.03.2022
4680 Clear 4 1013 78 10000 2.57 30 13:40 19.03.2022
4681 Clouds 4 1013 84 10000 2.06 20 12:42 19.03.2022
4682 Clouds 5 1013 75 10000 2.06 20 12:19 19.03.2022
4683 Clouds 5 1013 81 10000 1.54 350 11:42 19.03.2022
4684 Clouds 6 1010 75 10000 3.09 30 08:57 19.03.2022
4685 Rain 3 1007 90 7000 5.14 90 04:42 19.03.2022
4686 Rain 2 1005 93 6000 4.63 120 02:32 19.03.2022
4687 Snow 1 1005 93 4000 4.12 110 23:50 18.03.2022
4688 Snow 2 1005 90 7000 4.12 120 22:43 18.03.2022
4689 Snow 2 1005 93 7000 4.12 120 22:20 18.03.2022
4690 Rain 3 1006 87 8000 4.63 130 20:25 18.03.2022
4691 Rain 4 1007 81 8000 6.17 140 19:23 18.03.2022
4692 Rain 6 1007 56 10000 4.63 120 18:34 18.03.2022
4693 Rain 6 1008 54 10000 4.63 100 16:52 18.03.2022
4694 Rain 6 1009 55 10000 5.14 80 15:52 18.03.2022
4695 Rain 7 1009 53 10000 4.63 100 14:25 18.03.2022
4696 Clouds 7 1009 53 10000 4.63 100 13:18 18.03.2022
4697 Clouds 8 1009 49 10000 5.14 80 11:28 18.03.2022
4698 Clear 9 1009 48 10000 5.14 100 09:41 18.03.2022
4699 Clouds 9 1009 50 10000 4.63 90 08:45 18.03.2022
4700 Clouds 10 1011 50 10000 4.12 90 06:42 18.03.2022
4701 Clouds 9 1012 55 10000 5.14 70 04:38 18.03.2022
4702 Clouds 7 1013 63 10000 5.14 80 00:54 18.03.2022
4703 Clouds 8 1013 61 10000 5.14 70 23:52 17.03.2022
4704 Clouds 8 1013 61 10000 5.14 70 23:52 17.03.2022
4705 Clouds 8 1013 61 10000 6.17 90 22:26 17.03.2022
4706 Clouds 8 1014 61 10000 4.12 50 21:51 17.03.2022
4707 Clouds 8 1014 61 10000 4.12 50 21:27 17.03.2022
4708 Rain 7 1014 65 10000 4.12 80 20:52 17.03.2022
4709 Rain 8 1015 66 10000 4.12 90 19:55 17.03.2022
4710 Rain 8 1015 66 10000 4.12 90 19:33 17.03.2022
4711 Rain 8 1016 66 10000 5.66 90 18:51 17.03.2022
4712 Rain 7 1017 68 10000 6.17 90 17:26 17.03.2022
4713 Rain 8 1018 68 10000 7.2 90 15:52 17.03.2022
4714 Rain 8 1018 68 10000 7.2 90 15:34 17.03.2022
4715 Rain 9 1018 62 10000 5.14 60 14:55 17.03.2022
4716 Rain 10 1019 56 10000 4.86 74 13:22 17.03.2022
4717 Rain 11 1017 65 8000 4.63 160 12:38 17.03.2022
4718 Clouds 12 1017 60 6000 5.14 170 11:30 17.03.2022
4719 Rain 13 1017 54 8000 5.14 180 10:34 17.03.2022
4720 Clear 15 1017 42 10000 3.6 180 08:41 17.03.2022
4721 Clear 15 1017 42 10000 3.6 100 07:52 17.03.2022
4722 Clear 14 1019 46 10000 3.09 90 05:48 17.03.2022
4723 Clouds 12 1021 56 9000 4.12 10 03:41 17.03.2022
4724 Clear 8 1020 64 10000 4.12 360 23:57 16.03.2022
4725 Clouds 8 1021 71 9000 3.09 320 22:51 16.03.2022
4726 Clouds 8 1021 71 9000 3.09 320 22:33 16.03.2022
4727 Clouds 8 1020 74 9000 4.12 340 21:46 16.03.2022
4728 Clear 8 1021 74 10000 1.54 280 20:26 16.03.2022
4729 Clear 7 1020 70 10000 3.6 330 19:21 16.03.2022
4730 Clear 9 1020 66 10000 3.6 320 18:38 16.03.2022
4731 Clear 9 1020 67 10000 5.14 330 17:43 16.03.2022
4732 Clear 8 1020 71 10000 5.14 330 17:20 16.03.2022
4733 Clouds 10 1020 67 8000 3.6 320 15:56 16.03.2022
4734 Clouds 10 1020 67 8000 2.06 290 14:28 16.03.2022
4735 Clouds 10 1019 67 8000 1.54 330 13:32 16.03.2022
4736 Clouds 12 1017 59 9000 3.09 300 11:57 16.03.2022
4737 Clouds 12 1017 59 9000 3.09 300 11:21 16.03.2022
4738 Clear 13 1017 58 10000 3.6 300 10:23 16.03.2022
4739 Clear 15 1016 44 10000 4.12 290 09:42 16.03.2022
4740 Clear 15 1016 41 10000 1.54 280 06:27 16.03.2022
4741 Mist 6 1018 79 3500 1.03 310 01:56 16.03.2022
4742 Mist 1 1015 93 2500 1.54 340 22:41 15.03.2022
4743 Mist 1 1015 93 2500 1.54 340 22:18 15.03.2022
4744 Mist 2 1014 90 4000 2.06 310 20:33 15.03.2022
4745 Mist 3 1014 87 4500 1.03 290 18:58 15.03.2022
4746 Mist 4 1014 81 5000 1.03 240 16:59 15.03.2022
4747 Mist 4 1014 81 5000 1.03 240 16:32 15.03.2022
4748 Clouds 4 1015 81 6000 1.54 360 15:21 15.03.2022
4749 Haze 6 1014 71 6000 4.12 300 14:40 15.03.2022
4750 Haze 6 1014 71 6000 3.09 300 13:46 15.03.2022
4751 Haze 8 1012 66 6000 1.54 260 12:24 15.03.2022
4752 Clouds 10 1012 60 6000 3.09 240 11:31 15.03.2022
4753 Clouds 12 1012 47 9000 2.57 230 09:45 15.03.2022
4754 Clear 13 1013 44 8000 2.06 250 08:42 15.03.2022
4755 Clouds 12 1014 47 8000 1.54 260 07:51 15.03.2022
4756 Clouds 12 1014 50 8000 1.54 260 07:28 15.03.2022
4757 Mist 7 1016 70 9000 3.09 170 03:30 15.03.2022
4758 Mist 1 1016 93 5000 1.03 230 23:40 14.03.2022
4759 Mist 0 1016 93 5000 1.03 230 23:21 14.03.2022
4760 Mist 1 1015 93 5000 1.54 30 22:26 14.03.2022
4761 Clouds 1 1016 93 6000 0.51 200 21:26 14.03.2022
4762 Clouds 1 1015 93 6000 1.03 270 20:41 14.03.2022
4763 Clear 1 1015 93 6000 1.03 270 20:19 14.03.2022
4764 Mist 4 1014 81 10000 2.57 280 18:42 14.03.2022
4765 Mist 5 1014 78 10000 4.63 290 17:54 14.03.2022
4766 Mist 5 1014 78 10000 2.06 270 16:58 14.03.2022
4767 Mist 6 1013 82 10000 3.09 260 15:37 14.03.2022
4768 Mist 6 1013 82 8000 3.09 270 14:38 14.03.2022
4769 Clouds 7 1011 81 8000 5.14 260 12:21 14.03.2022
4770 Mist 7 1010 90 6000 4.12 250 10:50 14.03.2022
4771 Mist 7 1010 90 2500 4.63 280 09:41 14.03.2022
4772 Mist 7 1010 93 2500 4.63 280 09:20 14.03.2022
4773 Mist 7 1010 90 2800 4.12 270 08:55 14.03.2022
4774 Rain 8 1009 93 4000 6.69 250 07:21 14.03.2022
4775 Mist 9 1010 87 5000 7.72 230 05:22 14.03.2022
4776 Clouds 10 1012 85 10000 3.09 240 01:52 14.03.2022
4777 Rain 10 1012 87 10000 0.51 360 01:20 14.03.2022
4778 Clouds 8 1012 93 10000 2.06 360 22:42 13.03.2022
4779 Clouds 7 1012 93 10000 2.06 330 21:28 13.03.2022
4780 Mist 8 1013 96 10000 1.03 290 20:55 13.03.2022
4781 Mist 8 1013 96 10000 1.03 290 20:29 13.03.2022
4782 Mist 8 1013 93 3500 2.57 360 19:48 13.03.2022
4783 Mist 8 1013 93 3500 2.57 360 19:25 13.03.2022
4784 Fog 9 1013 93 1200 3.09 310 18:50 13.03.2022
4785 Fog 8 1013 93 1200 3.09 310 18:27 13.03.2022
4786 Fog 9 1013 100 1500 1.54 40 17:40 13.03.2022
4787 Mist 10 1013 96 3000 2.06 360 16:48 13.03.2022
4788 Mist 10 1013 96 3000 2.06 360 16:27 13.03.2022
4789 Mist 9 1014 100 3000 2.06 340 15:44 13.03.2022
4790 Mist 9 1014 96 3000 3.6 300 14:49 13.03.2022
4791 Fog 10 1013 96 5000 2.06 330 13:30 13.03.2022
4792 Clouds 10 1012 100 7000 0.51 300 12:26 13.03.2022
4793 Mist 12 1012 90 9000 1.54 310 11:45 13.03.2022
4794 Mist 12 1011 91 9000 1.03 300 10:51 13.03.2022
4795 Mist 12 1011 91 9000 1.03 300 10:30 13.03.2022
4796 Mist 13 1010 88 8000 1.54 350 09:43 13.03.2022
4797 Mist 13 1010 85 5000 1.03 180 08:50 13.03.2022
4798 Mist 13 1010 82 5000 1.03 180 08:31 13.03.2022
4799 Mist 12 1010 87 3500 2.06 350 07:34 13.03.2022
4800 Mist 12 1010 91 1500 0.51 330 04:59 13.03.2022
4801 Drizzle 11 1011 97 700 2.57 320 01:48 13.03.2022
4802 Mist 12 1010 93 1500 2.57 230 23:28 12.03.2022
4803 Rain 12 1010 94 2000 3.09 210 21:43 12.03.2022
4804 Rain 11 1010 93 4000 4.12 220 20:20 12.03.2022
4805 Rain 11 1011 94 10000 6.17 200 19:46 12.03.2022
4806 Rain 11 1012 97 2500 6.17 220 18:41 12.03.2022
4807 Rain 12 1011 91 2500 5.14 200 17:53 12.03.2022
4808 Rain 11 1012 93 3000 4.12 320 16:28 12.03.2022
4809 Rain 12 1012 83 3000 4.12 320 16:28 12.03.2022
4810 Rain 14 1012 82 4000 5.14 300 15:50 12.03.2022
4811 Rain 12 1012 87 4000 5.14 300 15:21 12.03.2022
4812 Rain 14 1012 91 3000 4.12 200 13:53 12.03.2022
4813 Rain 15 1013 86 4000 5.14 210 12:27 12.03.2022
4814 Rain 16 1012 80 8000 5.14 210 11:52 12.03.2022
4815 Clouds 15 1012 80 8000 5.14 210 11:32 12.03.2022
4816 Rain 16 1013 70 8000 5.14 220 10:24 12.03.2022
4817 Haze 17 1013 64 8000 5.66 210 09:41 12.03.2022
4818 Haze 19 1013 50 8000 5.66 200 07:52 12.03.2022
4819 Haze 19 1014 47 8000 6.17 210 06:30 12.03.2022
4820 Mist 4 1018 100 2500 0.51 330 00:31 12.03.2022
4821 Mist 2 1018 97 2500 1.54 340 23:38 11.03.2022
4822 Fog 2 1017 90 1200 2.06 190 22:29 11.03.2022
4823 Mist 1 1017 100 1500 1.03 330 21:23 11.03.2022
4824 Mist 2 1017 93 2000 1.03 20 20:42 11.03.2022
4825 Mist 2 1017 93 2000 1.03 20 20:22 11.03.2022
4826 Mist 3 1018 90 2000 1.03 320 19:29 11.03.2022
4827 Mist 6 1018 84 3500 0.51 310 17:50 11.03.2022
4828 Mist 5 1018 87 3500 0.51 310 17:21 11.03.2022
4829 Mist 6 1018 93 3500 1.54 310 15:57 11.03.2022
4830 Mist 6 1018 93 3500 1.54 310 15:29 11.03.2022
4831 Haze 10 1018 74 5000 2.06 350 13:27 11.03.2022
4832 Clouds 13 1019 45 10000 1.37 247 12:23 11.03.2022
4833 Clouds 13 1017 61 8000 2.06 300 11:56 11.03.2022
4834 Clouds 14 1017 58 8000 2.57 280 10:24 11.03.2022
4835 Clouds 16 1016 55 8000 5.14 300 09:27 11.03.2022
4836 Clouds 18 1016 45 8000 3.09 360 08:24 11.03.2022
4837 Clouds 18 1016 46 8000 1.54 40 07:46 11.03.2022
4838 Clouds 16 1018 48 8000 1.54 230 05:49 11.03.2022
4839 Clouds 14 1019 47 7000 2.06 70 04:22 11.03.2022
4840 Mist 2 1019 81 5000 1.03 260 23:49 10.03.2022
4841 Mist 2 1019 79 3000 1.54 310 22:31 10.03.2022
4842 Mist 2 1019 76 4000 1.03 20 21:48 10.03.2022
4843 Mist 2 1019 87 4000 1.03 20 21:20 10.03.2022
4844 Mist 2 1019 76 4000 0.51 300 19:48 10.03.2022
4845 Mist 2 1019 79 5000 1.03 350 18:55 10.03.2022
4846 Clear 2 1019 82 6000 0.51 310 17:36 10.03.2022
4847 Clouds 4 1020 64 9000 2.57 330 15:55 10.03.2022
4848 Clear 5 1020 60 10000 1.54 320 14:48 10.03.2022
4849 Clear 6 1020 55 10000 1.03 340 13:24 10.03.2022
4850 Clear 10 1020 43 10000 1.54 280 11:58 10.03.2022
4851 Clear 12 1019 32 10000 3.6 240 10:54 10.03.2022
4852 Clear 14 1019 33 10000 4.12 240 09:21 10.03.2022
4853 Clear 16 1020 17 10000 6.17 240 07:38 10.03.2022
4854 Clear 15 1022 18 10000 4.12 220 04:36 10.03.2022
4855 Haze 6 1022 68 3500 0.51 280 01:49 10.03.2022
4856 Mist 1 1022 84 2500 2.06 20 23:26 09.03.2022
4857 Mist 2 1021 82 2000 1.54 360 21:51 09.03.2022
4858 Mist 2 1021 82 2000 1.54 360 21:31 09.03.2022
4859 Mist 1 1021 84 2000 1.03 180 19:44 09.03.2022
4860 Mist 1 1022 83 2500 0.51 330 18:33 09.03.2022
4861 Mist 1 1022 93 2500 1.54 300 17:27 09.03.2022
4862 Mist 1 1022 85 2500 1.54 190 16:31 09.03.2022
4863 Mist 3 1023 76 3000 2.06 320 14:59 09.03.2022
4864 Mist 5 1022 70 4000 2.06 350 13:53 09.03.2022
4865 Mist 6 1022 65 4500 3.6 310 12:45 09.03.2022
4866 Mist 7 1022 61 5000 3.09 320 11:53 09.03.2022
4867 Mist 7 1022 61 5000 3.09 320 11:35 09.03.2022
4868 Haze 13 1022 48 7000 5.66 300 09:50 09.03.2022
4869 Haze 14 1021 43 7000 4.63 300 08:49 09.03.2022
4870 Haze 14 1022 40 7000 3.6 290 07:27 09.03.2022
4871 Mist 3 1023 87 3000 0.51 140 01:54 09.03.2022
4872 Mist 2 1023 93 2000 1.54 350 00:27 09.03.2022
4873 Mist 0 1022 93 2500 1.03 330 22:47 08.03.2022
4874 Mist 0 1021 93 3000 1.54 330 21:52 08.03.2022
4875 Mist 1 1021 93 3000 1.54 330 21:22 08.03.2022
4876 Mist 0 1021 90 3500 0.51 10 20:24 08.03.2022
4877 Mist 0 1021 93 3500 2.06 30 19:24 08.03.2022
4878 Mist -1 1021 93 4000 0.51 320 18:23 08.03.2022
4879 Mist 1 1020 87 5000 1.03 320 16:56 08.03.2022
4880 Mist 3 1020 79 7000 0.51 260 14:58 08.03.2022
4881 Mist 4 1019 76 8000 0.51 350 13:48 08.03.2022
4882 Clouds 5 1019 81 8000 1.54 290 12:23 08.03.2022
4883 Clear 6 1019 64 10000 3.09 300 11:42 08.03.2022
4884 Clear 9 1018 54 10000 3.09 280 10:28 08.03.2022
4885 Clear 12 1018 42 10000 4.12 300 08:57 08.03.2022
4886 Clear 11 1018 42 10000 3.09 250 06:30 08.03.2022
4887 Clouds 6 1020 48 10000 2.06 210 02:50 08.03.2022
4888 Clouds 0 1019 64 10000 2.06 210 22:48 07.03.2022
4889 Clouds 0 1019 64 10000 1.03 170 21:45 07.03.2022
4890 Clouds 0 1019 69 10000 0.51 160 21:22 07.03.2022
4891 Clouds -1 1019 62 10000 0.51 270 20:33 07.03.2022
4892 Clouds -1 1020 60 10000 1.54 170 19:49 07.03.2022
4893 Clear -1 1020 64 10000 2.06 180 18:57 07.03.2022
4894 Clear -1 1020 64 10000 2.06 180 18:29 07.03.2022
4895 Clear 0 1020 57 10000 1.54 320 17:24 07.03.2022
4896 Clear 0 1020 52 10000 1.03 340 16:41 07.03.2022
4897 Clear 2 1020 48 10000 0.51 120 14:49 07.03.2022
4898 Clear 3 1020 46 10000 2.57 320 12:34 07.03.2022
4899 Clouds 6 1020 23 10000 2.87 268 11:21 07.03.2022
4900 Clear 6 1019 36 10000 3.09 280 10:26 07.03.2022
4901 Clouds 7 1019 36 10000 4.63 290 08:19 07.03.2022
4902 Clear 0 1022 60 10000 1.03 230 01:23 07.03.2022
4903 Clouds -4 1022 29 10000 0.41 158 00:20 07.03.2022
4904 Clear -5 1022 80 10000 0.51 50 23:19 06.03.2022
4905 Clear -5 1022 80 10000 1.03 330 22:26 06.03.2022
4906 Clear -5 1021 74 10000 0.51 300 21:22 06.03.2022
4907 Clear -4 1021 74 10000 1.03 330 20:29 06.03.2022
4908 Clear -3 1022 68 10000 1.54 350 19:35 06.03.2022
4909 Clear -3 1022 65 10000 1.54 180 18:40 06.03.2022
4910 Clear -2 1022 61 10000 1.03 360 17:36 06.03.2022
4911 Clear -2 1022 59 10000 1.03 360 17:18 06.03.2022
4912 Clear -3 1022 66 10000 0.51 300 16:25 06.03.2022
4913 Clear -2 1022 64 10000 1.54 280 15:23 06.03.2022
4914 Clear -1 1022 53 10000 2.57 340 14:41 06.03.2022
4915 Clear 0 1022 53 10000 1.54 280 13:48 06.03.2022
4916 Clear 2 1022 46 10000 3.09 240 12:36 06.03.2022
4917 Clear 2 1021 38 10000 3.6 260 11:30 06.03.2022
4918 Clear 4 1021 30 10000 5.14 260 10:30 06.03.2022
4919 Clear 7 1020 20 10000 5.14 260 08:51 06.03.2022
4920 Clear 7 1020 20 10000 5.14 260 08:27 06.03.2022
4921 Clear 6 1022 16 10000 4.63 300 06:33 06.03.2022
4922 Clear 2 1024 26 10000 4.63 300 01:36 06.03.2022
4923 Clear 0 1023 36 10000 1.54 330 00:33 06.03.2022
4924 Clear -1 1022 37 10000 2.57 320 23:46 05.03.2022
4925 Clear -1 1022 31 10000 3.76 299 23:18 05.03.2022
4926 Clear -2 1022 42 10000 2.57 330 22:31 05.03.2022
4927 Clear -1 1021 40 10000 3.09 290 21:24 05.03.2022
4928 Clear -1 1020 43 10000 3.6 300 19:56 05.03.2022
4929 Clear -1 1020 45 10000 2.57 290 18:56 05.03.2022
4930 Clear -1 1020 45 10000 2.57 290 18:34 05.03.2022
4931 Clear 0 1020 40 10000 2.57 290 16:57 05.03.2022
4932 Clear 0 1020 37 10000 2.57 270 15:43 05.03.2022
4933 Clear 0 1020 36 10000 3.09 10 14:52 05.03.2022
4934 Clear 0 1020 36 10000 3.09 10 14:34 05.03.2022
4935 Clear 1 1019 32 10000 2.57 320 13:34 05.03.2022
4936 Clear 2 1018 30 10000 6.69 330 11:49 05.03.2022
4937 Clear 2 1018 32 10000 6.69 330 11:19 05.03.2022
4938 Clear 5 1017 26 10000 6.34 308 10:20 05.03.2022
4939 Clear 6 1016 22 10000 7.2 290 09:26 05.03.2022
4940 Clouds 6 1015 20 10000 10.29 300 07:51 05.03.2022
4941 Clear 6 1016 20 10000 9.26 290 05:43 05.03.2022
4942 Clear 4 1016 20 10000 7.2 280 03:49 05.03.2022
4943 Clear 1 1014 39 8000 4.63 290 23:38 04.03.2022
4944 Clear 1 1014 46 8000 4.63 290 22:42 04.03.2022
4945 Clear 1 1014 51 8000 4.63 290 22:19 04.03.2022
4946 Clear 2 1012 45 10000 4.63 280 20:56 04.03.2022
4947 Clear 2 1012 45 10000 4.63 280 20:27 04.03.2022
4948 Haze 3 1012 46 10000 2.57 270 19:36 04.03.2022
4949 Clear 4 1012 52 10000 4.12 280 18:45 04.03.2022
4950 Dust 5 1011 65 5000 4.63 280 17:39 04.03.2022
4951 Dust 5 1010 70 3500 3.09 270 16:54 04.03.2022
4952 Dust 6 1009 75 3500 4.63 260 15:29 04.03.2022
4953 Dust 8 1008 68 4000 6.69 260 14:29 04.03.2022
4954 Mist 8 1008 74 4500 7.2 230 13:26 04.03.2022
4955 Clouds 10 1007 67 8000 9.26 220 11:41 04.03.2022
4956 Clouds 11 1007 55 9000 9.77 230 10:50 04.03.2022
4957 Rain 12 1006 44 10000 8.23 230 09:42 04.03.2022
4958 Clouds 12 1007 47 10000 10.8 210 08:39 04.03.2022
4959 Rain 13 1008 32 10000 9.77 210 07:34 04.03.2022
4960 Haze 10 1013 56 5000 4.12 160 03:53 04.03.2022
4961 Clouds 1 1015 67 8000 4.63 150 00:24 04.03.2022
4962 Mist -3 1016 77 5000 3.09 210 22:26 03.03.2022
4963 Clouds -3 1016 80 6000 0.51 260 21:41 03.03.2022
4964 Clouds -2 1016 56 10000 1.57 125 21:21 03.03.2022
4965 Clouds -3 1017 86 6000 1.03 220 19:50 03.03.2022
4966 Clouds -2 1017 80 8000 0.51 30 18:53 03.03.2022
4967 Clouds -2 1017 80 8000 0.51 30 18:22 03.03.2022
4968 Clear -1 1017 67 10000 1.54 130 17:28 03.03.2022
4969 Clear 0 1017 59 10000 2.06 150 16:22 03.03.2022
4970 Clear -1 1017 80 10000 0.51 340 15:20 03.03.2022
4971 Clear 1 1017 56 10000 0.51 70 14:42 03.03.2022
4972 Clear 3 1017 56 10000 1.03 40 13:18 03.03.2022
4973 Clear 3 1017 56 10000 1.03 40 13:18 03.03.2022
4974 Clear 3 1017 56 10000 1.03 40 13:18 03.03.2022
4975 Clear 6 1018 37 10000 2.57 290 11:50 03.03.2022
4976 Clear 9 1017 26 10000 3.09 290 10:41 03.03.2022
4977 Clear 12 1018 19 10000 4.12 290 08:52 03.03.2022
4978 Clear 12 1018 23 10000 4.63 290 07:25 03.03.2022
4979 Clear 12 1018 22 10000 4.12 250 06:34 03.03.2022
4980 Mist 3 1019 84 7000 1.54 200 01:45 03.03.2022
4981 Fog -2 1018 100 3000 0.51 210 23:29 02.03.2022
4982 Mist -2 1018 93 3000 1.03 150 22:50 02.03.2022
4983 Mist -2 1018 93 3000 1.03 150 22:50 02.03.2022
4984 Mist 1 1017 93 4000 1.03 50 21:30 02.03.2022
4985 Mist 3 1017 81 5000 3.09 290 20:45 02.03.2022
4986 Mist 2 1017 87 5000 3.09 290 20:22 02.03.2022
4987 Mist 3 1017 84 5000 3.09 180 19:34 02.03.2022
4988 Mist 4 1017 78 6000 2.06 230 18:44 02.03.2022
4989 Clear 4 1017 81 7000 3.09 240 17:59 02.03.2022
4990 Clear 4 1017 81 7000 3.09 240 17:23 02.03.2022
4991 Mist 4 1017 78 8000 2.57 240 16:45 02.03.2022
4992 Mist 4 1017 78 8000 2.57 240 16:45 02.03.2022
4993 Clear 3 1017 72 9000 3.09 240 14:44 02.03.2022
4994 Clear 4 1017 63 10000 3.09 250 13:24 02.03.2022
4995 Clear 4 1017 63 10000 2.57 240 12:42 02.03.2022
4996 Clear 5 1017 59 10000 3.6 240 11:40 02.03.2022
4997 Clear 4 1017 70 10000 3.6 240 11:22 02.03.2022
4998 Clear 7 1016 46 10000 6.17 260 09:41 02.03.2022
4999 Clear 8 1017 40 10000 6.17 230 08:55 02.03.2022
5000 Clear 8 1017 38 10000 5.66 250 07:38 02.03.2022
5001 Clear 8 1017 32 10000 6.17 240 06:51 02.03.2022
5002 Clear 4 1019 41 10000 1.03 160 02:35 02.03.2022
5003 Clear -5 1019 80 10000 0.51 360 23:49 01.03.2022
5004 Clear -5 1018 80 10000 1.54 180 22:45 01.03.2022
5005 Clear -5 1018 77 10000 2.06 190 21:58 01.03.2022
5006 Clear -4 1018 77 10000 2.06 190 21:25 01.03.2022
5007 Clear -3 1018 69 10000 0.51 290 20:30 01.03.2022
5008 Clear -4 1018 74 10000 0.51 290 20:30 01.03.2022
5009 Clear -3 1018 69 10000 0.51 290 20:30 01.03.2022
5010 Clear -3 1018 61 10000 0.51 340 19:28 01.03.2022
5011 Clear -3 1018 68 10000 1.03 210 18:49 01.03.2022
5012 Clear -3 1018 68 10000 1.03 210 18:19 01.03.2022
5013 Clear -1 1018 37 10000 2.22 278 17:19 01.03.2022
5014 Clear 0 1018 53 10000 2.57 280 16:31 01.03.2022
5015 Clear 1 1018 51 10000 2.57 320 15:38 01.03.2022
5016 Clear 2 1018 51 10000 3.6 290 14:34 01.03.2022
5017 Clear 2 1017 60 10000 3.09 300 13:52 01.03.2022
5018 Clear 2 1017 60 10000 3.09 300 13:24 01.03.2022
5019 Clear 4 1016 63 10000 5.14 290 12:30 01.03.2022
5020 Clouds 7 1014 52 10000 4.12 300 10:33 01.03.2022
5021 Haze 9 1013 53 10000 4.12 280 08:41 01.03.2022
5022 Haze 9 1013 61 7000 4.12 330 07:44 01.03.2022
5023 Mist 7 1014 81 4500 4.63 270 05:49 01.03.2022
5024 Mist 6 1014 90 6000 1.54 170 01:48 01.03.2022
5025 Mist 5 1014 93 6000 2.06 150 00:24 01.03.2022
5026 Rain 3 1013 93 4500 1.54 150 23:19 28.02.2022
5027 Rain 4 1014 93 5000 0.51 100 21:59 28.02.2022
5028 Rain 4 1014 93 5000 0.51 100 21:24 28.02.2022
5029 Rain 4 1015 78 10000 1.03 110 19:53 28.02.2022
5030 Rain 4 1015 70 10000 1.03 110 19:27 28.02.2022
5031 Rain 5 1015 56 10000 1.54 190 18:38 28.02.2022
5032 Clear 4 1016 56 10000 1.03 140 17:24 28.02.2022
5033 Clear 4 1016 54 10000 2.06 160 16:33 28.02.2022
5034 Clear 5 1017 49 10000 2.06 180 15:23 28.02.2022
5035 Clear 4 1017 48 10000 2.57 200 14:31 28.02.2022
5036 Clear 4 1017 54 10000 1.03 220 13:34 28.02.2022
5037 Clear 5 1018 47 10000 1.03 60 12:37 28.02.2022
5038 Clear 8 1018 35 10000 2.06 290 11:40 28.02.2022
5039 Clear 9 1018 28 10000 1.03 270 10:48 28.02.2022
5040 Clear 10 1018 29 10000 1.03 270 10:19 28.02.2022
5041 Clear 11 1018 27 10000 2.57 170 09:31 28.02.2022
5042 Clear 11 1019 38 10000 1.54 230 08:29 28.02.2022
5043 Clear 10 1020 50 10000 2.06 220 07:20 28.02.2022
5044 Clear 8 1023 53 10000 2.57 200 04:32 28.02.2022
5045 Clouds 7 1023 61 10000 2.06 190 03:58 28.02.2022
5046 Clouds 1 1023 90 9000 3.09 170 23:27 27.02.2022
5047 Clouds 0 1023 90 9000 2.06 160 22:33 27.02.2022
5048 Clouds 0 1022 83 8000 3.09 150 21:49 27.02.2022
5049 Clouds 1 1022 83 10000 2.57 120 20:55 27.02.2022
5050 Clouds 1 1022 83 10000 2.57 120 20:27 27.02.2022
5051 Clouds 2 1023 84 10000 3.09 170 19:56 27.02.2022
5052 Clouds 2 1023 84 10000 3.09 170 19:26 27.02.2022
5053 Clouds 1 1023 83 10000 3.09 160 18:39 27.02.2022
5054 Clear -1 1022 93 10000 3.6 170 17:54 27.02.2022
5055 Clear 0 1022 80 10000 3.09 150 16:37 27.02.2022
5056 Clear 1 1022 80 10000 2.57 140 15:59 27.02.2022
5057 Clear 4 1022 70 10000 2.06 240 13:21 27.02.2022
5058 Clear 5 1021 61 10000 2.57 240 12:32 27.02.2022
5059 Clear 7 1021 49 10000 5.14 240 10:54 27.02.2022
5060 Clear 8 1021 44 10000 6.69 230 09:58 27.02.2022
5061 Clear 8 1021 44 10000 6.69 230 09:37 27.02.2022
5062 Clear 8 1021 49 10000 6.69 230 09:18 27.02.2022
5063 Clear 9 1022 37 10000 6.69 230 06:43 27.02.2022
5064 Clear 8 1022 33 10000 6.17 230 05:36 27.02.2022
5065 Clear -3 1022 77 10000 1.03 160 00:52 27.02.2022
5066 Clear -4 1021 74 10000 1.03 350 22:56 26.02.2022
5067 Clear -3 1020 72 10000 2.06 290 21:39 26.02.2022
5068 Clear 0 1020 55 10000 2.57 280 20:48 26.02.2022
5069 Clear 0 1020 59 10000 2.57 280 20:19 26.02.2022
5070 Clear 1 1019 52 10000 2.57 290 19:37 26.02.2022
5071 Clear 1 1019 54 10000 4.12 290 18:49 26.02.2022
5072 Haze 1 1018 56 10000 4.63 280 17:42 26.02.2022
5073 Haze 2 1017 61 6000 4.12 280 16:48 26.02.2022
5074 Mist 2 1017 65 5000 5.14 310 15:48 26.02.2022
5075 Mist 2 1017 69 5000 4.63 280 15:20 26.02.2022
5076 Mist 2 1016 70 3500 7.2 310 14:52 26.02.2022
5077 Mist 3 1016 70 3500 7.2 310 14:25 26.02.2022
5078 Mist 4 1015 81 2500 6.69 290 13:18 26.02.2022
5079 Rain 6 1012 84 5000 7.72 240 11:54 26.02.2022
5080 Rain 6 1012 84 5000 7.72 240 11:28 26.02.2022
5081 Rain 8 1012 69 9000 8.23 230 10:39 26.02.2022
5082 Clouds 8 1014 62 10000 7.2 210 08:48 26.02.2022
5083 Clouds 10 1016 60 9000 8.75 210 06:46 26.02.2022
5084 Mist 4 1021 81 3000 5.14 190 00:38 26.02.2022
5085 Mist 4 1021 87 2500 4.63 200 22:45 25.02.2022
5086 Mist 3 1021 87 2500 3.09 180 21:40 25.02.2022
5087 Mist 3 1021 87 2500 3.09 180 21:21 25.02.2022
5088 Mist 2 1021 87 2500 2.57 160 20:32 25.02.2022
5089 Mist 4 1023 87 2500 2.57 170 18:41 25.02.2022
5090 Mist 3 1023 87 2800 2.57 170 17:23 25.02.2022
5091 Mist 3 1024 87 3000 1.54 190 16:21 25.02.2022
5092 Mist 4 1024 84 3000 2.57 190 15:42 25.02.2022
5093 Mist 4 1024 84 3000 2.57 190 15:20 25.02.2022
5094 Mist 4 1024 81 3000 2.57 180 14:41 25.02.2022
5095 Mist 5 1025 76 3000 3.09 220 13:36 25.02.2022
5096 Haze 5 1025 87 3000 3.6 220 12:45 25.02.2022
5097 Haze 6 1024 75 3500 3.09 230 11:28 25.02.2022
5098 Haze 6 1024 75 3800 4.12 240 10:29 25.02.2022
5099 Haze 7 1024 64 4500 4.12 240 09:53 25.02.2022
5100 Haze 8 1025 55 5000 4.63 240 08:46 25.02.2022
5101 Haze 9 1025 52 5000 4.63 220 07:37 25.02.2022
5102 Haze 8 1027 50 6000 4.63 240 05:47 25.02.2022
5103 Mist 2 1028 67 7000 3.09 150 02:58 25.02.2022
5104 Mist -6 1028 93 5000 3.09 150 22:56 24.02.2022
5105 Clear -6 1028 86 6000 3.09 140 21:54 24.02.2022
5106 Clear -6 1028 86 6000 3.09 140 21:31 24.02.2022
5107 Clear -6 1028 86 7000 3.09 140 20:57 24.02.2022
5108 Clear -5 1028 86 8000 3.09 130 19:38 24.02.2022
5109 Clear -6 1028 90 8000 3.09 140 18:37 24.02.2022
5110 Clear -6 1028 93 8000 3.09 140 18:18 24.02.2022
5111 Clear -5 1028 86 10000 3.09 140 17:33 24.02.2022
5112 Clear -5 1028 86 10000 3.09 140 17:33 24.02.2022
5113 Clear -4 1028 77 10000 2.57 140 16:29 24.02.2022
5114 Clear -4 1028 77 10000 1.54 90 15:47 24.02.2022
5115 Clear -4 1029 69 10000 0.51 130 14:53 24.02.2022
5116 Clear -4 1029 74 10000 0.51 130 14:24 24.02.2022
5117 Clear -2 1029 67 10000 0.51 220 13:39 24.02.2022
5118 Clear -2 1029 67 10000 0.51 220 13:39 24.02.2022
5119 Clear -1 1029 62 10000 1.54 250 12:33 24.02.2022
5120 Clear 1 1029 51 10000 3.6 280 10:40 24.02.2022
5121 Clouds 3 1030 44 10000 5.66 270 08:56 24.02.2022
5122 Clouds 3 1030 44 10000 5.66 270 08:38 24.02.2022
5123 Clouds 2 1031 31 10000 5.66 290 05:52 24.02.2022
5124 Clear -9 1033 65 10000 1.03 330 00:32 24.02.2022
5125 Clear -11 1032 67 10000 0.51 350 22:38 23.02.2022
5126 Clear -11 1032 67 10000 1.03 190 21:34 23.02.2022
5127 Clear -10 1032 65 10000 1.54 210 20:30 23.02.2022
5128 Clear -9 1032 53 10000 0.51 60 19:44 23.02.2022
5129 Clear -8 1032 50 10000 2.06 330 18:32 23.02.2022
5130 Clear -7 1032 40 10000 1.54 330 17:30 23.02.2022
5131 Clear -5 1033 32 10000 4.12 300 14:34 23.02.2022
5132 Clear -4 1032 27 10000 4.63 300 12:37 23.02.2022
5133 Clear -4 1032 28 10000 3.09 310 11:24 23.02.2022
5134 Clear -2 1031 24 10000 5.66 300 10:31 23.02.2022
5135 Clear -1 1031 21 10000 4.12 320 08:58 23.02.2022
5136 Clear -1 1032 24 10000 5.66 280 07:57 23.02.2022
5137 Clear -4 1035 28 10000 3.6 320 03:48 23.02.2022
5138 Clear -10 1034 53 10000 1.03 260 00:19 23.02.2022
5139 Clear -10 1034 43 10000 2.57 290 23:35 22.02.2022
5140 Clear -10 1034 49 10000 2.06 320 22:31 22.02.2022
5141 Clear -11 1034 57 10000 1.03 280 21:48 22.02.2022
5142 Clear -11 1034 62 10000 1.03 280 21:25 22.02.2022
5143 Clear -10 1034 57 10000 1.03 260 20:49 22.02.2022
5144 Clear -10 1034 57 10000 1.03 260 20:29 22.02.2022
5145 Clear -9 1034 53 10000 2.06 290 19:34 22.02.2022
5146 Clear -9 1034 43 10000 1.03 310 18:58 22.02.2022
5147 Clear -8 1034 45 10000 2.06 260 17:36 22.02.2022
5148 Clear -8 1034 45 10000 2.06 260 17:18 22.02.2022
5149 Clear -8 1034 40 10000 3.09 290 16:36 22.02.2022
5150 Clear -7 1033 42 10000 4.63 320 15:37 22.02.2022
5151 Clear -6 1033 40 10000 6.17 330 14:42 22.02.2022
5152 Clouds -4 1032 37 10000 7.2 330 11:41 22.02.2022
5153 Clouds -2 1031 37 10000 6.17 270 10:24 22.02.2022
5154 Clouds 0 1031 32 10000 6.17 290 07:43 22.02.2022
5155 Clouds 0 1031 32 10000 6.17 290 07:25 22.02.2022
5156 Clouds 0 1031 32 10000 6.17 290 07:25 22.02.2022
5157 Clear -3 1033 25 10000 4.12 300 02:51 22.02.2022
5158 Clear -7 1032 46 10000 3.09 350 00:44 22.02.2022
5159 Clear -6 1032 38 10000 4.63 330 22:38 21.02.2022
5160 Clear -6 1032 39 10000 3.09 290 21:25 21.02.2022
5161 Clear -7 1032 49 10000 3.09 300 20:19 21.02.2022
5162 Clear -6 1031 50 10000 2.57 290 18:40 21.02.2022
5163 Clear -4 1031 52 10000 3.09 320 16:40 21.02.2022
5164 Clear -3 1030 41 10000 5.17 302 14:24 21.02.2022
5165 Clear -3 1029 43 10000 4.63 300 13:56 21.02.2022
5166 Clear -2 1028 42 10000 5.14 300 12:57 21.02.2022
5167 Clear -2 1028 43 10000 5.14 300 12:22 21.02.2022
5168 Clear 0 1027 44 10000 7.2 260 10:32 21.02.2022
5169 Clouds 3 1026 38 10000 8.75 260 08:31 21.02.2022
5170 Clear -7 1028 65 10000 4.12 140 00:56 21.02.2022
5171 Clear -10 1028 67 10000 2.06 140 22:40 20.02.2022
5172 Clear -10 1028 70 10000 1.54 180 21:54 20.02.2022
5173 Clear -10 1028 70 10000 1.54 180 21:25 20.02.2022
5174 Clear -9 1028 68 10000 0.51 40 20:50 20.02.2022
5175 Clear -9 1028 68 10000 1.03 230 19:59 20.02.2022
5176 Clear -8 1029 56 10000 1.03 120 18:57 20.02.2022
5177 Clear -8 1029 56 10000 1.03 120 18:37 20.02.2022
5178 Clear -7 1029 54 10000 1.03 130 17:56 20.02.2022
5179 Clear -7 1029 54 10000 1.03 130 17:24 20.02.2022
5180 Clouds -5 1029 44 10000 2.57 310 15:28 20.02.2022
5181 Clouds -4 1028 44 10000 4.12 300 13:59 20.02.2022
5182 Clouds -4 1027 39 10000 4.63 240 12:47 20.02.2022
5183 Clear -3 1026 36 10000 4.63 270 11:56 20.02.2022
5184 Clear -2 1026 34 10000 4.12 270 10:21 20.02.2022
5185 Clear -1 1026 28 10000 5.66 270 09:46 20.02.2022
5186 Clear 0 1026 21 10000 6.69 310 06:30 20.02.2022
5187 Clear -7 1026 46 10000 5.66 290 00:33 20.02.2022
5188 Clear -8 1026 49 10000 5.66 300 23:33 19.02.2022
5189 Clear -7 1025 49 10000 4.63 300 22:24 19.02.2022
5190 Clear -7 1025 49 10000 5.14 300 21:50 19.02.2022
5191 Clear -7 1025 44 10000 5.66 300 20:41 19.02.2022
5192 Clear -6 1025 44 10000 5.66 300 19:35 19.02.2022
5193 Clear -6 1025 45 10000 6.17 300 18:41 19.02.2022
5194 Clear -6 1024 50 10000 4.12 300 17:57 19.02.2022
5195 Clear -6 1024 53 10000 4.12 300 17:21 19.02.2022
5196 Clear -6 1024 50 10000 4.63 320 15:59 19.02.2022
5197 Clear -5 1024 50 10000 6.69 310 14:54 19.02.2022
5198 Clouds -4 1023 50 10000 6.69 300 13:57 19.02.2022
5199 Snow -1 1022 64 10000 7.2 280 11:53 19.02.2022
5200 Clouds -1 1022 74 8000 4.63 270 10:54 19.02.2022
5201 Mist 1 1022 61 1200 8.23 280 08:56 19.02.2022
5202 Clouds 3 1023 41 10000 4.12 300 06:48 19.02.2022
5203 Clear -3 1025 61 10000 1.03 330 00:38 19.02.2022
5204 Clear -4 1025 68 10000 0.51 320 22:24 18.02.2022
5205 Snow -3 1025 63 10000 0.51 290 21:21 18.02.2022
5206 Clear -3 1026 63 10000 2.57 310 20:18 18.02.2022
5207 Snow -2 1027 56 10000 2.06 310 18:51 18.02.2022
5208 Clear -2 1027 56 10000 2.06 310 18:28 18.02.2022
5209 Clear -2 1027 56 10000 2.57 340 17:56 18.02.2022
5210 Clear -1 1027 48 10000 3.09 330 15:57 18.02.2022
5211 Clear -2 1028 43 10000 1.54 300 13:56 18.02.2022
5212 Clear -2 1028 43 10000 1.54 300 13:32 18.02.2022
5213 Clear -1 1027 40 10000 2.57 320 12:48 18.02.2022
5214 Clear 0 1028 38 10000 1.54 300 11:56 18.02.2022
5215 Clear 3 1028 27 10000 4.63 310 10:42 18.02.2022
5216 Clear 4 1029 18 10000 1.03 120 06:58 18.02.2022
5217 Clear 3 1030 21 10000 2.06 160 05:42 18.02.2022
5218 Clear -10 1032 76 10000 1.54 140 23:53 17.02.2022
5219 Clear -11 1032 73 10000 2.06 310 21:50 17.02.2022
5220 Clear -11 1032 73 10000 2.06 310 21:26 17.02.2022
5221 Clear -11 1031 73 10000 1.54 300 20:40 17.02.2022
5222 Clear -10 1031 76 10000 1.54 170 19:52 17.02.2022
5223 Clear -10 1031 65 10000 1.03 50 18:54 17.02.2022
5224 Clear -9 1031 65 10000 2.06 350 17:59 17.02.2022
5225 Clear -8 1031 65 10000 2.06 320 16:43 17.02.2022
5226 Clear -8 1031 63 10000 1.03 350 15:40 17.02.2022
5227 Clear -6 1030 53 10000 1.03 50 14:28 17.02.2022
5228 Clear -6 1030 48 10000 0.51 230 12:50 17.02.2022
5229 Clear -5 1029 36 10000 1.54 320 11:27 17.02.2022
5230 Clear -2 1028 25 10000 2.57 330 09:30 17.02.2022
5231 Clear -5 1029 30 10000 4.12 340 04:41 17.02.2022
5232 Clear -11 1028 52 10000 2.57 340 23:21 16.02.2022
5233 Clear -9 1027 40 10000 6.17 310 21:45 16.02.2022
5234 Clear -9 1026 42 10000 7.2 320 19:57 16.02.2022
5235 Clear -9 1026 47 10000 5.14 300 18:43 16.02.2022
5236 Clear -9 1026 53 10000 4.63 300 17:53 16.02.2022
5237 Clear -9 1025 47 10000 4.12 340 15:55 16.02.2022
5238 Clear -9 1025 53 10000 4.12 340 15:19 16.02.2022
5239 Clear -8 1025 44 10000 6.17 330 13:31 16.02.2022
5240 Clouds -7 1024 42 10000 7.72 320 12:20 16.02.2022
5241 Clouds -6 1023 40 10000 6.17 310 11:28 16.02.2022
5242 Clouds -6 1023 34 10000 5.14 300 10:34 16.02.2022
5243 Clouds -4 1023 31 10000 5.66 290 08:20 16.02.2022
5244 Clouds -4 1023 29 10000 6.69 280 06:29 16.02.2022
5245 Clear -8 1024 60 10000 4.12 310 23:45 15.02.2022
5246 Clear -8 1024 63 10000 3.6 320 22:30 15.02.2022
5247 Clear -9 1024 63 10000 2.57 320 21:47 15.02.2022
5248 Clear -9 1024 63 10000 2.57 320 21:27 15.02.2022
5249 Clear -8 1023 56 10000 2.57 310 20:56 15.02.2022
5250 Clear -8 1024 58 10000 2.57 290 19:57 15.02.2022
5251 Clear -8 1024 53 10000 3.09 340 18:56 15.02.2022
5252 Clear -8 1024 57 10000 2.57 290 18:22 15.02.2022
5253 Clear -8 1023 51 10000 2.57 290 17:50 15.02.2022
5254 Clear -8 1024 51 10000 4.12 320 16:50 15.02.2022
5255 Clear -7 1024 49 10000 4.63 320 15:28 15.02.2022
5256 Clear -7 1023 49 10000 5.66 320 13:27 15.02.2022
5257 Clear -6 1023 44 10000 6.17 330 12:37 15.02.2022
5258 Clouds -5 1022 44 10000 5.66 330 11:40 15.02.2022
5259 Clouds -3 1021 46 10000 7.2 270 09:31 15.02.2022
5260 Clouds -3 1021 46 10000 6.17 270 06:58 15.02.2022
5261 Clouds -3 1023 50 10000 4.63 280 04:54 15.02.2022
5262 Haze -5 1022 68 10000 4.12 290 23:33 14.02.2022
5263 Haze -4 1021 64 10000 5.14 280 21:36 14.02.2022
5264 Snow -3 1021 63 10000 5.66 290 20:37 14.02.2022
5265 Snow -3 1021 63 8000 4.63 290 19:34 14.02.2022
5266 Clouds -2 1021 66 8000 4.12 300 18:42 14.02.2022
5267 Clouds -2 1021 64 8000 4.12 300 18:22 14.02.2022
5268 Clouds -2 1022 64 8000 4.12 290 17:25 14.02.2022
5269 Clouds -1 1021 59 8000 5.14 300 16:19 14.02.2022
5270 Haze 1 1020 69 6000 6.17 270 13:54 14.02.2022
5271 Haze 1 1020 69 6000 6.17 270 13:26 14.02.2022
5272 Mist 1 1020 72 6000 4.63 270 12:33 14.02.2022
5273 Mist 2 1019 75 5000 6.69 260 11:54 14.02.2022
5274 Mist 3 1018 87 5000 6.17 280 10:37 14.02.2022
5275 Rain 5 1019 66 1500 5.66 230 08:43 14.02.2022
5276 Mist 7 1018 56 4500 7.2 280 07:30 14.02.2022
5277 Clear -4 1021 90 10000 1.03 170 23:45 13.02.2022
5278 Clear -4 1021 87 10000 0.51 230 22:42 13.02.2022
5279 Clear -4 1021 93 10000 0 0 22:23 13.02.2022
5280 Clear -3 1021 87 10000 1.54 330 21:32 13.02.2022
5281 Clear -3 1021 80 10000 1.03 20 20:35 13.02.2022
5282 Clear -3 1022 84 10000 1.03 10 19:30 13.02.2022
5283 Clear -1 1022 75 10000 1.54 330 18:46 13.02.2022
5284 Clear -1 1022 80 10000 1.54 330 18:26 13.02.2022
5285 Clear 0 1022 67 10000 3.09 310 15:54 13.02.2022
5286 Clear 0 1022 67 10000 3.09 310 15:54 13.02.2022
5287 Clear 0 1022 74 10000 3.09 310 15:20 13.02.2022
5288 Clear 1 1022 59 10000 3.6 330 14:22 13.02.2022
5289 Clear 2 1021 53 10000 2.06 300 12:50 13.02.2022
5290 Clear 4 1021 41 10000 2.06 340 11:35 13.02.2022
5291 Clear 6 1020 35 10000 2.57 350 10:32 13.02.2022
5292 Clouds 9 1020 30 9000 2.06 340 09:45 13.02.2022
5293 Clouds 9 1021 29 8000 3.6 340 07:21 13.02.2022
5294 Clouds 0 1023 60 7000 1.03 330 00:35 13.02.2022
5295 Clouds -1 1023 62 7000 0.51 40 23:39 12.02.2022
5296 Clouds -1 1022 64 7000 1.54 10 22:33 12.02.2022
5297 Clouds -1 1022 74 7000 1.54 330 21:20 12.02.2022
5298 Clouds -2 1022 62 8000 1.03 20 20:32 12.02.2022
5299 Clouds -2 1023 64 8000 1.03 40 19:21 12.02.2022
5300 Clouds -1 1023 59 8000 2.06 340 18:52 12.02.2022
5301 Clouds -1 1023 59 8000 2.06 340 18:34 12.02.2022
5302 Clear -1 1023 55 10000 1.54 200 16:56 12.02.2022
5303 Clear -1 1023 55 10000 1.54 200 16:25 12.02.2022
5304 Clear -1 1023 55 10000 1.54 200 16:25 12.02.2022
5305 Clear 0 1023 46 10000 1.54 350 15:50 12.02.2022
5306 Clear 1 1024 42 10000 1.54 340 14:31 12.02.2022
5307 Clear 2 1023 39 10000 1.03 360 12:58 12.02.2022
5308 Clear 6 1023 24 10000 3.09 340 10:40 12.02.2022
5309 Clear 9 1023 20 10000 4.12 320 09:39 12.02.2022
5310 Clear 10 1023 19 10000 4.63 320 08:50 12.02.2022
5311 Clear 10 1023 20 10000 4.63 320 08:18 12.02.2022
5312 Haze 9 1025 28 7000 3.6 330 05:33 12.02.2022
5313 Haze 7 1026 32 6000 2.57 60 04:27 12.02.2022
5314 Mist 3 1027 65 2500 2.06 340 02:18 12.02.2022
5315 Mist -2 1026 87 1300 0.51 20 22:28 11.02.2022
5316 Mist -2 1026 87 1100 1.03 310 21:51 11.02.2022
5317 Mist -1 1026 93 1300 1.03 10 20:40 11.02.2022
5318 Mist -1 1026 84 1700 1.54 180 19:40 11.02.2022
5319 Mist -1 1026 93 1700 0 0 19:20 11.02.2022
5320 Mist -1 1027 75 2200 1.03 10 17:48 11.02.2022
5321 Mist -1 1027 75 2200 1.03 10 17:22 11.02.2022
5322 Mist 1 1026 66 3000 1.03 330 15:56 11.02.2022
5323 Mist 1 1026 65 3000 2.06 340 14:43 11.02.2022
5324 Mist 1 1026 75 3000 2.06 340 14:21 11.02.2022
5325 Haze 1 1026 63 3000 1.54 350 13:52 11.02.2022
5326 Haze 1 1026 63 3000 1.54 350 13:34 11.02.2022
5327 Clouds 3 1026 56 6000 2.06 310 11:32 11.02.2022
5328 Haze 7 1025 33 8000 3.09 270 09:57 11.02.2022
5329 Haze 8 1026 33 7000 2.57 280 08:42 11.02.2022
5330 Haze 8 1026 33 7000 2.57 280 08:42 11.02.2022
5331 Clouds 8 1026 36 7000 2.57 280 08:22 11.02.2022
5332 Haze 9 1026 32 7000 3.09 290 06:33 11.02.2022
5333 Mist 0 1028 93 3500 0.51 360 02:26 11.02.2022
5334 Fog -6 1027 90 5000 0.51 330 00:47 11.02.2022
5335 Fog -6 1026 90 3000 0.51 320 22:45 10.02.2022
5336 Fog -6 1025 87 2000 2.06 340 21:45 10.02.2022
5337 Fog -6 1025 90 2000 1.03 10 20:54 10.02.2022
5338 Fog -6 1025 90 2000 1.03 10 20:29 10.02.2022
5339 Fog -6 1025 90 2500 1.54 330 19:25 10.02.2022
5340 Fog -5 1025 87 2500 1.03 210 18:43 10.02.2022
5341 Mist -5 1025 87 5000 1.03 310 17:26 10.02.2022
5342 Mist -4 1025 81 6000 0.51 140 16:47 10.02.2022
5343 Clear -2 1025 81 8000 1.54 190 15:45 10.02.2022
5344 Clear -2 1025 81 8000 1.54 190 15:25 10.02.2022
5345 Clear -1 1025 73 8000 1.03 60 14:44 10.02.2022
5346 Clear -1 1025 86 8000 1.03 60 14:22 10.02.2022
5347 Clear 0 1024 80 8000 2.06 340 13:20 10.02.2022
5348 Clear 1 1023 69 10000 3.09 290 11:58 10.02.2022
5349 Clear 1 1023 69 10000 3.09 290 11:32 10.02.2022
5350 Clear 3 1022 56 10000 4.12 280 10:32 10.02.2022
5351 Clear 7 1022 38 10000 4.63 280 09:46 10.02.2022
5352 Clear 7 1022 36 10000 4.63 280 08:42 10.02.2022
5353 Clear 7 1022 33 10000 4.12 310 06:34 10.02.2022
5354 Clear 4 1024 37 10000 1.54 270 03:33 10.02.2022
5355 Clouds -5 1024 84 8000 1.03 310 00:57 10.02.2022
5356 Clouds -5 1024 84 8000 1.03 310 00:38 10.02.2022
5357 Clouds -6 1024 93 8000 1.03 310 00:20 10.02.2022
5358 Clear -5 1023 77 10000 1.03 330 22:56 09.02.2022
5359 Clear -5 1023 77 10000 1.03 330 22:33 09.02.2022
5360 Clear -5 1023 77 10000 1.03 320 21:47 09.02.2022
5361 Clear -5 1023 77 10000 1.03 320 21:27 09.02.2022
5362 Clear -5 1023 77 10000 1.03 320 21:27 09.02.2022
5363 Clear -5 1023 71 10000 1.03 10 20:44 09.02.2022
5364 Clear -5 1023 71 10000 1.03 10 20:44 09.02.2022
5365 Clear -5 1023 79 10000 1.03 10 20:22 09.02.2022
5366 Clear -4 1023 69 10000 1.54 330 19:42 09.02.2022
5367 Clear -4 1023 75 10000 0.51 350 18:38 09.02.2022
5368 Clear -2 1023 67 10000 1.54 310 16:57 09.02.2022
5369 Clear -3 1023 74 10000 1.54 310 16:20 09.02.2022
5370 Clear -2 1023 69 10000 1.54 320 15:23 09.02.2022
5371 Clear 1 1024 51 10000 2.06 300 12:53 09.02.2022
5372 Clear 2 1023 43 10000 3.09 300 11:29 09.02.2022
5373 Clear 3 1023 36 10000 3.09 290 10:34 09.02.2022
5374 Clear 5 1023 29 10000 2.06 350 09:50 09.02.2022
5375 Clear 5 1023 33 10000 2.06 350 09:22 09.02.2022
5376 Clear 6 1024 27 10000 2.57 340 08:45 09.02.2022
5377 Clear 6 1026 25 10000 1.54 60 05:57 09.02.2022
5378 Clear 3 1028 46 10000 1.03 70 03:51 09.02.2022
5379 Clouds 1 1028 34 10000 0.38 90 03:25 09.02.2022
5380 Mist -9 1027 92 5000 1.54 310 23:45 08.02.2022
5381 Mist -9 1027 92 5000 1.54 310 23:18 08.02.2022
5382 Mist -8 1028 90 5000 0.51 310 22:38 08.02.2022
5383 Mist -8 1028 93 5000 0.51 310 22:18 08.02.2022
5384 Mist -8 1027 93 5000 1.54 350 21:22 08.02.2022
5385 Clear -7 1027 86 7000 2.06 320 20:56 08.02.2022
5386 Clear -7 1027 86 7000 2.06 320 20:31 08.02.2022
5387 Clear -6 1027 84 6000 1.54 320 18:55 08.02.2022
5388 Clear -6 1028 80 10000 1.54 30 17:50 08.02.2022
5389 Clear -6 1028 77 10000 1.54 170 16:42 08.02.2022
5390 Clear -4 1028 75 10000 1.03 360 15:45 08.02.2022
5391 Clear -4 1028 72 10000 0.51 240 14:57 08.02.2022
5392 Clear -2 1028 60 10000 2.06 50 13:30 08.02.2022
5393 Clear -1 1028 64 10000 1.54 20 12:20 08.02.2022
5394 Clear 2 1027 34 10000 5.14 270 10:45 08.02.2022
5395 Clear 4 1026 25 10000 3.6 300 09:46 08.02.2022
5396 Clear 5 1026 21 10000 3.6 330 08:27 08.02.2022
5397 Clear 4 1027 27 10000 3.6 320 05:45 08.02.2022
5398 Clear 3 1028 34 10000 3.6 350 04:40 08.02.2022
5399 Clouds 2 1029 30 10000 2.24 292 04:21 08.02.2022
5400 Clear 2 1028 50 10000 2.06 330 03:36 08.02.2022
5401 Clear 1 1028 51 10000 2.06 330 03:18 08.02.2022
5402 Clear -1 1028 59 10000 1.03 350 02:59 08.02.2022
5403 Clear -1 1028 59 10000 1.03 350 02:36 08.02.2022
5404 Clouds -3 1028 48 10000 0.84 282 02:18 08.02.2022
5405 Clear -4 1028 77 10000 1.03 320 01:44 08.02.2022
5406 Clouds -5 1028 59 10000 0.53 316 01:24 08.02.2022
5407 Clear -7 1027 83 10000 1.03 340 00:55 08.02.2022
5408 Clear -7 1027 83 10000 1.03 330 23:58 07.02.2022
5409 Clear -7 1027 83 10000 1.03 330 23:40 07.02.2022
5410 Clouds -7 1027 63 10000 0.37 346 23:18 07.02.2022
5411 Clouds -7 1027 86 10000 1.54 180 22:42 07.02.2022
5412 Clouds -7 1027 62 10000 0.58 335 22:18 07.02.2022
5413 Clouds -8 1026 86 10000 0.51 360 21:43 07.02.2022
5414 Clouds -7 1026 86 10000 0.51 360 21:25 07.02.2022
5415 Clear -7 1026 83 10000 1.54 200 20:41 07.02.2022
5416 Clear -5 1027 86 10000 0.51 320 19:54 07.02.2022
5417 Clear -5 1027 86 10000 0.51 320 19:36 07.02.2022
5418 Clouds -2 1027 57 10000 0.75 285 18:18 07.02.2022
5419 Clouds -3 1028 64 10000 1.03 310 16:53 07.02.2022
5420 Clear -2 1028 60 10000 1.03 40 15:49 07.02.2022
5421 Clear -1 1028 55 10000 1.54 280 14:56 07.02.2022
5422 Clear 0 1028 46 10000 3.09 260 13:36 07.02.2022
5423 Clear 0 1028 51 10000 3.09 260 13:18 07.02.2022
5424 Clear 0 1027 43 10000 3.09 270 11:58 07.02.2022
5425 Clear 0 1027 43 10000 3.09 270 11:36 07.02.2022
5426 Clear 0 1027 36 10000 4.12 290 10:51 07.02.2022
5427 Clear 0 1027 36 10000 4.12 290 10:31 07.02.2022
5428 Clear 1 1028 33 10000 4.12 280 09:53 07.02.2022
5429 Clear 1 1028 37 10000 4.12 280 09:18 07.02.2022
5430 Clear 2 1028 30 10000 5.14 310 08:38 07.02.2022
5431 Clear 2 1028 29 10000 4.63 340 06:58 07.02.2022
5432 Clear 2 1028 29 10000 4.63 340 06:34 07.02.2022
5433 Clear -2 1030 48 10000 0.51 20 02:59 07.02.2022
5434 Clear -9 1030 76 10000 2.06 350 00:45 07.02.2022
5435 Clear -9 1030 76 10000 2.06 350 00:45 07.02.2022
5436 Clear -11 1029 79 10000 1.03 350 23:48 06.02.2022
5437 Clear -10 1029 79 10000 1.03 10 22:48 06.02.2022
5438 Clear -10 1029 79 10000 1.54 340 21:55 06.02.2022
5439 Clear -10 1029 79 10000 1.54 340 21:35 06.02.2022
5440 Clear -10 1029 73 10000 1.03 350 20:54 06.02.2022
5441 Clear -10 1029 73 10000 1.03 350 20:31 06.02.2022
5442 Clear -9 1029 65 10000 1.03 140 19:38 06.02.2022
5443 Clear -8 1029 63 10000 1.03 150 18:40 06.02.2022
5444 Clear -7 1029 58 10000 1.03 290 17:55 06.02.2022
5445 Clear -7 1029 62 10000 1.03 290 17:18 06.02.2022
5446 Clear -5 1029 48 10000 2.06 290 16:38 06.02.2022
5447 Clear -5 1029 58 10000 2.57 310 15:48 06.02.2022
5448 Clear -5 1029 58 10000 2.57 310 15:26 06.02.2022
5449 Clear -4 1029 49 10000 2.57 340 14:36 06.02.2022
5450 Clear -3 1028 47 10000 4.12 320 13:25 06.02.2022
5451 Clear -3 1028 45 10000 4.12 320 12:51 06.02.2022
5452 Clear -2 1027 42 10000 3.09 310 11:27 06.02.2022
5453 Clear -1 1026 40 10000 4.63 280 10:29 06.02.2022
5454 Clear 1 1027 32 10000 5.14 280 08:49 06.02.2022
5455 Clouds 1 1026 34 10000 5.66 280 07:36 06.02.2022
5456 Clouds 1 1028 31 10000 5.14 290 05:30 06.02.2022
5457 Clear -3 1028 49 10000 1.03 320 02:26 06.02.2022
5458 Clear -7 1028 63 10000 0.51 20 01:32 06.02.2022
5459 Clear -11 1028 76 10000 0.51 290 00:24 06.02.2022
5460 Clear -12 1028 79 10000 0 0 22:19 05.02.2022
5461 Clear -11 1028 67 10000 1.03 100 20:52 05.02.2022
5462 Clear -10 1028 67 10000 1.03 100 20:24 05.02.2022
5463 Clear -10 1028 64 10000 1.03 320 19:45 05.02.2022
5464 Clear -10 1028 68 10000 0.51 10 18:49 05.02.2022
5465 Clear -10 1028 79 10000 0 0 17:37 05.02.2022
5466 Clear -9 1028 65 10000 0.51 310 16:37 05.02.2022
5467 Clear -9 1028 62 10000 1.03 200 15:33 05.02.2022
5468 Clear -7 1028 56 10000 1.03 200 14:47 05.02.2022
5469 Clear -6 1028 46 10000 2.57 330 12:46 05.02.2022
5470 Clear -6 1027 44 10000 3.6 310 11:49 05.02.2022
5471 Clear -5 1026 39 10000 6.17 330 10:46 05.02.2022
5472 Clouds -3 1025 36 10000 6.69 330 09:52 05.02.2022
5473 Clouds -3 1025 36 10000 6.69 330 09:25 05.02.2022
5474 Clouds -2 1025 34 10000 7.72 290 07:36 05.02.2022
5475 Clouds -2 1025 33 10000 7.2 290 06:56 05.02.2022
5476 Clear -4 1027 33 10000 4.63 320 03:22 05.02.2022
5477 Clear -7 1028 42 10000 2.57 300 01:19 05.02.2022
5478 Clear -10 1027 47 10000 3.09 310 00:39 05.02.2022
5479 Clear -10 1027 49 10000 2.57 300 23:33 04.02.2022
5480 Clear -9 1026 49 10000 3.09 290 22:55 04.02.2022
5481 Clear -10 1026 53 10000 3.09 300 21:36 04.02.2022
5482 Clear -11 1026 57 10000 3.09 300 21:18 04.02.2022
5483 Clear -9 1026 51 10000 3.09 290 20:46 04.02.2022
5484 Clear -9 1026 54 10000 2.57 300 19:30 04.02.2022
5485 Clear -9 1026 58 10000 2.06 230 16:56 04.02.2022
5486 Clear -8 1026 54 10000 1.54 320 15:34 04.02.2022
5487 Clear -7 1026 53 10000 3.6 340 14:51 04.02.2022
5488 Clouds -5 1025 45 10000 7.72 330 12:43 04.02.2022
5489 Clouds -4 1024 41 10000 5.66 290 11:46 04.02.2022
5490 Clouds -3 1024 38 10000 7.72 290 10:59 04.02.2022
5491 Clouds -3 1024 39 10000 7.72 290 10:22 04.02.2022
5492 Clouds -2 1023 38 10000 8.75 290 08:31 04.02.2022
5493 Clear -1 1026 34 10000 4.63 280 04:45 04.02.2022
5494 Clear -3 1026 48 10000 5.66 330 02:38 04.02.2022
5495 Clear -10 1026 85 10000 1.03 330 23:56 03.02.2022
5496 Clear -10 1026 76 10000 1.54 320 22:51 03.02.2022
5497 Clear -10 1026 73 10000 0.51 290 21:58 03.02.2022
5498 Clear -10 1026 73 10000 0.51 290 21:29 03.02.2022
5499 Clouds -8 1026 73 10000 0.51 60 20:22 03.02.2022
5500 Clear -8 1027 66 10000 1.03 320 19:46 03.02.2022
5501 Clear -7 1027 65 10000 1.03 290 18:56 03.02.2022
5502 Clear -7 1027 63 10000 1.54 290 17:59 03.02.2022
5503 Clear -6 1027 66 10000 0.51 30 16:55 03.02.2022
5504 Clear -6 1027 60 10000 1.03 330 15:28 03.02.2022
5505 Clear -4 1027 49 10000 1.54 310 13:45 03.02.2022
5506 Clear -3 1027 41 10000 2.57 320 11:47 03.02.2022
5507 Clear 0 1026 33 10000 6.69 310 08:56 03.02.2022
5508 Clear 1 1027 32 10000 5.66 330 07:41 03.02.2022
5509 Clear -9 1028 82 10000 0.51 340 00:47 03.02.2022
5510 Clear -10 1028 85 10000 0.51 340 00:22 03.02.2022
5511 Clear -8 1027 80 10000 1.54 340 22:38 02.02.2022
5512 Clear -7 1027 71 10000 1.03 330 21:45 02.02.2022
5513 Clear -7 1027 71 10000 1.03 330 21:27 02.02.2022
5514 Clear -6 1027 68 10000 3.09 310 20:20 02.02.2022
5515 Clouds -7 1028 83 10000 1.54 300 19:45 02.02.2022
5516 Clouds -6 1027 78 10000 1.54 300 18:55 02.02.2022
5517 Clouds -6 1027 78 10000 1.54 300 18:23 02.02.2022
5518 Clouds -6 1027 86 10000 1.54 330 17:20 02.02.2022
5519 Snow -6 1027 74 10000 0.51 100 16:48 02.02.2022
5520 Clouds -5 1028 68 10000 0.51 170 14:21 02.02.2022
5521 Clear -4 1027 57 10000 1.54 230 12:26 02.02.2022
5522 Clear -3 1028 47 10000 1.54 260 11:42 02.02.2022
5523 Clear -3 1028 47 10000 1.54 260 11:23 02.02.2022
5524 Clear 0 1028 36 10000 3.6 330 07:59 02.02.2022
5525 Clouds -5 1030 75 8000 1.03 320 01:36 02.02.2022
5526 Mist -7 1028 86 4000 1.03 10 21:59 01.02.2022
5527 Fog -7 1028 82 4000 1.03 170 20:49 01.02.2022
5528 Mist -6 1028 93 5000 1.54 300 18:35 01.02.2022
5529 Mist -3 1029 75 5000 2.06 270 16:43 01.02.2022
5530 Mist -3 1028 75 5000 2.57 280 14:56 01.02.2022
5531 Haze -2 1027 75 5000 2.57 260 12:49 01.02.2022
5532 Clouds -2 1027 74 6000 3.09 290 11:48 01.02.2022
5533 Clouds 0 1025 61 7000 5.14 310 06:57 01.02.2022
5534 Mist -2 1023 83 8000 2.57 280 23:53 31.01.2022
5535 Mist -2 1023 83 8000 2.57 280 23:34 31.01.2022
5536 Mist -2 1023 83 8000 2.57 280 23:34 31.01.2022
5537 Mist -3 1022 93 10000 2.57 270 22:26 31.01.2022
5538 Snow -3 1022 93 7000 1.03 300 21:33 31.01.2022
5539 Snow -2 1022 93 2500 1.03 310 20:33 31.01.2022
5540 Snow -1 1023 76 2500 2.06 300 19:46 31.01.2022
5541 Haze -1 1023 68 10000 1.03 250 18:29 31.01.2022
5542 Mist 0 1023 74 10000 2.06 260 17:46 31.01.2022
5543 Mist 0 1023 87 5000 2.06 270 16:48 31.01.2022
5544 Clouds 0 1022 93 1200 1.54 200 15:43 31.01.2022
5545 Snow 0 1022 81 800 1.54 220 14:24 31.01.2022
5546 Snow -1 1022 66 10000 4.12 140 12:39 31.01.2022
5547 Clouds -1 1022 62 10000 3.09 150 11:58 31.01.2022
5548 Clouds 2 1023 54 10000 2.06 210 10:50 31.01.2022
5549 Clouds 2 1023 54 10000 2.06 210 10:32 31.01.2022
5550 Clouds 3 1023 49 10000 3.6 250 09:27 31.01.2022
5551 Clouds 4 1023 47 10000 4.12 250 08:51 31.01.2022
5552 Clouds 4 1023 48 10000 4.12 250 08:20 31.01.2022
5553 Clouds 4 1023 41 10000 4.12 290 06:18 31.01.2022
5554 Clear -2 1025 43 10000 1.03 100 02:18 31.01.2022
5555 Clear -10 1025 79 10000 1.03 140 23:18 30.01.2022
5556 Clear -10 1025 73 10000 1.03 20 22:29 30.01.2022
5557 Clear -9 1025 70 10000 1.03 10 21:42 30.01.2022
5558 Clear -8 1025 73 10000 1.03 10 21:19 30.01.2022
5559 Clear -8 1025 73 10000 1.54 330 20:47 30.01.2022
5560 Clear -8 1025 73 10000 1.54 330 20:28 30.01.2022
5561 Clear -9 1025 71 10000 0.51 330 19:52 30.01.2022
5562 Clear -7 1025 53 10000 0.51 310 18:43 30.01.2022
5563 Clear -7 1025 53 10000 0.51 310 18:20 30.01.2022
5564 Clear -8 1024 57 10000 0.51 270 17:22 30.01.2022
5565 Clear -5 1024 47 10000 2.06 320 16:40 30.01.2022
5566 Clear -6 1024 50 10000 2.06 320 16:22 30.01.2022
5567 Clear -5 1024 43 10000 0.51 360 15:50 30.01.2022
5568 Clear -5 1024 43 10000 0.51 360 15:31 30.01.2022
5569 Clear -4 1024 40 10000 4.12 320 14:46 30.01.2022
5570 Clear -3 1023 39 10000 4.63 310 12:47 30.01.2022
5571 Clear -3 1022 42 10000 1.54 280 11:57 30.01.2022
5572 Clear 0 1021 31 10000 3.09 270 10:32 30.01.2022
5573 Clear 2 1021 27 10000 4.12 270 09:50 30.01.2022
5574 Clear 2 1021 24 10000 3.6 270 08:54 30.01.2022
5575 Clear 2 1021 23 10000 3.09 330 07:28 30.01.2022
5576 Clear -6 1023 61 10000 0.51 340 01:56 30.01.2022
5577 Clear -9 1023 73 10000 1.54 320 00:23 30.01.2022
5578 Clear -10 1022 85 10000 2.06 320 23:18 29.01.2022
5579 Clear -9 1022 70 10000 0 0 21:49 29.01.2022
5580 Clear -9 1022 70 10000 0 0 21:24 29.01.2022
5581 Clear -9 1022 67 10000 1.54 290 20:28 29.01.2022
5582 Clear -9 1022 70 10000 1.54 270 19:34 29.01.2022
5583 Clear -7 1022 63 10000 2.06 340 18:52 29.01.2022
5584 Clear -7 1022 63 10000 2.06 340 18:23 29.01.2022
5585 Clear -7 1023 60 10000 2.57 310 17:29 29.01.2022
5586 Clear -6 1022 51 10000 3.6 320 15:57 29.01.2022
5587 Clear -5 1022 52 10000 3.09 330 14:23 29.01.2022
5588 Clear -5 1021 48 10000 3.6 340 13:42 29.01.2022
5589 Clear -5 1021 48 10000 3.6 340 13:23 29.01.2022
5590 Clear -2 1021 42 10000 3.09 280 11:47 29.01.2022
5591 Clear -1 1021 36 10000 3.6 260 10:54 29.01.2022
5592 Clear 1 1021 24 10000 3.6 310 08:42 29.01.2022
5593 Clear 1 1022 26 10000 4.12 300 06:55 29.01.2022
5594 Clear -8 1024 66 10000 1.03 310 00:34 29.01.2022
5595 Clear -9 1023 73 10000 1.54 310 23:51 28.01.2022
5596 Clear -8 1023 66 10000 0.51 360 22:50 28.01.2022
5597 Clear -9 1023 73 10000 0.51 360 22:21 28.01.2022
5598 Clear -8 1024 65 10000 1.54 310 21:35 28.01.2022
5599 Clear -8 1024 68 10000 0.51 100 20:29 28.01.2022
5600 Clear -7 1024 63 10000 0.51 270 19:28 28.01.2022
5601 Clear -6 1024 59 10000 1.54 300 18:42 28.01.2022
5602 Clear -5 1025 50 10000 3.09 340 16:45 28.01.2022
5603 Clear -4 1024 47 10000 4.12 310 14:59 28.01.2022
5604 Clear -3 1024 43 10000 3.09 300 13:34 28.01.2022
5605 Clouds -2 1024 40 10000 0.51 290 12:26 28.01.2022
5606 Clear -1 1023 42 10000 3.09 260 10:41 28.01.2022
5607 Clear 0 1024 38 10000 4.63 270 09:48 28.01.2022
5608 Clear 2 1024 31 10000 4.63 260 07:43 28.01.2022
5609 Clear 2 1024 30 10000 4.12 320 06:31 28.01.2022
5610 Clear -1 1027 43 10000 3.09 350 03:52 28.01.2022
5611 Clear -3 1027 50 10000 3.09 340 02:29 28.01.2022
5612 Clear -4 1027 56 10000 3.09 330 01:57 28.01.2022
5613 Clear -4 1027 56 10000 3.09 330 01:57 28.01.2022
5614 Clear -4 1027 56 10000 3.09 330 01:29 28.01.2022
5615 Clear -7 1026 66 10000 1.03 330 22:39 27.01.2022
5616 Clear -8 1026 73 10000 1.03 340 21:40 27.01.2022
5617 Clear -6 1026 68 10000 1.54 310 20:59 27.01.2022
5618 Clear -6 1026 68 10000 1.03 350 19:45 27.01.2022
5619 Clear -6 1026 63 10000 1.03 290 18:20 27.01.2022
5620 Clear -5 1026 58 10000 3.09 310 16:55 27.01.2022
5621 Clear -2 1025 53 10000 2.57 310 13:58 27.01.2022
5622 Clear -2 1025 51 10000 3.6 340 12:49 27.01.2022
5623 Clear -2 1025 51 10000 3.6 340 12:49 27.01.2022
5624 Clear 0 1025 48 10000 2.06 290 11:54 27.01.2022
5625 Clear 2 1024 34 10000 3.6 270 09:48 27.01.2022
5626 Clear 4 1023 25 10000 3.6 330 08:40 27.01.2022
5627 Clear 4 1023 27 10000 4.63 320 07:52 27.01.2022
5628 Clouds 1 1026 46 7000 1.54 280 03:34 27.01.2022
5629 Clear -7 1026 71 6000 2.06 330 00:23 27.01.2022
5630 Clear -6 1026 71 6000 2.06 310 22:27 26.01.2022
5631 Clouds -5 1026 66 7000 3.6 320 21:44 26.01.2022
5632 Clear -4 1026 64 10000 2.06 340 20:43 26.01.2022
5633 Clear -4 1026 64 10000 2.06 340 20:24 26.01.2022
5634 Clear -3 1026 59 10000 2.57 330 19:38 26.01.2022
5635 Clear -3 1026 55 10000 2.06 320 18:46 26.01.2022
5636 Clear -4 1026 63 10000 2.06 320 18:18 26.01.2022
5637 Clear -2 1026 49 10000 2.06 320 17:33 26.01.2022
5638 Clear -2 1026 47 10000 2.57 320 16:47 26.01.2022
5639 Clear -2 1026 47 10000 2.57 310 15:56 26.01.2022
5640 Clear -2 1026 52 10000 2.57 310 14:32 26.01.2022
5641 Clear 0 1025 55 10000 3.09 290 12:18 26.01.2022
5642 Clear 3 1024 41 10000 4.12 270 10:49 26.01.2022
5643 Clouds 4 1024 42 8000 3.6 290 09:50 26.01.2022
5644 Clear 5 1024 35 10000 3.6 270 08:46 26.01.2022
5645 Clear 6 1024 42 7000 2.57 270 06:28 26.01.2022
5646 Clouds 6 1024 37 7000 2.57 270 06:28 26.01.2022
5647 Clouds 6 1024 37 7000 2.57 270 06:27 26.01.2022
5648 Clear 6 1024 42 7000 2.57 270 06:27 26.01.2022
5649 Mist -4 1025 93 5000 1.03 100 00:21 26.01.2022
5650 Mist -5 1024 93 5000 1.03 10 23:34 25.01.2022
5651 Mist -4 1024 93 3000 0.51 50 22:48 25.01.2022
5652 Mist -4 1024 93 3000 0.51 50 22:18 25.01.2022
5653 Mist -3 1023 93 3200 1.03 300 21:22 25.01.2022
5654 Mist -1 1024 86 9000 0.51 330 20:44 25.01.2022
5655 Mist -1 1023 86 9000 1.03 310 19:53 25.01.2022
5656 Mist 0 1023 86 9000 0.51 210 18:46 25.01.2022
5657 Mist 0 1022 80 5000 2.57 280 17:45 25.01.2022
5658 Mist 1 1022 78 5000 3.6 300 16:58 25.01.2022
5659 Mist 1 1022 78 5000 3.6 300 16:34 25.01.2022
5660 Clouds 2 1022 78 6000 2.57 290 15:39 25.01.2022
5661 Clouds 2 1022 81 6000 0.51 150 14:58 25.01.2022
5662 Clouds 1 1021 86 6000 0.51 330 13:47 25.01.2022
5663 Haze 4 1020 65 10000 3.6 270 10:59 25.01.2022
5664 Clouds 3 1020 88 10000 2.07 244 09:20 25.01.2022
5665 Mist 4 1019 74 9000 3.6 260 07:31 25.01.2022
5666 Clouds 5 1020 70 7000 2.57 200 06:53 25.01.2022
5667 Clouds 4 1020 75 7000 2.57 160 05:22 25.01.2022
5668 Clouds 2 1020 81 10000 3.09 130 23:37 24.01.2022
5669 Snow 2 1021 94 624 1.3 102 23:19 24.01.2022
5670 Clouds 2 1020 81 10000 3.09 110 22:59 24.01.2022
5671 Clouds 2 1020 81 10000 3.09 110 22:41 24.01.2022
5672 Clouds 2 1020 81 10000 4.63 120 21:55 24.01.2022
5673 Rain 2 1020 81 10000 4.63 120 21:29 24.01.2022
5674 Clouds 2 1021 84 10000 4.12 160 20:32 24.01.2022
5675 Rain 4 1021 56 10000 4.12 170 19:52 24.01.2022
5676 Rain 3 1021 56 10000 4.12 170 19:30 24.01.2022
5677 Rain 4 1021 48 10000 4.12 120 18:19 24.01.2022
5678 Clouds 4 1021 47 10000 3.6 110 17:24 24.01.2022
5679 Rain 4 1021 46 10000 4.12 130 16:55 24.01.2022
5680 Clear 4 1021 45 10000 4.12 130 16:19 24.01.2022
5681 Clouds 5 1021 44 10000 4.12 120 14:43 24.01.2022
5682 Clouds 5 1021 45 10000 4.12 110 13:24 24.01.2022
5683 Clouds 5 1022 52 10000 1.57 63 12:23 24.01.2022
5684 Clear 6 1021 42 10000 3.6 90 10:30 24.01.2022
5685 Clear 6 1021 42 10000 3.6 90 10:30 24.01.2022
5686 Clear 7 1021 39 10000 4.12 80 09:48 24.01.2022
5687 Clear 8 1021 39 10000 5.14 90 08:34 24.01.2022
5688 Clear 8 1021 39 10000 4.12 100 06:40 24.01.2022
5689 Clear 0 1022 80 10000 1.54 320 01:31 24.01.2022
5690 Clear -3 1022 86 10000 1.54 350 00:36 24.01.2022
5691 Clear -3 1022 83 6000 1.54 320 23:52 23.01.2022
5692 Mist -3 1021 93 5000 1.54 330 22:32 23.01.2022
5693 Mist -4 1022 83 5000 1.03 330 21:49 23.01.2022
5694 Mist -4 1022 83 5000 1.03 330 21:25 23.01.2022
5695 Mist -3 1022 83 5000 2.06 320 20:44 23.01.2022
5696 Mist -3 1022 80 5000 2.06 330 19:44 23.01.2022
5697 Mist -3 1022 83 5000 1.54 310 18:51 23.01.2022
5698 Mist -3 1021 80 5000 2.06 320 17:44 23.01.2022
5699 Mist -2 1021 77 5000 0.51 360 16:47 23.01.2022
5700 Clear -2 1021 72 6000 1.03 330 14:59 23.01.2022
5701 Clear -2 1021 72 6000 1.03 330 14:25 23.01.2022
5702 Clear -2 1021 72 6000 1.03 330 14:25 23.01.2022
5703 Clear 0 1021 55 7000 2.06 320 12:54 23.01.2022
5704 Clear 0 1021 59 7000 2.06 320 12:22 23.01.2022
5705 Clear 0 1021 59 7000 2.06 320 12:22 23.01.2022
5706 Clear 0 1021 59 7000 2.06 340 11:52 23.01.2022
5707 Clear 0 1021 59 7000 2.06 340 11:18 23.01.2022
5708 Clouds 3 1021 48 8000 2.06 330 10:27 23.01.2022
5709 Clouds 5 1020 41 8000 2.57 340 09:51 23.01.2022
5710 Clear 7 1020 36 7000 2.06 300 08:52 23.01.2022
5711 Clouds 6 1022 42 8000 3.6 360 05:56 23.01.2022
5712 Clear -1 1024 55 10000 3.09 330 01:52 23.01.2022
5713 Clear -1 1024 55 10000 3.09 330 01:26 23.01.2022
5714 Clear -2 1023 66 10000 2.06 330 00:23 23.01.2022
5715 Clear -2 1023 62 10000 2.06 330 23:44 22.01.2022
5716 Clear -2 1023 57 10000 1.54 330 22:40 22.01.2022
5717 Clear -2 1024 59 10000 2.06 340 21:28 22.01.2022
5718 Snow -1 1024 55 10000 2.57 320 19:51 22.01.2022
5719 Snow 0 1025 49 10000 1.54 350 18:49 22.01.2022
5720 Clear -1 1025 57 10000 1.03 350 17:59 22.01.2022
5721 Clear -1 1025 57 10000 1.03 350 17:35 22.01.2022
5722 Clear -1 1025 58 10000 2.06 330 16:55 22.01.2022
5723 Clouds -2 1025 62 9000 2.06 330 15:49 22.01.2022
5724 Clouds -3 1025 56 9000 3.09 330 14:58 22.01.2022
5725 Clear -1 1025 53 10000 1.54 320 13:42 22.01.2022
5726 Clear 0 1025 47 10000 2.57 320 12:50 22.01.2022
5727 Clear 0 1025 47 10000 2.57 320 12:28 22.01.2022
5728 Clear 2 1025 39 10000 3.09 340 10:56 22.01.2022
5729 Clear 2 1025 39 10000 3.09 340 10:29 22.01.2022
5730 Clear 4 1025 35 10000 3.09 320 09:58 22.01.2022
5731 Clear 5 1025 32 10000 2.57 350 08:51 22.01.2022
5732 Clear 5 1025 26 10000 1.54 330 07:34 22.01.2022
5733 Clouds 2 1027 43 9000 3.6 330 04:52 22.01.2022
5734 Clouds 2 1027 43 9000 3.6 330 04:52 22.01.2022
5735 Clouds -5 1028 80 7000 1.03 310 01:34 22.01.2022
5736 Mist -8 1028 83 5000 1.03 330 23:35 21.01.2022
5737 Mist -8 1028 86 5000 1.54 330 22:20 21.01.2022
5738 Mist -9 1028 92 5000 1.03 360 20:20 21.01.2022
5739 Clouds -8 1028 80 7000 1.54 340 18:36 21.01.2022
5740 Clouds -8 1028 79 9000 1.54 330 17:25 21.01.2022
5741 Clear -7 1028 74 10000 1.03 320 15:30 21.01.2022
5742 Clear -6 1029 68 10000 1.54 330 13:29 21.01.2022
5743 Clear -5 1029 68 10000 2.06 310 12:37 21.01.2022
5744 Clear -3 1029 57 10000 2.06 300 11:27 21.01.2022
5745 Clear 0 1030 25 10000 0.9 356 10:18 21.01.2022
5746 Clear 5 1029 24 10000 0.51 340 08:23 21.01.2022
5747 Clear 0 1032 44 10000 1.03 210 04:49 21.01.2022
5748 Clear -10 1031 82 7000 1.54 360 23:31 20.01.2022
5749 Clear -12 1031 92 7000 1.03 340 22:21 20.01.2022
5750 Clear -11 1031 85 7000 1.54 10 21:42 20.01.2022
5751 Clear -10 1031 85 8000 1.03 360 20:40 20.01.2022
5752 Clear -10 1031 86 10000 2.06 20 19:19 20.01.2022
5753 Clear -10 1031 86 10000 2.06 20 19:19 20.01.2022
5754 Clear -9 1031 86 10000 1.03 350 18:23 20.01.2022
5755 Clear -8 1031 73 10000 1.54 340 16:53 20.01.2022
5756 Clear -8 1031 73 10000 2.06 300 15:40 20.01.2022
5757 Clear -7 1030 71 10000 2.06 320 14:41 20.01.2022
5758 Clear -5 1030 61 10000 1.03 330 13:33 20.01.2022
5759 Clear -5 1030 55 10000 1.54 320 12:32 20.01.2022
5760 Clear -4 1030 54 10000 3.6 340 11:49 20.01.2022
5761 Clear -3 1029 47 10000 3.09 330 10:38 20.01.2022
5762 Clear 0 1029 38 10000 3.6 340 09:34 20.01.2022
5763 Clear 2 1029 35 10000 2.06 350 07:33 20.01.2022
5764 Clear -12 1029 82 8000 1.54 320 00:43 20.01.2022
5765 Clear -12 1028 85 10000 1.03 50 22:52 19.01.2022
5766 Clear -12 1027 82 10000 3.09 330 21:45 19.01.2022
5767 Clear -12 1027 82 10000 3.09 330 21:22 19.01.2022
5768 Clear -11 1027 79 10000 2.57 340 20:46 19.01.2022
5769 Clear -11 1027 73 10000 2.57 320 19:27 19.01.2022
5770 Clear -10 1026 76 10000 3.09 330 17:55 19.01.2022
5771 Clear -10 1026 76 10000 3.09 330 17:35 19.01.2022
5772 Clear -10 1026 79 10000 2.06 320 16:27 19.01.2022
5773 Clear -6 1025 68 10000 4.12 330 13:42 19.01.2022
5774 Haze -5 1024 66 7000 6.17 320 12:24 19.01.2022
5775 Haze -4 1024 66 6000 5.14 320 11:38 19.01.2022
5776 Clouds -4 1023 68 8000 6.69 330 10:20 19.01.2022
5777 Mist -3 1022 80 5000 4.63 310 09:33 19.01.2022
5778 Mist -4 1023 86 2500 4.12 340 06:34 19.01.2022
5779 Snow -6 1025 69 3200 3.6 150 01:40 19.01.2022
5780 Clouds -10 1025 85 9000 2.06 210 23:18 18.01.2022
5781 Clear -10 1026 82 10000 1.03 320 21:56 18.01.2022
5782 Clear -10 1027 79 10000 1.03 360 20:47 18.01.2022
5783 Clear -10 1027 79 10000 0.51 250 19:54 18.01.2022
5784 Clear -10 1027 79 10000 0.51 250 19:35 18.01.2022
5785 Clear -10 1028 85 10000 0.51 80 18:36 18.01.2022
5786 Clear -9 1028 73 10000 0.51 50 17:51 18.01.2022
5787 Clear -8 1028 72 10000 0.51 240 16:35 18.01.2022
5788 Clear -7 1028 63 10000 1.54 300 15:26 18.01.2022
5789 Clear -7 1028 54 10000 0.51 10 14:54 18.01.2022
5790 Clear -5 1028 54 10000 3.09 280 11:52 18.01.2022
5791 Clear -4 1027 46 10000 2.57 270 10:41 18.01.2022
5792 Clear -1 1027 24 10000 3.09 330 08:49 18.01.2022
5793 Clear -1 1027 27 10000 3.6 340 07:45 18.01.2022
5794 Clear -7 1030 28 10000 2.07 308 02:20 18.01.2022
5795 Clear -13 1030 78 10000 2.06 280 23:22 17.01.2022
5796 Clear -10 1029 59 10000 2.06 280 21:58 17.01.2022
5797 Clear -10 1029 59 10000 2.06 280 21:31 17.01.2022
5798 Clear -9 1029 51 10000 1.54 240 19:42 17.01.2022
5799 Clear -9 1029 54 10000 2.57 310 18:28 17.01.2022
5800 Clear -8 1029 56 10000 2.06 300 17:24 17.01.2022
5801 Clear -9 1029 79 10000 1.54 300 16:24 17.01.2022
5802 Clear -6 1029 49 10000 3.09 310 14:58 17.01.2022
5803 Clear -6 1029 49 10000 3.09 310 14:33 17.01.2022
5804 Clouds -5 1028 35 10000 5.25 315 13:19 17.01.2022
5805 Clear -5 1028 48 10000 4.63 310 12:27 17.01.2022
5806 Clouds -4 1027 62 10000 5.66 310 11:47 17.01.2022
5807 Clouds -4 1026 86 8000 5.14 300 10:21 17.01.2022
5808 Clouds -2 1025 77 6000 3.09 300 08:44 17.01.2022
5809 Mist -2 1026 80 3500 3.6 260 07:21 17.01.2022
5810 Clear -5 1029 43 10000 0.51 190 02:20 17.01.2022
5811 Clear -11 1028 76 10000 0.51 140 00:43 17.01.2022
5812 Clear -11 1028 72 10000 2.06 70 21:22 16.01.2022
5813 Clear -10 1028 63 10000 0.51 70 20:28 16.01.2022
5814 Clear -8 1028 56 10000 0.51 280 18:46 16.01.2022
5815 Clear -8 1029 56 10000 3.09 300 17:50 16.01.2022
5816 Clear -7 1028 54 10000 4.63 320 16:54 16.01.2022
5817 Clear -7 1028 51 10000 2.57 320 15:40 16.01.2022
5818 Clear -6 1028 45 10000 5.66 330 14:29 16.01.2022
5819 Clear -5 1027 42 10000 4.63 290 13:23 16.01.2022
5820 Clear -3 1027 44 10000 3.09 270 11:58 16.01.2022
5821 Clear -3 1027 44 10000 3.09 270 11:27 16.01.2022
5822 Clear -3 1026 43 10000 3.6 270 10:27 16.01.2022
5823 Clear -1 1026 34 10000 4.63 270 09:57 16.01.2022
5824 Clear -1 1026 37 10000 4.63 270 09:23 16.01.2022
5825 Clear 0 1026 32 10000 5.66 260 08:53 16.01.2022
5826 Clear 0 1026 31 10000 4.63 300 05:51 16.01.2022
5827 Clear -3 1024 68 10000 6.17 290 00:18 16.01.2022
5828 Mist 0 1022 81 4000 2.57 290 22:37 15.01.2022
5829 Mist 0 1022 80 5000 4.63 310 21:21 15.01.2022
5830 Mist 1 1021 80 5000 4.12 290 20:43 15.01.2022
5831 Clouds 1 1021 70 6000 3.09 270 19:52 15.01.2022
5832 Clouds 2 1021 70 6000 3.09 270 19:19 15.01.2022
5833 Clouds 1 1022 70 10000 1.54 200 17:35 15.01.2022
5834 Clouds 1 1021 65 10000 1.03 190 16:38 15.01.2022
5835 Snow 1 1022 52 10000 1.03 170 13:57 15.01.2022
5836 Clouds 1 1021 60 10000 1.54 160 12:23 15.01.2022
5837 Clouds 1 1021 51 10000 1.54 240 11:18 15.01.2022
5838 Clouds 3 1021 40 10000 2.57 140 08:36 15.01.2022
5839 Clouds -5 1023 54 10000 1.03 140 00:49 15.01.2022
5840 Snow -8 1024 71 10000 1.03 310 21:56 14.01.2022
5841 Clear -8 1024 79 10000 0.51 360 20:41 14.01.2022
5842 Clear -8 1024 79 10000 0.51 360 20:21 14.01.2022
5843 Clear -7 1025 79 10000 0.51 310 19:40 14.01.2022
5844 Clear -7 1025 71 10000 0.51 330 18:27 14.01.2022
5845 Clear -6 1026 58 10000 1.03 40 16:50 14.01.2022
5846 Clear -6 1026 54 10000 1.03 60 15:48 14.01.2022
5847 Clear -6 1026 50 10000 1.54 350 14:42 14.01.2022
5848 Clear -5 1025 50 10000 1.54 340 13:36 14.01.2022
5849 Clear -6 1025 52 10000 1.54 310 12:28 14.01.2022
5850 Clear -3 1024 38 10000 3.09 290 10:53 14.01.2022
5851 Clear 0 1025 22 10000 2.57 20 08:54 14.01.2022
5852 Clear 0 1025 22 10000 2.57 20 08:34 14.01.2022
5853 Clear 0 1026 23 10000 2.06 230 06:45 14.01.2022
5854 Clear -9 1028 53 10000 0.51 180 01:20 14.01.2022
5855 Clear -10 1026 49 10000 0.51 290 22:52 13.01.2022
5856 Clear -10 1026 49 10000 3.09 320 21:31 13.01.2022
5857 Clear -12 1026 67 10000 1.54 300 20:57 13.01.2022
5858 Clear -10 1026 55 10000 1.54 270 19:40 13.01.2022
5859 Clear -11 1026 67 10000 1.54 270 19:22 13.01.2022
5860 Clear -8 1025 50 10000 3.6 290 17:52 13.01.2022
5861 Clear -8 1025 57 10000 2.57 250 16:20 13.01.2022
5862 Clear -9 1026 52 10000 1.03 270 15:37 13.01.2022
5863 Clear -8 1025 48 10000 0.51 30 14:40 13.01.2022
5864 Clear -7 1025 48 10000 2.06 350 12:37 13.01.2022
5865 Clouds -6 1023 49 10000 4.63 330 10:23 13.01.2022
5866 Clouds -3 1022 31 10000 7.72 310 08:57 13.01.2022
5867 Clouds -3 1022 31 10000 7.72 310 08:26 13.01.2022
5868 Clouds -3 1021 28 10000 8.75 300 07:22 13.01.2022
5869 Clouds -3 1021 28 10000 8.75 320 05:59 13.01.2022
5870 Clouds -3 1021 28 10000 8.75 320 05:19 13.01.2022
5871 Clear -6 1022 42 10000 4.63 300 01:53 13.01.2022
5872 Clear -7 1021 46 10000 3.09 290 00:40 13.01.2022
5873 Clear -7 1020 54 10000 4.12 310 23:45 12.01.2022
5874 Clouds -6 1020 51 10000 2.57 320 22:57 12.01.2022
5875 Clouds -8 1019 53 10000 2.57 320 21:56 12.01.2022
5876 Clouds -8 1019 57 10000 2.57 320 21:21 12.01.2022
5877 Clouds -7 1020 48 10000 1.03 310 20:56 12.01.2022
5878 Clouds -7 1020 47 10000 0.51 250 19:41 12.01.2022
5879 Clouds -7 1021 47 10000 0.51 320 18:30 12.01.2022
5880 Clouds -8 1021 53 10000 0.51 110 17:20 12.01.2022
5881 Clouds -8 1021 57 10000 1.03 340 16:28 12.01.2022
5882 Clear -6 1022 41 10000 1.54 300 14:48 12.01.2022
5883 Clear -6 1023 41 10000 3.09 310 12:59 12.01.2022
5884 Snow -6 1023 41 10000 3.09 310 12:58 12.01.2022
5885 Clear -5 1022 43 10000 2.57 260 10:38 12.01.2022
5886 Clear -3 1022 34 10000 3.6 280 08:37 12.01.2022
5887 Clear -3 1022 32 10000 4.63 350 07:49 12.01.2022
5888 Clear -3 1022 32 10000 4.63 350 07:31 12.01.2022
5889 Clear -12 1024 62 10000 2.06 310 23:40 11.01.2022
5890 Clear -13 1024 73 10000 1.03 260 22:49 11.01.2022
5891 Clear -14 1024 78 10000 1.03 260 22:22 11.01.2022
5892 Clear -11 1024 64 10000 2.06 340 20:51 11.01.2022
5893 Clear -11 1025 62 10000 1.03 260 19:48 11.01.2022
5894 Clear -11 1025 57 10000 2.06 290 18:31 11.01.2022
5895 Clear -11 1025 62 10000 2.57 300 17:24 11.01.2022
5896 Clear -10 1025 57 10000 3.09 320 16:37 11.01.2022
5897 Clear -10 1025 57 10000 3.6 320 15:34 11.01.2022
5898 Clear -9 1025 49 10000 4.12 320 14:41 11.01.2022
5899 Clear -8 1025 51 10000 5.66 330 13:54 11.01.2022
5900 Clear -8 1025 51 10000 5.66 330 13:32 11.01.2022
5901 Clear -8 1025 49 10000 4.12 320 12:41 11.01.2022
5902 Clear -7 1024 49 10000 5.66 330 11:40 11.01.2022
5903 Clouds -5 1022 36 10000 6.17 330 09:28 11.01.2022
5904 Clear -4 1020 40 10000 5.66 310 06:36 11.01.2022
5905 Clear -8 1020 55 10000 5.14 300 00:30 11.01.2022
5906 Clouds -8 1019 62 10000 4.12 340 23:41 10.01.2022
5907 Clear -7 1019 62 10000 6.17 310 22:51 10.01.2022
5908 Clear -7 1019 62 10000 6.17 310 22:51 10.01.2022
5909 Clear -7 1019 62 10000 6.17 310 22:18 10.01.2022
5910 Clear -6 1018 63 10000 4.12 320 21:48 10.01.2022
5911 Clear -6 1018 63 10000 4.12 320 21:19 10.01.2022
5912 Mist -6 1018 63 10000 6.69 310 20:56 10.01.2022
5913 Clouds -6 1018 63 10000 6.69 310 20:26 10.01.2022
5914 Clouds -4 1018 68 10000 6.69 330 19:41 10.01.2022
5915 Clouds -4 1018 68 10000 6.69 330 19:20 10.01.2022
5916 Mist -3 1018 68 8000 5.66 310 18:48 10.01.2022
5917 Mist -1 1018 77 6000 5.66 310 17:24 10.01.2022
5918 Mist -1 1017 89 4000 6.17 320 16:41 10.01.2022
5919 Snow 0 1017 93 1500 1.03 170 15:20 10.01.2022
5920 Haze 1 1018 62 8000 1.54 260 13:41 10.01.2022
5921 Haze 2 1019 54 9000 3.09 320 11:58 10.01.2022
5922 Haze 2 1019 54 9000 3.09 320 11:24 10.01.2022
5923 Haze 3 1019 48 7000 3.6 300 09:46 10.01.2022
5924 Haze 4 1020 48 4500 2.57 300 06:22 10.01.2022
5925 Haze 4 1020 52 4000 0.51 350 05:49 10.01.2022
5926 Mist -5 1023 90 1700 1.54 330 01:26 10.01.2022
5927 Fog -7 1023 90 1700 1.03 340 00:23 10.01.2022
5928 Fog -6 1023 90 1200 1.54 320 23:28 09.01.2022
5929 Fog -7 1023 89 1200 1.54 310 22:33 09.01.2022
5930 Fog -6 1023 90 1400 0.51 330 21:44 09.01.2022
5931 Fog -7 1023 93 1400 0.51 330 21:23 09.01.2022
5932 Fog -7 1023 93 1400 0.51 330 21:23 09.01.2022
5933 Fog -7 1023 93 1400 0.51 330 21:23 09.01.2022
5934 Mist -6 1023 90 2000 1.03 10 20:50 09.01.2022
5935 Mist -6 1023 90 2000 1.03 10 20:29 09.01.2022
5936 Mist -5 1024 80 4400 0.51 240 19:44 09.01.2022
5937 Clouds -5 1023 55 10000 0.6 338 19:23 09.01.2022
5938 Mist -6 1023 90 2300 1.03 320 18:49 09.01.2022
5939 Mist -6 1023 90 2300 1.03 320 18:30 09.01.2022
5940 Mist -5 1023 90 2300 0.51 360 17:30 09.01.2022
5941 Mist -5 1023 86 2500 1.54 340 16:51 09.01.2022
5942 Mist -5 1023 87 2500 1.54 320 15:56 09.01.2022
5943 Mist -5 1023 87 2500 1.54 320 15:34 09.01.2022
5944 Mist -4 1023 80 3000 0.51 360 14:40 09.01.2022
5945 Mist -3 1023 80 3500 0.51 310 13:50 09.01.2022
5946 Haze -2 1023 77 3500 1.54 320 12:44 09.01.2022
5947 Haze -2 1023 71 4000 1.54 310 11:48 09.01.2022
5948 Haze 2 1022 56 5000 2.06 320 09:59 09.01.2022
5949 Haze 3 1022 52 5000 2.06 320 09:41 09.01.2022
5950 Haze 5 1022 45 5000 1.54 320 08:30 09.01.2022
5951 Mist 0 1023 80 2000 1.54 330 02:31 09.01.2022
5952 Mist -2 1023 86 2000 1.03 340 01:20 09.01.2022
5953 Fog -3 1022 93 800 0.51 280 23:38 08.01.2022
5954 Fog -2 1022 86 800 2.57 310 22:59 08.01.2022
5955 Mist -1 1022 89 1400 1.03 340 21:33 08.01.2022
5956 Fog -1 1022 93 800 3.09 310 20:45 08.01.2022
5957 Fog -1 1022 93 800 3.09 310 20:24 08.01.2022
5958 Mist 1 1022 87 1500 3.09 310 19:58 08.01.2022
5959 Mist 2 1022 75 4800 1.03 200 17:51 08.01.2022
5960 Mist 1 1021 93 2000 2.06 310 17:21 08.01.2022
5961 Mist 3 1022 77 2800 3.09 270 15:47 08.01.2022
5962 Mist 3 1022 75 3000 3.6 260 14:40 08.01.2022
5963 Mist 3 1022 75 3000 2.57 240 12:36 08.01.2022
5964 Haze 3 1022 70 3800 3.6 250 10:49 08.01.2022
5965 Haze 3 1022 70 3800 3.6 250 10:24 08.01.2022
5966 Haze 4 1022 65 4500 3.09 240 09:43 08.01.2022
5967 Clouds 4 1022 60 10000 2.57 200 07:18 08.01.2022
5968 Clouds -2 1026 57 10000 3.09 150 02:33 08.01.2022
5969 Clouds -9 1026 83 9000 0.51 110 00:40 08.01.2022
5970 Clouds -9 1026 86 8000 0.51 250 22:40 07.01.2022
5971 Clouds -8 1027 77 9000 1.03 340 20:56 07.01.2022
5972 Clear -8 1028 80 10000 0.51 40 19:39 07.01.2022
5973 Clear -8 1028 74 10000 0.51 300 18:53 07.01.2022
5974 Clear -8 1028 74 10000 0.51 300 18:30 07.01.2022
5975 Clear -7 1028 75 10000 1.03 300 17:25 07.01.2022
5976 Clear -7 1028 86 10000 1.03 320 16:22 07.01.2022
5977 Clear -4 1029 59 10000 1.54 30 13:53 07.01.2022
5978 Clear -4 1029 30 10000 0.8 271 13:18 07.01.2022
5979 Clear -3 1029 52 10000 1.03 310 12:25 07.01.2022
5980 Clear 4 1029 26 10000 1.03 350 07:31 07.01.2022
5981 Clear -3 1032 57 7000 0.51 340 02:54 07.01.2022
5982 Clear -7 1032 76 7000 1.03 20 01:52 07.01.2022
5983 Clear -7 1032 76 7000 1.03 20 01:27 07.01.2022
5984 Mist -9 1031 79 5000 1.03 330 00:55 07.01.2022
5985 Clear -9 1031 76 6000 1.03 300 22:42 06.01.2022
5986 Clear -10 1031 85 7000 1.03 320 21:22 06.01.2022
5987 Clear -8 1031 79 8000 0.51 320 20:19 06.01.2022
5988 Clear -9 1031 73 8000 1.54 360 19:40 06.01.2022
5989 Clear -8 1031 68 9000 2.06 320 17:52 06.01.2022
5990 Clear -8 1031 68 9000 2.06 320 17:31 06.01.2022
5991 Clear -7 1031 66 10000 2.57 320 16:39 06.01.2022
5992 Clear -6 1031 61 10000 1.54 310 15:45 06.01.2022
5993 Clear -7 1031 68 10000 1.54 310 15:23 06.01.2022
5994 Clear -5 1031 58 10000 1.54 320 14:20 06.01.2022
5995 Clear -4 1030 49 10000 2.06 330 13:44 06.01.2022
5996 Clear -4 1030 45 10000 2.57 320 12:32 06.01.2022
5997 Clear -3 1030 44 10000 2.57 310 11:41 06.01.2022
5998 Clear -3 1030 43 10000 2.57 310 11:19 06.01.2022
5999 Clear 3 1028 27 10000 5.14 340 06:59 06.01.2022
6000 Clear -8 1029 73 10000 0.51 260 00:35 06.01.2022
6001 Clear -9 1029 67 10000 2.06 310 23:34 05.01.2022
6002 Clear -8 1028 70 10000 2.06 340 22:48 05.01.2022
6003 Clear -8 1028 70 10000 2.06 340 22:29 05.01.2022
6004 Clear -8 1027 73 10000 2.57 320 21:43 05.01.2022
6005 Clear -8 1027 73 10000 2.06 350 20:44 05.01.2022
6006 Clear -7 1027 70 10000 1.54 320 19:46 05.01.2022
6007 Clear -7 1027 79 10000 2.06 330 18:27 05.01.2022
6008 Clear -5 1027 65 10000 2.06 340 16:57 05.01.2022
6009 Clear -4 1027 63 10000 2.06 340 16:21 05.01.2022
6010 Clear -4 1027 58 10000 0.51 350 15:20 05.01.2022
6011 Clear -3 1027 54 10000 1.54 320 13:35 05.01.2022
6012 Clear -1 1027 47 10000 2.06 310 12:30 05.01.2022
6013 Clear 2 1026 35 10000 2.57 320 08:46 05.01.2022
6014 Clear 1 1027 34 10000 2.06 350 06:46 05.01.2022
6015 Clear -7 1029 61 10000 2.06 350 01:49 05.01.2022
6016 Clear -10 1029 71 10000 1.03 30 23:44 04.01.2022
6017 Clear -10 1029 71 10000 1.03 30 23:25 04.01.2022
6018 Clear -9 1029 67 10000 1.03 350 22:19 04.01.2022
6019 Clear -10 1029 65 10000 1.54 320 20:45 04.01.2022
6020 Clear -8 1029 62 10000 2.57 310 18:44 04.01.2022
6021 Clear -8 1029 62 10000 2.57 340 17:34 04.01.2022
6022 Clear -8 1030 55 10000 2.06 310 16:39 04.01.2022
6023 Clouds -8 1030 26 10000 1.27 331 16:20 04.01.2022
6024 Clear -7 1029 49 10000 3.09 320 14:42 04.01.2022
6025 Clear -6 1029 44 10000 3.6 340 13:57 04.01.2022
6026 Clear -5 1029 41 10000 4.12 330 12:24 04.01.2022
6027 Clear -3 1028 33 10000 3.09 280 10:24 04.01.2022
6028 Clear 1 1028 22 10000 3.09 350 08:57 04.01.2022
6029 Clear 1 1028 27 10000 4.63 350 06:28 04.01.2022
6030 Clear -5 1029 71 10000 2.06 340 00:43 04.01.2022
6031 Clear -5 1028 68 10000 3.09 310 23:56 03.01.2022
6032 Clear -4 1028 71 10000 3.09 330 22:28 03.01.2022
6033 Clear -3 1027 77 10000 4.12 350 21:40 03.01.2022
6034 Clear -3 1027 77 10000 4.12 350 21:40 03.01.2022
6035 Clear -2 1027 74 10000 4.12 330 20:41 03.01.2022
6036 Clear -1 1027 75 10000 2.06 300 19:38 03.01.2022
6037 Clouds 0 1026 78 10000 3.6 340 18:31 03.01.2022
6038 Clouds -1 1025 80 10000 2.57 330 17:23 03.01.2022
6039 Snow 0 1025 83 7000 1.54 310 16:53 03.01.2022
6040 Clouds 0 1024 80 10000 1.54 150 14:32 03.01.2022
6041 Snow 0 1025 70 10000 1.03 210 12:53 03.01.2022
6042 Snow 1 1024 64 10000 1.03 200 11:50 03.01.2022
6043 Clouds 1 1025 60 10000 1.54 220 10:52 03.01.2022
6044 Clouds 1 1025 55 10000 2.06 240 09:28 03.01.2022
6045 Clouds 2 1025 43 10000 0.51 240 07:54 03.01.2022
6046 Clear -2 1028 34 10000 2.06 170 03:22 03.01.2022
6047 Clear -12 1027 79 10000 1.03 250 23:24 02.01.2022
6048 Clear -12 1027 79 10000 0.51 280 22:56 02.01.2022
6049 Clear -12 1027 79 10000 0.51 280 22:20 02.01.2022
6050 Clear -9 1028 62 10000 1.54 340 20:52 02.01.2022
6051 Clear -9 1028 62 10000 1.54 340 20:30 02.01.2022
6052 Clear -9 1028 67 10000 2.06 320 19:32 02.01.2022
6053 Clear -9 1028 73 10000 2.06 320 18:56 02.01.2022
6054 Clear -9 1028 73 10000 2.06 300 17:58 02.01.2022
6055 Clear -9 1028 73 10000 2.06 300 17:39 02.01.2022
6056 Clear -8 1028 73 10000 2.06 300 17:21 02.01.2022
6057 Clear -8 1028 73 10000 0.51 320 16:28 02.01.2022
6058 Clear -6 1028 53 10000 1.54 340 14:44 02.01.2022
6059 Clear -4 1028 46 10000 1.54 350 13:37 02.01.2022
6060 Clear -5 1028 53 10000 2.06 310 12:32 02.01.2022
6061 Clear -4 1028 54 10000 2.57 330 11:49 02.01.2022
6062 Clear -2 1027 50 10000 3.09 310 10:54 02.01.2022
6063 Clear 0 1027 43 10000 4.12 310 09:57 02.01.2022
6064 Clear 4 1026 30 10000 5.14 310 07:34 02.01.2022
6065 Clouds -1 1027 74 10000 2.06 320 02:56 02.01.2022
6066 Mist -3 1025 77 10000 3.6 140 23:42 01.01.2022
6067 Snow -3 1025 72 10000 3.6 140 23:24 01.01.2022
6068 Snow -3 1025 80 7000 1.54 40 22:25 01.01.2022
6069 Mist -2 1024 69 4500 3.6 160 21:45 01.01.2022
6070 Snow -2 1024 55 10000 3.6 150 21:21 01.01.2022
6071 Snow -3 1025 59 10000 3.09 140 20:20 01.01.2022
6072 Snow -3 1026 47 10000 3.09 160 19:33 01.01.2022
6073 Clouds -3 1026 51 10000 3.6 150 18:51 01.01.2022
6074 Clouds -5 1026 54 10000 2.06 160 17:38 01.01.2022
6075 Clouds -4 1027 63 10000 2.57 140 16:34 01.01.2022
6076 Clouds -4 1028 68 10000 2.57 160 15:33 01.01.2022
6077 Clouds -4 1028 74 10000 1.03 160 14:22 01.01.2022
6078 Clear -4 1028 63 10000 1.03 200 13:28 01.01.2022
6079 Clear -4 1029 32 10000 0.54 304 12:18 01.01.2022
6080 Clouds -3 1029 50 10000 1.54 150 11:25 01.01.2022
6081 Clear -2 1029 47 10000 1.03 260 10:52 01.01.2022
6082 Clear -1 1029 43 10000 1.03 210 09:47 01.01.2022
6083 Clear 1 1029 37 10000 1.03 30 08:27 01.01.2022
6084 Clear 2 1029 32 10000 1.54 360 07:56 01.01.2022
6085 Clear 2 1029 32 10000 1.54 360 07:37 01.01.2022
6086 Clear 2 1029 32 10000 1.54 360 07:37 01.01.2022
6087 Clear 1 1030 29 10000 0.51 90 06:43 01.01.2022
6088 Clear -2 1032 27 10000 1.03 130 04:39 01.01.2022
6089 Clear -4 1033 36 10000 1.54 180 03:48 01.01.2022
6090 Clear -13 1033 72 10000 1.03 40 23:53 31.12.2021
6091 Clear -12 1033 79 10000 1.03 350 21:56 31.12.2021
6092 Clear -12 1033 79 10000 1.03 350 21:32 31.12.2021
6093 Clear -12 1034 61 10000 0.51 80 19:43 31.12.2021
6094 Clear -11 1033 62 10000 0.51 110 18:47 31.12.2021
6095 Clear -11 1033 62 10000 1.54 300 17:49 31.12.2021
6096 Clear -11 1033 62 10000 1.54 300 17:22 31.12.2021
6097 Clear -10 1033 48 10000 2.06 10 16:46 31.12.2021
6098 Clear -9 1033 45 10000 2.57 330 15:59 31.12.2021
6099 Clear -9 1033 45 10000 2.57 330 15:40 31.12.2021
6100 Clear -9 1033 45 10000 2.57 330 15:19 31.12.2021
6101 Clear -8 1033 41 10000 5.14 330 14:33 31.12.2021
6102 Clear -8 1032 45 10000 3.6 340 13:44 31.12.2021
6103 Clear -8 1032 45 10000 3.6 330 12:49 31.12.2021
6104 Clear -8 1032 45 10000 3.6 330 12:19 31.12.2021
6105 Clear -8 1032 38 10000 1.54 290 11:33 31.12.2021
6106 Clear -6 1032 32 10000 3.6 320 10:41 31.12.2021
6107 Clear -5 1032 27 10000 4.43 310 10:23 31.12.2021
6108 Clear -5 1031 28 10000 4.12 330 09:33 31.12.2021
6109 Clear -4 1032 24 10000 6.17 320 08:49 31.12.2021
6110 Clear -3 1032 24 10000 5.14 320 07:49 31.12.2021
6111 Clear -9 1032 48 10000 3.09 340 00:47 31.12.2021
6112 Clear -8 1030 38 10000 5.66 310 22:50 30.12.2021
6113 Clear -8 1030 38 10000 5.66 310 22:26 30.12.2021
6114 Clear -7 1030 41 10000 4.12 310 21:37 30.12.2021
6115 Clear -7 1030 38 10000 4.12 310 20:49 30.12.2021
6116 Clear -7 1030 38 10000 4.12 310 20:28 30.12.2021
6117 Clear -6 1029 35 10000 7.72 300 19:48 30.12.2021
6118 Clear -6 1029 35 10000 7.72 300 19:18 30.12.2021
6119 Clear -6 1029 38 10000 7.72 310 18:21 30.12.2021
6120 Clear -5 1028 46 10000 5.14 300 16:37 30.12.2021
6121 Clear -5 1029 40 10000 5.66 320 15:53 30.12.2021
6122 Clear -5 1028 54 10000 4.63 320 14:49 30.12.2021
6123 Clear -5 1028 54 10000 4.63 320 14:30 30.12.2021
6124 Clear -4 1027 50 10000 7.2 330 13:24 30.12.2021
6125 Clear -3 1026 46 10000 7.2 330 11:35 30.12.2021
6126 Clear -2 1025 54 10000 4.63 300 10:27 30.12.2021
6127 Clear -2 1024 54 10000 3.6 270 09:27 30.12.2021
6128 Clouds -1 1024 37 10000 4.12 250 06:55 30.12.2021
6129 Clouds -1 1025 29 10000 2.57 330 04:42 30.12.2021
6130 Clear -1 1026 34 10000 0.51 180 03:40 30.12.2021
6131 Clear -4 1026 58 10000 0.51 310 01:56 30.12.2021
6132 Clear -7 1026 68 10000 2.06 260 23:36 29.12.2021
6133 Clear -5 1025 37 10000 4.68 302 22:32 29.12.2021
6134 Clear -5 1025 63 10000 1.54 300 21:54 29.12.2021
6135 Clear -5 1024 63 10000 3.09 290 20:56 29.12.2021
6136 Clear -5 1024 63 10000 3.09 290 20:18 29.12.2021
6137 Clear -4 1024 63 10000 4.12 310 19:31 29.12.2021
6138 Clear -3 1024 44 10000 5.53 302 18:30 29.12.2021
6139 Clear -4 1023 68 10000 3.09 330 17:30 29.12.2021
6140 Clear -3 1022 63 10000 4.12 310 16:58 29.12.2021
6141 Clear -2 1022 63 10000 4.12 310 16:19 29.12.2021
6142 Clear -1 1021 64 10000 4.12 290 14:47 29.12.2021
6143 Clouds 1 1020 60 8000 7.2 290 12:50 29.12.2021
6144 Clouds 1 1020 60 8000 7.2 290 12:27 29.12.2021
6145 Clouds 3 1018 65 6000 7.2 280 10:53 29.12.2021
6146 Clouds 5 1017 56 7000 6.69 250 08:56 29.12.2021
6147 Clouds 7 1017 42 9000 6.17 280 06:49 29.12.2021
6148 Clouds 7 1017 42 9000 6.17 280 06:28 29.12.2021
6149 Clouds 7 1017 49 7000 5.66 270 05:50 29.12.2021
6150 Clouds 2 1019 70 6000 3.09 160 03:46 29.12.2021
6151 Clouds -3 1020 86 6000 2.06 150 00:28 29.12.2021
6152 Rain -3 1020 83 5000 2.06 160 23:56 28.12.2021
6153 Mist -2 1020 86 5000 2.06 160 22:56 28.12.2021
6154 Mist -2 1020 86 5000 2.06 160 22:24 28.12.2021
6155 Mist -3 1020 86 5000 1.54 110 21:54 28.12.2021
6156 Mist -3 1021 80 5000 1.54 170 20:54 28.12.2021
6157 Mist -4 1022 86 5000 1.54 160 19:52 28.12.2021
6158 Clouds -5 1023 86 6000 2.06 160 18:53 28.12.2021
6159 Clouds -5 1023 86 6000 2.06 160 18:24 28.12.2021
6160 Clouds -6 1023 86 6000 1.54 190 17:25 28.12.2021
6161 Clouds -5 1024 79 6000 1.54 160 15:53 28.12.2021
6162 Clouds -5 1024 79 6000 1.54 160 15:29 28.12.2021
6163 Clouds -4 1024 74 7000 1.54 160 14:54 28.12.2021
6164 Clouds -4 1024 74 7000 1.54 160 14:22 28.12.2021
6165 Clouds -3 1025 74 7000 1.54 150 13:54 28.12.2021
6166 Clouds -3 1025 74 7000 1.54 150 13:33 28.12.2021
6167 Clouds -3 1025 68 8000 1.54 160 12:55 28.12.2021
6168 Clouds -3 1025 68 8000 1.54 160 12:18 28.12.2021
6169 Clouds 0 1026 55 9000 2.06 120 09:30 28.12.2021
6170 Clouds 0 1026 55 9000 2.06 120 07:33 28.12.2021
6171 Clouds -3 1030 64 8000 2.06 110 03:28 28.12.2021
6172 Mist -10 1030 92 3000 0.51 330 23:26 27.12.2021
6173 Fog -10 1030 92 2000 1.03 330 22:20 27.12.2021
6174 Fog -10 1030 92 2000 0.51 320 21:29 27.12.2021
6175 Fog -11 1030 92 3000 1.54 320 20:24 27.12.2021
6176 Mist -10 1030 92 4000 1.03 20 19:47 27.12.2021
6177 Mist -10 1030 92 5000 1.54 320 18:56 27.12.2021
6178 Clear -9 1030 92 7000 1.03 270 17:50 27.12.2021
6179 Clear -9 1030 92 7000 1.03 270 17:27 27.12.2021
6180 Clear -9 1030 92 10000 0.51 20 15:53 27.12.2021
6181 Clear -7 1030 79 10000 0.51 170 14:35 27.12.2021
6182 Clouds -5 1030 68 10000 1.54 170 13:59 27.12.2021
6183 Clouds -5 1030 68 10000 1.54 60 12:49 27.12.2021
6184 Clouds -5 1029 68 10000 2.06 160 10:37 27.12.2021
6185 Clouds -4 1028 83 10000 1.03 120 10:18 27.12.2021
6186 Snow -4 1029 68 10000 3.09 150 08:41 27.12.2021
6187 Snow -4 1029 63 10000 2.57 160 07:33 27.12.2021
6188 Clear -7 1032 42 10000 2.57 150 02:29 27.12.2021
6189 Clear -13 1033 61 10000 1.54 150 00:29 27.12.2021
6190 Clear -13 1033 61 10000 2.06 140 23:42 26.12.2021
6191 Clear -14 1033 78 10000 0.51 140 22:49 26.12.2021
6192 Clear -14 1033 78 10000 1.03 240 21:30 26.12.2021
6193 Clear -14 1033 72 10000 0 0 19:52 26.12.2021
6194 Clear -13 1033 66 10000 0.51 10 18:25 26.12.2021
6195 Clear -13 1033 61 10000 2.06 350 17:44 26.12.2021
6196 Clear -11 1034 56 10000 3.09 330 15:31 26.12.2021
6197 Clear -10 1034 52 10000 5.66 340 13:43 26.12.2021
6198 Clear -10 1034 52 10000 5.66 340 13:21 26.12.2021
6199 Clear -10 1034 52 10000 3.6 330 12:34 26.12.2021
6200 Clear -10 1033 41 10000 5.14 330 10:48 26.12.2021
6201 Clear -8 1033 35 10000 7.2 330 09:30 26.12.2021
6202 Clear -7 1032 30 10000 6.69 310 08:44 26.12.2021
6203 Clear -7 1032 30 10000 6.69 310 08:23 26.12.2021
6204 Clear -13 1037 47 10000 3.6 340 01:36 26.12.2021
6205 Clear -15 1037 61 10000 3.09 320 00:20 26.12.2021
6206 Clear -15 1036 56 10000 3.6 330 23:28 25.12.2021
6207 Clear -15 1036 61 10000 4.12 310 22:29 25.12.2021
6208 Clear -15 1036 56 10000 3.6 320 21:25 25.12.2021
6209 Clear -14 1036 47 10000 5.14 320 19:28 25.12.2021
6210 Clear -14 1035 47 10000 5.66 320 18:57 25.12.2021
6211 Clear -14 1035 47 10000 5.66 320 18:25 25.12.2021
6212 Clear -14 1036 51 10000 3.6 320 16:49 25.12.2021
6213 Clear -14 1036 47 10000 6.17 320 15:30 25.12.2021
6214 Clear -13 1035 43 10000 6.69 340 13:47 25.12.2021
6215 Clear -13 1035 47 10000 7.2 330 12:18 25.12.2021
6216 Clear -11 1034 44 10000 6.69 310 10:32 25.12.2021
6217 Clear -10 1033 37 10000 5.14 310 09:48 25.12.2021
6218 Clear -9 1032 32 10000 5.66 320 05:39 25.12.2021
6219 Clear -12 1033 37 10000 7.2 320 01:31 25.12.2021
6220 Clear -13 1033 43 10000 6.69 320 00:18 25.12.2021
6221 Clear -11 1030 48 10000 7.2 310 21:46 24.12.2021
6222 Clear -9 1029 44 10000 6.69 310 19:26 24.12.2021
6223 Clear -9 1028 41 10000 6.17 320 18:34 24.12.2021
6224 Clear -7 1028 41 10000 8.23 320 16:40 24.12.2021
6225 Clear -7 1027 49 10000 6.69 310 15:49 24.12.2021
6226 Clear -6 1027 49 10000 6.69 310 15:20 24.12.2021
6227 Clear -6 1026 58 10000 5.66 310 14:31 24.12.2021
6228 Clear -5 1026 58 10000 6.69 320 13:45 24.12.2021
6229 Clear -4 1025 58 10000 7.2 320 12:55 24.12.2021
6230 Clear -4 1025 58 10000 7.2 320 12:35 24.12.2021
6231 Clear -3 1024 58 10000 5.14 330 11:42 24.12.2021
6232 Clear -3 1024 58 10000 5.14 330 11:19 24.12.2021
6233 Clear -2 1024 50 10000 6.69 320 10:33 24.12.2021
6234 Snow 1 1022 69 10000 4.12 330 08:38 24.12.2021
6235 Mist 2 1022 75 8000 5.14 320 07:58 24.12.2021
6236 Mist 3 1022 80 5000 4.12 320 06:18 24.12.2021
6237 Clouds 1 1022 69 10000 3.6 330 00:21 24.12.2021
6238 Clouds 1 1022 75 10000 2.06 340 23:33 23.12.2021
6239 Clouds 1 1022 80 9000 1.54 340 22:50 23.12.2021
6240 Clouds 1 1022 80 9000 1.54 340 22:22 23.12.2021
6241 Clouds 0 1022 80 9000 1.54 330 21:39 23.12.2021
6242 Snow 0 1022 86 9000 0.51 330 20:27 23.12.2021
6243 Clouds -1 1023 80 9000 1.03 340 19:28 23.12.2021
6244 Snow -1 1023 80 10000 1.03 70 17:58 23.12.2021
6245 Clear -1 1023 80 10000 1.03 70 17:29 23.12.2021
6246 Clear -1 1023 80 10000 2.06 350 16:26 23.12.2021
6247 Clear -1 1023 74 10000 2.06 120 15:33 23.12.2021
6248 Clear 0 1024 74 10000 0.51 310 14:59 23.12.2021
6249 Clear 0 1024 74 10000 0.51 310 14:39 23.12.2021
6250 Clear 1 1024 64 10000 1.03 290 13:25 23.12.2021
6251 Clear 0 1024 64 10000 1.54 310 11:27 23.12.2021
6252 Clear 4 1024 42 10000 2.06 350 09:53 23.12.2021
6253 Clear 5 1024 42 10000 2.06 350 09:33 23.12.2021
6254 Clear 7 1024 36 10000 2.06 360 08:28 23.12.2021
6255 Clear 6 1025 31 10000 1.03 340 05:30 23.12.2021
6256 Clear -5 1026 86 10000 1.54 310 00:40 23.12.2021
6257 Clear -5 1025 93 8000 1.03 330 22:50 22.12.2021
6258 Clear -4 1025 93 10000 1.54 320 21:59 22.12.2021
6259 Clear -4 1025 93 10000 1.54 320 21:30 22.12.2021
6260 Clear -5 1024 93 10000 0.51 330 20:58 22.12.2021
6261 Clear -5 1024 93 10000 0.51 330 20:40 22.12.2021
6262 Clear -5 1025 86 10000 0.51 160 19:42 22.12.2021
6263 Clear -4 1025 86 10000 1.54 340 18:25 22.12.2021
6264 Clear -4 1025 86 10000 1.54 330 17:38 22.12.2021
6265 Clear -3 1025 80 10000 1.03 310 15:50 22.12.2021
6266 Clear -1 1025 80 10000 1.03 310 13:57 22.12.2021
6267 Clear 0 1024 69 10000 0.51 350 12:47 22.12.2021
6268 Clear 0 1024 74 10000 1.03 300 11:37 22.12.2021
6269 Clear 4 1023 41 10000 2.06 350 09:43 22.12.2021
6270 Clear 8 1022 29 10000 2.06 340 07:56 22.12.2021
6271 Clear 7 1023 29 10000 1.03 240 05:51 22.12.2021
6272 Clear 7 1023 29 10000 1.03 240 05:33 22.12.2021
6273 Clear 5 1024 33 10000 1.54 270 04:55 22.12.2021
6274 Clear 5 1024 33 10000 1.54 270 04:35 22.12.2021
6275 Clear 3 1024 35 10000 1.54 340 03:34 22.12.2021
6276 Clear 0 1024 44 10000 2.06 40 02:25 22.12.2021
6277 Clear -5 1023 68 10000 2.57 340 23:47 21.12.2021
6278 Clear -4 1023 68 10000 1.03 300 22:29 21.12.2021
6279 Clear -4 1022 68 10000 1.54 320 21:53 21.12.2021
6280 Clear -4 1022 68 10000 1.54 320 21:26 21.12.2021
6281 Clear -3 1022 59 10000 2.57 320 20:24 21.12.2021
6282 Clear -3 1023 63 10000 3.09 310 19:52 21.12.2021
6283 Clear -3 1023 63 10000 3.09 310 19:26 21.12.2021
6284 Clear -3 1022 68 10000 3.09 320 18:22 21.12.2021
6285 Clear -3 1022 63 10000 2.57 320 17:51 21.12.2021
6286 Clear -2 1022 54 10000 1.54 290 16:47 21.12.2021
6287 Clear -1 1021 59 10000 2.06 320 15:33 21.12.2021
6288 Clear 0 1021 51 10000 2.57 330 13:51 21.12.2021
6289 Clear 0 1021 51 10000 2.57 330 13:32 21.12.2021
6290 Clear 2 1020 41 10000 2.06 330 12:20 21.12.2021
6291 Clear 5 1019 33 10000 3.6 310 10:37 21.12.2021
6292 Clear 7 1018 31 10000 5.14 330 09:35 21.12.2021
6293 Clear 9 1017 34 10000 4.63 340 08:30 21.12.2021
6294 Clear 9 1016 34 10000 5.14 320 07:32 21.12.2021
6295 Clear 10 1016 43 10000 5.14 320 06:54 21.12.2021
6296 Fog 7 1017 87 100 3.09 330 03:20 21.12.2021
6297 Fog 2 1016 100 1300 1.03 280 01:18 21.12.2021
6298 Fog 0 1015 100 800 0.51 340 23:34 20.12.2021
6299 Fog 0 1015 100 800 0.51 340 23:34 20.12.2021
6300 Fog 0 1014 100 100 1.03 170 22:34 20.12.2021
6301 Fog 2 1015 96 100 0.51 160 21:48 20.12.2021
6302 Fog 2 1015 96 500 0.51 50 21:24 20.12.2021
6303 Fog 2 1015 100 800 1.03 100 20:48 20.12.2021
6304 Fog 2 1015 93 800 1.54 140 19:55 20.12.2021
6305 Fog 2 1015 93 1100 1.54 150 19:31 20.12.2021
6306 Fog 2 1015 100 2500 2.57 150 18:54 20.12.2021
6307 Fog 3 1015 93 2500 2.57 140 17:55 20.12.2021
6308 Fog 4 1015 93 2500 2.57 140 17:25 20.12.2021
6309 Fog 3 1016 93 2500 1.54 200 16:42 20.12.2021
6310 Mist 3 1015 93 4500 2.57 140 15:51 20.12.2021
6311 Clouds 5 1015 87 6000 2.06 130 14:53 20.12.2021
6312 Clouds 5 1015 87 6000 0.51 160 13:18 20.12.2021
6313 Clouds 8 1015 76 9000 2.06 210 11:19 20.12.2021
6314 Clouds 9 1015 66 9000 2.57 210 09:48 20.12.2021
6315 Clouds 9 1015 66 9000 2.57 210 09:29 20.12.2021
6316 Clouds 11 1015 58 9000 4.12 230 08:42 20.12.2021
6317 Clouds 11 1015 58 8000 5.66 230 07:50 20.12.2021
6318 Clouds 11 1015 58 8000 5.66 230 07:30 20.12.2021
6319 Clear 10 1016 54 10000 4.12 220 04:24 20.12.2021
6320 Clouds 0 1018 80 10000 2.57 130 23:58 19.12.2021
6321 Clouds 1 1018 80 10000 2.06 140 22:45 19.12.2021
6322 Clouds -1 1018 80 10000 3.09 140 21:50 19.12.2021
6323 Clouds -1 1018 80 10000 3.09 140 21:29 19.12.2021
6324 Clouds -2 1019 86 10000 3.09 130 20:31 19.12.2021
6325 Clouds 0 1019 86 10000 2.57 140 19:49 19.12.2021
6326 Clouds -2 1019 86 10000 3.09 150 18:59 19.12.2021
6327 Clouds -3 1019 86 10000 3.09 150 18:29 19.12.2021
6328 Clouds -1 1019 80 10000 2.57 140 17:52 19.12.2021
6329 Clouds -1 1019 69 10000 1.38 155 17:19 19.12.2021
6330 Clouds -1 1020 80 10000 2.06 150 16:26 19.12.2021
6331 Clear -1 1020 74 10000 1.03 120 15:31 19.12.2021
6332 Clear -1 1020 80 10000 1.54 160 14:59 19.12.2021
6333 Clear -1 1020 80 10000 1.54 160 14:36 19.12.2021
6334 Clear -1 1020 74 10000 2.57 150 13:22 19.12.2021
6335 Clear -1 1020 74 10000 3.09 140 12:36 19.12.2021
6336 Clear -1 1020 74 10000 3.09 140 12:18 19.12.2021
6337 Clear 0 1021 74 10000 2.57 160 11:18 19.12.2021
6338 Clear 2 1021 64 10000 2.06 180 10:25 19.12.2021
6339 Clear 3 1021 56 10000 3.09 200 09:37 19.12.2021
6340 Clear 4 1021 48 10000 2.57 180 07:50 19.12.2021
6341 Clear 2 1024 38 10000 1.03 190 04:45 19.12.2021
6342 Clear -8 1024 86 10000 0.51 330 00:56 19.12.2021
6343 Clear -8 1024 86 10000 0.51 330 00:28 19.12.2021
6344 Clear -6 1023 86 10000 2.06 260 22:32 18.12.2021
6345 Clear -4 1023 68 10000 2.06 290 21:54 18.12.2021
6346 Clear -4 1023 68 10000 2.06 290 21:54 18.12.2021
6347 Clear -4 1023 68 10000 2.06 290 21:34 18.12.2021
6348 Clouds -3 1022 63 10000 3.6 270 20:44 18.12.2021
6349 Clouds -3 1022 68 10000 3.09 300 19:51 18.12.2021
6350 Clouds -2 1022 68 10000 3.09 300 19:19 18.12.2021
6351 Clouds -2 1021 80 10000 3.09 330 18:19 18.12.2021
6352 Snow 0 1020 80 10000 8.23 330 17:47 18.12.2021
6353 Snow 0 1019 93 10000 5.14 270 16:25 18.12.2021
6354 Snow 0 1019 86 1500 7.72 300 15:26 18.12.2021
6355 Clear -2 1019 80 10000 5.66 140 14:32 18.12.2021
6356 Clear -3 1020 86 10000 5.66 140 13:18 18.12.2021
6357 Clear -4 1021 93 10000 5.14 140 11:21 18.12.2021
6358 Snow -3 1023 86 10000 4.12 140 09:37 18.12.2021
6359 Snow -3 1023 86 4000 2.06 140 08:42 18.12.2021
6360 Snow -3 1023 86 1600 3.09 160 08:18 18.12.2021
6361 Clear -7 1029 38 10000 1.54 210 01:48 18.12.2021
6362 Clear -11 1029 52 10000 1.03 110 00:27 18.12.2021
6363 Clear -11 1029 52 10000 1.54 80 23:37 17.12.2021
6364 Clear -10 1030 52 10000 2.06 360 21:55 17.12.2021
6365 Clear -10 1031 48 10000 2.57 340 20:51 17.12.2021
6366 Clear -10 1031 48 10000 2.57 340 20:28 17.12.2021
6367 Clear -9 1031 45 10000 4.63 330 18:54 17.12.2021
6368 Clear -9 1031 45 10000 4.63 330 18:21 17.12.2021
6369 Clear -9 1031 52 10000 3.09 320 17:25 17.12.2021
6370 Clear -9 1030 45 10000 6.69 310 16:29 17.12.2021
6371 Clear -9 1030 48 10000 5.14 330 15:51 17.12.2021
6372 Clear -9 1030 48 10000 5.14 330 15:18 17.12.2021
6373 Clear -9 1030 45 10000 4.12 320 14:34 17.12.2021
6374 Clear -9 1029 45 10000 7.2 330 12:38 17.12.2021
6375 Clear -9 1028 45 10000 7.72 330 11:18 17.12.2021
6376 Clouds -8 1026 45 10000 10.8 320 09:52 17.12.2021
6377 Clouds -6 1025 38 10000 9.26 320 08:58 17.12.2021
6378 Clouds -5 1025 38 10000 9.26 320 08:19 17.12.2021
6379 Clouds -3 1024 33 10000 9.77 320 04:58 17.12.2021
6380 Clear -4 1022 58 10000 7.2 310 00:58 17.12.2021
6381 Clouds -2 1022 37 10000 7.09 302 22:44 16.12.2021
6382 Clouds -2 1021 40 10000 6.8 301 22:22 16.12.2021
6383 Clear -2 1021 59 10000 7.2 310 21:43 16.12.2021
6384 Clear -1 1020 59 10000 6.17 300 20:42 16.12.2021
6385 Clear -1 1020 59 10000 6.17 300 20:21 16.12.2021
6386 Clear -1 1020 59 10000 6.17 300 20:21 16.12.2021
6387 Clear 1 1020 59 10000 7.2 310 19:27 16.12.2021
6388 Clear 2 1019 64 10000 5.14 280 18:31 16.12.2021
6389 Clear 3 1018 48 10000 4.12 300 17:46 16.12.2021
6390 Haze 4 1018 58 10000 5.66 310 16:24 16.12.2021
6391 Haze 4 1018 70 5000 5.14 310 15:38 16.12.2021
6392 Mist 5 1016 75 4000 4.63 320 13:45 16.12.2021
6393 Haze 6 1017 70 5000 2.06 230 11:56 16.12.2021
6394 Haze 6 1017 70 5000 2.06 230 11:18 16.12.2021
6395 Rain 6 1016 65 6000 2.06 240 10:39 16.12.2021
6396 Clouds 7 1017 57 9000 3.09 290 09:42 16.12.2021
6397 Clouds 9 1018 50 6000 2.06 320 06:23 16.12.2021
6398 Mist 6 1020 76 2500 0.51 40 03:54 16.12.2021
6399 Mist 2 1021 100 1600 1.54 340 23:36 15.12.2021
6400 Fog 2 1020 100 500 1.03 250 22:49 15.12.2021
6401 Fog 2 1020 100 500 1.03 250 22:20 15.12.2021
6402 Fog 2 1020 100 700 0.51 340 21:31 15.12.2021
6403 Fog 2 1021 93 700 1.54 70 20:36 15.12.2021
6404 Fog 2 1021 100 500 1.03 240 19:53 15.12.2021
6405 Fog 2 1021 100 800 0.51 310 18:41 15.12.2021
6406 Fog 2 1021 100 800 0.51 310 18:18 15.12.2021
6407 Fog 2 1021 100 1200 1.03 280 17:40 15.12.2021
6408 Fog 2 1021 93 2000 0.51 210 16:57 15.12.2021
6409 Fog 3 1021 93 2500 1.54 30 15:47 15.12.2021
6410 Fog 3 1021 93 2500 1.54 30 15:29 15.12.2021
6411 Fog 2 1021 93 2500 1.03 320 14:44 15.12.2021
6412 Mist 3 1021 100 2500 1.03 360 13:27 15.12.2021
6413 Mist 7 1020 81 2500 2.57 270 10:58 15.12.2021
6414 Haze 8 1020 81 3000 2.57 280 09:31 15.12.2021
6415 Haze 10 1019 62 3500 3.6 280 07:47 15.12.2021
6416 Mist 9 1021 81 2700 2.06 180 03:58 15.12.2021
6417 Mist 6 1018 93 4000 2.06 160 23:46 14.12.2021
6418 Mist 6 1018 93 5000 2.06 270 22:52 14.12.2021
6419 Mist 6 1018 93 5000 2.06 270 22:34 14.12.2021
6420 Rain 6 1018 81 9000 3.09 220 21:24 14.12.2021
6421 Mist 6 1018 93 5000 2.57 170 20:18 14.12.2021
6422 Mist 5 1019 93 5000 3.6 150 19:21 14.12.2021
6423 Mist 5 1019 93 5000 3.6 150 19:21 14.12.2021
6424 Mist 5 1019 93 5000 2.06 170 18:34 14.12.2021
6425 Mist 6 1019 93 5000 1.54 190 17:50 14.12.2021
6426 Mist 5 1019 93 5000 1.54 160 16:43 14.12.2021
6427 Mist 4 1019 93 5000 2.57 160 15:52 14.12.2021
6428 Clouds 5 1019 87 6000 2.06 170 13:33 14.12.2021
6429 Clouds 6 1019 87 8000 3.09 170 12:41 14.12.2021
6430 Clouds 5 1019 87 8000 3.09 150 11:24 14.12.2021
6431 Clouds 5 1019 81 8000 3.09 170 10:27 14.12.2021
6432 Clouds 6 1019 70 10000 2.06 170 09:53 14.12.2021
6433 Clear 7 1019 57 10000 2.06 190 08:29 14.12.2021
6434 Clear 7 1019 57 10000 2.57 210 07:59 14.12.2021
6435 Clear 7 1020 46 10000 2.06 180 05:52 14.12.2021
6436 Clouds 0 1023 60 10000 2.06 170 23:39 13.12.2021
6437 Clouds 0 1024 60 10000 2.06 170 21:54 13.12.2021
6438 Clouds 0 1024 60 10000 2.06 170 21:34 13.12.2021
6439 Clouds -1 1024 59 10000 1.54 180 20:50 13.12.2021
6440 Clouds 0 1024 59 10000 2.06 180 19:57 13.12.2021
6441 Snow -1 1024 59 10000 2.06 180 19:20 13.12.2021
6442 Clouds -1 1026 37 10000 0.77 139 17:26 13.12.2021
6443 Clouds -3 1026 64 10000 3.09 150 16:20 13.12.2021
6444 Clouds -2 1026 64 10000 2.57 150 15:38 13.12.2021
6445 Clouds -2 1026 51 10000 1.54 190 13:49 13.12.2021
6446 Clear -3 1027 32 10000 0.85 154 13:18 13.12.2021
6447 Clouds -3 1027 59 10000 0.51 70 12:19 13.12.2021
6448 Clear -2 1027 47 10000 2.06 250 11:35 13.12.2021
6449 Clear -1 1027 47 10000 1.54 250 10:53 13.12.2021
6450 Clear -1 1027 47 10000 1.54 250 10:21 13.12.2021
6451 Clear 2 1027 27 10000 4.63 330 07:57 13.12.2021
6452 Clear 1 1029 27 10000 4.12 350 05:36 13.12.2021
6453 Clear -1 1030 29 10000 2.57 360 03:30 13.12.2021
6454 Clear -7 1030 58 10000 3.09 320 23:27 12.12.2021
6455 Clear -6 1029 53 10000 2.06 320 21:50 12.12.2021
6456 Clear -5 1029 54 10000 4.12 340 20:28 12.12.2021
6457 Clear -4 1030 54 10000 2.57 330 18:43 12.12.2021
6458 Clear -3 1029 50 10000 5.14 320 17:45 12.12.2021
6459 Clear -3 1030 50 10000 4.12 320 16:28 12.12.2021
6460 Clear -3 1030 50 10000 4.63 320 15:50 12.12.2021
6461 Clear -3 1030 50 10000 4.63 320 15:26 12.12.2021
6462 Clear -3 1030 46 10000 4.63 320 14:36 12.12.2021
6463 Clear -3 1029 46 10000 5.66 320 13:26 12.12.2021
6464 Clear -3 1029 46 10000 6.17 320 12:30 12.12.2021
6465 Clear -2 1028 46 10000 6.17 310 11:44 12.12.2021
6466 Clear -1 1028 46 10000 6.17 310 11:22 12.12.2021
6467 Clear -1 1027 46 10000 5.14 310 10:28 12.12.2021
6468 Clear 1 1026 37 10000 7.2 300 09:38 12.12.2021
6469 Clear 2 1026 35 10000 6.69 300 08:33 12.12.2021
6470 Clear 4 1025 35 10000 7.2 320 06:19 12.12.2021
6471 Clear 6 1026 45 10000 5.14 310 04:56 12.12.2021
6472 Clouds 5 1027 56 9000 6.17 320 03:31 12.12.2021
6473 Mist 1 1025 80 5000 4.63 310 23:44 11.12.2021
6474 Mist 1 1024 100 2000 2.06 290 22:22 11.12.2021
6475 Fog -1 1024 100 400 2.06 320 21:52 11.12.2021
6476 Fog 0 1024 93 600 0 0 20:51 11.12.2021
6477 Fog 1 1024 100 1200 1.03 300 19:23 11.12.2021
6478 Mist 2 1024 93 1500 2.06 330 18:52 11.12.2021
6479 Clouds 4 1025 73 10000 1.26 301 18:21 11.12.2021
6480 Mist 3 1024 93 2000 0.51 290 17:20 11.12.2021
6481 Mist 3 1025 93 2500 0.51 320 15:53 11.12.2021
6482 Mist 3 1025 93 2500 0.51 320 15:27 11.12.2021
6483 Mist 4 1025 87 3500 1.03 300 12:50 11.12.2021
6484 Mist 4 1025 87 3500 1.03 300 12:50 11.12.2021
6485 Mist 5 1025 87 4200 1.03 330 11:25 11.12.2021
6486 Haze 6 1025 75 5000 1.54 10 09:45 11.12.2021
6487 Haze 9 1026 71 4500 4.12 340 07:49 11.12.2021
6488 Fog 4 1028 100 700 1.54 250 02:20 11.12.2021
6489 Fog 2 1027 100 100 1.54 330 23:58 10.12.2021
6490 Fog 2 1027 100 100 1.54 330 23:20 10.12.2021
6491 Fog 2 1027 100 500 1.54 330 21:56 10.12.2021
6492 Fog 2 1026 100 100 1.03 350 20:57 10.12.2021
6493 Fog 3 1027 93 100 1.03 290 19:21 10.12.2021
6494 Fog 3 1026 93 1200 1.03 20 17:59 10.12.2021
6495 Fog 3 1026 93 2000 1.03 40 16:56 10.12.2021
6496 Fog 3 1026 93 2000 1.03 40 16:19 10.12.2021
6497 Fog 3 1027 100 3000 0.51 10 15:39 10.12.2021
6498 Fog 3 1027 100 3000 0.51 10 15:20 10.12.2021
6499 Fog 4 1027 93 4000 0.51 230 13:51 10.12.2021
6500 Fog 4 1027 93 4000 0.51 230 13:26 10.12.2021
6501 Clouds 6 1026 70 10000 0.44 2 12:34 10.12.2021
6502 Clouds 7 1026 64 10000 1.3 292 11:28 10.12.2021
6503 Clouds 7 1026 64 10000 1.3 292 11:28 10.12.2021
6504 Clouds 6 1025 93 7000 2.57 300 09:54 10.12.2021
6505 Clouds 8 1024 87 7000 2.57 320 08:32 10.12.2021
6506 Clouds 8 1023 81 10000 1.03 90 05:57 10.12.2021
6507 Clouds 7 1025 76 6000 1.54 140 02:48 10.12.2021
6508 Clouds 6 1024 76 10000 1.54 190 23:54 09.12.2021
6509 Clouds 6 1024 76 10000 1.54 190 23:20 09.12.2021
6510 Clouds 6 1024 76 10000 1.03 140 22:24 09.12.2021
6511 Clouds 4 1024 87 7000 0.51 80 21:50 09.12.2021
6512 Rain 5 1024 81 7000 1.03 300 20:41 09.12.2021
6513 Rain 5 1024 81 7000 1.03 300 20:41 09.12.2021
6514 Clouds 4 1024 81 7000 1.03 300 20:20 09.12.2021
6515 Rain 4 1025 87 7000 1.54 320 19:21 09.12.2021
6516 Clouds 4 1025 87 8000 1.03 350 18:36 09.12.2021
6517 Clear 4 1025 87 10000 1.03 10 17:51 09.12.2021
6518 Clear 4 1025 87 10000 1.03 10 17:25 09.12.2021
6519 Clear 5 1026 81 10000 2.06 330 16:53 09.12.2021
6520 Clear 5 1026 75 10000 0.51 230 15:32 09.12.2021
6521 Rain 6 1027 70 10000 1.54 160 14:46 09.12.2021
6522 Clear 7 1026 61 10000 3.09 110 13:19 09.12.2021
6523 Clear 7 1027 66 10000 3.09 100 12:35 09.12.2021
6524 Clear 7 1027 61 10000 2.06 100 10:58 09.12.2021
6525 Clear 9 1028 53 10000 3.09 110 08:49 09.12.2021
6526 Clear 10 1029 51 10000 3.09 120 06:19 09.12.2021
6527 Mist 4 1032 81 5000 1.03 270 02:49 09.12.2021
6528 Fog -1 1031 100 3200 1.54 310 23:42 08.12.2021
6529 Fog -1 1031 100 3200 1.54 310 23:20 08.12.2021
6530 Mist -1 1031 93 2500 1.03 310 22:45 08.12.2021
6531 Mist 0 1031 93 3300 1.03 330 21:40 08.12.2021
6532 Mist -1 1031 100 3500 1.54 290 20:59 08.12.2021
6533 Mist 0 1031 93 4500 1.03 340 19:58 08.12.2021
6534 Mist 0 1031 93 4500 1.03 340 19:33 08.12.2021
6535 Mist 1 1031 93 5000 1.03 340 18:31 08.12.2021
6536 Mist 1 1031 93 5000 1.54 340 17:26 08.12.2021
6537 Clouds 3 1032 81 8000 0.51 20 15:46 08.12.2021
6538 Clouds 3 1032 81 8000 0.51 20 15:23 08.12.2021
6539 Clouds 2 1032 80 9000 2.06 50 14:26 08.12.2021
6540 Clear 5 1032 56 10000 1.54 310 10:53 08.12.2021
6541 Clear 5 1032 56 10000 1.54 310 10:28 08.12.2021
6542 Clear 11 1032 37 10000 1.54 330 08:54 08.12.2021
6543 Clear 10 1032 46 10000 0.69 325 07:21 08.12.2021
6544 Clear 1 1033 74 10000 0.53 38 01:21 08.12.2021
6545 Fog -1 1032 93 2500 1.03 280 23:31 07.12.2021
6546 Mist 0 1032 93 4500 1.54 350 21:26 07.12.2021
6547 Mist 0 1032 100 5000 1.54 350 20:30 07.12.2021
6548 Mist 0 1032 97 5000 2.06 330 19:48 07.12.2021
6549 Mist 1 1031 100 5000 1.54 20 18:37 07.12.2021
6550 Clear 0 1031 93 6000 1.03 320 17:27 07.12.2021
6551 Clear 1 1031 93 7000 0.51 330 16:57 07.12.2021
6552 Clear 1 1031 93 7000 0.51 330 16:27 07.12.2021
6553 Clear 4 1031 81 9000 1.03 360 14:50 07.12.2021
6554 Clear 3 1031 81 9000 2.06 330 13:46 07.12.2021
6555 Clear 6 1030 75 9000 1.03 340 12:41 07.12.2021
6556 Clear 6 1030 70 10000 2.06 330 11:23 07.12.2021
6557 Clear 9 1029 57 10000 2.06 300 09:43 07.12.2021
6558 Clear 12 1029 43 9000 2.57 310 07:52 07.12.2021
6559 Clear 11 1029 50 10000 1.54 310 05:54 07.12.2021
6560 Clear 11 1029 50 10000 1.54 310 05:26 07.12.2021
6561 Clear 11 1029 50 10000 1.54 310 05:26 07.12.2021
6562 Mist 0 1029 90 5000 0.51 310 23:38 06.12.2021
6563 Mist 0 1028 86 4500 0.51 330 22:41 06.12.2021
6564 Mist 0 1028 93 4500 0.51 330 21:59 06.12.2021
6565 Mist 0 1028 93 4500 0.51 330 21:36 06.12.2021
6566 Mist -1 1028 93 5000 2.06 330 20:33 06.12.2021
6567 Mist -1 1028 93 5000 2.06 330 20:33 06.12.2021
6568 Clouds 1 1028 86 6000 1.54 10 19:25 06.12.2021
6569 Clouds 1 1028 80 6000 2.06 330 18:55 06.12.2021
6570 Clouds 1 1028 87 7000 1.03 340 17:55 06.12.2021
6571 Clouds 2 1028 87 7000 1.03 340 17:34 06.12.2021
6572 Clouds 3 1028 75 7000 1.03 300 15:52 06.12.2021
6573 Rain 3 1027 75 9000 2.06 340 14:46 06.12.2021
6574 Clouds 4 1027 65 9000 1.03 340 13:35 06.12.2021
6575 Clouds 4 1027 70 9000 2.06 300 12:38 06.12.2021
6576 Clear 6 1026 63 10000 1.54 320 10:29 06.12.2021
6577 Clear 11 1026 40 10000 1.54 10 07:41 06.12.2021
6578 Clear 7 1028 49 10000 0.51 40 03:52 06.12.2021
6579 Clear -3 1027 93 6000 1.03 350 22:28 05.12.2021
6580 Clear -3 1027 93 6000 1.03 350 22:28 05.12.2021
6581 Clear -2 1027 93 7000 0.51 300 21:26 05.12.2021
6582 Clear -2 1027 93 8000 1.03 330 20:54 05.12.2021
6583 Clear -2 1027 93 8000 1.03 330 20:18 05.12.2021
6584 Clear -2 1027 86 8000 1.03 300 19:26 05.12.2021
6585 Clear -3 1027 93 8000 1.54 330 18:31 05.12.2021
6586 Clear -2 1027 86 9000 0.51 320 17:52 05.12.2021
6587 Clear -2 1027 86 9000 0.51 320 17:34 05.12.2021
6588 Clear -2 1028 93 10000 0.51 310 16:36 05.12.2021
6589 Clear -2 1028 93 10000 0.51 310 16:18 05.12.2021
6590 Clear -1 1028 77 10000 1.03 320 14:48 05.12.2021
6591 Clear 0 1028 80 10000 1.03 320 14:30 05.12.2021
6592 Clear -1 1028 80 10000 1.03 310 13:35 05.12.2021
6593 Clear 1 1028 64 10000 0.51 350 12:45 05.12.2021
6594 Clear 1 1028 64 10000 0.51 350 12:26 05.12.2021
6595 Clear 2 1028 56 10000 1.54 320 11:44 05.12.2021
6596 Clear 4 1028 48 10000 2.06 290 10:25 05.12.2021
6597 Clear 6 1028 35 10000 0.51 340 09:41 05.12.2021
6598 Clear 9 1029 31 10000 1.03 20 06:30 05.12.2021
6599 Clear -1 1031 69 10000 1.54 320 01:29 05.12.2021
6600 Clear -3 1030 74 10000 1.54 360 22:45 04.12.2021
6601 Clear -4 1029 80 10000 2.06 310 21:38 04.12.2021
6602 Clear -4 1029 80 10000 1.54 300 20:47 04.12.2021
6603 Clear -3 1029 77 10000 1.54 330 19:54 04.12.2021
6604 Clear -3 1029 77 10000 1.54 330 19:24 04.12.2021
6605 Clear -3 1029 64 10000 2.06 310 17:52 04.12.2021
6606 Clear -3 1029 64 10000 2.06 310 17:32 04.12.2021
6607 Clear -3 1029 68 10000 1.54 330 16:47 04.12.2021
6608 Clear -3 1029 68 10000 1.54 330 16:27 04.12.2021
6609 Clear 0 1028 47 10000 3.6 320 12:57 04.12.2021
6610 Clear 1 1027 44 10000 2.57 310 11:40 04.12.2021
6611 Clear 1 1027 31 10000 2.94 311 11:18 04.12.2021
6612 Clear 4 1026 38 10000 4.12 320 09:44 04.12.2021
6613 Clear 6 1026 39 10000 3.6 330 08:35 04.12.2021
6614 Clear 6 1026 42 10000 1.54 340 04:43 04.12.2021
6615 Clear 4 1026 42 10000 2.06 170 03:36 04.12.2021
6616 Clear -5 1024 93 10000 0.51 90 23:47 03.12.2021
6617 Clear -5 1024 83 10000 1.03 200 22:53 03.12.2021
6618 Clear -4 1024 74 10000 0.51 60 21:57 03.12.2021
6619 Clear -4 1024 74 10000 0.51 60 21:23 03.12.2021
6620 Clear -4 1024 80 10000 0.51 120 20:42 03.12.2021
6621 Clear -4 1024 80 10000 1.54 220 19:28 03.12.2021
6622 Clear -3 1024 64 10000 0.51 220 18:23 03.12.2021
6623 Clear -3 1024 63 10000 1.54 150 17:31 03.12.2021
6624 Clear 0 1022 55 10000 3.09 330 13:38 03.12.2021
6625 Clear 0 1022 55 10000 3.6 300 12:44 03.12.2021
6626 Clear 0 1022 50 10000 2.57 310 11:23 03.12.2021
6627 Clouds 2 1020 44 10000 4.63 320 09:22 03.12.2021
6628 Clouds 3 1020 38 10000 5.14 330 08:18 03.12.2021
6629 Clear 5 1019 30 10000 6.17 310 06:41 03.12.2021
6630 Clear 3 1018 60 10000 3.09 290 00:49 03.12.2021
6631 Clear 2 1017 60 10000 2.06 270 23:54 02.12.2021
6632 Clear 2 1017 60 10000 2.06 270 23:33 02.12.2021
6633 Clouds 3 1015 72 10000 3.6 320 21:41 02.12.2021
6634 Clouds 4 1014 73 10000 3.09 320 20:46 02.12.2021
6635 Clouds 3 1014 81 10000 3.09 320 20:23 02.12.2021
6636 Rain 4 1014 87 8000 3.6 290 19:22 02.12.2021
6637 Clear 6 1013 65 10000 3.09 250 16:53 02.12.2021
6638 Clear 4 1014 81 10000 2.06 150 15:41 02.12.2021
6639 Clear 4 1015 84 10000 1.54 170 14:53 02.12.2021
6640 Clouds 4 1015 87 10000 3.6 170 13:39 02.12.2021
6641 Rain 5 1015 81 10000 4.12 200 12:46 02.12.2021
6642 Clouds 5 1015 70 10000 4.63 180 11:45 02.12.2021
6643 Clear 5 1015 70 10000 4.12 170 09:27 02.12.2021
6644 Clouds 5 1017 65 10000 3.78 223 07:20 02.12.2021
6645 Clear -1 1022 61 10000 2.57 160 01:38 02.12.2021
6646 Clear -6 1022 74 10000 2.06 150 00:50 02.12.2021
6647 Clear -7 1023 76 10000 1.54 170 22:32 01.12.2021
6648 Clear -5 1023 77 10000 1.54 190 21:44 01.12.2021
6649 Clear -6 1023 86 10000 0.51 300 20:24 01.12.2021
6650 Clear -4 1024 70 10000 1.54 40 19:46 01.12.2021
6651 Clear -5 1024 79 10000 0.51 320 18:55 01.12.2021
6652 Clear -4 1025 68 10000 0.51 130 17:31 01.12.2021
6653 Clear -4 1025 61 10000 0.51 300 16:34 01.12.2021
6654 Clear -2 1025 53 10000 1.54 240 14:35 01.12.2021
6655 Clear -2 1025 54 10000 3.09 310 13:37 01.12.2021
6656 Clouds 0 1024 44 10000 4.12 300 10:45 01.12.2021
6657 Clouds 0 1024 44 10000 4.12 300 10:27 01.12.2021
6658 Clouds 1 1023 39 10000 7.72 300 08:52 01.12.2021
6659 Clouds 1 1022 36 10000 8.23 330 07:59 01.12.2021
6660 Clouds 1 1022 36 10000 8.23 330 07:31 01.12.2021
6661 Clouds 0 1023 43 10000 8.23 320 03:57 01.12.2021
6662 Clouds 0 1023 43 10000 8.23 320 03:27 01.12.2021
6663 Clouds -2 1021 50 10000 6.17 310 00:34 01.12.2021
6664 Clouds -2 1020 48 10000 7.72 310 23:29 30.11.2021
6665 Clouds -2 1019 49 10000 7.2 310